<?xml version="1.0" encoding="UTF-8" standalone="no" ?>
<gpx xmlns="http://www.topografix.com/GPX/1/1" xmlns:xsi="http://www.w3.org/2001/XMLSchema-instance" xsi:schemaLocation="http://www.topografix.com/GPX/1/1 http://www.topografix.com/GPX/1/1/gpx.xsd" version="1.1" creator="VisuGPX - https://www.visugpx.com">
  <metadata>
    <name>Sortie Moto</name>
  </metadata>
  <trk>
    <name><![CDATA[Journal actif: 2020-05-18 15:42]]></name>
    <trkseg>
      <trkpt lat="46.06812" lon="6.30916">
        <ele>572.12</ele>
        <time>2020-05-18T13:42:09Z</time>
      </trkpt>
      <trkpt lat="46.06814" lon="6.30929">
        <ele>570.68</ele>
        <time>2020-05-18T13:42:10Z</time>
      </trkpt>
      <trkpt lat="46.06795" lon="6.30983">
        <ele>566.35</ele>
        <time>2020-05-18T13:42:12Z</time>
      </trkpt>
      <trkpt lat="46.06781" lon="6.31028">
        <ele>564.91</ele>
        <time>2020-05-18T13:42:15Z</time>
      </trkpt>
      <trkpt lat="46.06773" lon="6.31058">
        <ele>560.59</ele>
        <time>2020-05-18T13:42:19Z</time>
      </trkpt>
      <trkpt lat="46.06756" lon="6.31118">
        <ele>552.9</ele>
        <time>2020-05-18T13:42:24Z</time>
      </trkpt>
      <trkpt lat="46.06753" lon="6.31128">
        <ele>553.38</ele>
        <time>2020-05-18T13:42:25Z</time>
      </trkpt>
      <trkpt lat="46.0675" lon="6.31137">
        <ele>550.49</ele>
        <time>2020-05-18T13:42:27Z</time>
      </trkpt>
      <trkpt lat="46.06747" lon="6.31147">
        <ele>550.49</ele>
        <time>2020-05-18T13:42:28Z</time>
      </trkpt>
      <trkpt lat="46.06729" lon="6.31197">
        <ele>554.34</ele>
        <time>2020-05-18T13:42:32Z</time>
      </trkpt>
      <trkpt lat="46.06727" lon="6.31202">
        <ele>555.3</ele>
        <time>2020-05-18T13:42:33Z</time>
      </trkpt>
      <trkpt lat="46.06724" lon="6.31208">
        <ele>556.26</ele>
        <time>2020-05-18T13:42:34Z</time>
      </trkpt>
      <trkpt lat="46.06723" lon="6.3121">
        <ele>556.26</ele>
        <time>2020-05-18T13:42:35Z</time>
      </trkpt>
      <trkpt lat="46.06722" lon="6.31214">
        <ele>557.7</ele>
        <time>2020-05-18T13:42:36Z</time>
      </trkpt>
      <trkpt lat="46.06722" lon="6.31214">
        <ele>557.7</ele>
        <time>2020-05-18T13:42:37Z</time>
      </trkpt>
      <trkpt lat="46.06724" lon="6.31233">
        <ele>557.22</ele>
        <time>2020-05-18T13:42:38Z</time>
      </trkpt>
      <trkpt lat="46.06718" lon="6.31253">
        <ele>556.74</ele>
        <time>2020-05-18T13:42:39Z</time>
      </trkpt>
      <trkpt lat="46.06718" lon="6.31253">
        <ele>557.22</ele>
        <time>2020-05-18T13:42:40Z</time>
      </trkpt>
      <trkpt lat="46.06719" lon="6.31261">
        <ele>556.26</ele>
        <time>2020-05-18T13:42:41Z</time>
      </trkpt>
      <trkpt lat="46.06723" lon="6.31268">
        <ele>555.78</ele>
        <time>2020-05-18T13:42:42Z</time>
      </trkpt>
      <trkpt lat="46.06728" lon="6.3127">
        <ele>555.78</ele>
        <time>2020-05-18T13:42:43Z</time>
      </trkpt>
      <trkpt lat="46.06733" lon="6.31283">
        <ele>555.3</ele>
        <time>2020-05-18T13:42:44Z</time>
      </trkpt>
      <trkpt lat="46.06737" lon="6.31293">
        <ele>554.82</ele>
        <time>2020-05-18T13:42:45Z</time>
      </trkpt>
      <trkpt lat="46.06742" lon="6.31306">
        <ele>554.34</ele>
        <time>2020-05-18T13:42:46Z</time>
      </trkpt>
      <trkpt lat="46.06746" lon="6.31319">
        <ele>554.34</ele>
        <time>2020-05-18T13:42:47Z</time>
      </trkpt>
      <trkpt lat="46.0675" lon="6.31334">
        <ele>554.34</ele>
        <time>2020-05-18T13:42:48Z</time>
      </trkpt>
      <trkpt lat="46.0675" lon="6.31336">
        <ele>553.86</ele>
        <time>2020-05-18T13:42:49Z</time>
      </trkpt>
      <trkpt lat="46.0675" lon="6.31336">
        <ele>553.86</ele>
        <time>2020-05-18T13:42:51Z</time>
      </trkpt>
      <trkpt lat="46.0675" lon="6.31342">
        <ele>553.86</ele>
        <time>2020-05-18T13:42:53Z</time>
      </trkpt>
      <trkpt lat="46.06752" lon="6.31377">
        <ele>555.3</ele>
        <time>2020-05-18T13:42:57Z</time>
      </trkpt>
      <trkpt lat="46.06754" lon="6.31388">
        <ele>555.3</ele>
        <time>2020-05-18T13:42:59Z</time>
      </trkpt>
      <trkpt lat="46.0679" lon="6.31473">
        <ele>555.3</ele>
        <time>2020-05-18T13:43:04Z</time>
      </trkpt>
      <trkpt lat="46.06795" lon="6.31488">
        <ele>555.3</ele>
        <time>2020-05-18T13:43:06Z</time>
      </trkpt>
      <trkpt lat="46.06857" lon="6.31679">
        <ele>552.9</ele>
        <time>2020-05-18T13:43:19Z</time>
      </trkpt>
      <trkpt lat="46.06893" lon="6.31798">
        <ele>536.07</ele>
        <time>2020-05-18T13:43:30Z</time>
      </trkpt>
      <trkpt lat="46.06899" lon="6.31818">
        <ele>533.19</ele>
        <time>2020-05-18T13:43:32Z</time>
      </trkpt>
      <trkpt lat="46.06942" lon="6.31954">
        <ele>522.61</ele>
        <time>2020-05-18T13:43:44Z</time>
      </trkpt>
      <trkpt lat="46.06985" lon="6.32092">
        <ele>516.85</ele>
        <time>2020-05-18T13:43:56Z</time>
      </trkpt>
      <trkpt lat="46.06988" lon="6.32098">
        <ele>516.37</ele>
        <time>2020-05-18T13:43:57Z</time>
      </trkpt>
      <trkpt lat="46.06992" lon="6.32104">
        <ele>515.88</ele>
        <time>2020-05-18T13:43:58Z</time>
      </trkpt>
      <trkpt lat="46.06995" lon="6.32106">
        <ele>515.4</ele>
        <time>2020-05-18T13:43:59Z</time>
      </trkpt>
      <trkpt lat="46.06999" lon="6.32108">
        <ele>515.4</ele>
        <time>2020-05-18T13:44:00Z</time>
      </trkpt>
      <trkpt lat="46.07003" lon="6.32109">
        <ele>514.92</ele>
        <time>2020-05-18T13:44:01Z</time>
      </trkpt>
      <trkpt lat="46.07008" lon="6.32111">
        <ele>514.92</ele>
        <time>2020-05-18T13:44:02Z</time>
      </trkpt>
      <trkpt lat="46.07016" lon="6.32115">
        <ele>514.44</ele>
        <time>2020-05-18T13:44:05Z</time>
      </trkpt>
      <trkpt lat="46.07027" lon="6.32121">
        <ele>514.44</ele>
        <time>2020-05-18T13:44:07Z</time>
      </trkpt>
      <trkpt lat="46.07026" lon="6.32128">
        <ele>513.96</ele>
        <time>2020-05-18T13:44:08Z</time>
      </trkpt>
      <trkpt lat="46.07026" lon="6.3214">
        <ele>513.96</ele>
        <time>2020-05-18T13:44:09Z</time>
      </trkpt>
      <trkpt lat="46.07038" lon="6.32271">
        <ele>513.96</ele>
        <time>2020-05-18T13:44:17Z</time>
      </trkpt>
      <trkpt lat="46.07076" lon="6.32413">
        <ele>509.64</ele>
        <time>2020-05-18T13:44:25Z</time>
      </trkpt>
      <trkpt lat="46.07107" lon="6.32624">
        <ele>501.46</ele>
        <time>2020-05-18T13:44:36Z</time>
      </trkpt>
      <trkpt lat="46.07114" lon="6.3273">
        <ele>496.66</ele>
        <time>2020-05-18T13:44:44Z</time>
      </trkpt>
      <trkpt lat="46.07108" lon="6.32753">
        <ele>496.18</ele>
        <time>2020-05-18T13:44:46Z</time>
      </trkpt>
      <trkpt lat="46.07114" lon="6.32779">
        <ele>495.7</ele>
        <time>2020-05-18T13:44:48Z</time>
      </trkpt>
      <trkpt lat="46.07114" lon="6.32779">
        <ele>494.74</ele>
        <time>2020-05-18T13:44:49Z</time>
      </trkpt>
      <trkpt lat="46.07123" lon="6.32791">
        <ele>493.77</ele>
        <time>2020-05-18T13:44:50Z</time>
      </trkpt>
      <trkpt lat="46.07123" lon="6.32813">
        <ele>492.81</ele>
        <time>2020-05-18T13:44:51Z</time>
      </trkpt>
      <trkpt lat="46.07139" lon="6.32998">
        <ele>483.68</ele>
        <time>2020-05-18T13:45:00Z</time>
      </trkpt>
      <trkpt lat="46.07137" lon="6.33167">
        <ele>476.47</ele>
        <time>2020-05-18T13:45:07Z</time>
      </trkpt>
      <trkpt lat="46.07108" lon="6.33281">
        <ele>474.55</ele>
        <time>2020-05-18T13:45:12Z</time>
      </trkpt>
      <trkpt lat="46.071" lon="6.33302">
        <ele>473.59</ele>
        <time>2020-05-18T13:45:13Z</time>
      </trkpt>
      <trkpt lat="46.07093" lon="6.33323">
        <ele>473.59</ele>
        <time>2020-05-18T13:45:14Z</time>
      </trkpt>
      <trkpt lat="46.07014" lon="6.33448">
        <ele>471.66</ele>
        <time>2020-05-18T13:45:22Z</time>
      </trkpt>
      <trkpt lat="46.06976" lon="6.33506">
        <ele>471.18</ele>
        <time>2020-05-18T13:45:26Z</time>
      </trkpt>
      <trkpt lat="46.06967" lon="6.33519">
        <ele>470.7</ele>
        <time>2020-05-18T13:45:27Z</time>
      </trkpt>
      <trkpt lat="46.06962" lon="6.33536">
        <ele>470.22</ele>
        <time>2020-05-18T13:45:28Z</time>
      </trkpt>
      <trkpt lat="46.06952" lon="6.33576">
        <ele>469.74</ele>
        <time>2020-05-18T13:45:30Z</time>
      </trkpt>
      <trkpt lat="46.06951" lon="6.33594">
        <ele>469.26</ele>
        <time>2020-05-18T13:45:31Z</time>
      </trkpt>
      <trkpt lat="46.0695" lon="6.33615">
        <ele>469.26</ele>
        <time>2020-05-18T13:45:32Z</time>
      </trkpt>
      <trkpt lat="46.06961" lon="6.33827">
        <ele>466.86</ele>
        <time>2020-05-18T13:45:40Z</time>
      </trkpt>
      <trkpt lat="46.06979" lon="6.34096">
        <ele>462.53</ele>
        <time>2020-05-18T13:45:52Z</time>
      </trkpt>
      <trkpt lat="46.07004" lon="6.34472">
        <ele>459.17</ele>
        <time>2020-05-18T13:46:07Z</time>
      </trkpt>
      <trkpt lat="46.07012" lon="6.34601">
        <ele>459.17</ele>
        <time>2020-05-18T13:46:15Z</time>
      </trkpt>
      <trkpt lat="46.07013" lon="6.34612">
        <ele>458.69</ele>
        <time>2020-05-18T13:46:16Z</time>
      </trkpt>
      <trkpt lat="46.07014" lon="6.34621">
        <ele>458.21</ele>
        <time>2020-05-18T13:46:17Z</time>
      </trkpt>
      <trkpt lat="46.07004" lon="6.34657">
        <ele>457.72</ele>
        <time>2020-05-18T13:46:20Z</time>
      </trkpt>
      <trkpt lat="46.07001" lon="6.34669">
        <ele>457.72</ele>
        <time>2020-05-18T13:46:21Z</time>
      </trkpt>
      <trkpt lat="46.07004" lon="6.3468">
        <ele>457.24</ele>
        <time>2020-05-18T13:46:23Z</time>
      </trkpt>
      <trkpt lat="46.07019" lon="6.347">
        <ele>457.24</ele>
        <time>2020-05-18T13:46:25Z</time>
      </trkpt>
      <trkpt lat="46.07019" lon="6.34713">
        <ele>457.24</ele>
        <time>2020-05-18T13:46:26Z</time>
      </trkpt>
      <trkpt lat="46.0703" lon="6.34891">
        <ele>456.76</ele>
        <time>2020-05-18T13:46:36Z</time>
      </trkpt>
      <trkpt lat="46.0705" lon="6.35206">
        <ele>456.28</ele>
        <time>2020-05-18T13:46:51Z</time>
      </trkpt>
      <trkpt lat="46.07072" lon="6.35566">
        <ele>456.76</ele>
        <time>2020-05-18T13:47:06Z</time>
      </trkpt>
      <trkpt lat="46.0709" lon="6.35822">
        <ele>456.76</ele>
        <time>2020-05-18T13:47:17Z</time>
      </trkpt>
      <trkpt lat="46.07108" lon="6.36174">
        <ele>458.69</ele>
        <time>2020-05-18T13:47:31Z</time>
      </trkpt>
      <trkpt lat="46.07118" lon="6.36345">
        <ele>460.13</ele>
        <time>2020-05-18T13:47:39Z</time>
      </trkpt>
      <trkpt lat="46.07124" lon="6.36449">
        <ele>460.61</ele>
        <time>2020-05-18T13:47:48Z</time>
      </trkpt>
      <trkpt lat="46.07125" lon="6.36474">
        <ele>460.61</ele>
        <time>2020-05-18T13:47:51Z</time>
      </trkpt>
      <trkpt lat="46.07125" lon="6.36481">
        <ele>460.13</ele>
        <time>2020-05-18T13:47:52Z</time>
      </trkpt>
      <trkpt lat="46.07121" lon="6.36488">
        <ele>460.13</ele>
        <time>2020-05-18T13:47:53Z</time>
      </trkpt>
      <trkpt lat="46.07119" lon="6.3649">
        <ele>460.13</ele>
        <time>2020-05-18T13:47:54Z</time>
      </trkpt>
      <trkpt lat="46.07119" lon="6.3649">
        <ele>460.13</ele>
        <time>2020-05-18T13:47:55Z</time>
      </trkpt>
      <trkpt lat="46.07119" lon="6.3649">
        <ele>460.13</ele>
        <time>2020-05-18T13:47:56Z</time>
      </trkpt>
      <trkpt lat="46.07109" lon="6.36506">
        <ele>460.13</ele>
        <time>2020-05-18T13:47:57Z</time>
      </trkpt>
      <trkpt lat="46.07106" lon="6.36506">
        <ele>460.13</ele>
        <time>2020-05-18T13:47:58Z</time>
      </trkpt>
      <trkpt lat="46.07102" lon="6.36505">
        <ele>460.61</ele>
        <time>2020-05-18T13:47:59Z</time>
      </trkpt>
      <trkpt lat="46.07097" lon="6.36504">
        <ele>461.09</ele>
        <time>2020-05-18T13:48:00Z</time>
      </trkpt>
      <trkpt lat="46.07036" lon="6.36496">
        <ele>462.05</ele>
        <time>2020-05-18T13:48:08Z</time>
      </trkpt>
      <trkpt lat="46.06886" lon="6.36478">
        <ele>465.42</ele>
        <time>2020-05-18T13:48:19Z</time>
      </trkpt>
      <trkpt lat="46.06739" lon="6.3645">
        <ele>466.86</ele>
        <time>2020-05-18T13:48:29Z</time>
      </trkpt>
      <trkpt lat="46.06585" lon="6.36421">
        <ele>467.34</ele>
        <time>2020-05-18T13:48:42Z</time>
      </trkpt>
      <trkpt lat="46.06573" lon="6.36418">
        <ele>467.82</ele>
        <time>2020-05-18T13:48:44Z</time>
      </trkpt>
      <trkpt lat="46.06565" lon="6.36407">
        <ele>467.82</ele>
        <time>2020-05-18T13:48:45Z</time>
      </trkpt>
      <trkpt lat="46.06565" lon="6.36406">
        <ele>467.82</ele>
        <time>2020-05-18T13:48:46Z</time>
      </trkpt>
      <trkpt lat="46.0656" lon="6.36403">
        <ele>467.82</ele>
        <time>2020-05-18T13:48:47Z</time>
      </trkpt>
      <trkpt lat="46.06554" lon="6.36409">
        <ele>467.82</ele>
        <time>2020-05-18T13:48:49Z</time>
      </trkpt>
      <trkpt lat="46.06549" lon="6.36409">
        <ele>467.82</ele>
        <time>2020-05-18T13:48:50Z</time>
      </trkpt>
      <trkpt lat="46.06538" lon="6.36409">
        <ele>467.82</ele>
        <time>2020-05-18T13:48:51Z</time>
      </trkpt>
      <trkpt lat="46.06532" lon="6.3641">
        <ele>468.3</ele>
        <time>2020-05-18T13:48:52Z</time>
      </trkpt>
      <trkpt lat="46.06453" lon="6.36406">
        <ele>467.82</ele>
        <time>2020-05-18T13:49:02Z</time>
      </trkpt>
      <trkpt lat="46.06393" lon="6.36409">
        <ele>470.22</ele>
        <time>2020-05-18T13:49:10Z</time>
      </trkpt>
      <trkpt lat="46.06366" lon="6.36408">
        <ele>471.18</ele>
        <time>2020-05-18T13:49:16Z</time>
      </trkpt>
      <trkpt lat="46.06359" lon="6.36407">
        <ele>471.66</ele>
        <time>2020-05-18T13:49:17Z</time>
      </trkpt>
      <trkpt lat="46.06353" lon="6.36406">
        <ele>471.66</ele>
        <time>2020-05-18T13:49:18Z</time>
      </trkpt>
      <trkpt lat="46.06345" lon="6.36404">
        <ele>472.14</ele>
        <time>2020-05-18T13:49:19Z</time>
      </trkpt>
      <trkpt lat="46.06335" lon="6.36403">
        <ele>472.14</ele>
        <time>2020-05-18T13:49:20Z</time>
      </trkpt>
      <trkpt lat="46.06322" lon="6.36401">
        <ele>472.14</ele>
        <time>2020-05-18T13:49:21Z</time>
      </trkpt>
      <trkpt lat="46.06198" lon="6.36372">
        <ele>472.14</ele>
        <time>2020-05-18T13:49:33Z</time>
      </trkpt>
      <trkpt lat="46.06186" lon="6.36373">
        <ele>472.14</ele>
        <time>2020-05-18T13:49:34Z</time>
      </trkpt>
      <trkpt lat="46.06156" lon="6.36374">
        <ele>473.11</ele>
        <time>2020-05-18T13:49:37Z</time>
      </trkpt>
      <trkpt lat="46.06033" lon="6.36362">
        <ele>475.51</ele>
        <time>2020-05-18T13:49:50Z</time>
      </trkpt>
      <trkpt lat="46.05986" lon="6.36355">
        <ele>476.95</ele>
        <time>2020-05-18T13:49:57Z</time>
      </trkpt>
      <trkpt lat="46.05966" lon="6.36359">
        <ele>478.39</ele>
        <time>2020-05-18T13:50:00Z</time>
      </trkpt>
      <trkpt lat="46.05965" lon="6.36366">
        <ele>478.87</ele>
        <time>2020-05-18T13:50:01Z</time>
      </trkpt>
      <trkpt lat="46.05961" lon="6.364">
        <ele>479.35</ele>
        <time>2020-05-18T13:50:03Z</time>
      </trkpt>
      <trkpt lat="46.05963" lon="6.36414">
        <ele>479.84</ele>
        <time>2020-05-18T13:50:04Z</time>
      </trkpt>
      <trkpt lat="46.05966" lon="6.3643">
        <ele>480.32</ele>
        <time>2020-05-18T13:50:05Z</time>
      </trkpt>
      <trkpt lat="46.05969" lon="6.36446">
        <ele>480.8</ele>
        <time>2020-05-18T13:50:06Z</time>
      </trkpt>
      <trkpt lat="46.05971" lon="6.36461">
        <ele>480.8</ele>
        <time>2020-05-18T13:50:07Z</time>
      </trkpt>
      <trkpt lat="46.05973" lon="6.36476">
        <ele>481.28</ele>
        <time>2020-05-18T13:50:08Z</time>
      </trkpt>
      <trkpt lat="46.05976" lon="6.3666">
        <ele>484.16</ele>
        <time>2020-05-18T13:50:20Z</time>
      </trkpt>
      <trkpt lat="46.05965" lon="6.36839">
        <ele>483.2</ele>
        <time>2020-05-18T13:50:34Z</time>
      </trkpt>
      <trkpt lat="46.05957" lon="6.36893">
        <ele>483.2</ele>
        <time>2020-05-18T13:50:37Z</time>
      </trkpt>
      <trkpt lat="46.05955" lon="6.36906">
        <ele>483.2</ele>
        <time>2020-05-18T13:50:38Z</time>
      </trkpt>
      <trkpt lat="46.0595" lon="6.36933">
        <ele>483.2</ele>
        <time>2020-05-18T13:50:40Z</time>
      </trkpt>
      <trkpt lat="46.05939" lon="6.36988">
        <ele>482.72</ele>
        <time>2020-05-18T13:50:44Z</time>
      </trkpt>
      <trkpt lat="46.05939" lon="6.37019">
        <ele>483.2</ele>
        <time>2020-05-18T13:50:46Z</time>
      </trkpt>
      <trkpt lat="46.05947" lon="6.37091">
        <ele>484.64</ele>
        <time>2020-05-18T13:50:51Z</time>
      </trkpt>
      <trkpt lat="46.05948" lon="6.37106">
        <ele>484.64</ele>
        <time>2020-05-18T13:50:52Z</time>
      </trkpt>
      <trkpt lat="46.05953" lon="6.37238">
        <ele>486.08</ele>
        <time>2020-05-18T13:51:01Z</time>
      </trkpt>
      <trkpt lat="46.05942" lon="6.3731">
        <ele>485.6</ele>
        <time>2020-05-18T13:51:06Z</time>
      </trkpt>
      <trkpt lat="46.05938" lon="6.37323">
        <ele>485.12</ele>
        <time>2020-05-18T13:51:07Z</time>
      </trkpt>
      <trkpt lat="46.05932" lon="6.37336">
        <ele>484.64</ele>
        <time>2020-05-18T13:51:08Z</time>
      </trkpt>
      <trkpt lat="46.05926" lon="6.37348">
        <ele>484.16</ele>
        <time>2020-05-18T13:51:09Z</time>
      </trkpt>
      <trkpt lat="46.05919" lon="6.3736">
        <ele>483.68</ele>
        <time>2020-05-18T13:51:10Z</time>
      </trkpt>
      <trkpt lat="46.05912" lon="6.37371">
        <ele>483.2</ele>
        <time>2020-05-18T13:51:11Z</time>
      </trkpt>
      <trkpt lat="46.05905" lon="6.37382">
        <ele>482.72</ele>
        <time>2020-05-18T13:51:13Z</time>
      </trkpt>
      <trkpt lat="46.05892" lon="6.37403">
        <ele>482.72</ele>
        <time>2020-05-18T13:51:14Z</time>
      </trkpt>
      <trkpt lat="46.05885" lon="6.37411">
        <ele>482.24</ele>
        <time>2020-05-18T13:51:15Z</time>
      </trkpt>
      <trkpt lat="46.05878" lon="6.37418">
        <ele>481.76</ele>
        <time>2020-05-18T13:51:16Z</time>
      </trkpt>
      <trkpt lat="46.05824" lon="6.37466">
        <ele>480.8</ele>
        <time>2020-05-18T13:51:25Z</time>
      </trkpt>
      <trkpt lat="46.0581" lon="6.37473">
        <ele>481.28</ele>
        <time>2020-05-18T13:51:27Z</time>
      </trkpt>
      <trkpt lat="46.05758" lon="6.37499">
        <ele>484.64</ele>
        <time>2020-05-18T13:51:35Z</time>
      </trkpt>
      <trkpt lat="46.05728" lon="6.37509">
        <ele>488.49</ele>
        <time>2020-05-18T13:51:39Z</time>
      </trkpt>
      <trkpt lat="46.05722" lon="6.37501">
        <ele>490.89</ele>
        <time>2020-05-18T13:51:41Z</time>
      </trkpt>
      <trkpt lat="46.05717" lon="6.37491">
        <ele>491.85</ele>
        <time>2020-05-18T13:51:42Z</time>
      </trkpt>
      <trkpt lat="46.05678" lon="6.37391">
        <ele>499.06</ele>
        <time>2020-05-18T13:51:50Z</time>
      </trkpt>
      <trkpt lat="46.0567" lon="6.37372">
        <ele>498.58</ele>
        <time>2020-05-18T13:51:51Z</time>
      </trkpt>
      <trkpt lat="46.05665" lon="6.37362">
        <ele>498.1</ele>
        <time>2020-05-18T13:51:53Z</time>
      </trkpt>
      <trkpt lat="46.05586" lon="6.37277">
        <ele>495.7</ele>
        <time>2020-05-18T13:52:00Z</time>
      </trkpt>
      <trkpt lat="46.05517" lon="6.37203">
        <ele>497.62</ele>
        <time>2020-05-18T13:52:06Z</time>
      </trkpt>
      <trkpt lat="46.05505" lon="6.37194">
        <ele>498.1</ele>
        <time>2020-05-18T13:52:07Z</time>
      </trkpt>
      <trkpt lat="46.05492" lon="6.37191">
        <ele>499.06</ele>
        <time>2020-05-18T13:52:08Z</time>
      </trkpt>
      <trkpt lat="46.05478" lon="6.37194">
        <ele>499.54</ele>
        <time>2020-05-18T13:52:09Z</time>
      </trkpt>
      <trkpt lat="46.05461" lon="6.372">
        <ele>500.5</ele>
        <time>2020-05-18T13:52:10Z</time>
      </trkpt>
      <trkpt lat="46.05446" lon="6.37211">
        <ele>501.46</ele>
        <time>2020-05-18T13:52:11Z</time>
      </trkpt>
      <trkpt lat="46.05432" lon="6.37222">
        <ele>501.95</ele>
        <time>2020-05-18T13:52:12Z</time>
      </trkpt>
      <trkpt lat="46.0536" lon="6.37289">
        <ele>506.75</ele>
        <time>2020-05-18T13:52:20Z</time>
      </trkpt>
      <trkpt lat="46.05355" lon="6.37313">
        <ele>507.23</ele>
        <time>2020-05-18T13:52:21Z</time>
      </trkpt>
      <trkpt lat="46.05358" lon="6.37327">
        <ele>507.23</ele>
        <time>2020-05-18T13:52:22Z</time>
      </trkpt>
      <trkpt lat="46.05365" lon="6.37336">
        <ele>507.71</ele>
        <time>2020-05-18T13:52:24Z</time>
      </trkpt>
      <trkpt lat="46.0538" lon="6.37354">
        <ele>507.23</ele>
        <time>2020-05-18T13:52:25Z</time>
      </trkpt>
      <trkpt lat="46.05387" lon="6.37363">
        <ele>507.71</ele>
        <time>2020-05-18T13:52:27Z</time>
      </trkpt>
      <trkpt lat="46.05387" lon="6.37375">
        <ele>508.19</ele>
        <time>2020-05-18T13:52:28Z</time>
      </trkpt>
      <trkpt lat="46.05379" lon="6.37399">
        <ele>508.19</ele>
        <time>2020-05-18T13:52:29Z</time>
      </trkpt>
      <trkpt lat="46.0537" lon="6.37409">
        <ele>508.67</ele>
        <time>2020-05-18T13:52:30Z</time>
      </trkpt>
      <trkpt lat="46.05358" lon="6.37418">
        <ele>509.16</ele>
        <time>2020-05-18T13:52:32Z</time>
      </trkpt>
      <trkpt lat="46.0533" lon="6.37418">
        <ele>509.16</ele>
        <time>2020-05-18T13:52:33Z</time>
      </trkpt>
      <trkpt lat="46.05317" lon="6.37417">
        <ele>510.12</ele>
        <time>2020-05-18T13:52:35Z</time>
      </trkpt>
      <trkpt lat="46.05307" lon="6.37416">
        <ele>510.12</ele>
        <time>2020-05-18T13:52:36Z</time>
      </trkpt>
      <trkpt lat="46.05294" lon="6.37414">
        <ele>510.12</ele>
        <time>2020-05-18T13:52:37Z</time>
      </trkpt>
      <trkpt lat="46.05289" lon="6.37414">
        <ele>510.6</ele>
        <time>2020-05-18T13:52:38Z</time>
      </trkpt>
      <trkpt lat="46.05285" lon="6.37413">
        <ele>510.6</ele>
        <time>2020-05-18T13:52:39Z</time>
      </trkpt>
      <trkpt lat="46.05282" lon="6.37413">
        <ele>511.08</ele>
        <time>2020-05-18T13:52:40Z</time>
      </trkpt>
      <trkpt lat="46.05278" lon="6.37412">
        <ele>511.08</ele>
        <time>2020-05-18T13:52:41Z</time>
      </trkpt>
      <trkpt lat="46.05276" lon="6.37412">
        <ele>511.08</ele>
        <time>2020-05-18T13:52:42Z</time>
      </trkpt>
      <trkpt lat="46.05265" lon="6.37411">
        <ele>511.08</ele>
        <time>2020-05-18T13:52:43Z</time>
      </trkpt>
      <trkpt lat="46.05265" lon="6.37411">
        <ele>511.08</ele>
        <time>2020-05-18T13:52:44Z</time>
      </trkpt>
      <trkpt lat="46.05252" lon="6.37417">
        <ele>512.04</ele>
        <time>2020-05-18T13:52:46Z</time>
      </trkpt>
      <trkpt lat="46.05241" lon="6.37436">
        <ele>513</ele>
        <time>2020-05-18T13:52:49Z</time>
      </trkpt>
      <trkpt lat="46.05235" lon="6.37447">
        <ele>513.48</ele>
        <time>2020-05-18T13:52:50Z</time>
      </trkpt>
      <trkpt lat="46.05228" lon="6.37459">
        <ele>513.96</ele>
        <time>2020-05-18T13:52:51Z</time>
      </trkpt>
      <trkpt lat="46.05222" lon="6.37471">
        <ele>513.96</ele>
        <time>2020-05-18T13:52:52Z</time>
      </trkpt>
      <trkpt lat="46.05215" lon="6.37482">
        <ele>514.92</ele>
        <time>2020-05-18T13:52:54Z</time>
      </trkpt>
      <trkpt lat="46.05202" lon="6.37513">
        <ele>515.4</ele>
        <time>2020-05-18T13:52:55Z</time>
      </trkpt>
      <trkpt lat="46.05197" lon="6.37527">
        <ele>515.88</ele>
        <time>2020-05-18T13:52:56Z</time>
      </trkpt>
      <trkpt lat="46.05192" lon="6.37541">
        <ele>515.88</ele>
        <time>2020-05-18T13:52:57Z</time>
      </trkpt>
      <trkpt lat="46.05187" lon="6.37555">
        <ele>516.37</ele>
        <time>2020-05-18T13:52:58Z</time>
      </trkpt>
      <trkpt lat="46.05182" lon="6.3757">
        <ele>516.85</ele>
        <time>2020-05-18T13:52:59Z</time>
      </trkpt>
      <trkpt lat="46.05174" lon="6.37583">
        <ele>517.33</ele>
        <time>2020-05-18T13:53:00Z</time>
      </trkpt>
      <trkpt lat="46.05162" lon="6.37596">
        <ele>518.29</ele>
        <time>2020-05-18T13:53:01Z</time>
      </trkpt>
      <trkpt lat="46.05146" lon="6.37612">
        <ele>518.77</ele>
        <time>2020-05-18T13:53:02Z</time>
      </trkpt>
      <trkpt lat="46.0513" lon="6.37633">
        <ele>519.73</ele>
        <time>2020-05-18T13:53:03Z</time>
      </trkpt>
      <trkpt lat="46.05103" lon="6.37668">
        <ele>520.69</ele>
        <time>2020-05-18T13:53:05Z</time>
      </trkpt>
      <trkpt lat="46.0509" lon="6.37675">
        <ele>521.17</ele>
        <time>2020-05-18T13:53:06Z</time>
      </trkpt>
      <trkpt lat="46.05078" lon="6.37675">
        <ele>522.13</ele>
        <time>2020-05-18T13:53:07Z</time>
      </trkpt>
      <trkpt lat="46.05066" lon="6.37667">
        <ele>522.61</ele>
        <time>2020-05-18T13:53:08Z</time>
      </trkpt>
      <trkpt lat="46.05056" lon="6.37657">
        <ele>523.09</ele>
        <time>2020-05-18T13:53:09Z</time>
      </trkpt>
      <trkpt lat="46.05045" lon="6.37647">
        <ele>523.58</ele>
        <time>2020-05-18T13:53:10Z</time>
      </trkpt>
      <trkpt lat="46.05034" lon="6.37636">
        <ele>524.06</ele>
        <time>2020-05-18T13:53:11Z</time>
      </trkpt>
      <trkpt lat="46.05024" lon="6.37627">
        <ele>524.54</ele>
        <time>2020-05-18T13:53:12Z</time>
      </trkpt>
      <trkpt lat="46.05014" lon="6.37624">
        <ele>525.02</ele>
        <time>2020-05-18T13:53:14Z</time>
      </trkpt>
      <trkpt lat="46.04995" lon="6.3763">
        <ele>525.02</ele>
        <time>2020-05-18T13:53:15Z</time>
      </trkpt>
      <trkpt lat="46.04984" lon="6.37636">
        <ele>525.02</ele>
        <time>2020-05-18T13:53:16Z</time>
      </trkpt>
      <trkpt lat="46.04973" lon="6.37638">
        <ele>525.02</ele>
        <time>2020-05-18T13:53:17Z</time>
      </trkpt>
      <trkpt lat="46.0496" lon="6.37631">
        <ele>525.5</ele>
        <time>2020-05-18T13:53:18Z</time>
      </trkpt>
      <trkpt lat="46.04943" lon="6.37622">
        <ele>525.98</ele>
        <time>2020-05-18T13:53:19Z</time>
      </trkpt>
      <trkpt lat="46.04878" lon="6.37586">
        <ele>527.9</ele>
        <time>2020-05-18T13:53:22Z</time>
      </trkpt>
      <trkpt lat="46.04854" lon="6.37577">
        <ele>529.34</ele>
        <time>2020-05-18T13:53:24Z</time>
      </trkpt>
      <trkpt lat="46.04847" lon="6.37578">
        <ele>530.79</ele>
        <time>2020-05-18T13:53:26Z</time>
      </trkpt>
      <trkpt lat="46.0483" lon="6.37598">
        <ele>531.27</ele>
        <time>2020-05-18T13:53:27Z</time>
      </trkpt>
      <trkpt lat="46.04822" lon="6.37608">
        <ele>531.27</ele>
        <time>2020-05-18T13:53:28Z</time>
      </trkpt>
      <trkpt lat="46.04812" lon="6.37616">
        <ele>531.27</ele>
        <time>2020-05-18T13:53:29Z</time>
      </trkpt>
      <trkpt lat="46.04806" lon="6.37615">
        <ele>531.75</ele>
        <time>2020-05-18T13:53:30Z</time>
      </trkpt>
      <trkpt lat="46.04793" lon="6.37602">
        <ele>532.71</ele>
        <time>2020-05-18T13:53:31Z</time>
      </trkpt>
      <trkpt lat="46.04778" lon="6.37587">
        <ele>534.15</ele>
        <time>2020-05-18T13:53:32Z</time>
      </trkpt>
      <trkpt lat="46.04762" lon="6.37578">
        <ele>535.11</ele>
        <time>2020-05-18T13:53:33Z</time>
      </trkpt>
      <trkpt lat="46.0475" lon="6.3757">
        <ele>536.07</ele>
        <time>2020-05-18T13:53:34Z</time>
      </trkpt>
      <trkpt lat="46.04741" lon="6.37565">
        <ele>537.51</ele>
        <time>2020-05-18T13:53:35Z</time>
      </trkpt>
      <trkpt lat="46.04726" lon="6.3757">
        <ele>538.96</ele>
        <time>2020-05-18T13:53:36Z</time>
      </trkpt>
      <trkpt lat="46.04711" lon="6.37575">
        <ele>540.4</ele>
        <time>2020-05-18T13:53:37Z</time>
      </trkpt>
      <trkpt lat="46.04694" lon="6.37578">
        <ele>541.84</ele>
        <time>2020-05-18T13:53:38Z</time>
      </trkpt>
      <trkpt lat="46.04681" lon="6.37575">
        <ele>543.28</ele>
        <time>2020-05-18T13:53:39Z</time>
      </trkpt>
      <trkpt lat="46.04669" lon="6.37573">
        <ele>544.24</ele>
        <time>2020-05-18T13:53:40Z</time>
      </trkpt>
      <trkpt lat="46.04662" lon="6.37575">
        <ele>545.69</ele>
        <time>2020-05-18T13:53:41Z</time>
      </trkpt>
      <trkpt lat="46.04655" lon="6.37584">
        <ele>546.17</ele>
        <time>2020-05-18T13:53:42Z</time>
      </trkpt>
      <trkpt lat="46.04649" lon="6.37592">
        <ele>546.65</ele>
        <time>2020-05-18T13:53:43Z</time>
      </trkpt>
      <trkpt lat="46.04647" lon="6.37608">
        <ele>547.61</ele>
        <time>2020-05-18T13:53:44Z</time>
      </trkpt>
      <trkpt lat="46.04646" lon="6.37626">
        <ele>548.09</ele>
        <time>2020-05-18T13:53:45Z</time>
      </trkpt>
      <trkpt lat="46.04639" lon="6.3764">
        <ele>549.05</ele>
        <time>2020-05-18T13:53:46Z</time>
      </trkpt>
      <trkpt lat="46.04633" lon="6.3765">
        <ele>549.53</ele>
        <time>2020-05-18T13:53:47Z</time>
      </trkpt>
      <trkpt lat="46.04621" lon="6.37654">
        <ele>550.97</ele>
        <time>2020-05-18T13:53:48Z</time>
      </trkpt>
      <trkpt lat="46.04609" lon="6.37656">
        <ele>551.93</ele>
        <time>2020-05-18T13:53:49Z</time>
      </trkpt>
      <trkpt lat="46.04593" lon="6.3766">
        <ele>552.41</ele>
        <time>2020-05-18T13:53:50Z</time>
      </trkpt>
      <trkpt lat="46.04584" lon="6.37666">
        <ele>552.9</ele>
        <time>2020-05-18T13:53:51Z</time>
      </trkpt>
      <trkpt lat="46.04573" lon="6.37673">
        <ele>553.38</ele>
        <time>2020-05-18T13:53:52Z</time>
      </trkpt>
      <trkpt lat="46.04563" lon="6.3768">
        <ele>554.34</ele>
        <time>2020-05-18T13:53:53Z</time>
      </trkpt>
      <trkpt lat="46.04557" lon="6.37693">
        <ele>555.3</ele>
        <time>2020-05-18T13:53:54Z</time>
      </trkpt>
      <trkpt lat="46.0455" lon="6.37713">
        <ele>555.78</ele>
        <time>2020-05-18T13:53:55Z</time>
      </trkpt>
      <trkpt lat="46.04548" lon="6.37738">
        <ele>556.74</ele>
        <time>2020-05-18T13:53:56Z</time>
      </trkpt>
      <trkpt lat="46.04547" lon="6.37761">
        <ele>556.74</ele>
        <time>2020-05-18T13:53:57Z</time>
      </trkpt>
      <trkpt lat="46.04548" lon="6.37781">
        <ele>556.74</ele>
        <time>2020-05-18T13:53:58Z</time>
      </trkpt>
      <trkpt lat="46.04544" lon="6.37796">
        <ele>556.26</ele>
        <time>2020-05-18T13:53:59Z</time>
      </trkpt>
      <trkpt lat="46.04539" lon="6.37811">
        <ele>556.26</ele>
        <time>2020-05-18T13:54:00Z</time>
      </trkpt>
      <trkpt lat="46.04527" lon="6.37819">
        <ele>556.74</ele>
        <time>2020-05-18T13:54:01Z</time>
      </trkpt>
      <trkpt lat="46.04512" lon="6.37821">
        <ele>556.74</ele>
        <time>2020-05-18T13:54:02Z</time>
      </trkpt>
      <trkpt lat="46.04494" lon="6.37822">
        <ele>556.74</ele>
        <time>2020-05-18T13:54:03Z</time>
      </trkpt>
      <trkpt lat="46.04459" lon="6.37829">
        <ele>557.22</ele>
        <time>2020-05-18T13:54:05Z</time>
      </trkpt>
      <trkpt lat="46.04428" lon="6.37842">
        <ele>557.7</ele>
        <time>2020-05-18T13:54:07Z</time>
      </trkpt>
      <trkpt lat="46.04413" lon="6.37856">
        <ele>558.66</ele>
        <time>2020-05-18T13:54:08Z</time>
      </trkpt>
      <trkpt lat="46.04357" lon="6.37935">
        <ele>562.99</ele>
        <time>2020-05-18T13:54:12Z</time>
      </trkpt>
      <trkpt lat="46.04343" lon="6.37945">
        <ele>563.47</ele>
        <time>2020-05-18T13:54:13Z</time>
      </trkpt>
      <trkpt lat="46.04325" lon="6.37948">
        <ele>563.95</ele>
        <time>2020-05-18T13:54:14Z</time>
      </trkpt>
      <trkpt lat="46.04306" lon="6.37949">
        <ele>564.91</ele>
        <time>2020-05-18T13:54:15Z</time>
      </trkpt>
      <trkpt lat="46.04286" lon="6.37946">
        <ele>564.91</ele>
        <time>2020-05-18T13:54:16Z</time>
      </trkpt>
      <trkpt lat="46.04267" lon="6.37943">
        <ele>565.39</ele>
        <time>2020-05-18T13:54:17Z</time>
      </trkpt>
      <trkpt lat="46.04252" lon="6.37941">
        <ele>565.39</ele>
        <time>2020-05-18T13:54:18Z</time>
      </trkpt>
      <trkpt lat="46.04242" lon="6.37947">
        <ele>565.39</ele>
        <time>2020-05-18T13:54:19Z</time>
      </trkpt>
      <trkpt lat="46.04231" lon="6.37954">
        <ele>565.87</ele>
        <time>2020-05-18T13:54:20Z</time>
      </trkpt>
      <trkpt lat="46.0422" lon="6.37968">
        <ele>566.35</ele>
        <time>2020-05-18T13:54:21Z</time>
      </trkpt>
      <trkpt lat="46.04209" lon="6.37984">
        <ele>565.87</ele>
        <time>2020-05-18T13:54:22Z</time>
      </trkpt>
      <trkpt lat="46.04192" lon="6.37994">
        <ele>566.35</ele>
        <time>2020-05-18T13:54:23Z</time>
      </trkpt>
      <trkpt lat="46.04172" lon="6.38003">
        <ele>566.83</ele>
        <time>2020-05-18T13:54:24Z</time>
      </trkpt>
      <trkpt lat="46.0415" lon="6.38012">
        <ele>566.83</ele>
        <time>2020-05-18T13:54:25Z</time>
      </trkpt>
      <trkpt lat="46.0413" lon="6.3802">
        <ele>567.32</ele>
        <time>2020-05-18T13:54:26Z</time>
      </trkpt>
      <trkpt lat="46.04111" lon="6.3802">
        <ele>567.8</ele>
        <time>2020-05-18T13:54:27Z</time>
      </trkpt>
      <trkpt lat="46.04093" lon="6.3802">
        <ele>567.8</ele>
        <time>2020-05-18T13:54:28Z</time>
      </trkpt>
      <trkpt lat="46.04078" lon="6.3802">
        <ele>567.8</ele>
        <time>2020-05-18T13:54:29Z</time>
      </trkpt>
      <trkpt lat="46.04064" lon="6.38031">
        <ele>567.8</ele>
        <time>2020-05-18T13:54:30Z</time>
      </trkpt>
      <trkpt lat="46.04049" lon="6.38041">
        <ele>568.28</ele>
        <time>2020-05-18T13:54:31Z</time>
      </trkpt>
      <trkpt lat="46.04018" lon="6.3806">
        <ele>568.28</ele>
        <time>2020-05-18T13:54:33Z</time>
      </trkpt>
      <trkpt lat="46.04005" lon="6.38069">
        <ele>568.28</ele>
        <time>2020-05-18T13:54:34Z</time>
      </trkpt>
      <trkpt lat="46.03992" lon="6.38077">
        <ele>568.76</ele>
        <time>2020-05-18T13:54:35Z</time>
      </trkpt>
      <trkpt lat="46.0398" lon="6.38086">
        <ele>569.72</ele>
        <time>2020-05-18T13:54:36Z</time>
      </trkpt>
      <trkpt lat="46.03968" lon="6.38096">
        <ele>570.2</ele>
        <time>2020-05-18T13:54:37Z</time>
      </trkpt>
      <trkpt lat="46.03957" lon="6.38105">
        <ele>570.68</ele>
        <time>2020-05-18T13:54:38Z</time>
      </trkpt>
      <trkpt lat="46.03948" lon="6.38115">
        <ele>571.16</ele>
        <time>2020-05-18T13:54:39Z</time>
      </trkpt>
      <trkpt lat="46.03941" lon="6.38131">
        <ele>571.64</ele>
        <time>2020-05-18T13:54:40Z</time>
      </trkpt>
      <trkpt lat="46.03901" lon="6.38206">
        <ele>573.08</ele>
        <time>2020-05-18T13:54:45Z</time>
      </trkpt>
      <trkpt lat="46.03886" lon="6.38221">
        <ele>573.56</ele>
        <time>2020-05-18T13:54:46Z</time>
      </trkpt>
      <trkpt lat="46.03864" lon="6.38236">
        <ele>574.04</ele>
        <time>2020-05-18T13:54:47Z</time>
      </trkpt>
      <trkpt lat="46.03775" lon="6.38292">
        <ele>576.45</ele>
        <time>2020-05-18T13:54:51Z</time>
      </trkpt>
      <trkpt lat="46.03758" lon="6.38296">
        <ele>577.41</ele>
        <time>2020-05-18T13:54:52Z</time>
      </trkpt>
      <trkpt lat="46.03726" lon="6.38302">
        <ele>579.33</ele>
        <time>2020-05-18T13:54:54Z</time>
      </trkpt>
      <trkpt lat="46.03707" lon="6.38306">
        <ele>579.81</ele>
        <time>2020-05-18T13:54:55Z</time>
      </trkpt>
      <trkpt lat="46.03692" lon="6.38319">
        <ele>580.77</ele>
        <time>2020-05-18T13:54:56Z</time>
      </trkpt>
      <trkpt lat="46.03635" lon="6.38359">
        <ele>583.18</ele>
        <time>2020-05-18T13:54:59Z</time>
      </trkpt>
      <trkpt lat="46.03588" lon="6.3838">
        <ele>585.58</ele>
        <time>2020-05-18T13:55:02Z</time>
      </trkpt>
      <trkpt lat="46.03574" lon="6.38385">
        <ele>586.06</ele>
        <time>2020-05-18T13:55:03Z</time>
      </trkpt>
      <trkpt lat="46.03563" lon="6.38383">
        <ele>587.02</ele>
        <time>2020-05-18T13:55:04Z</time>
      </trkpt>
      <trkpt lat="46.03549" lon="6.38381">
        <ele>587.98</ele>
        <time>2020-05-18T13:55:05Z</time>
      </trkpt>
      <trkpt lat="46.03537" lon="6.3838">
        <ele>588.46</ele>
        <time>2020-05-18T13:55:06Z</time>
      </trkpt>
      <trkpt lat="46.03523" lon="6.38386">
        <ele>589.43</ele>
        <time>2020-05-18T13:55:07Z</time>
      </trkpt>
      <trkpt lat="46.0351" lon="6.38397">
        <ele>590.87</ele>
        <time>2020-05-18T13:55:08Z</time>
      </trkpt>
      <trkpt lat="46.03447" lon="6.38482">
        <ele>595.19</ele>
        <time>2020-05-18T13:55:12Z</time>
      </trkpt>
      <trkpt lat="46.03428" lon="6.3852">
        <ele>597.6</ele>
        <time>2020-05-18T13:55:14Z</time>
      </trkpt>
      <trkpt lat="46.03422" lon="6.3854">
        <ele>598.56</ele>
        <time>2020-05-18T13:55:15Z</time>
      </trkpt>
      <trkpt lat="46.03417" lon="6.38558">
        <ele>599.04</ele>
        <time>2020-05-18T13:55:16Z</time>
      </trkpt>
      <trkpt lat="46.03416" lon="6.38578">
        <ele>600.48</ele>
        <time>2020-05-18T13:55:17Z</time>
      </trkpt>
      <trkpt lat="46.03417" lon="6.38598">
        <ele>601.92</ele>
        <time>2020-05-18T13:55:18Z</time>
      </trkpt>
      <trkpt lat="46.03416" lon="6.38619">
        <ele>602.88</ele>
        <time>2020-05-18T13:55:19Z</time>
      </trkpt>
      <trkpt lat="46.03409" lon="6.38638">
        <ele>603.85</ele>
        <time>2020-05-18T13:55:20Z</time>
      </trkpt>
      <trkpt lat="46.03399" lon="6.38655">
        <ele>604.81</ele>
        <time>2020-05-18T13:55:21Z</time>
      </trkpt>
      <trkpt lat="46.03387" lon="6.38677">
        <ele>605.77</ele>
        <time>2020-05-18T13:55:22Z</time>
      </trkpt>
      <trkpt lat="46.03372" lon="6.38702">
        <ele>606.73</ele>
        <time>2020-05-18T13:55:23Z</time>
      </trkpt>
      <trkpt lat="46.03296" lon="6.38832">
        <ele>609.13</ele>
        <time>2020-05-18T13:55:27Z</time>
      </trkpt>
      <trkpt lat="46.03256" lon="6.38887">
        <ele>612.5</ele>
        <time>2020-05-18T13:55:30Z</time>
      </trkpt>
      <trkpt lat="46.03098" lon="6.39025">
        <ele>623.07</ele>
        <time>2020-05-18T13:55:35Z</time>
      </trkpt>
      <trkpt lat="46.03074" lon="6.39049">
        <ele>627.4</ele>
        <time>2020-05-18T13:55:37Z</time>
      </trkpt>
      <trkpt lat="46.03008" lon="6.39095">
        <ele>630.76</ele>
        <time>2020-05-18T13:55:39Z</time>
      </trkpt>
      <trkpt lat="46.02986" lon="6.391">
        <ele>632.2</ele>
        <time>2020-05-18T13:55:40Z</time>
      </trkpt>
      <trkpt lat="46.02964" lon="6.39102">
        <ele>633.65</ele>
        <time>2020-05-18T13:55:41Z</time>
      </trkpt>
      <trkpt lat="46.02944" lon="6.39105">
        <ele>635.09</ele>
        <time>2020-05-18T13:55:42Z</time>
      </trkpt>
      <trkpt lat="46.02925" lon="6.39103">
        <ele>636.53</ele>
        <time>2020-05-18T13:55:43Z</time>
      </trkpt>
      <trkpt lat="46.0291" lon="6.39097">
        <ele>637.97</ele>
        <time>2020-05-18T13:55:44Z</time>
      </trkpt>
      <trkpt lat="46.02897" lon="6.39098">
        <ele>639.41</ele>
        <time>2020-05-18T13:55:45Z</time>
      </trkpt>
      <trkpt lat="46.02887" lon="6.39103">
        <ele>640.86</ele>
        <time>2020-05-18T13:55:46Z</time>
      </trkpt>
      <trkpt lat="46.02881" lon="6.39116">
        <ele>641.34</ele>
        <time>2020-05-18T13:55:47Z</time>
      </trkpt>
      <trkpt lat="46.02875" lon="6.39128">
        <ele>642.78</ele>
        <time>2020-05-18T13:55:48Z</time>
      </trkpt>
      <trkpt lat="46.02874" lon="6.39146">
        <ele>643.74</ele>
        <time>2020-05-18T13:55:49Z</time>
      </trkpt>
      <trkpt lat="46.02874" lon="6.39169">
        <ele>645.18</ele>
        <time>2020-05-18T13:55:50Z</time>
      </trkpt>
      <trkpt lat="46.02874" lon="6.39195">
        <ele>646.62</ele>
        <time>2020-05-18T13:55:51Z</time>
      </trkpt>
      <trkpt lat="46.02873" lon="6.39241">
        <ele>649.51</ele>
        <time>2020-05-18T13:55:53Z</time>
      </trkpt>
      <trkpt lat="46.02873" lon="6.39261">
        <ele>650.95</ele>
        <time>2020-05-18T13:55:54Z</time>
      </trkpt>
      <trkpt lat="46.02869" lon="6.39277">
        <ele>651.91</ele>
        <time>2020-05-18T13:55:55Z</time>
      </trkpt>
      <trkpt lat="46.02864" lon="6.39294">
        <ele>653.35</ele>
        <time>2020-05-18T13:55:56Z</time>
      </trkpt>
      <trkpt lat="46.02858" lon="6.39307">
        <ele>654.8</ele>
        <time>2020-05-18T13:55:57Z</time>
      </trkpt>
      <trkpt lat="46.02847" lon="6.39315">
        <ele>656.24</ele>
        <time>2020-05-18T13:55:58Z</time>
      </trkpt>
      <trkpt lat="46.02835" lon="6.39316">
        <ele>657.2</ele>
        <time>2020-05-18T13:55:59Z</time>
      </trkpt>
      <trkpt lat="46.02821" lon="6.39311">
        <ele>658.64</ele>
        <time>2020-05-18T13:56:00Z</time>
      </trkpt>
      <trkpt lat="46.02808" lon="6.39301">
        <ele>659.6</ele>
        <time>2020-05-18T13:56:01Z</time>
      </trkpt>
      <trkpt lat="46.02796" lon="6.39285">
        <ele>661.04</ele>
        <time>2020-05-18T13:56:02Z</time>
      </trkpt>
      <trkpt lat="46.02786" lon="6.39265">
        <ele>662.01</ele>
        <time>2020-05-18T13:56:03Z</time>
      </trkpt>
      <trkpt lat="46.02777" lon="6.39245">
        <ele>663.45</ele>
        <time>2020-05-18T13:56:04Z</time>
      </trkpt>
      <trkpt lat="46.02769" lon="6.39228">
        <ele>664.89</ele>
        <time>2020-05-18T13:56:05Z</time>
      </trkpt>
      <trkpt lat="46.02763" lon="6.39213">
        <ele>666.81</ele>
        <time>2020-05-18T13:56:06Z</time>
      </trkpt>
      <trkpt lat="46.02752" lon="6.3919">
        <ele>670.18</ele>
        <time>2020-05-18T13:56:08Z</time>
      </trkpt>
      <trkpt lat="46.02743" lon="6.39182">
        <ele>671.62</ele>
        <time>2020-05-18T13:56:09Z</time>
      </trkpt>
      <trkpt lat="46.02733" lon="6.39174">
        <ele>672.58</ele>
        <time>2020-05-18T13:56:10Z</time>
      </trkpt>
      <trkpt lat="46.02724" lon="6.39172">
        <ele>674.02</ele>
        <time>2020-05-18T13:56:11Z</time>
      </trkpt>
      <trkpt lat="46.02711" lon="6.39175">
        <ele>675.46</ele>
        <time>2020-05-18T13:56:12Z</time>
      </trkpt>
      <trkpt lat="46.02697" lon="6.3918">
        <ele>676.42</ele>
        <time>2020-05-18T13:56:13Z</time>
      </trkpt>
      <trkpt lat="46.02682" lon="6.39188">
        <ele>677.39</ele>
        <time>2020-05-18T13:56:14Z</time>
      </trkpt>
      <trkpt lat="46.02664" lon="6.39196">
        <ele>678.35</ele>
        <time>2020-05-18T13:56:15Z</time>
      </trkpt>
      <trkpt lat="46.02648" lon="6.39207">
        <ele>678.83</ele>
        <time>2020-05-18T13:56:16Z</time>
      </trkpt>
      <trkpt lat="46.02635" lon="6.3922">
        <ele>679.79</ele>
        <time>2020-05-18T13:56:17Z</time>
      </trkpt>
      <trkpt lat="46.02532" lon="6.39327">
        <ele>686.04</ele>
        <time>2020-05-18T13:56:25Z</time>
      </trkpt>
      <trkpt lat="46.02523" lon="6.3934">
        <ele>687</ele>
        <time>2020-05-18T13:56:26Z</time>
      </trkpt>
      <trkpt lat="46.02512" lon="6.39354">
        <ele>687.48</ele>
        <time>2020-05-18T13:56:27Z</time>
      </trkpt>
      <trkpt lat="46.02501" lon="6.39366">
        <ele>687.96</ele>
        <time>2020-05-18T13:56:28Z</time>
      </trkpt>
      <trkpt lat="46.02491" lon="6.39377">
        <ele>688.44</ele>
        <time>2020-05-18T13:56:29Z</time>
      </trkpt>
      <trkpt lat="46.02473" lon="6.39398">
        <ele>689.4</ele>
        <time>2020-05-18T13:56:31Z</time>
      </trkpt>
      <trkpt lat="46.02468" lon="6.39412">
        <ele>689.88</ele>
        <time>2020-05-18T13:56:32Z</time>
      </trkpt>
      <trkpt lat="46.02464" lon="6.39426">
        <ele>690.36</ele>
        <time>2020-05-18T13:56:33Z</time>
      </trkpt>
      <trkpt lat="46.0246" lon="6.3944">
        <ele>689.88</ele>
        <time>2020-05-18T13:56:34Z</time>
      </trkpt>
      <trkpt lat="46.02456" lon="6.39455">
        <ele>689.4</ele>
        <time>2020-05-18T13:56:35Z</time>
      </trkpt>
      <trkpt lat="46.02452" lon="6.39469">
        <ele>688.92</ele>
        <time>2020-05-18T13:56:36Z</time>
      </trkpt>
      <trkpt lat="46.02447" lon="6.3948">
        <ele>688.92</ele>
        <time>2020-05-18T13:56:37Z</time>
      </trkpt>
      <trkpt lat="46.02438" lon="6.39487">
        <ele>688.92</ele>
        <time>2020-05-18T13:56:38Z</time>
      </trkpt>
      <trkpt lat="46.02428" lon="6.3949">
        <ele>688.92</ele>
        <time>2020-05-18T13:56:39Z</time>
      </trkpt>
      <trkpt lat="46.02415" lon="6.3949">
        <ele>688.92</ele>
        <time>2020-05-18T13:56:40Z</time>
      </trkpt>
      <trkpt lat="46.02401" lon="6.39489">
        <ele>689.4</ele>
        <time>2020-05-18T13:56:41Z</time>
      </trkpt>
      <trkpt lat="46.02387" lon="6.3949">
        <ele>690.36</ele>
        <time>2020-05-18T13:56:42Z</time>
      </trkpt>
      <trkpt lat="46.02376" lon="6.39494">
        <ele>691.81</ele>
        <time>2020-05-18T13:56:43Z</time>
      </trkpt>
      <trkpt lat="46.02365" lon="6.39503">
        <ele>692.77</ele>
        <time>2020-05-18T13:56:44Z</time>
      </trkpt>
      <trkpt lat="46.02356" lon="6.39512">
        <ele>693.73</ele>
        <time>2020-05-18T13:56:45Z</time>
      </trkpt>
      <trkpt lat="46.02346" lon="6.39521">
        <ele>694.69</ele>
        <time>2020-05-18T13:56:46Z</time>
      </trkpt>
      <trkpt lat="46.02337" lon="6.3953">
        <ele>695.65</ele>
        <time>2020-05-18T13:56:47Z</time>
      </trkpt>
      <trkpt lat="46.02327" lon="6.39531">
        <ele>696.61</ele>
        <time>2020-05-18T13:56:48Z</time>
      </trkpt>
      <trkpt lat="46.02315" lon="6.3953">
        <ele>698.05</ele>
        <time>2020-05-18T13:56:49Z</time>
      </trkpt>
      <trkpt lat="46.02304" lon="6.3953">
        <ele>699.02</ele>
        <time>2020-05-18T13:56:50Z</time>
      </trkpt>
      <trkpt lat="46.02293" lon="6.39529">
        <ele>699.98</ele>
        <time>2020-05-18T13:56:51Z</time>
      </trkpt>
      <trkpt lat="46.02283" lon="6.39533">
        <ele>700.94</ele>
        <time>2020-05-18T13:56:52Z</time>
      </trkpt>
      <trkpt lat="46.02272" lon="6.3954">
        <ele>700.94</ele>
        <time>2020-05-18T13:56:53Z</time>
      </trkpt>
      <trkpt lat="46.02262" lon="6.39549">
        <ele>701.42</ele>
        <time>2020-05-18T13:56:54Z</time>
      </trkpt>
      <trkpt lat="46.02253" lon="6.39566">
        <ele>701.9</ele>
        <time>2020-05-18T13:56:55Z</time>
      </trkpt>
      <trkpt lat="46.02243" lon="6.39583">
        <ele>702.86</ele>
        <time>2020-05-18T13:56:57Z</time>
      </trkpt>
      <trkpt lat="46.02214" lon="6.39631">
        <ele>703.34</ele>
        <time>2020-05-18T13:56:59Z</time>
      </trkpt>
      <trkpt lat="46.02163" lon="6.39696">
        <ele>706.71</ele>
        <time>2020-05-18T13:57:04Z</time>
      </trkpt>
      <trkpt lat="46.02149" lon="6.39703">
        <ele>707.67</ele>
        <time>2020-05-18T13:57:05Z</time>
      </trkpt>
      <trkpt lat="46.02136" lon="6.39709">
        <ele>708.15</ele>
        <time>2020-05-18T13:57:06Z</time>
      </trkpt>
      <trkpt lat="46.02122" lon="6.39707">
        <ele>709.11</ele>
        <time>2020-05-18T13:57:07Z</time>
      </trkpt>
      <trkpt lat="46.02108" lon="6.397">
        <ele>709.59</ele>
        <time>2020-05-18T13:57:08Z</time>
      </trkpt>
      <trkpt lat="46.02095" lon="6.3969">
        <ele>709.59</ele>
        <time>2020-05-18T13:57:09Z</time>
      </trkpt>
      <trkpt lat="46.02082" lon="6.39679">
        <ele>710.55</ele>
        <time>2020-05-18T13:57:10Z</time>
      </trkpt>
      <trkpt lat="46.02055" lon="6.39658">
        <ele>711.51</ele>
        <time>2020-05-18T13:57:12Z</time>
      </trkpt>
      <trkpt lat="46.02031" lon="6.3964">
        <ele>712.95</ele>
        <time>2020-05-18T13:57:14Z</time>
      </trkpt>
      <trkpt lat="46.02008" lon="6.39628">
        <ele>713.44</ele>
        <time>2020-05-18T13:57:16Z</time>
      </trkpt>
      <trkpt lat="46.01995" lon="6.39624">
        <ele>713.92</ele>
        <time>2020-05-18T13:57:17Z</time>
      </trkpt>
      <trkpt lat="46.01983" lon="6.39621">
        <ele>713.92</ele>
        <time>2020-05-18T13:57:18Z</time>
      </trkpt>
      <trkpt lat="46.01972" lon="6.3962">
        <ele>713.92</ele>
        <time>2020-05-18T13:57:19Z</time>
      </trkpt>
      <trkpt lat="46.01961" lon="6.39622">
        <ele>713.92</ele>
        <time>2020-05-18T13:57:20Z</time>
      </trkpt>
      <trkpt lat="46.01951" lon="6.39628">
        <ele>713.92</ele>
        <time>2020-05-18T13:57:21Z</time>
      </trkpt>
      <trkpt lat="46.01943" lon="6.39636">
        <ele>713.92</ele>
        <time>2020-05-18T13:57:22Z</time>
      </trkpt>
      <trkpt lat="46.01935" lon="6.39645">
        <ele>713.92</ele>
        <time>2020-05-18T13:57:23Z</time>
      </trkpt>
      <trkpt lat="46.01929" lon="6.39658">
        <ele>713.92</ele>
        <time>2020-05-18T13:57:24Z</time>
      </trkpt>
      <trkpt lat="46.01923" lon="6.39672">
        <ele>713.92</ele>
        <time>2020-05-18T13:57:25Z</time>
      </trkpt>
      <trkpt lat="46.01917" lon="6.39686">
        <ele>713.92</ele>
        <time>2020-05-18T13:57:26Z</time>
      </trkpt>
      <trkpt lat="46.01909" lon="6.39697">
        <ele>713.92</ele>
        <time>2020-05-18T13:57:27Z</time>
      </trkpt>
      <trkpt lat="46.01897" lon="6.39703">
        <ele>713.92</ele>
        <time>2020-05-18T13:57:28Z</time>
      </trkpt>
      <trkpt lat="46.01885" lon="6.397">
        <ele>713.92</ele>
        <time>2020-05-18T13:57:29Z</time>
      </trkpt>
      <trkpt lat="46.01873" lon="6.39695">
        <ele>713.92</ele>
        <time>2020-05-18T13:57:30Z</time>
      </trkpt>
      <trkpt lat="46.01859" lon="6.39688">
        <ele>714.4</ele>
        <time>2020-05-18T13:57:31Z</time>
      </trkpt>
      <trkpt lat="46.01846" lon="6.3968">
        <ele>714.88</ele>
        <time>2020-05-18T13:57:32Z</time>
      </trkpt>
      <trkpt lat="46.01833" lon="6.39672">
        <ele>715.84</ele>
        <time>2020-05-18T13:57:33Z</time>
      </trkpt>
      <trkpt lat="46.0174" lon="6.39643">
        <ele>719.2</ele>
        <time>2020-05-18T13:57:40Z</time>
      </trkpt>
      <trkpt lat="46.01626" lon="6.39602">
        <ele>722.09</ele>
        <time>2020-05-18T13:57:48Z</time>
      </trkpt>
      <trkpt lat="46.01609" lon="6.39599">
        <ele>722.09</ele>
        <time>2020-05-18T13:57:49Z</time>
      </trkpt>
      <trkpt lat="46.01595" lon="6.39597">
        <ele>722.57</ele>
        <time>2020-05-18T13:57:50Z</time>
      </trkpt>
      <trkpt lat="46.01581" lon="6.39596">
        <ele>722.57</ele>
        <time>2020-05-18T13:57:51Z</time>
      </trkpt>
      <trkpt lat="46.01449" lon="6.39628">
        <ele>721.13</ele>
        <time>2020-05-18T13:58:02Z</time>
      </trkpt>
      <trkpt lat="46.01351" lon="6.39651">
        <ele>717.28</ele>
        <time>2020-05-18T13:58:10Z</time>
      </trkpt>
      <trkpt lat="46.01338" lon="6.39647">
        <ele>716.8</ele>
        <time>2020-05-18T13:58:11Z</time>
      </trkpt>
      <trkpt lat="46.01325" lon="6.39642">
        <ele>716.8</ele>
        <time>2020-05-18T13:58:12Z</time>
      </trkpt>
      <trkpt lat="46.01217" lon="6.39597">
        <ele>716.32</ele>
        <time>2020-05-18T13:58:21Z</time>
      </trkpt>
      <trkpt lat="46.01181" lon="6.39583">
        <ele>717.28</ele>
        <time>2020-05-18T13:58:24Z</time>
      </trkpt>
      <trkpt lat="46.01169" lon="6.39582">
        <ele>717.76</ele>
        <time>2020-05-18T13:58:25Z</time>
      </trkpt>
      <trkpt lat="46.01156" lon="6.3958">
        <ele>717.76</ele>
        <time>2020-05-18T13:58:26Z</time>
      </trkpt>
      <trkpt lat="46.01145" lon="6.39587">
        <ele>717.76</ele>
        <time>2020-05-18T13:58:27Z</time>
      </trkpt>
      <trkpt lat="46.01133" lon="6.39595">
        <ele>717.76</ele>
        <time>2020-05-18T13:58:28Z</time>
      </trkpt>
      <trkpt lat="46.01122" lon="6.39607">
        <ele>717.76</ele>
        <time>2020-05-18T13:58:29Z</time>
      </trkpt>
      <trkpt lat="46.01111" lon="6.39618">
        <ele>717.76</ele>
        <time>2020-05-18T13:58:30Z</time>
      </trkpt>
      <trkpt lat="46.01079" lon="6.3965">
        <ele>717.76</ele>
        <time>2020-05-18T13:58:34Z</time>
      </trkpt>
      <trkpt lat="46.01028" lon="6.39682">
        <ele>717.28</ele>
        <time>2020-05-18T13:58:37Z</time>
      </trkpt>
      <trkpt lat="46.01014" lon="6.39684">
        <ele>717.28</ele>
        <time>2020-05-18T13:58:38Z</time>
      </trkpt>
      <trkpt lat="46.00986" lon="6.39688">
        <ele>716.8</ele>
        <time>2020-05-18T13:58:40Z</time>
      </trkpt>
      <trkpt lat="46.00971" lon="6.39686">
        <ele>716.8</ele>
        <time>2020-05-18T13:58:41Z</time>
      </trkpt>
      <trkpt lat="46.00774" lon="6.39673">
        <ele>720.65</ele>
        <time>2020-05-18T13:58:55Z</time>
      </trkpt>
      <trkpt lat="46.00615" lon="6.39692">
        <ele>721.61</ele>
        <time>2020-05-18T13:59:06Z</time>
      </trkpt>
      <trkpt lat="46.00551" lon="6.39705">
        <ele>720.16</ele>
        <time>2020-05-18T13:59:11Z</time>
      </trkpt>
      <trkpt lat="46.0054" lon="6.39711">
        <ele>719.2</ele>
        <time>2020-05-18T13:59:12Z</time>
      </trkpt>
      <trkpt lat="46.0053" lon="6.3972">
        <ele>718.24</ele>
        <time>2020-05-18T13:59:13Z</time>
      </trkpt>
      <trkpt lat="46.0052" lon="6.39729">
        <ele>717.28</ele>
        <time>2020-05-18T13:59:14Z</time>
      </trkpt>
      <trkpt lat="46.0051" lon="6.39737">
        <ele>716.8</ele>
        <time>2020-05-18T13:59:15Z</time>
      </trkpt>
      <trkpt lat="46.00501" lon="6.39746">
        <ele>715.84</ele>
        <time>2020-05-18T13:59:16Z</time>
      </trkpt>
      <trkpt lat="46.0049" lon="6.39753">
        <ele>715.36</ele>
        <time>2020-05-18T13:59:17Z</time>
      </trkpt>
      <trkpt lat="46.00478" lon="6.39756">
        <ele>714.4</ele>
        <time>2020-05-18T13:59:18Z</time>
      </trkpt>
      <trkpt lat="46.00467" lon="6.39755">
        <ele>713.92</ele>
        <time>2020-05-18T13:59:19Z</time>
      </trkpt>
      <trkpt lat="46.00456" lon="6.39752">
        <ele>712.95</ele>
        <time>2020-05-18T13:59:20Z</time>
      </trkpt>
      <trkpt lat="46.00445" lon="6.39748">
        <ele>712.95</ele>
        <time>2020-05-18T13:59:21Z</time>
      </trkpt>
      <trkpt lat="46.00383" lon="6.39718">
        <ele>712.95</ele>
        <time>2020-05-18T13:59:29Z</time>
      </trkpt>
      <trkpt lat="46.00362" lon="6.39707">
        <ele>713.44</ele>
        <time>2020-05-18T13:59:34Z</time>
      </trkpt>
      <trkpt lat="46.00338" lon="6.39693">
        <ele>715.84</ele>
        <time>2020-05-18T13:59:43Z</time>
      </trkpt>
      <trkpt lat="46.00333" lon="6.3969">
        <ele>715.84</ele>
        <time>2020-05-18T13:59:50Z</time>
      </trkpt>
      <trkpt lat="46.00331" lon="6.39689">
        <ele>716.32</ele>
        <time>2020-05-18T13:59:51Z</time>
      </trkpt>
      <trkpt lat="46.00328" lon="6.39687">
        <ele>716.32</ele>
        <time>2020-05-18T13:59:52Z</time>
      </trkpt>
      <trkpt lat="46.00324" lon="6.39685">
        <ele>716.8</ele>
        <time>2020-05-18T13:59:53Z</time>
      </trkpt>
      <trkpt lat="46.00321" lon="6.39683">
        <ele>716.8</ele>
        <time>2020-05-18T13:59:54Z</time>
      </trkpt>
      <trkpt lat="46.00318" lon="6.39682">
        <ele>717.28</ele>
        <time>2020-05-18T13:59:55Z</time>
      </trkpt>
      <trkpt lat="46.00316" lon="6.3968">
        <ele>717.76</ele>
        <time>2020-05-18T13:59:57Z</time>
      </trkpt>
      <trkpt lat="46.00314" lon="6.39679">
        <ele>718.24</ele>
        <time>2020-05-18T14:00:11Z</time>
      </trkpt>
      <trkpt lat="46.00314" lon="6.39679">
        <ele>718.72</ele>
        <time>2020-05-18T14:00:59Z</time>
      </trkpt>
      <trkpt lat="46.0029" lon="6.39664">
        <ele>721.13</ele>
        <time>2020-05-18T14:01:08Z</time>
      </trkpt>
      <trkpt lat="46.00286" lon="6.39661">
        <ele>720.65</ele>
        <time>2020-05-18T14:01:09Z</time>
      </trkpt>
      <trkpt lat="46.00281" lon="6.39658">
        <ele>721.13</ele>
        <time>2020-05-18T14:01:10Z</time>
      </trkpt>
      <trkpt lat="46.0027" lon="6.39651">
        <ele>722.09</ele>
        <time>2020-05-18T14:01:12Z</time>
      </trkpt>
      <trkpt lat="46.00263" lon="6.39649">
        <ele>722.09</ele>
        <time>2020-05-18T14:01:13Z</time>
      </trkpt>
      <trkpt lat="46.00255" lon="6.39646">
        <ele>722.57</ele>
        <time>2020-05-18T14:01:15Z</time>
      </trkpt>
      <trkpt lat="46.00226" lon="6.39633">
        <ele>723.53</ele>
        <time>2020-05-18T14:01:19Z</time>
      </trkpt>
      <trkpt lat="46.00212" lon="6.39628">
        <ele>723.53</ele>
        <time>2020-05-18T14:01:21Z</time>
      </trkpt>
      <trkpt lat="46.00199" lon="6.39623">
        <ele>724.01</ele>
        <time>2020-05-18T14:01:22Z</time>
      </trkpt>
      <trkpt lat="46.00193" lon="6.39623">
        <ele>724.01</ele>
        <time>2020-05-18T14:01:24Z</time>
      </trkpt>
      <trkpt lat="46.00178" lon="6.39623">
        <ele>724.49</ele>
        <time>2020-05-18T14:01:25Z</time>
      </trkpt>
      <trkpt lat="46.0017" lon="6.39622">
        <ele>724.49</ele>
        <time>2020-05-18T14:01:26Z</time>
      </trkpt>
      <trkpt lat="46.00141" lon="6.39622">
        <ele>726.89</ele>
        <time>2020-05-18T14:01:30Z</time>
      </trkpt>
      <trkpt lat="46.00135" lon="6.39621">
        <ele>727.37</ele>
        <time>2020-05-18T14:01:31Z</time>
      </trkpt>
      <trkpt lat="46.00116" lon="6.39621">
        <ele>729.3</ele>
        <time>2020-05-18T14:01:35Z</time>
      </trkpt>
      <trkpt lat="46.0011" lon="6.3962">
        <ele>730.26</ele>
        <time>2020-05-18T14:01:36Z</time>
      </trkpt>
      <trkpt lat="46.00105" lon="6.39619">
        <ele>731.22</ele>
        <time>2020-05-18T14:01:38Z</time>
      </trkpt>
      <trkpt lat="46.00094" lon="6.39617">
        <ele>732.18</ele>
        <time>2020-05-18T14:01:39Z</time>
      </trkpt>
      <trkpt lat="46.00084" lon="6.39613">
        <ele>733.62</ele>
        <time>2020-05-18T14:01:42Z</time>
      </trkpt>
      <trkpt lat="46.00062" lon="6.39598">
        <ele>735.07</ele>
        <time>2020-05-18T14:01:45Z</time>
      </trkpt>
      <trkpt lat="46.00056" lon="6.39594">
        <ele>735.55</ele>
        <time>2020-05-18T14:01:46Z</time>
      </trkpt>
      <trkpt lat="46.00023" lon="6.39557">
        <ele>737.95</ele>
        <time>2020-05-18T14:01:53Z</time>
      </trkpt>
      <trkpt lat="45.99999" lon="6.39525">
        <ele>738.91</ele>
        <time>2020-05-18T14:01:57Z</time>
      </trkpt>
      <trkpt lat="45.99982" lon="6.39497">
        <ele>739.87</ele>
        <time>2020-05-18T14:02:01Z</time>
      </trkpt>
      <trkpt lat="45.99964" lon="6.39476">
        <ele>740.83</ele>
        <time>2020-05-18T14:02:07Z</time>
      </trkpt>
      <trkpt lat="45.99956" lon="6.39467">
        <ele>741.31</ele>
        <time>2020-05-18T14:02:09Z</time>
      </trkpt>
      <trkpt lat="45.99952" lon="6.39463">
        <ele>741.79</ele>
        <time>2020-05-18T14:02:10Z</time>
      </trkpt>
      <trkpt lat="45.99947" lon="6.39461">
        <ele>741.79</ele>
        <time>2020-05-18T14:02:11Z</time>
      </trkpt>
      <trkpt lat="45.99936" lon="6.39456">
        <ele>742.28</ele>
        <time>2020-05-18T14:02:13Z</time>
      </trkpt>
      <trkpt lat="45.99928" lon="6.39453">
        <ele>742.76</ele>
        <time>2020-05-18T14:02:14Z</time>
      </trkpt>
      <trkpt lat="45.99919" lon="6.3945">
        <ele>742.76</ele>
        <time>2020-05-18T14:02:15Z</time>
      </trkpt>
      <trkpt lat="45.99907" lon="6.39447">
        <ele>742.76</ele>
        <time>2020-05-18T14:02:16Z</time>
      </trkpt>
      <trkpt lat="45.99895" lon="6.39447">
        <ele>743.24</ele>
        <time>2020-05-18T14:02:17Z</time>
      </trkpt>
      <trkpt lat="45.99799" lon="6.39449">
        <ele>746.6</ele>
        <time>2020-05-18T14:02:24Z</time>
      </trkpt>
      <trkpt lat="45.99617" lon="6.39433">
        <ele>750.45</ele>
        <time>2020-05-18T14:02:36Z</time>
      </trkpt>
      <trkpt lat="45.99522" lon="6.39445">
        <ele>751.41</ele>
        <time>2020-05-18T14:02:40Z</time>
      </trkpt>
      <trkpt lat="45.99501" lon="6.39448">
        <ele>751.89</ele>
        <time>2020-05-18T14:02:42Z</time>
      </trkpt>
      <trkpt lat="45.99378" lon="6.39416">
        <ele>753.33</ele>
        <time>2020-05-18T14:02:48Z</time>
      </trkpt>
      <trkpt lat="45.99231" lon="6.39336">
        <ele>755.73</ele>
        <time>2020-05-18T14:02:58Z</time>
      </trkpt>
      <trkpt lat="45.9919" lon="6.39322">
        <ele>755.25</ele>
        <time>2020-05-18T14:03:02Z</time>
      </trkpt>
      <trkpt lat="45.9918" lon="6.39325">
        <ele>755.25</ele>
        <time>2020-05-18T14:03:03Z</time>
      </trkpt>
      <trkpt lat="45.99173" lon="6.39331">
        <ele>754.29</ele>
        <time>2020-05-18T14:03:05Z</time>
      </trkpt>
      <trkpt lat="45.9916" lon="6.39354">
        <ele>754.29</ele>
        <time>2020-05-18T14:03:06Z</time>
      </trkpt>
      <trkpt lat="45.99153" lon="6.39365">
        <ele>753.81</ele>
        <time>2020-05-18T14:03:07Z</time>
      </trkpt>
      <trkpt lat="45.99146" lon="6.39372">
        <ele>753.33</ele>
        <time>2020-05-18T14:03:08Z</time>
      </trkpt>
      <trkpt lat="45.99138" lon="6.39379">
        <ele>752.85</ele>
        <time>2020-05-18T14:03:09Z</time>
      </trkpt>
      <trkpt lat="45.99128" lon="6.39382">
        <ele>751.41</ele>
        <time>2020-05-18T14:03:11Z</time>
      </trkpt>
      <trkpt lat="45.99118" lon="6.3938">
        <ele>750.93</ele>
        <time>2020-05-18T14:03:12Z</time>
      </trkpt>
      <trkpt lat="45.99088" lon="6.39374">
        <ele>747.56</ele>
        <time>2020-05-18T14:03:15Z</time>
      </trkpt>
      <trkpt lat="45.99067" lon="6.39375">
        <ele>746.6</ele>
        <time>2020-05-18T14:03:16Z</time>
      </trkpt>
      <trkpt lat="45.99056" lon="6.39376">
        <ele>746.12</ele>
        <time>2020-05-18T14:03:17Z</time>
      </trkpt>
      <trkpt lat="45.99045" lon="6.39378">
        <ele>745.16</ele>
        <time>2020-05-18T14:03:18Z</time>
      </trkpt>
      <trkpt lat="45.99035" lon="6.3938">
        <ele>744.68</ele>
        <time>2020-05-18T14:03:19Z</time>
      </trkpt>
      <trkpt lat="45.99025" lon="6.39377">
        <ele>744.2</ele>
        <time>2020-05-18T14:03:20Z</time>
      </trkpt>
      <trkpt lat="45.99015" lon="6.39368">
        <ele>744.2</ele>
        <time>2020-05-18T14:03:21Z</time>
      </trkpt>
      <trkpt lat="45.99005" lon="6.39359">
        <ele>743.24</ele>
        <time>2020-05-18T14:03:22Z</time>
      </trkpt>
      <trkpt lat="45.98988" lon="6.39345">
        <ele>741.79</ele>
        <time>2020-05-18T14:03:25Z</time>
      </trkpt>
      <trkpt lat="45.98971" lon="6.39341">
        <ele>741.31</ele>
        <time>2020-05-18T14:03:26Z</time>
      </trkpt>
      <trkpt lat="45.98962" lon="6.39343">
        <ele>740.35</ele>
        <time>2020-05-18T14:03:27Z</time>
      </trkpt>
      <trkpt lat="45.98938" lon="6.39345">
        <ele>737.95</ele>
        <time>2020-05-18T14:03:29Z</time>
      </trkpt>
      <trkpt lat="45.98927" lon="6.39345">
        <ele>736.99</ele>
        <time>2020-05-18T14:03:30Z</time>
      </trkpt>
      <trkpt lat="45.98914" lon="6.39342">
        <ele>736.03</ele>
        <time>2020-05-18T14:03:31Z</time>
      </trkpt>
      <trkpt lat="45.98903" lon="6.39336">
        <ele>735.55</ele>
        <time>2020-05-18T14:03:32Z</time>
      </trkpt>
      <trkpt lat="45.98892" lon="6.39328">
        <ele>735.07</ele>
        <time>2020-05-18T14:03:33Z</time>
      </trkpt>
      <trkpt lat="45.9888" lon="6.39318">
        <ele>734.1</ele>
        <time>2020-05-18T14:03:34Z</time>
      </trkpt>
      <trkpt lat="45.98869" lon="6.39308">
        <ele>733.62</ele>
        <time>2020-05-18T14:03:35Z</time>
      </trkpt>
      <trkpt lat="45.9881" lon="6.39243">
        <ele>730.74</ele>
        <time>2020-05-18T14:03:39Z</time>
      </trkpt>
      <trkpt lat="45.98794" lon="6.3922">
        <ele>730.26</ele>
        <time>2020-05-18T14:03:40Z</time>
      </trkpt>
      <trkpt lat="45.98768" lon="6.39175">
        <ele>728.34</ele>
        <time>2020-05-18T14:03:42Z</time>
      </trkpt>
      <trkpt lat="45.98753" lon="6.39157">
        <ele>727.37</ele>
        <time>2020-05-18T14:03:43Z</time>
      </trkpt>
      <trkpt lat="45.98737" lon="6.39141">
        <ele>726.41</ele>
        <time>2020-05-18T14:03:44Z</time>
      </trkpt>
      <trkpt lat="45.9862" lon="6.39038">
        <ele>720.16</ele>
        <time>2020-05-18T14:03:50Z</time>
      </trkpt>
      <trkpt lat="45.98517" lon="6.38904">
        <ele>717.76</ele>
        <time>2020-05-18T14:03:54Z</time>
      </trkpt>
      <trkpt lat="45.98449" lon="6.38798">
        <ele>718.24</ele>
        <time>2020-05-18T14:03:58Z</time>
      </trkpt>
      <trkpt lat="45.98434" lon="6.38785">
        <ele>718.72</ele>
        <time>2020-05-18T14:03:59Z</time>
      </trkpt>
      <trkpt lat="45.98419" lon="6.38776">
        <ele>719.2</ele>
        <time>2020-05-18T14:04:00Z</time>
      </trkpt>
      <trkpt lat="45.98402" lon="6.38768">
        <ele>719.68</ele>
        <time>2020-05-18T14:04:01Z</time>
      </trkpt>
      <trkpt lat="45.98382" lon="6.38764">
        <ele>720.65</ele>
        <time>2020-05-18T14:04:02Z</time>
      </trkpt>
      <trkpt lat="45.98363" lon="6.3876">
        <ele>721.61</ele>
        <time>2020-05-18T14:04:03Z</time>
      </trkpt>
      <trkpt lat="45.98325" lon="6.38752">
        <ele>723.05</ele>
        <time>2020-05-18T14:04:05Z</time>
      </trkpt>
      <trkpt lat="45.98255" lon="6.38733">
        <ele>725.45</ele>
        <time>2020-05-18T14:04:09Z</time>
      </trkpt>
      <trkpt lat="45.98239" lon="6.38733">
        <ele>725.93</ele>
        <time>2020-05-18T14:04:10Z</time>
      </trkpt>
      <trkpt lat="45.98223" lon="6.38733">
        <ele>726.41</ele>
        <time>2020-05-18T14:04:11Z</time>
      </trkpt>
      <trkpt lat="45.98137" lon="6.3874">
        <ele>727.86</ele>
        <time>2020-05-18T14:04:15Z</time>
      </trkpt>
      <trkpt lat="45.97996" lon="6.38735">
        <ele>729.3</ele>
        <time>2020-05-18T14:04:19Z</time>
      </trkpt>
      <trkpt lat="45.97868" lon="6.38721">
        <ele>731.7</ele>
        <time>2020-05-18T14:04:23Z</time>
      </trkpt>
      <trkpt lat="45.97808" lon="6.38722">
        <ele>733.14</ele>
        <time>2020-05-18T14:04:26Z</time>
      </trkpt>
      <trkpt lat="45.9779" lon="6.38725">
        <ele>733.62</ele>
        <time>2020-05-18T14:04:27Z</time>
      </trkpt>
      <trkpt lat="45.97773" lon="6.38727">
        <ele>734.1</ele>
        <time>2020-05-18T14:04:28Z</time>
      </trkpt>
      <trkpt lat="45.97756" lon="6.3873">
        <ele>734.58</ele>
        <time>2020-05-18T14:04:29Z</time>
      </trkpt>
      <trkpt lat="45.97739" lon="6.38724">
        <ele>735.07</ele>
        <time>2020-05-18T14:04:30Z</time>
      </trkpt>
      <trkpt lat="45.9772" lon="6.38715">
        <ele>735.07</ele>
        <time>2020-05-18T14:04:31Z</time>
      </trkpt>
      <trkpt lat="45.97699" lon="6.38706">
        <ele>736.03</ele>
        <time>2020-05-18T14:04:32Z</time>
      </trkpt>
      <trkpt lat="45.97675" lon="6.38699">
        <ele>736.51</ele>
        <time>2020-05-18T14:04:33Z</time>
      </trkpt>
      <trkpt lat="45.9765" lon="6.38693">
        <ele>737.95</ele>
        <time>2020-05-18T14:04:35Z</time>
      </trkpt>
      <trkpt lat="45.97497" lon="6.38661">
        <ele>740.83</ele>
        <time>2020-05-18T14:04:41Z</time>
      </trkpt>
      <trkpt lat="45.97482" lon="6.38658">
        <ele>741.79</ele>
        <time>2020-05-18T14:04:43Z</time>
      </trkpt>
      <trkpt lat="45.97461" lon="6.3864">
        <ele>742.28</ele>
        <time>2020-05-18T14:04:44Z</time>
      </trkpt>
      <trkpt lat="45.97452" lon="6.38623">
        <ele>743.24</ele>
        <time>2020-05-18T14:04:45Z</time>
      </trkpt>
      <trkpt lat="45.97442" lon="6.38605">
        <ele>743.72</ele>
        <time>2020-05-18T14:04:46Z</time>
      </trkpt>
      <trkpt lat="45.97432" lon="6.38584">
        <ele>744.68</ele>
        <time>2020-05-18T14:04:47Z</time>
      </trkpt>
      <trkpt lat="45.97417" lon="6.38564">
        <ele>746.12</ele>
        <time>2020-05-18T14:04:49Z</time>
      </trkpt>
      <trkpt lat="45.97373" lon="6.38502">
        <ele>747.08</ele>
        <time>2020-05-18T14:04:51Z</time>
      </trkpt>
      <trkpt lat="45.97335" lon="6.38452">
        <ele>747.08</ele>
        <time>2020-05-18T14:04:54Z</time>
      </trkpt>
      <trkpt lat="45.97325" lon="6.38441">
        <ele>747.56</ele>
        <time>2020-05-18T14:04:55Z</time>
      </trkpt>
      <trkpt lat="45.97313" lon="6.38436">
        <ele>747.56</ele>
        <time>2020-05-18T14:04:56Z</time>
      </trkpt>
      <trkpt lat="45.973" lon="6.3843">
        <ele>747.56</ele>
        <time>2020-05-18T14:04:57Z</time>
      </trkpt>
      <trkpt lat="45.97285" lon="6.38434">
        <ele>747.56</ele>
        <time>2020-05-18T14:04:58Z</time>
      </trkpt>
      <trkpt lat="45.97268" lon="6.38439">
        <ele>748.04</ele>
        <time>2020-05-18T14:04:59Z</time>
      </trkpt>
      <trkpt lat="45.97144" lon="6.38478">
        <ele>745.64</ele>
        <time>2020-05-18T14:05:05Z</time>
      </trkpt>
      <trkpt lat="45.97087" lon="6.38492">
        <ele>745.16</ele>
        <time>2020-05-18T14:05:08Z</time>
      </trkpt>
      <trkpt lat="45.97068" lon="6.3849">
        <ele>744.68</ele>
        <time>2020-05-18T14:05:09Z</time>
      </trkpt>
      <trkpt lat="45.97049" lon="6.3848">
        <ele>744.68</ele>
        <time>2020-05-18T14:05:10Z</time>
      </trkpt>
      <trkpt lat="45.97028" lon="6.3847">
        <ele>744.68</ele>
        <time>2020-05-18T14:05:11Z</time>
      </trkpt>
      <trkpt lat="45.97009" lon="6.3846">
        <ele>745.16</ele>
        <time>2020-05-18T14:05:12Z</time>
      </trkpt>
      <trkpt lat="45.96978" lon="6.38445">
        <ele>745.64</ele>
        <time>2020-05-18T14:05:14Z</time>
      </trkpt>
      <trkpt lat="45.96963" lon="6.38442">
        <ele>746.12</ele>
        <time>2020-05-18T14:05:15Z</time>
      </trkpt>
      <trkpt lat="45.96947" lon="6.38445">
        <ele>746.6</ele>
        <time>2020-05-18T14:05:16Z</time>
      </trkpt>
      <trkpt lat="45.96928" lon="6.38451">
        <ele>746.6</ele>
        <time>2020-05-18T14:05:17Z</time>
      </trkpt>
      <trkpt lat="45.96907" lon="6.3846">
        <ele>747.08</ele>
        <time>2020-05-18T14:05:18Z</time>
      </trkpt>
      <trkpt lat="45.96883" lon="6.38473">
        <ele>747.56</ele>
        <time>2020-05-18T14:05:19Z</time>
      </trkpt>
      <trkpt lat="45.96755" lon="6.38528">
        <ele>751.41</ele>
        <time>2020-05-18T14:05:24Z</time>
      </trkpt>
      <trkpt lat="45.96732" lon="6.38534">
        <ele>751.89</ele>
        <time>2020-05-18T14:05:25Z</time>
      </trkpt>
      <trkpt lat="45.96707" lon="6.38537">
        <ele>752.85</ele>
        <time>2020-05-18T14:05:26Z</time>
      </trkpt>
      <trkpt lat="45.96592" lon="6.38537">
        <ele>755.73</ele>
        <time>2020-05-18T14:05:31Z</time>
      </trkpt>
      <trkpt lat="45.96569" lon="6.38546">
        <ele>756.21</ele>
        <time>2020-05-18T14:05:32Z</time>
      </trkpt>
      <trkpt lat="45.96545" lon="6.38556">
        <ele>756.69</ele>
        <time>2020-05-18T14:05:33Z</time>
      </trkpt>
      <trkpt lat="45.96438" lon="6.38614">
        <ele>758.62</ele>
        <time>2020-05-18T14:05:38Z</time>
      </trkpt>
      <trkpt lat="45.9642" lon="6.38621">
        <ele>759.1</ele>
        <time>2020-05-18T14:05:39Z</time>
      </trkpt>
      <trkpt lat="45.964" lon="6.38618">
        <ele>759.1</ele>
        <time>2020-05-18T14:05:40Z</time>
      </trkpt>
      <trkpt lat="45.9638" lon="6.38614">
        <ele>759.58</ele>
        <time>2020-05-18T14:05:41Z</time>
      </trkpt>
      <trkpt lat="45.9636" lon="6.38608">
        <ele>759.58</ele>
        <time>2020-05-18T14:05:42Z</time>
      </trkpt>
      <trkpt lat="45.9634" lon="6.38599">
        <ele>759.58</ele>
        <time>2020-05-18T14:05:43Z</time>
      </trkpt>
      <trkpt lat="45.96321" lon="6.38595">
        <ele>760.06</ele>
        <time>2020-05-18T14:05:44Z</time>
      </trkpt>
      <trkpt lat="45.96302" lon="6.38593">
        <ele>760.06</ele>
        <time>2020-05-18T14:05:45Z</time>
      </trkpt>
      <trkpt lat="45.96284" lon="6.3859">
        <ele>760.06</ele>
        <time>2020-05-18T14:05:46Z</time>
      </trkpt>
      <trkpt lat="45.96268" lon="6.38589">
        <ele>761.02</ele>
        <time>2020-05-18T14:05:48Z</time>
      </trkpt>
      <trkpt lat="45.96238" lon="6.38587">
        <ele>761.02</ele>
        <time>2020-05-18T14:05:49Z</time>
      </trkpt>
      <trkpt lat="45.96224" lon="6.38591">
        <ele>761.5</ele>
        <time>2020-05-18T14:05:50Z</time>
      </trkpt>
      <trkpt lat="45.9621" lon="6.38597">
        <ele>761.98</ele>
        <time>2020-05-18T14:05:51Z</time>
      </trkpt>
      <trkpt lat="45.96069" lon="6.38684">
        <ele>766.31</ele>
        <time>2020-05-18T14:06:01Z</time>
      </trkpt>
      <trkpt lat="45.95971" lon="6.38742">
        <ele>770.15</ele>
        <time>2020-05-18T14:06:11Z</time>
      </trkpt>
      <trkpt lat="45.9596" lon="6.38747">
        <ele>770.15</ele>
        <time>2020-05-18T14:06:12Z</time>
      </trkpt>
      <trkpt lat="45.95837" lon="6.38783">
        <ele>773.04</ele>
        <time>2020-05-18T14:06:21Z</time>
      </trkpt>
      <trkpt lat="45.95825" lon="6.38785">
        <ele>773.52</ele>
        <time>2020-05-18T14:06:22Z</time>
      </trkpt>
      <trkpt lat="45.9571" lon="6.38815">
        <ele>775.92</ele>
        <time>2020-05-18T14:06:32Z</time>
      </trkpt>
      <trkpt lat="45.95627" lon="6.3885">
        <ele>776.88</ele>
        <time>2020-05-18T14:06:39Z</time>
      </trkpt>
      <trkpt lat="45.95557" lon="6.38893">
        <ele>778.81</ele>
        <time>2020-05-18T14:06:45Z</time>
      </trkpt>
      <trkpt lat="45.95545" lon="6.38906">
        <ele>778.81</ele>
        <time>2020-05-18T14:06:46Z</time>
      </trkpt>
      <trkpt lat="45.95483" lon="6.38983">
        <ele>780.25</ele>
        <time>2020-05-18T14:06:51Z</time>
      </trkpt>
      <trkpt lat="45.95468" lon="6.38995">
        <ele>780.73</ele>
        <time>2020-05-18T14:06:52Z</time>
      </trkpt>
      <trkpt lat="45.95452" lon="6.39006">
        <ele>781.69</ele>
        <time>2020-05-18T14:06:54Z</time>
      </trkpt>
      <trkpt lat="45.95418" lon="6.39011">
        <ele>782.17</ele>
        <time>2020-05-18T14:06:55Z</time>
      </trkpt>
      <trkpt lat="45.95352" lon="6.3902">
        <ele>785.05</ele>
        <time>2020-05-18T14:06:59Z</time>
      </trkpt>
      <trkpt lat="45.95322" lon="6.39027">
        <ele>786.02</ele>
        <time>2020-05-18T14:07:01Z</time>
      </trkpt>
      <trkpt lat="45.95309" lon="6.39038">
        <ele>786.98</ele>
        <time>2020-05-18T14:07:02Z</time>
      </trkpt>
      <trkpt lat="45.95296" lon="6.3905">
        <ele>787.46</ele>
        <time>2020-05-18T14:07:03Z</time>
      </trkpt>
      <trkpt lat="45.95284" lon="6.39066">
        <ele>788.42</ele>
        <time>2020-05-18T14:07:04Z</time>
      </trkpt>
      <trkpt lat="45.95273" lon="6.39084">
        <ele>788.9</ele>
        <time>2020-05-18T14:07:05Z</time>
      </trkpt>
      <trkpt lat="45.95163" lon="6.39292">
        <ele>794.67</ele>
        <time>2020-05-18T14:07:16Z</time>
      </trkpt>
      <trkpt lat="45.95085" lon="6.39446">
        <ele>797.55</ele>
        <time>2020-05-18T14:07:25Z</time>
      </trkpt>
      <trkpt lat="45.95028" lon="6.39577">
        <ele>799.95</ele>
        <time>2020-05-18T14:07:31Z</time>
      </trkpt>
      <trkpt lat="45.9501" lon="6.39633">
        <ele>800.92</ele>
        <time>2020-05-18T14:07:33Z</time>
      </trkpt>
      <trkpt lat="45.94999" lon="6.39653">
        <ele>801.88</ele>
        <time>2020-05-18T14:07:34Z</time>
      </trkpt>
      <trkpt lat="45.94989" lon="6.3967">
        <ele>802.36</ele>
        <time>2020-05-18T14:07:35Z</time>
      </trkpt>
      <trkpt lat="45.94979" lon="6.39684">
        <ele>802.36</ele>
        <time>2020-05-18T14:07:36Z</time>
      </trkpt>
      <trkpt lat="45.94968" lon="6.39694">
        <ele>802.84</ele>
        <time>2020-05-18T14:07:37Z</time>
      </trkpt>
      <trkpt lat="45.94956" lon="6.39704">
        <ele>803.32</ele>
        <time>2020-05-18T14:07:38Z</time>
      </trkpt>
      <trkpt lat="45.94922" lon="6.39734">
        <ele>804.28</ele>
        <time>2020-05-18T14:07:41Z</time>
      </trkpt>
      <trkpt lat="45.94897" lon="6.39757">
        <ele>805.72</ele>
        <time>2020-05-18T14:07:44Z</time>
      </trkpt>
      <trkpt lat="45.94789" lon="6.39885">
        <ele>808.13</ele>
        <time>2020-05-18T14:07:48Z</time>
      </trkpt>
      <trkpt lat="45.94652" lon="6.40067">
        <ele>812.93</ele>
        <time>2020-05-18T14:07:54Z</time>
      </trkpt>
      <trkpt lat="45.94487" lon="6.40213">
        <ele>817.26</ele>
        <time>2020-05-18T14:08:00Z</time>
      </trkpt>
      <trkpt lat="45.94372" lon="6.40289">
        <ele>821.58</ele>
        <time>2020-05-18T14:08:05Z</time>
      </trkpt>
      <trkpt lat="45.94348" lon="6.40297">
        <ele>822.55</ele>
        <time>2020-05-18T14:08:06Z</time>
      </trkpt>
      <trkpt lat="45.943" lon="6.40309">
        <ele>823.99</ele>
        <time>2020-05-18T14:08:08Z</time>
      </trkpt>
      <trkpt lat="45.94274" lon="6.40309">
        <ele>824.47</ele>
        <time>2020-05-18T14:08:09Z</time>
      </trkpt>
      <trkpt lat="45.94249" lon="6.40304">
        <ele>825.43</ele>
        <time>2020-05-18T14:08:10Z</time>
      </trkpt>
      <trkpt lat="45.942" lon="6.40294">
        <ele>827.35</ele>
        <time>2020-05-18T14:08:12Z</time>
      </trkpt>
      <trkpt lat="45.9416" lon="6.40287">
        <ele>829.76</ele>
        <time>2020-05-18T14:08:14Z</time>
      </trkpt>
      <trkpt lat="45.94125" lon="6.40276">
        <ele>833.12</ele>
        <time>2020-05-18T14:08:17Z</time>
      </trkpt>
      <trkpt lat="45.94109" lon="6.40269">
        <ele>834.08</ele>
        <time>2020-05-18T14:08:18Z</time>
      </trkpt>
      <trkpt lat="45.94099" lon="6.40257">
        <ele>835.52</ele>
        <time>2020-05-18T14:08:19Z</time>
      </trkpt>
      <trkpt lat="45.94086" lon="6.40241">
        <ele>836.96</ele>
        <time>2020-05-18T14:08:20Z</time>
      </trkpt>
      <trkpt lat="45.94072" lon="6.40226">
        <ele>838.41</ele>
        <time>2020-05-18T14:08:21Z</time>
      </trkpt>
      <trkpt lat="45.94051" lon="6.40213">
        <ele>839.85</ele>
        <time>2020-05-18T14:08:22Z</time>
      </trkpt>
      <trkpt lat="45.94034" lon="6.40209">
        <ele>840.81</ele>
        <time>2020-05-18T14:08:23Z</time>
      </trkpt>
      <trkpt lat="45.94015" lon="6.40204">
        <ele>841.77</ele>
        <time>2020-05-18T14:08:24Z</time>
      </trkpt>
      <trkpt lat="45.93995" lon="6.40202">
        <ele>842.73</ele>
        <time>2020-05-18T14:08:25Z</time>
      </trkpt>
      <trkpt lat="45.93977" lon="6.40206">
        <ele>843.69</ele>
        <time>2020-05-18T14:08:26Z</time>
      </trkpt>
      <trkpt lat="45.9396" lon="6.4021">
        <ele>844.66</ele>
        <time>2020-05-18T14:08:27Z</time>
      </trkpt>
      <trkpt lat="45.93948" lon="6.40213">
        <ele>844.66</ele>
        <time>2020-05-18T14:08:28Z</time>
      </trkpt>
      <trkpt lat="45.93926" lon="6.40209">
        <ele>844.66</ele>
        <time>2020-05-18T14:08:29Z</time>
      </trkpt>
      <trkpt lat="45.93908" lon="6.40206">
        <ele>844.66</ele>
        <time>2020-05-18T14:08:30Z</time>
      </trkpt>
      <trkpt lat="45.93863" lon="6.40198">
        <ele>844.18</ele>
        <time>2020-05-18T14:08:33Z</time>
      </trkpt>
      <trkpt lat="45.9385" lon="6.40196">
        <ele>844.18</ele>
        <time>2020-05-18T14:08:34Z</time>
      </trkpt>
      <trkpt lat="45.93828" lon="6.40183">
        <ele>843.69</ele>
        <time>2020-05-18T14:08:35Z</time>
      </trkpt>
      <trkpt lat="45.93823" lon="6.40174">
        <ele>843.69</ele>
        <time>2020-05-18T14:08:36Z</time>
      </trkpt>
      <trkpt lat="45.93807" lon="6.40147">
        <ele>843.69</ele>
        <time>2020-05-18T14:08:37Z</time>
      </trkpt>
      <trkpt lat="45.93795" lon="6.40126">
        <ele>843.21</ele>
        <time>2020-05-18T14:08:38Z</time>
      </trkpt>
      <trkpt lat="45.93784" lon="6.40108">
        <ele>843.21</ele>
        <time>2020-05-18T14:08:39Z</time>
      </trkpt>
      <trkpt lat="45.93769" lon="6.40093">
        <ele>843.21</ele>
        <time>2020-05-18T14:08:40Z</time>
      </trkpt>
      <trkpt lat="45.93751" lon="6.40084">
        <ele>843.69</ele>
        <time>2020-05-18T14:08:41Z</time>
      </trkpt>
      <trkpt lat="45.93734" lon="6.40081">
        <ele>844.66</ele>
        <time>2020-05-18T14:08:42Z</time>
      </trkpt>
      <trkpt lat="45.93718" lon="6.40078">
        <ele>846.58</ele>
        <time>2020-05-18T14:08:43Z</time>
      </trkpt>
      <trkpt lat="45.93702" lon="6.40069">
        <ele>847.54</ele>
        <time>2020-05-18T14:08:44Z</time>
      </trkpt>
      <trkpt lat="45.93686" lon="6.40059">
        <ele>848.98</ele>
        <time>2020-05-18T14:08:45Z</time>
      </trkpt>
      <trkpt lat="45.93669" lon="6.4005">
        <ele>849.94</ele>
        <time>2020-05-18T14:08:46Z</time>
      </trkpt>
      <trkpt lat="45.93651" lon="6.40046">
        <ele>850.9</ele>
        <time>2020-05-18T14:08:47Z</time>
      </trkpt>
      <trkpt lat="45.93609" lon="6.40046">
        <ele>853.31</ele>
        <time>2020-05-18T14:08:49Z</time>
      </trkpt>
      <trkpt lat="45.93586" lon="6.40046">
        <ele>854.27</ele>
        <time>2020-05-18T14:08:50Z</time>
      </trkpt>
      <trkpt lat="45.93562" lon="6.40044">
        <ele>854.75</ele>
        <time>2020-05-18T14:08:51Z</time>
      </trkpt>
      <trkpt lat="45.93477" lon="6.40033">
        <ele>858.11</ele>
        <time>2020-05-18T14:08:55Z</time>
      </trkpt>
      <trkpt lat="45.93459" lon="6.40037">
        <ele>858.59</ele>
        <time>2020-05-18T14:08:56Z</time>
      </trkpt>
      <trkpt lat="45.9344" lon="6.40049">
        <ele>859.08</ele>
        <time>2020-05-18T14:08:57Z</time>
      </trkpt>
      <trkpt lat="45.93397" lon="6.40079">
        <ele>859.56</ele>
        <time>2020-05-18T14:08:59Z</time>
      </trkpt>
      <trkpt lat="45.93336" lon="6.40123">
        <ele>858.11</ele>
        <time>2020-05-18T14:09:02Z</time>
      </trkpt>
      <trkpt lat="45.93319" lon="6.40142">
        <ele>858.11</ele>
        <time>2020-05-18T14:09:03Z</time>
      </trkpt>
      <trkpt lat="45.93302" lon="6.40163">
        <ele>858.11</ele>
        <time>2020-05-18T14:09:04Z</time>
      </trkpt>
      <trkpt lat="45.93287" lon="6.40189">
        <ele>858.11</ele>
        <time>2020-05-18T14:09:05Z</time>
      </trkpt>
      <trkpt lat="45.9327" lon="6.40217">
        <ele>858.11</ele>
        <time>2020-05-18T14:09:06Z</time>
      </trkpt>
      <trkpt lat="45.93217" lon="6.40291">
        <ele>858.59</ele>
        <time>2020-05-18T14:09:09Z</time>
      </trkpt>
      <trkpt lat="45.93202" lon="6.40317">
        <ele>858.59</ele>
        <time>2020-05-18T14:09:10Z</time>
      </trkpt>
      <trkpt lat="45.93189" lon="6.40344">
        <ele>859.08</ele>
        <time>2020-05-18T14:09:11Z</time>
      </trkpt>
      <trkpt lat="45.93151" lon="6.40443">
        <ele>861.48</ele>
        <time>2020-05-18T14:09:16Z</time>
      </trkpt>
      <trkpt lat="45.93142" lon="6.40465">
        <ele>862.92</ele>
        <time>2020-05-18T14:09:18Z</time>
      </trkpt>
      <trkpt lat="45.93138" lon="6.40475">
        <ele>863.4</ele>
        <time>2020-05-18T14:09:19Z</time>
      </trkpt>
      <trkpt lat="45.93137" lon="6.4052">
        <ele>865.8</ele>
        <time>2020-05-18T14:09:22Z</time>
      </trkpt>
      <trkpt lat="45.93134" lon="6.40539">
        <ele>867.25</ele>
        <time>2020-05-18T14:09:24Z</time>
      </trkpt>
      <trkpt lat="45.9313" lon="6.40571">
        <ele>867.73</ele>
        <time>2020-05-18T14:09:25Z</time>
      </trkpt>
      <trkpt lat="45.93129" lon="6.40587">
        <ele>868.69</ele>
        <time>2020-05-18T14:09:26Z</time>
      </trkpt>
      <trkpt lat="45.9313" lon="6.40607">
        <ele>869.65</ele>
        <time>2020-05-18T14:09:27Z</time>
      </trkpt>
      <trkpt lat="45.93144" lon="6.40778">
        <ele>880.22</ele>
        <time>2020-05-18T14:09:36Z</time>
      </trkpt>
      <trkpt lat="45.93161" lon="6.40861">
        <ele>885.51</ele>
        <time>2020-05-18T14:09:41Z</time>
      </trkpt>
      <trkpt lat="45.93172" lon="6.4089">
        <ele>887.91</ele>
        <time>2020-05-18T14:09:43Z</time>
      </trkpt>
      <trkpt lat="45.93233" lon="6.41028">
        <ele>894.16</ele>
        <time>2020-05-18T14:09:51Z</time>
      </trkpt>
      <trkpt lat="45.93278" lon="6.41113">
        <ele>896.09</ele>
        <time>2020-05-18T14:09:57Z</time>
      </trkpt>
      <trkpt lat="45.93285" lon="6.41121">
        <ele>896.09</ele>
        <time>2020-05-18T14:09:58Z</time>
      </trkpt>
      <trkpt lat="45.93319" lon="6.41161">
        <ele>897.05</ele>
        <time>2020-05-18T14:10:05Z</time>
      </trkpt>
      <trkpt lat="45.93344" lon="6.41196">
        <ele>897.53</ele>
        <time>2020-05-18T14:10:18Z</time>
      </trkpt>
      <trkpt lat="45.93359" lon="6.41223">
        <ele>898.49</ele>
        <time>2020-05-18T14:10:29Z</time>
      </trkpt>
      <trkpt lat="45.93373" lon="6.41252">
        <ele>899.45</ele>
        <time>2020-05-18T14:10:35Z</time>
      </trkpt>
      <trkpt lat="45.93397" lon="6.41293">
        <ele>900.89</ele>
        <time>2020-05-18T14:10:41Z</time>
      </trkpt>
      <trkpt lat="45.93416" lon="6.41314">
        <ele>901.85</ele>
        <time>2020-05-18T14:10:45Z</time>
      </trkpt>
      <trkpt lat="45.9342" lon="6.41319">
        <ele>902.82</ele>
        <time>2020-05-18T14:10:47Z</time>
      </trkpt>
      <trkpt lat="45.93441" lon="6.41338">
        <ele>903.78</ele>
        <time>2020-05-18T14:10:56Z</time>
      </trkpt>
      <trkpt lat="45.93476" lon="6.41374">
        <ele>903.78</ele>
        <time>2020-05-18T14:11:03Z</time>
      </trkpt>
      <trkpt lat="45.93481" lon="6.41383">
        <ele>904.26</ele>
        <time>2020-05-18T14:11:04Z</time>
      </trkpt>
      <trkpt lat="45.93486" lon="6.41393">
        <ele>904.26</ele>
        <time>2020-05-18T14:11:05Z</time>
      </trkpt>
      <trkpt lat="45.93492" lon="6.41404">
        <ele>904.26</ele>
        <time>2020-05-18T14:11:06Z</time>
      </trkpt>
      <trkpt lat="45.93497" lon="6.41414">
        <ele>903.78</ele>
        <time>2020-05-18T14:11:07Z</time>
      </trkpt>
      <trkpt lat="45.93502" lon="6.41425">
        <ele>903.78</ele>
        <time>2020-05-18T14:11:08Z</time>
      </trkpt>
      <trkpt lat="45.93529" lon="6.41483">
        <ele>903.78</ele>
        <time>2020-05-18T14:11:13Z</time>
      </trkpt>
      <trkpt lat="45.93594" lon="6.41589">
        <ele>902.82</ele>
        <time>2020-05-18T14:11:23Z</time>
      </trkpt>
      <trkpt lat="45.93628" lon="6.4163">
        <ele>900.89</ele>
        <time>2020-05-18T14:11:29Z</time>
      </trkpt>
      <trkpt lat="45.93632" lon="6.41634">
        <ele>900.41</ele>
        <time>2020-05-18T14:11:30Z</time>
      </trkpt>
      <trkpt lat="45.93635" lon="6.41638">
        <ele>899.93</ele>
        <time>2020-05-18T14:11:31Z</time>
      </trkpt>
      <trkpt lat="45.93635" lon="6.4164">
        <ele>899.93</ele>
        <time>2020-05-18T14:11:32Z</time>
      </trkpt>
      <trkpt lat="45.93636" lon="6.41642">
        <ele>899.45</ele>
        <time>2020-05-18T14:11:33Z</time>
      </trkpt>
      <trkpt lat="45.93628" lon="6.41654">
        <ele>898.97</ele>
        <time>2020-05-18T14:11:35Z</time>
      </trkpt>
      <trkpt lat="45.93627" lon="6.41653">
        <ele>898.49</ele>
        <time>2020-05-18T14:11:36Z</time>
      </trkpt>
      <trkpt lat="45.93621" lon="6.41648">
        <ele>898.01</ele>
        <time>2020-05-18T14:11:37Z</time>
      </trkpt>
      <trkpt lat="45.93615" lon="6.41641">
        <ele>897.53</ele>
        <time>2020-05-18T14:11:38Z</time>
      </trkpt>
      <trkpt lat="45.93554" lon="6.41581">
        <ele>895.12</ele>
        <time>2020-05-18T14:11:43Z</time>
      </trkpt>
      <trkpt lat="45.93542" lon="6.41571">
        <ele>894.64</ele>
        <time>2020-05-18T14:11:44Z</time>
      </trkpt>
      <trkpt lat="45.93529" lon="6.41566">
        <ele>893.68</ele>
        <time>2020-05-18T14:11:45Z</time>
      </trkpt>
      <trkpt lat="45.93516" lon="6.41562">
        <ele>892.72</ele>
        <time>2020-05-18T14:11:46Z</time>
      </trkpt>
      <trkpt lat="45.93501" lon="6.4156">
        <ele>891.76</ele>
        <time>2020-05-18T14:11:47Z</time>
      </trkpt>
      <trkpt lat="45.93486" lon="6.4156">
        <ele>890.8</ele>
        <time>2020-05-18T14:11:48Z</time>
      </trkpt>
      <trkpt lat="45.9347" lon="6.41559">
        <ele>889.84</ele>
        <time>2020-05-18T14:11:49Z</time>
      </trkpt>
      <trkpt lat="45.93409" lon="6.41552">
        <ele>886.47</ele>
        <time>2020-05-18T14:11:53Z</time>
      </trkpt>
      <trkpt lat="45.93394" lon="6.41551">
        <ele>886.47</ele>
        <time>2020-05-18T14:11:54Z</time>
      </trkpt>
      <trkpt lat="45.9338" lon="6.41544">
        <ele>886.47</ele>
        <time>2020-05-18T14:11:55Z</time>
      </trkpt>
      <trkpt lat="45.93366" lon="6.41534">
        <ele>886.47</ele>
        <time>2020-05-18T14:11:56Z</time>
      </trkpt>
      <trkpt lat="45.93351" lon="6.41524">
        <ele>886.47</ele>
        <time>2020-05-18T14:11:57Z</time>
      </trkpt>
      <trkpt lat="45.93337" lon="6.4151">
        <ele>886.95</ele>
        <time>2020-05-18T14:11:58Z</time>
      </trkpt>
      <trkpt lat="45.93324" lon="6.41493">
        <ele>887.43</ele>
        <time>2020-05-18T14:11:59Z</time>
      </trkpt>
      <trkpt lat="45.93219" lon="6.41364">
        <ele>894.16</ele>
        <time>2020-05-18T14:12:06Z</time>
      </trkpt>
      <trkpt lat="45.93198" lon="6.41345">
        <ele>895.61</ele>
        <time>2020-05-18T14:12:07Z</time>
      </trkpt>
      <trkpt lat="45.93079" lon="6.41261">
        <ele>903.3</ele>
        <time>2020-05-18T14:12:12Z</time>
      </trkpt>
      <trkpt lat="45.92984" lon="6.41207">
        <ele>911.47</ele>
        <time>2020-05-18T14:12:18Z</time>
      </trkpt>
      <trkpt lat="45.92968" lon="6.412">
        <ele>912.91</ele>
        <time>2020-05-18T14:12:19Z</time>
      </trkpt>
      <trkpt lat="45.92955" lon="6.41203">
        <ele>913.87</ele>
        <time>2020-05-18T14:12:20Z</time>
      </trkpt>
      <trkpt lat="45.92941" lon="6.41206">
        <ele>914.35</ele>
        <time>2020-05-18T14:12:21Z</time>
      </trkpt>
      <trkpt lat="45.92927" lon="6.41209">
        <ele>915.31</ele>
        <time>2020-05-18T14:12:22Z</time>
      </trkpt>
      <trkpt lat="45.92911" lon="6.41212">
        <ele>916.27</ele>
        <time>2020-05-18T14:12:23Z</time>
      </trkpt>
      <trkpt lat="45.92894" lon="6.41215">
        <ele>917.24</ele>
        <time>2020-05-18T14:12:24Z</time>
      </trkpt>
      <trkpt lat="45.92875" lon="6.41217">
        <ele>918.68</ele>
        <time>2020-05-18T14:12:25Z</time>
      </trkpt>
      <trkpt lat="45.92742" lon="6.41206">
        <ele>926.85</ele>
        <time>2020-05-18T14:12:33Z</time>
      </trkpt>
      <trkpt lat="45.92661" lon="6.41172">
        <ele>931.17</ele>
        <time>2020-05-18T14:12:37Z</time>
      </trkpt>
      <trkpt lat="45.92641" lon="6.41163">
        <ele>933.1</ele>
        <time>2020-05-18T14:12:38Z</time>
      </trkpt>
      <trkpt lat="45.92624" lon="6.41148">
        <ele>934.06</ele>
        <time>2020-05-18T14:12:39Z</time>
      </trkpt>
      <trkpt lat="45.92608" lon="6.4113">
        <ele>935.5</ele>
        <time>2020-05-18T14:12:40Z</time>
      </trkpt>
      <trkpt lat="45.92595" lon="6.41104">
        <ele>937.42</ele>
        <time>2020-05-18T14:12:41Z</time>
      </trkpt>
      <trkpt lat="45.92583" lon="6.41077">
        <ele>938.86</ele>
        <time>2020-05-18T14:12:42Z</time>
      </trkpt>
      <trkpt lat="45.92531" lon="6.40984">
        <ele>945.11</ele>
        <time>2020-05-18T14:12:47Z</time>
      </trkpt>
      <trkpt lat="45.92505" lon="6.40952">
        <ele>948</ele>
        <time>2020-05-18T14:12:50Z</time>
      </trkpt>
      <trkpt lat="45.92495" lon="6.40945">
        <ele>948.96</ele>
        <time>2020-05-18T14:12:51Z</time>
      </trkpt>
      <trkpt lat="45.92484" lon="6.40941">
        <ele>949.44</ele>
        <time>2020-05-18T14:12:52Z</time>
      </trkpt>
      <trkpt lat="45.92474" lon="6.40936">
        <ele>950.4</ele>
        <time>2020-05-18T14:12:53Z</time>
      </trkpt>
      <trkpt lat="45.92462" lon="6.4094">
        <ele>951.36</ele>
        <time>2020-05-18T14:12:54Z</time>
      </trkpt>
      <trkpt lat="45.9245" lon="6.40943">
        <ele>952.32</ele>
        <time>2020-05-18T14:12:55Z</time>
      </trkpt>
      <trkpt lat="45.92438" lon="6.40947">
        <ele>953.28</ele>
        <time>2020-05-18T14:12:56Z</time>
      </trkpt>
      <trkpt lat="45.92429" lon="6.40953">
        <ele>954.25</ele>
        <time>2020-05-18T14:12:57Z</time>
      </trkpt>
      <trkpt lat="45.9242" lon="6.4096">
        <ele>954.73</ele>
        <time>2020-05-18T14:12:58Z</time>
      </trkpt>
      <trkpt lat="45.92412" lon="6.40967">
        <ele>955.21</ele>
        <time>2020-05-18T14:12:59Z</time>
      </trkpt>
      <trkpt lat="45.92368" lon="6.40999">
        <ele>960.01</ele>
        <time>2020-05-18T14:13:08Z</time>
      </trkpt>
      <trkpt lat="45.92304" lon="6.41027">
        <ele>960.49</ele>
        <time>2020-05-18T14:13:18Z</time>
      </trkpt>
      <trkpt lat="45.92298" lon="6.4103">
        <ele>960.98</ele>
        <time>2020-05-18T14:13:19Z</time>
      </trkpt>
      <trkpt lat="45.92275" lon="6.41041">
        <ele>960.98</ele>
        <time>2020-05-18T14:13:24Z</time>
      </trkpt>
      <trkpt lat="45.92264" lon="6.41033">
        <ele>960.98</ele>
        <time>2020-05-18T14:13:26Z</time>
      </trkpt>
      <trkpt lat="45.92264" lon="6.41033">
        <ele>960.98</ele>
        <time>2020-05-18T14:13:27Z</time>
      </trkpt>
      <trkpt lat="45.92258" lon="6.41032">
        <ele>960.98</ele>
        <time>2020-05-18T14:13:28Z</time>
      </trkpt>
      <trkpt lat="45.92248" lon="6.41043">
        <ele>960.98</ele>
        <time>2020-05-18T14:13:29Z</time>
      </trkpt>
      <trkpt lat="45.92247" lon="6.41054">
        <ele>960.98</ele>
        <time>2020-05-18T14:13:31Z</time>
      </trkpt>
      <trkpt lat="45.92263" lon="6.41072">
        <ele>961.94</ele>
        <time>2020-05-18T14:13:33Z</time>
      </trkpt>
      <trkpt lat="45.92272" lon="6.4112">
        <ele>963.86</ele>
        <time>2020-05-18T14:13:36Z</time>
      </trkpt>
      <trkpt lat="45.92282" lon="6.41149">
        <ele>964.82</ele>
        <time>2020-05-18T14:13:37Z</time>
      </trkpt>
      <trkpt lat="45.92288" lon="6.41161">
        <ele>965.3</ele>
        <time>2020-05-18T14:13:38Z</time>
      </trkpt>
      <trkpt lat="45.92297" lon="6.41173">
        <ele>965.78</ele>
        <time>2020-05-18T14:13:39Z</time>
      </trkpt>
      <trkpt lat="45.92307" lon="6.41183">
        <ele>966.26</ele>
        <time>2020-05-18T14:13:40Z</time>
      </trkpt>
      <trkpt lat="45.92315" lon="6.41192">
        <ele>966.74</ele>
        <time>2020-05-18T14:13:41Z</time>
      </trkpt>
      <trkpt lat="45.92323" lon="6.41205">
        <ele>966.74</ele>
        <time>2020-05-18T14:13:42Z</time>
      </trkpt>
      <trkpt lat="45.92332" lon="6.41218">
        <ele>966.74</ele>
        <time>2020-05-18T14:13:43Z</time>
      </trkpt>
      <trkpt lat="45.92336" lon="6.41235">
        <ele>966.74</ele>
        <time>2020-05-18T14:13:44Z</time>
      </trkpt>
      <trkpt lat="45.92341" lon="6.41253">
        <ele>967.22</ele>
        <time>2020-05-18T14:13:45Z</time>
      </trkpt>
      <trkpt lat="45.92342" lon="6.41273">
        <ele>967.7</ele>
        <time>2020-05-18T14:13:46Z</time>
      </trkpt>
      <trkpt lat="45.9234" lon="6.41293">
        <ele>968.18</ele>
        <time>2020-05-18T14:13:47Z</time>
      </trkpt>
      <trkpt lat="45.92337" lon="6.41315">
        <ele>968.67</ele>
        <time>2020-05-18T14:13:48Z</time>
      </trkpt>
      <trkpt lat="45.92329" lon="6.41332">
        <ele>969.15</ele>
        <time>2020-05-18T14:13:49Z</time>
      </trkpt>
      <trkpt lat="45.9232" lon="6.4135">
        <ele>969.63</ele>
        <time>2020-05-18T14:13:50Z</time>
      </trkpt>
      <trkpt lat="45.92283" lon="6.41417">
        <ele>972.03</ele>
        <time>2020-05-18T14:13:54Z</time>
      </trkpt>
      <trkpt lat="45.9227" lon="6.41428">
        <ele>972.99</ele>
        <time>2020-05-18T14:13:55Z</time>
      </trkpt>
      <trkpt lat="45.92257" lon="6.41439">
        <ele>973.47</ele>
        <time>2020-05-18T14:13:56Z</time>
      </trkpt>
      <trkpt lat="45.9223" lon="6.41463">
        <ele>973.95</ele>
        <time>2020-05-18T14:13:58Z</time>
      </trkpt>
      <trkpt lat="45.92217" lon="6.41478">
        <ele>973.47</ele>
        <time>2020-05-18T14:13:59Z</time>
      </trkpt>
      <trkpt lat="45.92175" lon="6.41531">
        <ele>974.43</ele>
        <time>2020-05-18T14:14:03Z</time>
      </trkpt>
      <trkpt lat="45.92164" lon="6.4154">
        <ele>974.91</ele>
        <time>2020-05-18T14:14:04Z</time>
      </trkpt>
      <trkpt lat="45.92152" lon="6.41541">
        <ele>975.39</ele>
        <time>2020-05-18T14:14:05Z</time>
      </trkpt>
      <trkpt lat="45.92139" lon="6.41542">
        <ele>975.88</ele>
        <time>2020-05-18T14:14:06Z</time>
      </trkpt>
      <trkpt lat="45.92129" lon="6.41532">
        <ele>976.36</ele>
        <time>2020-05-18T14:14:07Z</time>
      </trkpt>
      <trkpt lat="45.92117" lon="6.41521">
        <ele>977.32</ele>
        <time>2020-05-18T14:14:08Z</time>
      </trkpt>
      <trkpt lat="45.92103" lon="6.41507">
        <ele>977.8</ele>
        <time>2020-05-18T14:14:09Z</time>
      </trkpt>
      <trkpt lat="45.92078" lon="6.41483">
        <ele>979.72</ele>
        <time>2020-05-18T14:14:11Z</time>
      </trkpt>
      <trkpt lat="45.92066" lon="6.41476">
        <ele>980.2</ele>
        <time>2020-05-18T14:14:12Z</time>
      </trkpt>
      <trkpt lat="45.92053" lon="6.41477">
        <ele>981.16</ele>
        <time>2020-05-18T14:14:13Z</time>
      </trkpt>
      <trkpt lat="45.92041" lon="6.41482">
        <ele>981.16</ele>
        <time>2020-05-18T14:14:14Z</time>
      </trkpt>
      <trkpt lat="45.92028" lon="6.41492">
        <ele>981.64</ele>
        <time>2020-05-18T14:14:15Z</time>
      </trkpt>
      <trkpt lat="45.92014" lon="6.41505">
        <ele>982.12</ele>
        <time>2020-05-18T14:14:16Z</time>
      </trkpt>
      <trkpt lat="45.91998" lon="6.41516">
        <ele>982.6</ele>
        <time>2020-05-18T14:14:17Z</time>
      </trkpt>
      <trkpt lat="45.91984" lon="6.41527">
        <ele>983.09</ele>
        <time>2020-05-18T14:14:18Z</time>
      </trkpt>
      <trkpt lat="45.91969" lon="6.41537">
        <ele>983.57</ele>
        <time>2020-05-18T14:14:19Z</time>
      </trkpt>
      <trkpt lat="45.91955" lon="6.41547">
        <ele>984.05</ele>
        <time>2020-05-18T14:14:20Z</time>
      </trkpt>
      <trkpt lat="45.91941" lon="6.41556">
        <ele>984.53</ele>
        <time>2020-05-18T14:14:21Z</time>
      </trkpt>
      <trkpt lat="45.91929" lon="6.41567">
        <ele>985.01</ele>
        <time>2020-05-18T14:14:22Z</time>
      </trkpt>
      <trkpt lat="45.9192" lon="6.41584">
        <ele>985.49</ele>
        <time>2020-05-18T14:14:23Z</time>
      </trkpt>
      <trkpt lat="45.91909" lon="6.41603">
        <ele>985.97</ele>
        <time>2020-05-18T14:14:24Z</time>
      </trkpt>
      <trkpt lat="45.91896" lon="6.41626">
        <ele>986.45</ele>
        <time>2020-05-18T14:14:25Z</time>
      </trkpt>
      <trkpt lat="45.91882" lon="6.41652">
        <ele>986.93</ele>
        <time>2020-05-18T14:14:26Z</time>
      </trkpt>
      <trkpt lat="45.91866" lon="6.41676">
        <ele>986.93</ele>
        <time>2020-05-18T14:14:27Z</time>
      </trkpt>
      <trkpt lat="45.91848" lon="6.41699">
        <ele>987.89</ele>
        <time>2020-05-18T14:14:28Z</time>
      </trkpt>
      <trkpt lat="45.91831" lon="6.41722">
        <ele>987.89</ele>
        <time>2020-05-18T14:14:29Z</time>
      </trkpt>
      <trkpt lat="45.91815" lon="6.41748">
        <ele>988.85</ele>
        <time>2020-05-18T14:14:30Z</time>
      </trkpt>
      <trkpt lat="45.91798" lon="6.41777">
        <ele>989.33</ele>
        <time>2020-05-18T14:14:31Z</time>
      </trkpt>
      <trkpt lat="45.91705" lon="6.41928">
        <ele>992.22</ele>
        <time>2020-05-18T14:14:37Z</time>
      </trkpt>
      <trkpt lat="45.91679" lon="6.41959">
        <ele>993.18</ele>
        <time>2020-05-18T14:14:39Z</time>
      </trkpt>
      <trkpt lat="45.91665" lon="6.4197">
        <ele>993.66</ele>
        <time>2020-05-18T14:14:40Z</time>
      </trkpt>
      <trkpt lat="45.91649" lon="6.41975">
        <ele>994.62</ele>
        <time>2020-05-18T14:14:41Z</time>
      </trkpt>
      <trkpt lat="45.91633" lon="6.41977">
        <ele>995.1</ele>
        <time>2020-05-18T14:14:42Z</time>
      </trkpt>
      <trkpt lat="45.91616" lon="6.41969">
        <ele>996.06</ele>
        <time>2020-05-18T14:14:43Z</time>
      </trkpt>
      <trkpt lat="45.91601" lon="6.41957">
        <ele>997.02</ele>
        <time>2020-05-18T14:14:44Z</time>
      </trkpt>
      <trkpt lat="45.91587" lon="6.4194">
        <ele>997.99</ele>
        <time>2020-05-18T14:14:45Z</time>
      </trkpt>
      <trkpt lat="45.91572" lon="6.41922">
        <ele>998.95</ele>
        <time>2020-05-18T14:14:46Z</time>
      </trkpt>
      <trkpt lat="45.91556" lon="6.41903">
        <ele>1000.39</ele>
        <time>2020-05-18T14:14:47Z</time>
      </trkpt>
      <trkpt lat="45.91516" lon="6.41855">
        <ele>1003.27</ele>
        <time>2020-05-18T14:14:50Z</time>
      </trkpt>
      <trkpt lat="45.91502" lon="6.4184">
        <ele>1003.75</ele>
        <time>2020-05-18T14:14:51Z</time>
      </trkpt>
      <trkpt lat="45.91488" lon="6.41834">
        <ele>1005.68</ele>
        <time>2020-05-18T14:14:53Z</time>
      </trkpt>
      <trkpt lat="45.91429" lon="6.41831">
        <ele>1007.12</ele>
        <time>2020-05-18T14:14:55Z</time>
      </trkpt>
      <trkpt lat="45.91407" lon="6.41828">
        <ele>1008.08</ele>
        <time>2020-05-18T14:14:56Z</time>
      </trkpt>
      <trkpt lat="45.91367" lon="6.4182">
        <ele>1009.52</ele>
        <time>2020-05-18T14:14:58Z</time>
      </trkpt>
      <trkpt lat="45.91347" lon="6.41816">
        <ele>1010</ele>
        <time>2020-05-18T14:14:59Z</time>
      </trkpt>
      <trkpt lat="45.91326" lon="6.41823">
        <ele>1010.48</ele>
        <time>2020-05-18T14:15:00Z</time>
      </trkpt>
      <trkpt lat="45.91306" lon="6.41829">
        <ele>1010.96</ele>
        <time>2020-05-18T14:15:01Z</time>
      </trkpt>
      <trkpt lat="45.91288" lon="6.41838">
        <ele>1010.96</ele>
        <time>2020-05-18T14:15:02Z</time>
      </trkpt>
      <trkpt lat="45.91273" lon="6.41847">
        <ele>1011.93</ele>
        <time>2020-05-18T14:15:03Z</time>
      </trkpt>
      <trkpt lat="45.9126" lon="6.41859">
        <ele>1012.89</ele>
        <time>2020-05-18T14:15:04Z</time>
      </trkpt>
      <trkpt lat="45.91248" lon="6.41877">
        <ele>1013.85</ele>
        <time>2020-05-18T14:15:05Z</time>
      </trkpt>
      <trkpt lat="45.91236" lon="6.41894">
        <ele>1014.33</ele>
        <time>2020-05-18T14:15:06Z</time>
      </trkpt>
      <trkpt lat="45.91223" lon="6.41908">
        <ele>1015.29</ele>
        <time>2020-05-18T14:15:07Z</time>
      </trkpt>
      <trkpt lat="45.91208" lon="6.41914">
        <ele>1015.77</ele>
        <time>2020-05-18T14:15:08Z</time>
      </trkpt>
      <trkpt lat="45.91192" lon="6.41921">
        <ele>1016.25</ele>
        <time>2020-05-18T14:15:09Z</time>
      </trkpt>
      <trkpt lat="45.91175" lon="6.41929">
        <ele>1016.73</ele>
        <time>2020-05-18T14:15:10Z</time>
      </trkpt>
      <trkpt lat="45.91158" lon="6.41939">
        <ele>1016.73</ele>
        <time>2020-05-18T14:15:11Z</time>
      </trkpt>
      <trkpt lat="45.91141" lon="6.4195">
        <ele>1017.21</ele>
        <time>2020-05-18T14:15:12Z</time>
      </trkpt>
      <trkpt lat="45.91124" lon="6.4196">
        <ele>1017.21</ele>
        <time>2020-05-18T14:15:13Z</time>
      </trkpt>
      <trkpt lat="45.91105" lon="6.41963">
        <ele>1017.21</ele>
        <time>2020-05-18T14:15:14Z</time>
      </trkpt>
      <trkpt lat="45.91085" lon="6.41964">
        <ele>1017.69</ele>
        <time>2020-05-18T14:15:15Z</time>
      </trkpt>
      <trkpt lat="45.91065" lon="6.41958">
        <ele>1017.69</ele>
        <time>2020-05-18T14:15:16Z</time>
      </trkpt>
      <trkpt lat="45.91043" lon="6.4195">
        <ele>1017.69</ele>
        <time>2020-05-18T14:15:17Z</time>
      </trkpt>
      <trkpt lat="45.9096" lon="6.41903">
        <ele>1018.65</ele>
        <time>2020-05-18T14:15:21Z</time>
      </trkpt>
      <trkpt lat="45.90943" lon="6.41894">
        <ele>1019.13</ele>
        <time>2020-05-18T14:15:22Z</time>
      </trkpt>
      <trkpt lat="45.90924" lon="6.41895">
        <ele>1019.13</ele>
        <time>2020-05-18T14:15:23Z</time>
      </trkpt>
      <trkpt lat="45.90904" lon="6.41898">
        <ele>1018.65</ele>
        <time>2020-05-18T14:15:24Z</time>
      </trkpt>
      <trkpt lat="45.90883" lon="6.419">
        <ele>1018.65</ele>
        <time>2020-05-18T14:15:25Z</time>
      </trkpt>
      <trkpt lat="45.90861" lon="6.41903">
        <ele>1018.65</ele>
        <time>2020-05-18T14:15:26Z</time>
      </trkpt>
      <trkpt lat="45.90804" lon="6.4191">
        <ele>1017.21</ele>
        <time>2020-05-18T14:15:29Z</time>
      </trkpt>
      <trkpt lat="45.90788" lon="6.41916">
        <ele>1016.73</ele>
        <time>2020-05-18T14:15:30Z</time>
      </trkpt>
      <trkpt lat="45.90773" lon="6.41927">
        <ele>1015.77</ele>
        <time>2020-05-18T14:15:31Z</time>
      </trkpt>
      <trkpt lat="45.90759" lon="6.41942">
        <ele>1014.81</ele>
        <time>2020-05-18T14:15:32Z</time>
      </trkpt>
      <trkpt lat="45.90746" lon="6.4196">
        <ele>1014.33</ele>
        <time>2020-05-18T14:15:33Z</time>
      </trkpt>
      <trkpt lat="45.90732" lon="6.41978">
        <ele>1013.37</ele>
        <time>2020-05-18T14:15:34Z</time>
      </trkpt>
      <trkpt lat="45.90706" lon="6.42012">
        <ele>1011.44</ele>
        <time>2020-05-18T14:15:36Z</time>
      </trkpt>
      <trkpt lat="45.90697" lon="6.42031">
        <ele>1010.96</ele>
        <time>2020-05-18T14:15:37Z</time>
      </trkpt>
      <trkpt lat="45.90688" lon="6.42048">
        <ele>1010.96</ele>
        <time>2020-05-18T14:15:38Z</time>
      </trkpt>
      <trkpt lat="45.9068" lon="6.42064">
        <ele>1010.48</ele>
        <time>2020-05-18T14:15:39Z</time>
      </trkpt>
      <trkpt lat="45.9067" lon="6.42077">
        <ele>1010.48</ele>
        <time>2020-05-18T14:15:40Z</time>
      </trkpt>
      <trkpt lat="45.90659" lon="6.42087">
        <ele>1010.48</ele>
        <time>2020-05-18T14:15:41Z</time>
      </trkpt>
      <trkpt lat="45.90642" lon="6.42108">
        <ele>1010.96</ele>
        <time>2020-05-18T14:15:43Z</time>
      </trkpt>
      <trkpt lat="45.90635" lon="6.42119">
        <ele>1010.96</ele>
        <time>2020-05-18T14:15:44Z</time>
      </trkpt>
      <trkpt lat="45.9063" lon="6.42131">
        <ele>1010.48</ele>
        <time>2020-05-18T14:15:45Z</time>
      </trkpt>
      <trkpt lat="45.90624" lon="6.42144">
        <ele>1010</ele>
        <time>2020-05-18T14:15:46Z</time>
      </trkpt>
      <trkpt lat="45.90619" lon="6.42154">
        <ele>1010</ele>
        <time>2020-05-18T14:15:47Z</time>
      </trkpt>
      <trkpt lat="45.90616" lon="6.42162">
        <ele>1010.48</ele>
        <time>2020-05-18T14:15:48Z</time>
      </trkpt>
      <trkpt lat="45.90613" lon="6.42168">
        <ele>1010</ele>
        <time>2020-05-18T14:15:49Z</time>
      </trkpt>
      <trkpt lat="45.9061" lon="6.42174">
        <ele>1010</ele>
        <time>2020-05-18T14:15:50Z</time>
      </trkpt>
      <trkpt lat="45.90607" lon="6.42179">
        <ele>1009.52</ele>
        <time>2020-05-18T14:15:51Z</time>
      </trkpt>
      <trkpt lat="45.90597" lon="6.42189">
        <ele>1009.52</ele>
        <time>2020-05-18T14:15:52Z</time>
      </trkpt>
      <trkpt lat="45.90605" lon="6.422">
        <ele>1009.04</ele>
        <time>2020-05-18T14:15:54Z</time>
      </trkpt>
      <trkpt lat="45.90605" lon="6.42208">
        <ele>1009.04</ele>
        <time>2020-05-18T14:15:55Z</time>
      </trkpt>
      <trkpt lat="45.90602" lon="6.42274">
        <ele>1009.52</ele>
        <time>2020-05-18T14:15:58Z</time>
      </trkpt>
      <trkpt lat="45.90597" lon="6.42353">
        <ele>1012.89</ele>
        <time>2020-05-18T14:16:03Z</time>
      </trkpt>
      <trkpt lat="45.90597" lon="6.4237">
        <ele>1013.85</ele>
        <time>2020-05-18T14:16:04Z</time>
      </trkpt>
      <trkpt lat="45.90595" lon="6.42399">
        <ele>1015.77</ele>
        <time>2020-05-18T14:16:06Z</time>
      </trkpt>
      <trkpt lat="45.90592" lon="6.42431">
        <ele>1018.65</ele>
        <time>2020-05-18T14:16:08Z</time>
      </trkpt>
      <trkpt lat="45.9059" lon="6.42447">
        <ele>1020.1</ele>
        <time>2020-05-18T14:16:09Z</time>
      </trkpt>
      <trkpt lat="45.9059" lon="6.42464">
        <ele>1021.54</ele>
        <time>2020-05-18T14:16:10Z</time>
      </trkpt>
      <trkpt lat="45.9059" lon="6.42604">
        <ele>1034.04</ele>
        <time>2020-05-18T14:16:18Z</time>
      </trkpt>
      <trkpt lat="45.90592" lon="6.42615">
        <ele>1035</ele>
        <time>2020-05-18T14:16:19Z</time>
      </trkpt>
      <trkpt lat="45.90597" lon="6.42644">
        <ele>1037.88</ele>
        <time>2020-05-18T14:16:21Z</time>
      </trkpt>
      <trkpt lat="45.906" lon="6.42657">
        <ele>1039.8</ele>
        <time>2020-05-18T14:16:23Z</time>
      </trkpt>
      <trkpt lat="45.90605" lon="6.42688">
        <ele>1041.25</ele>
        <time>2020-05-18T14:16:25Z</time>
      </trkpt>
      <trkpt lat="45.90607" lon="6.42699">
        <ele>1041.73</ele>
        <time>2020-05-18T14:16:26Z</time>
      </trkpt>
      <trkpt lat="45.90603" lon="6.42711">
        <ele>1042.69</ele>
        <time>2020-05-18T14:16:27Z</time>
      </trkpt>
      <trkpt lat="45.90607" lon="6.4273">
        <ele>1043.65</ele>
        <time>2020-05-18T14:16:29Z</time>
      </trkpt>
      <trkpt lat="45.90606" lon="6.4274">
        <ele>1044.13</ele>
        <time>2020-05-18T14:16:30Z</time>
      </trkpt>
      <trkpt lat="45.90605" lon="6.42755">
        <ele>1044.61</ele>
        <time>2020-05-18T14:16:31Z</time>
      </trkpt>
      <trkpt lat="45.90603" lon="6.4277">
        <ele>1045.09</ele>
        <time>2020-05-18T14:16:32Z</time>
      </trkpt>
      <trkpt lat="45.90593" lon="6.42865">
        <ele>1048.94</ele>
        <time>2020-05-18T14:16:38Z</time>
      </trkpt>
      <trkpt lat="45.9059" lon="6.42895">
        <ele>1052.3</ele>
        <time>2020-05-18T14:16:40Z</time>
      </trkpt>
      <trkpt lat="45.90591" lon="6.4291">
        <ele>1053.74</ele>
        <time>2020-05-18T14:16:41Z</time>
      </trkpt>
      <trkpt lat="45.90601" lon="6.42999">
        <ele>1060.95</ele>
        <time>2020-05-18T14:16:49Z</time>
      </trkpt>
      <trkpt lat="45.90601" lon="6.43027">
        <ele>1062.87</ele>
        <time>2020-05-18T14:16:52Z</time>
      </trkpt>
      <trkpt lat="45.90599" lon="6.43038">
        <ele>1063.84</ele>
        <time>2020-05-18T14:16:53Z</time>
      </trkpt>
      <trkpt lat="45.90584" lon="6.43048">
        <ele>1064.8</ele>
        <time>2020-05-18T14:16:55Z</time>
      </trkpt>
      <trkpt lat="45.90567" lon="6.43044">
        <ele>1065.76</ele>
        <time>2020-05-18T14:16:56Z</time>
      </trkpt>
      <trkpt lat="45.90556" lon="6.43034">
        <ele>1066.72</ele>
        <time>2020-05-18T14:16:57Z</time>
      </trkpt>
      <trkpt lat="45.90546" lon="6.43024">
        <ele>1067.68</ele>
        <time>2020-05-18T14:16:58Z</time>
      </trkpt>
      <trkpt lat="45.90535" lon="6.43014">
        <ele>1068.16</ele>
        <time>2020-05-18T14:16:59Z</time>
      </trkpt>
      <trkpt lat="45.90525" lon="6.43">
        <ele>1068.64</ele>
        <time>2020-05-18T14:17:00Z</time>
      </trkpt>
      <trkpt lat="45.90516" lon="6.42985">
        <ele>1069.6</ele>
        <time>2020-05-18T14:17:01Z</time>
      </trkpt>
      <trkpt lat="45.90507" lon="6.42968">
        <ele>1070.57</ele>
        <time>2020-05-18T14:17:02Z</time>
      </trkpt>
      <trkpt lat="45.90445" lon="6.42802">
        <ele>1077.29</ele>
        <time>2020-05-18T14:17:10Z</time>
      </trkpt>
      <trkpt lat="45.90408" lon="6.42719">
        <ele>1081.62</ele>
        <time>2020-05-18T14:17:14Z</time>
      </trkpt>
      <trkpt lat="45.90399" lon="6.42701">
        <ele>1082.58</ele>
        <time>2020-05-18T14:17:15Z</time>
      </trkpt>
      <trkpt lat="45.90388" lon="6.42686">
        <ele>1083.54</ele>
        <time>2020-05-18T14:17:16Z</time>
      </trkpt>
      <trkpt lat="45.90377" lon="6.42671">
        <ele>1084.5</ele>
        <time>2020-05-18T14:17:17Z</time>
      </trkpt>
      <trkpt lat="45.90366" lon="6.42659">
        <ele>1085.47</ele>
        <time>2020-05-18T14:17:18Z</time>
      </trkpt>
      <trkpt lat="45.90353" lon="6.42647">
        <ele>1086.43</ele>
        <time>2020-05-18T14:17:19Z</time>
      </trkpt>
      <trkpt lat="45.90248" lon="6.42557">
        <ele>1096.04</ele>
        <time>2020-05-18T14:17:28Z</time>
      </trkpt>
      <trkpt lat="45.90236" lon="6.42551">
        <ele>1096.52</ele>
        <time>2020-05-18T14:17:29Z</time>
      </trkpt>
      <trkpt lat="45.90222" lon="6.42548">
        <ele>1097.48</ele>
        <time>2020-05-18T14:17:30Z</time>
      </trkpt>
      <trkpt lat="45.90127" lon="6.42541">
        <ele>1103.25</ele>
        <time>2020-05-18T14:17:37Z</time>
      </trkpt>
      <trkpt lat="45.90114" lon="6.42544">
        <ele>1104.21</ele>
        <time>2020-05-18T14:17:38Z</time>
      </trkpt>
      <trkpt lat="45.90101" lon="6.42548">
        <ele>1105.65</ele>
        <time>2020-05-18T14:17:39Z</time>
      </trkpt>
      <trkpt lat="45.90087" lon="6.4255">
        <ele>1106.61</ele>
        <time>2020-05-18T14:17:40Z</time>
      </trkpt>
      <trkpt lat="45.90073" lon="6.42551">
        <ele>1108.06</ele>
        <time>2020-05-18T14:17:41Z</time>
      </trkpt>
      <trkpt lat="45.90061" lon="6.42544">
        <ele>1109.02</ele>
        <time>2020-05-18T14:17:42Z</time>
      </trkpt>
      <trkpt lat="45.90048" lon="6.42536">
        <ele>1110.46</ele>
        <time>2020-05-18T14:17:43Z</time>
      </trkpt>
      <trkpt lat="45.90035" lon="6.42528">
        <ele>1111.9</ele>
        <time>2020-05-18T14:17:44Z</time>
      </trkpt>
      <trkpt lat="45.90024" lon="6.42522">
        <ele>1113.34</ele>
        <time>2020-05-18T14:17:45Z</time>
      </trkpt>
      <trkpt lat="45.90014" lon="6.4252">
        <ele>1114.31</ele>
        <time>2020-05-18T14:17:46Z</time>
      </trkpt>
      <trkpt lat="45.90005" lon="6.42524">
        <ele>1115.75</ele>
        <time>2020-05-18T14:17:47Z</time>
      </trkpt>
      <trkpt lat="45.89993" lon="6.42541">
        <ele>1117.19</ele>
        <time>2020-05-18T14:17:49Z</time>
      </trkpt>
      <trkpt lat="45.89993" lon="6.42541">
        <ele>1117.67</ele>
        <time>2020-05-18T14:17:50Z</time>
      </trkpt>
      <trkpt lat="45.89989" lon="6.42552">
        <ele>1118.63</ele>
        <time>2020-05-18T14:17:51Z</time>
      </trkpt>
      <trkpt lat="45.89991" lon="6.4259">
        <ele>1119.11</ele>
        <time>2020-05-18T14:17:52Z</time>
      </trkpt>
      <trkpt lat="45.89991" lon="6.42611">
        <ele>1120.55</ele>
        <time>2020-05-18T14:17:53Z</time>
      </trkpt>
      <trkpt lat="45.89993" lon="6.42651">
        <ele>1123.44</ele>
        <time>2020-05-18T14:17:56Z</time>
      </trkpt>
      <trkpt lat="45.89993" lon="6.42669">
        <ele>1123.92</ele>
        <time>2020-05-18T14:17:57Z</time>
      </trkpt>
      <trkpt lat="45.89992" lon="6.42689">
        <ele>1124.4</ele>
        <time>2020-05-18T14:17:58Z</time>
      </trkpt>
      <trkpt lat="45.89981" lon="6.42722">
        <ele>1124.88</ele>
        <time>2020-05-18T14:17:59Z</time>
      </trkpt>
      <trkpt lat="45.8997" lon="6.42734">
        <ele>1125.36</ele>
        <time>2020-05-18T14:18:00Z</time>
      </trkpt>
      <trkpt lat="45.89959" lon="6.42746">
        <ele>1125.84</ele>
        <time>2020-05-18T14:18:01Z</time>
      </trkpt>
      <trkpt lat="45.89945" lon="6.42752">
        <ele>1126.8</ele>
        <time>2020-05-18T14:18:02Z</time>
      </trkpt>
      <trkpt lat="45.8993" lon="6.42756">
        <ele>1129.21</ele>
        <time>2020-05-18T14:18:04Z</time>
      </trkpt>
      <trkpt lat="45.89915" lon="6.42761">
        <ele>1130.17</ele>
        <time>2020-05-18T14:18:05Z</time>
      </trkpt>
      <trkpt lat="45.899" lon="6.42767">
        <ele>1131.61</ele>
        <time>2020-05-18T14:18:06Z</time>
      </trkpt>
      <trkpt lat="45.89763" lon="6.42874">
        <ele>1141.7</ele>
        <time>2020-05-18T14:18:15Z</time>
      </trkpt>
      <trkpt lat="45.89679" lon="6.42924">
        <ele>1146.51</ele>
        <time>2020-05-18T14:18:19Z</time>
      </trkpt>
      <trkpt lat="45.89662" lon="6.42927">
        <ele>1147.95</ele>
        <time>2020-05-18T14:18:20Z</time>
      </trkpt>
      <trkpt lat="45.89646" lon="6.4293">
        <ele>1149.39</ele>
        <time>2020-05-18T14:18:21Z</time>
      </trkpt>
      <trkpt lat="45.8963" lon="6.42931">
        <ele>1151.8</ele>
        <time>2020-05-18T14:18:23Z</time>
      </trkpt>
      <trkpt lat="45.89599" lon="6.42925">
        <ele>1152.76</ele>
        <time>2020-05-18T14:18:24Z</time>
      </trkpt>
      <trkpt lat="45.89583" lon="6.42924">
        <ele>1155.16</ele>
        <time>2020-05-18T14:18:26Z</time>
      </trkpt>
      <trkpt lat="45.89555" lon="6.42936">
        <ele>1157.08</ele>
        <time>2020-05-18T14:18:28Z</time>
      </trkpt>
      <trkpt lat="45.89524" lon="6.42966">
        <ele>1158.53</ele>
        <time>2020-05-18T14:18:30Z</time>
      </trkpt>
      <trkpt lat="45.89514" lon="6.42972">
        <ele>1159.97</ele>
        <time>2020-05-18T14:18:32Z</time>
      </trkpt>
      <trkpt lat="45.89502" lon="6.4297">
        <ele>1160.45</ele>
        <time>2020-05-18T14:18:33Z</time>
      </trkpt>
      <trkpt lat="45.89488" lon="6.42968">
        <ele>1161.41</ele>
        <time>2020-05-18T14:18:34Z</time>
      </trkpt>
      <trkpt lat="45.8947" lon="6.42965">
        <ele>1162.37</ele>
        <time>2020-05-18T14:18:35Z</time>
      </trkpt>
      <trkpt lat="45.8937" lon="6.42967">
        <ele>1168.14</ele>
        <time>2020-05-18T14:18:40Z</time>
      </trkpt>
      <trkpt lat="45.89261" lon="6.42996">
        <ele>1175.83</ele>
        <time>2020-05-18T14:18:46Z</time>
      </trkpt>
      <trkpt lat="45.89244" lon="6.43004">
        <ele>1176.79</ele>
        <time>2020-05-18T14:18:47Z</time>
      </trkpt>
      <trkpt lat="45.89207" lon="6.4302">
        <ele>1179.19</ele>
        <time>2020-05-18T14:18:49Z</time>
      </trkpt>
      <trkpt lat="45.89189" lon="6.43027">
        <ele>1180.64</ele>
        <time>2020-05-18T14:18:50Z</time>
      </trkpt>
      <trkpt lat="45.8917" lon="6.43032">
        <ele>1182.08</ele>
        <time>2020-05-18T14:18:51Z</time>
      </trkpt>
      <trkpt lat="45.89151" lon="6.43036">
        <ele>1183.04</ele>
        <time>2020-05-18T14:18:52Z</time>
      </trkpt>
      <trkpt lat="45.89117" lon="6.43053">
        <ele>1184.48</ele>
        <time>2020-05-18T14:18:53Z</time>
      </trkpt>
      <trkpt lat="45.89117" lon="6.43053">
        <ele>1185.92</ele>
        <time>2020-05-18T14:18:54Z</time>
      </trkpt>
      <trkpt lat="45.89031" lon="6.43108">
        <ele>1192.65</ele>
        <time>2020-05-18T14:18:59Z</time>
      </trkpt>
      <trkpt lat="45.88999" lon="6.43135">
        <ele>1194.09</ele>
        <time>2020-05-18T14:19:00Z</time>
      </trkpt>
      <trkpt lat="45.8892" lon="6.43214">
        <ele>1202.27</ele>
        <time>2020-05-18T14:19:07Z</time>
      </trkpt>
      <trkpt lat="45.88896" lon="6.43236">
        <ele>1203.71</ele>
        <time>2020-05-18T14:19:08Z</time>
      </trkpt>
      <trkpt lat="45.88766" lon="6.43307">
        <ele>1211.4</ele>
        <time>2020-05-18T14:19:17Z</time>
      </trkpt>
      <trkpt lat="45.88697" lon="6.43335">
        <ele>1215.24</ele>
        <time>2020-05-18T14:19:22Z</time>
      </trkpt>
      <trkpt lat="45.88682" lon="6.43334">
        <ele>1216.69</ele>
        <time>2020-05-18T14:19:24Z</time>
      </trkpt>
      <trkpt lat="45.88637" lon="6.43336">
        <ele>1217.65</ele>
        <time>2020-05-18T14:19:26Z</time>
      </trkpt>
      <trkpt lat="45.88623" lon="6.43342">
        <ele>1218.13</ele>
        <time>2020-05-18T14:19:27Z</time>
      </trkpt>
      <trkpt lat="45.88609" lon="6.43353">
        <ele>1218.61</ele>
        <time>2020-05-18T14:19:28Z</time>
      </trkpt>
      <trkpt lat="45.88526" lon="6.43426">
        <ele>1222.93</ele>
        <time>2020-05-18T14:19:34Z</time>
      </trkpt>
      <trkpt lat="45.88514" lon="6.43439">
        <ele>1223.9</ele>
        <time>2020-05-18T14:19:35Z</time>
      </trkpt>
      <trkpt lat="45.88503" lon="6.43457">
        <ele>1224.86</ele>
        <time>2020-05-18T14:19:36Z</time>
      </trkpt>
      <trkpt lat="45.88458" lon="6.43533">
        <ele>1228.7</ele>
        <time>2020-05-18T14:19:40Z</time>
      </trkpt>
      <trkpt lat="45.88447" lon="6.43549">
        <ele>1230.14</ele>
        <time>2020-05-18T14:19:41Z</time>
      </trkpt>
      <trkpt lat="45.88435" lon="6.43563">
        <ele>1231.11</ele>
        <time>2020-05-18T14:19:42Z</time>
      </trkpt>
      <trkpt lat="45.88424" lon="6.43576">
        <ele>1231.59</ele>
        <time>2020-05-18T14:19:43Z</time>
      </trkpt>
      <trkpt lat="45.88413" lon="6.4359">
        <ele>1232.55</ele>
        <time>2020-05-18T14:19:44Z</time>
      </trkpt>
      <trkpt lat="45.88405" lon="6.4361">
        <ele>1233.03</ele>
        <time>2020-05-18T14:19:45Z</time>
      </trkpt>
      <trkpt lat="45.88398" lon="6.43633">
        <ele>1233.51</ele>
        <time>2020-05-18T14:19:46Z</time>
      </trkpt>
      <trkpt lat="45.88391" lon="6.43658">
        <ele>1234.47</ele>
        <time>2020-05-18T14:19:47Z</time>
      </trkpt>
      <trkpt lat="45.88384" lon="6.43685">
        <ele>1235.91</ele>
        <time>2020-05-18T14:19:48Z</time>
      </trkpt>
      <trkpt lat="45.8835" lon="6.43822">
        <ele>1242.64</ele>
        <time>2020-05-18T14:19:53Z</time>
      </trkpt>
      <trkpt lat="45.88342" lon="6.43846">
        <ele>1244.56</ele>
        <time>2020-05-18T14:19:54Z</time>
      </trkpt>
      <trkpt lat="45.8833" lon="6.43867">
        <ele>1247.45</ele>
        <time>2020-05-18T14:19:56Z</time>
      </trkpt>
      <trkpt lat="45.88309" lon="6.4391">
        <ele>1249.85</ele>
        <time>2020-05-18T14:19:58Z</time>
      </trkpt>
      <trkpt lat="45.88299" lon="6.4393">
        <ele>1250.81</ele>
        <time>2020-05-18T14:19:59Z</time>
      </trkpt>
      <trkpt lat="45.88287" lon="6.43975">
        <ele>1252.25</ele>
        <time>2020-05-18T14:20:00Z</time>
      </trkpt>
      <trkpt lat="45.8828" lon="6.44024">
        <ele>1257.06</ele>
        <time>2020-05-18T14:20:03Z</time>
      </trkpt>
      <trkpt lat="45.88269" lon="6.44073">
        <ele>1258.98</ele>
        <time>2020-05-18T14:20:04Z</time>
      </trkpt>
      <trkpt lat="45.88218" lon="6.44204">
        <ele>1267.16</ele>
        <time>2020-05-18T14:20:10Z</time>
      </trkpt>
      <trkpt lat="45.88209" lon="6.44221">
        <ele>1268.12</ele>
        <time>2020-05-18T14:20:11Z</time>
      </trkpt>
      <trkpt lat="45.88194" lon="6.4423">
        <ele>1269.56</ele>
        <time>2020-05-18T14:20:12Z</time>
      </trkpt>
      <trkpt lat="45.88181" lon="6.44239">
        <ele>1272.44</ele>
        <time>2020-05-18T14:20:14Z</time>
      </trkpt>
      <trkpt lat="45.88168" lon="6.44247">
        <ele>1273.88</ele>
        <time>2020-05-18T14:20:15Z</time>
      </trkpt>
      <trkpt lat="45.88147" lon="6.44277">
        <ele>1274.85</ele>
        <time>2020-05-18T14:20:16Z</time>
      </trkpt>
      <trkpt lat="45.88135" lon="6.44294">
        <ele>1276.29</ele>
        <time>2020-05-18T14:20:17Z</time>
      </trkpt>
      <trkpt lat="45.88122" lon="6.44307">
        <ele>1277.25</ele>
        <time>2020-05-18T14:20:18Z</time>
      </trkpt>
      <trkpt lat="45.88108" lon="6.44317">
        <ele>1278.69</ele>
        <time>2020-05-18T14:20:19Z</time>
      </trkpt>
      <trkpt lat="45.88095" lon="6.44326">
        <ele>1279.65</ele>
        <time>2020-05-18T14:20:20Z</time>
      </trkpt>
      <trkpt lat="45.88083" lon="6.44334">
        <ele>1281.09</ele>
        <time>2020-05-18T14:20:21Z</time>
      </trkpt>
      <trkpt lat="45.88071" lon="6.44345">
        <ele>1282.06</ele>
        <time>2020-05-18T14:20:22Z</time>
      </trkpt>
      <trkpt lat="45.8806" lon="6.44359">
        <ele>1283.02</ele>
        <time>2020-05-18T14:20:23Z</time>
      </trkpt>
      <trkpt lat="45.88032" lon="6.44412">
        <ele>1287.34</ele>
        <time>2020-05-18T14:20:27Z</time>
      </trkpt>
      <trkpt lat="45.88029" lon="6.44426">
        <ele>1288.3</ele>
        <time>2020-05-18T14:20:28Z</time>
      </trkpt>
      <trkpt lat="45.88029" lon="6.44438">
        <ele>1289.27</ele>
        <time>2020-05-18T14:20:29Z</time>
      </trkpt>
      <trkpt lat="45.88032" lon="6.44451">
        <ele>1290.23</ele>
        <time>2020-05-18T14:20:30Z</time>
      </trkpt>
      <trkpt lat="45.88037" lon="6.44456">
        <ele>1291.19</ele>
        <time>2020-05-18T14:20:31Z</time>
      </trkpt>
      <trkpt lat="45.88045" lon="6.44461">
        <ele>1292.15</ele>
        <time>2020-05-18T14:20:32Z</time>
      </trkpt>
      <trkpt lat="45.88053" lon="6.44458">
        <ele>1293.11</ele>
        <time>2020-05-18T14:20:33Z</time>
      </trkpt>
      <trkpt lat="45.88064" lon="6.4445">
        <ele>1294.07</ele>
        <time>2020-05-18T14:20:34Z</time>
      </trkpt>
      <trkpt lat="45.88079" lon="6.44439">
        <ele>1295.99</ele>
        <time>2020-05-18T14:20:36Z</time>
      </trkpt>
      <trkpt lat="45.88146" lon="6.44387">
        <ele>1300.32</ele>
        <time>2020-05-18T14:20:40Z</time>
      </trkpt>
      <trkpt lat="45.88166" lon="6.44375">
        <ele>1302.24</ele>
        <time>2020-05-18T14:20:42Z</time>
      </trkpt>
      <trkpt lat="45.88181" lon="6.44384">
        <ele>1303.2</ele>
        <time>2020-05-18T14:20:43Z</time>
      </trkpt>
      <trkpt lat="45.88185" lon="6.44396">
        <ele>1304.17</ele>
        <time>2020-05-18T14:20:44Z</time>
      </trkpt>
      <trkpt lat="45.88182" lon="6.44411">
        <ele>1305.13</ele>
        <time>2020-05-18T14:20:45Z</time>
      </trkpt>
      <trkpt lat="45.88175" lon="6.44422">
        <ele>1306.09</ele>
        <time>2020-05-18T14:20:46Z</time>
      </trkpt>
      <trkpt lat="45.88165" lon="6.44437">
        <ele>1307.53</ele>
        <time>2020-05-18T14:20:47Z</time>
      </trkpt>
      <trkpt lat="45.88154" lon="6.44455">
        <ele>1308.97</ele>
        <time>2020-05-18T14:20:48Z</time>
      </trkpt>
      <trkpt lat="45.88143" lon="6.44478">
        <ele>1310.41</ele>
        <time>2020-05-18T14:20:49Z</time>
      </trkpt>
      <trkpt lat="45.88133" lon="6.44505">
        <ele>1311.38</ele>
        <time>2020-05-18T14:20:50Z</time>
      </trkpt>
      <trkpt lat="45.88104" lon="6.44581">
        <ele>1315.7</ele>
        <time>2020-05-18T14:20:53Z</time>
      </trkpt>
      <trkpt lat="45.88088" lon="6.446">
        <ele>1317.14</ele>
        <time>2020-05-18T14:20:54Z</time>
      </trkpt>
      <trkpt lat="45.88072" lon="6.44619">
        <ele>1318.59</ele>
        <time>2020-05-18T14:20:55Z</time>
      </trkpt>
      <trkpt lat="45.88004" lon="6.44706">
        <ele>1325.31</ele>
        <time>2020-05-18T14:21:00Z</time>
      </trkpt>
      <trkpt lat="45.87998" lon="6.44727">
        <ele>1326.76</ele>
        <time>2020-05-18T14:21:01Z</time>
      </trkpt>
      <trkpt lat="45.87992" lon="6.44751">
        <ele>1328.68</ele>
        <time>2020-05-18T14:21:02Z</time>
      </trkpt>
      <trkpt lat="45.87987" lon="6.44773">
        <ele>1330.12</ele>
        <time>2020-05-18T14:21:03Z</time>
      </trkpt>
      <trkpt lat="45.87976" lon="6.44795">
        <ele>1331.08</ele>
        <time>2020-05-18T14:21:04Z</time>
      </trkpt>
      <trkpt lat="45.87965" lon="6.44813">
        <ele>1332.04</ele>
        <time>2020-05-18T14:21:05Z</time>
      </trkpt>
      <trkpt lat="45.87951" lon="6.44827">
        <ele>1333.49</ele>
        <time>2020-05-18T14:21:06Z</time>
      </trkpt>
      <trkpt lat="45.87935" lon="6.44842">
        <ele>1334.93</ele>
        <time>2020-05-18T14:21:07Z</time>
      </trkpt>
      <trkpt lat="45.87919" lon="6.44854">
        <ele>1335.89</ele>
        <time>2020-05-18T14:21:08Z</time>
      </trkpt>
      <trkpt lat="45.87845" lon="6.44906">
        <ele>1343.1</ele>
        <time>2020-05-18T14:21:14Z</time>
      </trkpt>
      <trkpt lat="45.87809" lon="6.44931">
        <ele>1346.46</ele>
        <time>2020-05-18T14:21:17Z</time>
      </trkpt>
      <trkpt lat="45.87795" lon="6.44943">
        <ele>1347.91</ele>
        <time>2020-05-18T14:21:18Z</time>
      </trkpt>
      <trkpt lat="45.87723" lon="6.4504">
        <ele>1354.63</ele>
        <time>2020-05-18T14:21:23Z</time>
      </trkpt>
      <trkpt lat="45.87694" lon="6.4508">
        <ele>1359.44</ele>
        <time>2020-05-18T14:21:26Z</time>
      </trkpt>
      <trkpt lat="45.87691" lon="6.45091">
        <ele>1360.88</ele>
        <time>2020-05-18T14:21:27Z</time>
      </trkpt>
      <trkpt lat="45.87689" lon="6.45103">
        <ele>1362.33</ele>
        <time>2020-05-18T14:21:28Z</time>
      </trkpt>
      <trkpt lat="45.87692" lon="6.45111">
        <ele>1363.29</ele>
        <time>2020-05-18T14:21:29Z</time>
      </trkpt>
      <trkpt lat="45.87699" lon="6.45118">
        <ele>1364.25</ele>
        <time>2020-05-18T14:21:30Z</time>
      </trkpt>
      <trkpt lat="45.87705" lon="6.45119">
        <ele>1365.69</ele>
        <time>2020-05-18T14:21:31Z</time>
      </trkpt>
      <trkpt lat="45.87715" lon="6.45114">
        <ele>1366.65</ele>
        <time>2020-05-18T14:21:32Z</time>
      </trkpt>
      <trkpt lat="45.87726" lon="6.45109">
        <ele>1367.13</ele>
        <time>2020-05-18T14:21:33Z</time>
      </trkpt>
      <trkpt lat="45.8774" lon="6.45102">
        <ele>1368.09</ele>
        <time>2020-05-18T14:21:34Z</time>
      </trkpt>
      <trkpt lat="45.87755" lon="6.45095">
        <ele>1368.57</ele>
        <time>2020-05-18T14:21:35Z</time>
      </trkpt>
      <trkpt lat="45.87772" lon="6.45091">
        <ele>1369.54</ele>
        <time>2020-05-18T14:21:36Z</time>
      </trkpt>
      <trkpt lat="45.87791" lon="6.45093">
        <ele>1370.5</ele>
        <time>2020-05-18T14:21:37Z</time>
      </trkpt>
      <trkpt lat="45.8781" lon="6.45095">
        <ele>1371.46</ele>
        <time>2020-05-18T14:21:38Z</time>
      </trkpt>
      <trkpt lat="45.87827" lon="6.45096">
        <ele>1372.42</ele>
        <time>2020-05-18T14:21:39Z</time>
      </trkpt>
      <trkpt lat="45.87842" lon="6.45095">
        <ele>1373.38</ele>
        <time>2020-05-18T14:21:40Z</time>
      </trkpt>
      <trkpt lat="45.87855" lon="6.4509">
        <ele>1374.34</ele>
        <time>2020-05-18T14:21:41Z</time>
      </trkpt>
      <trkpt lat="45.87887" lon="6.45077">
        <ele>1377.23</ele>
        <time>2020-05-18T14:21:44Z</time>
      </trkpt>
      <trkpt lat="45.87893" lon="6.4508">
        <ele>1378.19</ele>
        <time>2020-05-18T14:21:45Z</time>
      </trkpt>
      <trkpt lat="45.87898" lon="6.45089">
        <ele>1379.15</ele>
        <time>2020-05-18T14:21:46Z</time>
      </trkpt>
      <trkpt lat="45.87904" lon="6.45099">
        <ele>1379.63</ele>
        <time>2020-05-18T14:21:47Z</time>
      </trkpt>
      <trkpt lat="45.87902" lon="6.45109">
        <ele>1380.59</ele>
        <time>2020-05-18T14:21:48Z</time>
      </trkpt>
      <trkpt lat="45.87898" lon="6.45122">
        <ele>1381.07</ele>
        <time>2020-05-18T14:21:49Z</time>
      </trkpt>
      <trkpt lat="45.87891" lon="6.45134">
        <ele>1381.55</ele>
        <time>2020-05-18T14:21:50Z</time>
      </trkpt>
      <trkpt lat="45.87879" lon="6.45146">
        <ele>1382.03</ele>
        <time>2020-05-18T14:21:51Z</time>
      </trkpt>
      <trkpt lat="45.87851" lon="6.45176">
        <ele>1383.96</ele>
        <time>2020-05-18T14:21:53Z</time>
      </trkpt>
      <trkpt lat="45.87833" lon="6.45192">
        <ele>1384.92</ele>
        <time>2020-05-18T14:21:54Z</time>
      </trkpt>
      <trkpt lat="45.87695" lon="6.45275">
        <ele>1395.01</ele>
        <time>2020-05-18T14:22:00Z</time>
      </trkpt>
      <trkpt lat="45.87655" lon="6.45299">
        <ele>1398.37</ele>
        <time>2020-05-18T14:22:02Z</time>
      </trkpt>
      <trkpt lat="45.87637" lon="6.45316">
        <ele>1400.3</ele>
        <time>2020-05-18T14:22:03Z</time>
      </trkpt>
      <trkpt lat="45.87547" lon="6.45405">
        <ele>1408.47</ele>
        <time>2020-05-18T14:22:08Z</time>
      </trkpt>
      <trkpt lat="45.87525" lon="6.45417">
        <ele>1410.39</ele>
        <time>2020-05-18T14:22:09Z</time>
      </trkpt>
      <trkpt lat="45.87404" lon="6.45475">
        <ele>1420</ele>
        <time>2020-05-18T14:22:15Z</time>
      </trkpt>
      <trkpt lat="45.87382" lon="6.45486">
        <ele>1421.93</ele>
        <time>2020-05-18T14:22:17Z</time>
      </trkpt>
      <trkpt lat="45.87375" lon="6.45493">
        <ele>1423.37</ele>
        <time>2020-05-18T14:22:18Z</time>
      </trkpt>
      <trkpt lat="45.87369" lon="6.45503">
        <ele>1424.81</ele>
        <time>2020-05-18T14:22:19Z</time>
      </trkpt>
      <trkpt lat="45.87367" lon="6.45515">
        <ele>1425.77</ele>
        <time>2020-05-18T14:22:20Z</time>
      </trkpt>
      <trkpt lat="45.87371" lon="6.45526">
        <ele>1426.73</ele>
        <time>2020-05-18T14:22:21Z</time>
      </trkpt>
      <trkpt lat="45.87377" lon="6.45534">
        <ele>1427.7</ele>
        <time>2020-05-18T14:22:22Z</time>
      </trkpt>
      <trkpt lat="45.87386" lon="6.45536">
        <ele>1428.66</ele>
        <time>2020-05-18T14:22:23Z</time>
      </trkpt>
      <trkpt lat="45.87396" lon="6.45535">
        <ele>1429.14</ele>
        <time>2020-05-18T14:22:24Z</time>
      </trkpt>
      <trkpt lat="45.8741" lon="6.45531">
        <ele>1429.62</ele>
        <time>2020-05-18T14:22:25Z</time>
      </trkpt>
      <trkpt lat="45.87427" lon="6.45525">
        <ele>1430.1</ele>
        <time>2020-05-18T14:22:26Z</time>
      </trkpt>
      <trkpt lat="45.87536" lon="6.45492">
        <ele>1433.46</ele>
        <time>2020-05-18T14:22:31Z</time>
      </trkpt>
      <trkpt lat="45.87591" lon="6.45475">
        <ele>1436.83</ele>
        <time>2020-05-18T14:22:35Z</time>
      </trkpt>
      <trkpt lat="45.876" lon="6.45477">
        <ele>1437.31</ele>
        <time>2020-05-18T14:22:36Z</time>
      </trkpt>
      <trkpt lat="45.87608" lon="6.45481">
        <ele>1437.79</ele>
        <time>2020-05-18T14:22:37Z</time>
      </trkpt>
      <trkpt lat="45.87612" lon="6.45488">
        <ele>1438.75</ele>
        <time>2020-05-18T14:22:38Z</time>
      </trkpt>
      <trkpt lat="45.87615" lon="6.45499">
        <ele>1439.23</ele>
        <time>2020-05-18T14:22:39Z</time>
      </trkpt>
      <trkpt lat="45.8761" lon="6.45509">
        <ele>1440.19</ele>
        <time>2020-05-18T14:22:40Z</time>
      </trkpt>
      <trkpt lat="45.87603" lon="6.45519">
        <ele>1440.67</ele>
        <time>2020-05-18T14:22:41Z</time>
      </trkpt>
      <trkpt lat="45.87591" lon="6.45528">
        <ele>1441.63</ele>
        <time>2020-05-18T14:22:42Z</time>
      </trkpt>
      <trkpt lat="45.87576" lon="6.45538">
        <ele>1442.6</ele>
        <time>2020-05-18T14:22:43Z</time>
      </trkpt>
      <trkpt lat="45.87541" lon="6.45563">
        <ele>1445.48</ele>
        <time>2020-05-18T14:22:45Z</time>
      </trkpt>
      <trkpt lat="45.87523" lon="6.45579">
        <ele>1446.92</ele>
        <time>2020-05-18T14:22:46Z</time>
      </trkpt>
      <trkpt lat="45.87504" lon="6.45597">
        <ele>1448.36</ele>
        <time>2020-05-18T14:22:47Z</time>
      </trkpt>
      <trkpt lat="45.87448" lon="6.45676">
        <ele>1453.65</ele>
        <time>2020-05-18T14:22:51Z</time>
      </trkpt>
      <trkpt lat="45.87438" lon="6.45696">
        <ele>1455.09</ele>
        <time>2020-05-18T14:22:52Z</time>
      </trkpt>
      <trkpt lat="45.87431" lon="6.45718">
        <ele>1456.53</ele>
        <time>2020-05-18T14:22:53Z</time>
      </trkpt>
      <trkpt lat="45.87427" lon="6.45741">
        <ele>1457.98</ele>
        <time>2020-05-18T14:22:54Z</time>
      </trkpt>
      <trkpt lat="45.87422" lon="6.45765">
        <ele>1458.94</ele>
        <time>2020-05-18T14:22:55Z</time>
      </trkpt>
      <trkpt lat="45.87418" lon="6.4579">
        <ele>1460.38</ele>
        <time>2020-05-18T14:22:56Z</time>
      </trkpt>
      <trkpt lat="45.87417" lon="6.45817">
        <ele>1461.82</ele>
        <time>2020-05-18T14:22:57Z</time>
      </trkpt>
      <trkpt lat="45.87407" lon="6.46066">
        <ele>1470.95</ele>
        <time>2020-05-18T14:23:06Z</time>
      </trkpt>
      <trkpt lat="45.87404" lon="6.4609">
        <ele>1471.44</ele>
        <time>2020-05-18T14:23:07Z</time>
      </trkpt>
      <trkpt lat="45.874" lon="6.46115">
        <ele>1471.92</ele>
        <time>2020-05-18T14:23:08Z</time>
      </trkpt>
      <trkpt lat="45.87391" lon="6.46138">
        <ele>1472.4</ele>
        <time>2020-05-18T14:23:09Z</time>
      </trkpt>
      <trkpt lat="45.87382" lon="6.46161">
        <ele>1472.88</ele>
        <time>2020-05-18T14:23:10Z</time>
      </trkpt>
      <trkpt lat="45.87372" lon="6.46182">
        <ele>1473.36</ele>
        <time>2020-05-18T14:23:11Z</time>
      </trkpt>
      <trkpt lat="45.8732" lon="6.46296">
        <ele>1477.2</ele>
        <time>2020-05-18T14:23:18Z</time>
      </trkpt>
      <trkpt lat="45.87258" lon="6.4643">
        <ele>1480.57</ele>
        <time>2020-05-18T14:23:29Z</time>
      </trkpt>
      <trkpt lat="45.87234" lon="6.46484">
        <ele>1481.53</ele>
        <time>2020-05-18T14:23:36Z</time>
      </trkpt>
      <trkpt lat="45.87231" lon="6.4649">
        <ele>1481.53</ele>
        <time>2020-05-18T14:23:37Z</time>
      </trkpt>
      <trkpt lat="45.87228" lon="6.46495">
        <ele>1482.01</ele>
        <time>2020-05-18T14:23:38Z</time>
      </trkpt>
      <trkpt lat="45.87226" lon="6.46499">
        <ele>1482.01</ele>
        <time>2020-05-18T14:23:39Z</time>
      </trkpt>
      <trkpt lat="45.87225" lon="6.46502">
        <ele>1482.01</ele>
        <time>2020-05-18T14:23:40Z</time>
      </trkpt>
      <trkpt lat="45.87222" lon="6.46508">
        <ele>1482.01</ele>
        <time>2020-05-18T14:23:41Z</time>
      </trkpt>
      <trkpt lat="45.87219" lon="6.46513">
        <ele>1482.49</ele>
        <time>2020-05-18T14:23:42Z</time>
      </trkpt>
      <trkpt lat="45.87217" lon="6.46518">
        <ele>1482.49</ele>
        <time>2020-05-18T14:23:43Z</time>
      </trkpt>
      <trkpt lat="45.87214" lon="6.46524">
        <ele>1482.49</ele>
        <time>2020-05-18T14:23:44Z</time>
      </trkpt>
      <trkpt lat="45.87211" lon="6.46531">
        <ele>1482.49</ele>
        <time>2020-05-18T14:23:45Z</time>
      </trkpt>
      <trkpt lat="45.87209" lon="6.46537">
        <ele>1482.49</ele>
        <time>2020-05-18T14:23:46Z</time>
      </trkpt>
      <trkpt lat="45.87207" lon="6.46542">
        <ele>1482.49</ele>
        <time>2020-05-18T14:23:47Z</time>
      </trkpt>
      <trkpt lat="45.87205" lon="6.46548">
        <ele>1482.49</ele>
        <time>2020-05-18T14:23:48Z</time>
      </trkpt>
      <trkpt lat="45.87204" lon="6.46553">
        <ele>1482.49</ele>
        <time>2020-05-18T14:23:49Z</time>
      </trkpt>
      <trkpt lat="45.87203" lon="6.46556">
        <ele>1482.49</ele>
        <time>2020-05-18T14:23:50Z</time>
      </trkpt>
      <trkpt lat="45.87205" lon="6.4655">
        <ele>1482.01</ele>
        <time>2020-05-18T14:23:53Z</time>
      </trkpt>
      <trkpt lat="45.87206" lon="6.46546">
        <ele>1481.53</ele>
        <time>2020-05-18T14:23:55Z</time>
      </trkpt>
      <trkpt lat="45.87244" lon="6.46462">
        <ele>1482.01</ele>
        <time>2020-05-18T14:24:02Z</time>
      </trkpt>
      <trkpt lat="45.87299" lon="6.46342">
        <ele>1481.53</ele>
        <time>2020-05-18T14:24:07Z</time>
      </trkpt>
      <trkpt lat="45.87399" lon="6.46116">
        <ele>1475.28</ele>
        <time>2020-05-18T14:24:15Z</time>
      </trkpt>
      <trkpt lat="45.87405" lon="6.46083">
        <ele>1474.32</ele>
        <time>2020-05-18T14:24:16Z</time>
      </trkpt>
      <trkpt lat="45.87409" lon="6.46049">
        <ele>1473.84</ele>
        <time>2020-05-18T14:24:17Z</time>
      </trkpt>
      <trkpt lat="45.87411" lon="6.46013">
        <ele>1472.88</ele>
        <time>2020-05-18T14:24:18Z</time>
      </trkpt>
      <trkpt lat="45.87412" lon="6.45978">
        <ele>1472.4</ele>
        <time>2020-05-18T14:24:19Z</time>
      </trkpt>
      <trkpt lat="45.87418" lon="6.45788">
        <ele>1467.11</ele>
        <time>2020-05-18T14:24:25Z</time>
      </trkpt>
      <trkpt lat="45.87422" lon="6.45762">
        <ele>1465.67</ele>
        <time>2020-05-18T14:24:26Z</time>
      </trkpt>
      <trkpt lat="45.87428" lon="6.45736">
        <ele>1463.74</ele>
        <time>2020-05-18T14:24:27Z</time>
      </trkpt>
      <trkpt lat="45.87433" lon="6.45711">
        <ele>1462.3</ele>
        <time>2020-05-18T14:24:28Z</time>
      </trkpt>
      <trkpt lat="45.87442" lon="6.4569">
        <ele>1460.86</ele>
        <time>2020-05-18T14:24:29Z</time>
      </trkpt>
      <trkpt lat="45.87452" lon="6.45667">
        <ele>1458.94</ele>
        <time>2020-05-18T14:24:30Z</time>
      </trkpt>
      <trkpt lat="45.87466" lon="6.45647">
        <ele>1457.5</ele>
        <time>2020-05-18T14:24:31Z</time>
      </trkpt>
      <trkpt lat="45.87481" lon="6.45627">
        <ele>1456.05</ele>
        <time>2020-05-18T14:24:32Z</time>
      </trkpt>
      <trkpt lat="45.87572" lon="6.45541">
        <ele>1448.36</ele>
        <time>2020-05-18T14:24:38Z</time>
      </trkpt>
      <trkpt lat="45.87609" lon="6.4551">
        <ele>1443.56</ele>
        <time>2020-05-18T14:24:42Z</time>
      </trkpt>
      <trkpt lat="45.87613" lon="6.45502">
        <ele>1442.6</ele>
        <time>2020-05-18T14:24:43Z</time>
      </trkpt>
      <trkpt lat="45.87616" lon="6.45495">
        <ele>1441.63</ele>
        <time>2020-05-18T14:24:44Z</time>
      </trkpt>
      <trkpt lat="45.87612" lon="6.45486">
        <ele>1440.67</ele>
        <time>2020-05-18T14:24:45Z</time>
      </trkpt>
      <trkpt lat="45.87608" lon="6.4548">
        <ele>1439.71</ele>
        <time>2020-05-18T14:24:46Z</time>
      </trkpt>
      <trkpt lat="45.87599" lon="6.45477">
        <ele>1438.75</ele>
        <time>2020-05-18T14:24:47Z</time>
      </trkpt>
      <trkpt lat="45.87589" lon="6.45476">
        <ele>1437.79</ele>
        <time>2020-05-18T14:24:48Z</time>
      </trkpt>
      <trkpt lat="45.87576" lon="6.4548">
        <ele>1436.83</ele>
        <time>2020-05-18T14:24:49Z</time>
      </trkpt>
      <trkpt lat="45.87559" lon="6.45485">
        <ele>1435.87</ele>
        <time>2020-05-18T14:24:50Z</time>
      </trkpt>
      <trkpt lat="45.87437" lon="6.45522">
        <ele>1430.58</ele>
        <time>2020-05-18T14:24:56Z</time>
      </trkpt>
      <trkpt lat="45.87397" lon="6.45534">
        <ele>1428.18</ele>
        <time>2020-05-18T14:24:59Z</time>
      </trkpt>
      <trkpt lat="45.87387" lon="6.45537">
        <ele>1427.7</ele>
        <time>2020-05-18T14:25:00Z</time>
      </trkpt>
      <trkpt lat="45.8738" lon="6.45534">
        <ele>1426.73</ele>
        <time>2020-05-18T14:25:01Z</time>
      </trkpt>
      <trkpt lat="45.87372" lon="6.45528">
        <ele>1426.25</ele>
        <time>2020-05-18T14:25:02Z</time>
      </trkpt>
      <trkpt lat="45.87368" lon="6.45519">
        <ele>1425.77</ele>
        <time>2020-05-18T14:25:03Z</time>
      </trkpt>
      <trkpt lat="45.87369" lon="6.45505">
        <ele>1425.29</ele>
        <time>2020-05-18T14:25:04Z</time>
      </trkpt>
      <trkpt lat="45.87374" lon="6.45494">
        <ele>1424.33</ele>
        <time>2020-05-18T14:25:05Z</time>
      </trkpt>
      <trkpt lat="45.87383" lon="6.45485">
        <ele>1423.37</ele>
        <time>2020-05-18T14:25:06Z</time>
      </trkpt>
      <trkpt lat="45.87397" lon="6.45478">
        <ele>1422.41</ele>
        <time>2020-05-18T14:25:07Z</time>
      </trkpt>
      <trkpt lat="45.87415" lon="6.4547">
        <ele>1421.45</ele>
        <time>2020-05-18T14:25:08Z</time>
      </trkpt>
      <trkpt lat="45.87513" lon="6.45423">
        <ele>1415.2</ele>
        <time>2020-05-18T14:25:12Z</time>
      </trkpt>
      <trkpt lat="45.87536" lon="6.45412">
        <ele>1413.76</ele>
        <time>2020-05-18T14:25:13Z</time>
      </trkpt>
      <trkpt lat="45.87556" lon="6.45395">
        <ele>1412.31</ele>
        <time>2020-05-18T14:25:14Z</time>
      </trkpt>
      <trkpt lat="45.87576" lon="6.45376">
        <ele>1410.87</ele>
        <time>2020-05-18T14:25:15Z</time>
      </trkpt>
      <trkpt lat="45.87595" lon="6.45357">
        <ele>1408.95</ele>
        <time>2020-05-18T14:25:16Z</time>
      </trkpt>
      <trkpt lat="45.87614" lon="6.45339">
        <ele>1407.03</ele>
        <time>2020-05-18T14:25:17Z</time>
      </trkpt>
      <trkpt lat="45.87653" lon="6.45301">
        <ele>1403.18</ele>
        <time>2020-05-18T14:25:19Z</time>
      </trkpt>
      <trkpt lat="45.87674" lon="6.45288">
        <ele>1400.78</ele>
        <time>2020-05-18T14:25:20Z</time>
      </trkpt>
      <trkpt lat="45.87817" lon="6.45201">
        <ele>1386.84</ele>
        <time>2020-05-18T14:25:27Z</time>
      </trkpt>
      <trkpt lat="45.8786" lon="6.45167">
        <ele>1382.51</ele>
        <time>2020-05-18T14:25:30Z</time>
      </trkpt>
      <trkpt lat="45.87871" lon="6.45155">
        <ele>1381.07</ele>
        <time>2020-05-18T14:25:31Z</time>
      </trkpt>
      <trkpt lat="45.87899" lon="6.45123">
        <ele>1376.26</ele>
        <time>2020-05-18T14:25:35Z</time>
      </trkpt>
      <trkpt lat="45.87904" lon="6.451">
        <ele>1374.82</ele>
        <time>2020-05-18T14:25:37Z</time>
      </trkpt>
      <trkpt lat="45.879" lon="6.45093">
        <ele>1373.86</ele>
        <time>2020-05-18T14:25:38Z</time>
      </trkpt>
      <trkpt lat="45.87895" lon="6.45084">
        <ele>1372.9</ele>
        <time>2020-05-18T14:25:39Z</time>
      </trkpt>
      <trkpt lat="45.87888" lon="6.45077">
        <ele>1371.94</ele>
        <time>2020-05-18T14:25:40Z</time>
      </trkpt>
      <trkpt lat="45.87866" lon="6.45086">
        <ele>1370.98</ele>
        <time>2020-05-18T14:25:41Z</time>
      </trkpt>
      <trkpt lat="45.87831" lon="6.45097">
        <ele>1369.54</ele>
        <time>2020-05-18T14:25:43Z</time>
      </trkpt>
      <trkpt lat="45.87812" lon="6.45095">
        <ele>1368.09</ele>
        <time>2020-05-18T14:25:44Z</time>
      </trkpt>
      <trkpt lat="45.87793" lon="6.45093">
        <ele>1366.17</ele>
        <time>2020-05-18T14:25:46Z</time>
      </trkpt>
      <trkpt lat="45.8776" lon="6.45093">
        <ele>1364.73</ele>
        <time>2020-05-18T14:25:47Z</time>
      </trkpt>
      <trkpt lat="45.87745" lon="6.451">
        <ele>1363.77</ele>
        <time>2020-05-18T14:25:48Z</time>
      </trkpt>
      <trkpt lat="45.87732" lon="6.45106">
        <ele>1363.29</ele>
        <time>2020-05-18T14:25:49Z</time>
      </trkpt>
      <trkpt lat="45.87722" lon="6.45111">
        <ele>1362.33</ele>
        <time>2020-05-18T14:25:50Z</time>
      </trkpt>
      <trkpt lat="45.87712" lon="6.45116">
        <ele>1361.84</ele>
        <time>2020-05-18T14:25:51Z</time>
      </trkpt>
      <trkpt lat="45.87704" lon="6.4512">
        <ele>1360.88</ele>
        <time>2020-05-18T14:25:52Z</time>
      </trkpt>
      <trkpt lat="45.87697" lon="6.45115">
        <ele>1359.92</ele>
        <time>2020-05-18T14:25:53Z</time>
      </trkpt>
      <trkpt lat="45.8769" lon="6.45109">
        <ele>1359.44</ele>
        <time>2020-05-18T14:25:54Z</time>
      </trkpt>
      <trkpt lat="45.8769" lon="6.45098">
        <ele>1358.48</ele>
        <time>2020-05-18T14:25:55Z</time>
      </trkpt>
      <trkpt lat="45.87691" lon="6.45085">
        <ele>1357.04</ele>
        <time>2020-05-18T14:25:56Z</time>
      </trkpt>
      <trkpt lat="45.87699" lon="6.45073">
        <ele>1356.08</ele>
        <time>2020-05-18T14:25:57Z</time>
      </trkpt>
      <trkpt lat="45.8771" lon="6.45058">
        <ele>1355.12</ele>
        <time>2020-05-18T14:25:58Z</time>
      </trkpt>
      <trkpt lat="45.87724" lon="6.45039">
        <ele>1353.67</ele>
        <time>2020-05-18T14:25:59Z</time>
      </trkpt>
      <trkpt lat="45.87789" lon="6.4495">
        <ele>1347.43</ele>
        <time>2020-05-18T14:26:03Z</time>
      </trkpt>
      <trkpt lat="45.87808" lon="6.44932">
        <ele>1345.5</ele>
        <time>2020-05-18T14:26:04Z</time>
      </trkpt>
      <trkpt lat="45.87828" lon="6.44918">
        <ele>1343.58</ele>
        <time>2020-05-18T14:26:05Z</time>
      </trkpt>
      <trkpt lat="45.87959" lon="6.44819">
        <ele>1330.6</ele>
        <time>2020-05-18T14:26:12Z</time>
      </trkpt>
      <trkpt lat="45.87972" lon="6.44803">
        <ele>1329.64</ele>
        <time>2020-05-18T14:26:13Z</time>
      </trkpt>
      <trkpt lat="45.87983" lon="6.44782">
        <ele>1327.72</ele>
        <time>2020-05-18T14:26:15Z</time>
      </trkpt>
      <trkpt lat="45.88001" lon="6.44716">
        <ele>1324.83</ele>
        <time>2020-05-18T14:26:17Z</time>
      </trkpt>
      <trkpt lat="45.88009" lon="6.44698">
        <ele>1321.95</ele>
        <time>2020-05-18T14:26:19Z</time>
      </trkpt>
      <trkpt lat="45.88035" lon="6.44663">
        <ele>1320.51</ele>
        <time>2020-05-18T14:26:20Z</time>
      </trkpt>
      <trkpt lat="45.881" lon="6.44585">
        <ele>1315.22</ele>
        <time>2020-05-18T14:26:24Z</time>
      </trkpt>
      <trkpt lat="45.88113" lon="6.44557">
        <ele>1313.78</ele>
        <time>2020-05-18T14:26:25Z</time>
      </trkpt>
      <trkpt lat="45.88124" lon="6.44528">
        <ele>1311.86</ele>
        <time>2020-05-18T14:26:26Z</time>
      </trkpt>
      <trkpt lat="45.88164" lon="6.44439">
        <ele>1306.09</ele>
        <time>2020-05-18T14:26:30Z</time>
      </trkpt>
      <trkpt lat="45.88185" lon="6.44403">
        <ele>1303.2</ele>
        <time>2020-05-18T14:26:33Z</time>
      </trkpt>
      <trkpt lat="45.88185" lon="6.44392">
        <ele>1302.72</ele>
        <time>2020-05-18T14:26:34Z</time>
      </trkpt>
      <trkpt lat="45.88179" lon="6.44383">
        <ele>1302.24</ele>
        <time>2020-05-18T14:26:35Z</time>
      </trkpt>
      <trkpt lat="45.88173" lon="6.44375">
        <ele>1301.28</ele>
        <time>2020-05-18T14:26:36Z</time>
      </trkpt>
      <trkpt lat="45.88164" lon="6.44375">
        <ele>1300.32</ele>
        <time>2020-05-18T14:26:37Z</time>
      </trkpt>
      <trkpt lat="45.88154" lon="6.4438">
        <ele>1298.4</ele>
        <time>2020-05-18T14:26:39Z</time>
      </trkpt>
      <trkpt lat="45.88063" lon="6.44451">
        <ele>1293.11</ele>
        <time>2020-05-18T14:26:44Z</time>
      </trkpt>
      <trkpt lat="45.88052" lon="6.44459">
        <ele>1292.15</ele>
        <time>2020-05-18T14:26:45Z</time>
      </trkpt>
      <trkpt lat="45.88043" lon="6.44459">
        <ele>1290.23</ele>
        <time>2020-05-18T14:26:47Z</time>
      </trkpt>
      <trkpt lat="45.88031" lon="6.44447">
        <ele>1289.75</ele>
        <time>2020-05-18T14:26:48Z</time>
      </trkpt>
      <trkpt lat="45.88028" lon="6.44432">
        <ele>1288.3</ele>
        <time>2020-05-18T14:26:50Z</time>
      </trkpt>
      <trkpt lat="45.88035" lon="6.44399">
        <ele>1286.86</ele>
        <time>2020-05-18T14:26:52Z</time>
      </trkpt>
      <trkpt lat="45.88057" lon="6.44364">
        <ele>1284.94</ele>
        <time>2020-05-18T14:26:54Z</time>
      </trkpt>
      <trkpt lat="45.88069" lon="6.44347">
        <ele>1283.5</ele>
        <time>2020-05-18T14:26:55Z</time>
      </trkpt>
      <trkpt lat="45.88085" lon="6.44333">
        <ele>1282.06</ele>
        <time>2020-05-18T14:26:56Z</time>
      </trkpt>
      <trkpt lat="45.88101" lon="6.44322">
        <ele>1281.09</ele>
        <time>2020-05-18T14:26:57Z</time>
      </trkpt>
      <trkpt lat="45.88116" lon="6.44312">
        <ele>1279.65</ele>
        <time>2020-05-18T14:26:58Z</time>
      </trkpt>
      <trkpt lat="45.88142" lon="6.44284">
        <ele>1279.17</ele>
        <time>2020-05-18T14:26:59Z</time>
      </trkpt>
      <trkpt lat="45.88142" lon="6.44284">
        <ele>1277.73</ele>
        <time>2020-05-18T14:27:00Z</time>
      </trkpt>
      <trkpt lat="45.88165" lon="6.44252">
        <ele>1276.29</ele>
        <time>2020-05-18T14:27:01Z</time>
      </trkpt>
      <trkpt lat="45.88179" lon="6.4424">
        <ele>1275.33</ele>
        <time>2020-05-18T14:27:02Z</time>
      </trkpt>
      <trkpt lat="45.88193" lon="6.44231">
        <ele>1273.88</ele>
        <time>2020-05-18T14:27:03Z</time>
      </trkpt>
      <trkpt lat="45.88206" lon="6.44223">
        <ele>1272.44</ele>
        <time>2020-05-18T14:27:04Z</time>
      </trkpt>
      <trkpt lat="45.88217" lon="6.44205">
        <ele>1271</ele>
        <time>2020-05-18T14:27:05Z</time>
      </trkpt>
      <trkpt lat="45.88228" lon="6.44186">
        <ele>1269.56</ele>
        <time>2020-05-18T14:27:06Z</time>
      </trkpt>
      <trkpt lat="45.88237" lon="6.44163">
        <ele>1268.12</ele>
        <time>2020-05-18T14:27:07Z</time>
      </trkpt>
      <trkpt lat="45.88246" lon="6.44141">
        <ele>1267.16</ele>
        <time>2020-05-18T14:27:08Z</time>
      </trkpt>
      <trkpt lat="45.88278" lon="6.44032">
        <ele>1259.94</ele>
        <time>2020-05-18T14:27:13Z</time>
      </trkpt>
      <trkpt lat="45.8829" lon="6.43962">
        <ele>1255.62</ele>
        <time>2020-05-18T14:27:16Z</time>
      </trkpt>
      <trkpt lat="45.88297" lon="6.43937">
        <ele>1252.25</ele>
        <time>2020-05-18T14:27:18Z</time>
      </trkpt>
      <trkpt lat="45.88347" lon="6.43834">
        <ele>1246.97</ele>
        <time>2020-05-18T14:27:23Z</time>
      </trkpt>
      <trkpt lat="45.88352" lon="6.43813">
        <ele>1245.53</ele>
        <time>2020-05-18T14:27:24Z</time>
      </trkpt>
      <trkpt lat="45.88367" lon="6.43748">
        <ele>1242.64</ele>
        <time>2020-05-18T14:27:27Z</time>
      </trkpt>
      <trkpt lat="45.88378" lon="6.43709">
        <ele>1241.2</ele>
        <time>2020-05-18T14:27:29Z</time>
      </trkpt>
      <trkpt lat="45.88394" lon="6.43646">
        <ele>1238.32</ele>
        <time>2020-05-18T14:27:32Z</time>
      </trkpt>
      <trkpt lat="45.884" lon="6.43624">
        <ele>1237.35</ele>
        <time>2020-05-18T14:27:33Z</time>
      </trkpt>
      <trkpt lat="45.88407" lon="6.43604">
        <ele>1236.87</ele>
        <time>2020-05-18T14:27:34Z</time>
      </trkpt>
      <trkpt lat="45.88415" lon="6.43587">
        <ele>1235.91</ele>
        <time>2020-05-18T14:27:35Z</time>
      </trkpt>
      <trkpt lat="45.88427" lon="6.43573">
        <ele>1234.47</ele>
        <time>2020-05-18T14:27:36Z</time>
      </trkpt>
      <trkpt lat="45.88438" lon="6.43559">
        <ele>1233.51</ele>
        <time>2020-05-18T14:27:37Z</time>
      </trkpt>
      <trkpt lat="45.88451" lon="6.43544">
        <ele>1232.55</ele>
        <time>2020-05-18T14:27:38Z</time>
      </trkpt>
      <trkpt lat="45.88463" lon="6.43525">
        <ele>1231.11</ele>
        <time>2020-05-18T14:27:39Z</time>
      </trkpt>
      <trkpt lat="45.8851" lon="6.43446">
        <ele>1225.34</ele>
        <time>2020-05-18T14:27:43Z</time>
      </trkpt>
      <trkpt lat="45.88522" lon="6.4343">
        <ele>1223.9</ele>
        <time>2020-05-18T14:27:44Z</time>
      </trkpt>
      <trkpt lat="45.88607" lon="6.43355">
        <ele>1215.24</ele>
        <time>2020-05-18T14:27:50Z</time>
      </trkpt>
      <trkpt lat="45.88619" lon="6.43345">
        <ele>1214.28</ele>
        <time>2020-05-18T14:27:51Z</time>
      </trkpt>
      <trkpt lat="45.88633" lon="6.43337">
        <ele>1212.84</ele>
        <time>2020-05-18T14:27:52Z</time>
      </trkpt>
      <trkpt lat="45.88649" lon="6.43335">
        <ele>1211.4</ele>
        <time>2020-05-18T14:27:53Z</time>
      </trkpt>
      <trkpt lat="45.88664" lon="6.43333">
        <ele>1209.96</ele>
        <time>2020-05-18T14:27:54Z</time>
      </trkpt>
      <trkpt lat="45.88694" lon="6.43335">
        <ele>1208.03</ele>
        <time>2020-05-18T14:27:57Z</time>
      </trkpt>
      <trkpt lat="45.88704" lon="6.43335">
        <ele>1207.55</ele>
        <time>2020-05-18T14:27:58Z</time>
      </trkpt>
      <trkpt lat="45.88704" lon="6.43335">
        <ele>1207.55</ele>
        <time>2020-05-18T14:27:59Z</time>
      </trkpt>
      <trkpt lat="45.88697" lon="6.43331">
        <ele>1207.55</ele>
        <time>2020-05-18T14:28:00Z</time>
      </trkpt>
      <trkpt lat="45.88694" lon="6.43329">
        <ele>1207.07</ele>
        <time>2020-05-18T14:28:01Z</time>
      </trkpt>
      <trkpt lat="45.88688" lon="6.43325">
        <ele>1207.07</ele>
        <time>2020-05-18T14:28:02Z</time>
      </trkpt>
      <trkpt lat="45.88679" lon="6.43319">
        <ele>1207.07</ele>
        <time>2020-05-18T14:28:03Z</time>
      </trkpt>
      <trkpt lat="45.88644" lon="6.43297">
        <ele>1207.07</ele>
        <time>2020-05-18T14:28:06Z</time>
      </trkpt>
      <trkpt lat="45.88632" lon="6.43294">
        <ele>1207.55</ele>
        <time>2020-05-18T14:28:07Z</time>
      </trkpt>
      <trkpt lat="45.88619" lon="6.4329">
        <ele>1208.03</ele>
        <time>2020-05-18T14:28:08Z</time>
      </trkpt>
      <trkpt lat="45.88605" lon="6.43286">
        <ele>1208.51</ele>
        <time>2020-05-18T14:28:09Z</time>
      </trkpt>
      <trkpt lat="45.88577" lon="6.43302">
        <ele>1209</ele>
        <time>2020-05-18T14:28:11Z</time>
      </trkpt>
      <trkpt lat="45.8856" lon="6.43314">
        <ele>1209</ele>
        <time>2020-05-18T14:28:12Z</time>
      </trkpt>
      <trkpt lat="45.88543" lon="6.43327">
        <ele>1209.48</ele>
        <time>2020-05-18T14:28:13Z</time>
      </trkpt>
      <trkpt lat="45.88444" lon="6.43444">
        <ele>1212.36</ele>
        <time>2020-05-18T14:28:20Z</time>
      </trkpt>
      <trkpt lat="45.88432" lon="6.43457">
        <ele>1212.84</ele>
        <time>2020-05-18T14:28:21Z</time>
      </trkpt>
      <trkpt lat="45.88419" lon="6.43472">
        <ele>1213.32</ele>
        <time>2020-05-18T14:28:22Z</time>
      </trkpt>
      <trkpt lat="45.88331" lon="6.43645">
        <ele>1217.65</ele>
        <time>2020-05-18T14:28:29Z</time>
      </trkpt>
      <trkpt lat="45.88311" lon="6.43674">
        <ele>1219.57</ele>
        <time>2020-05-18T14:28:32Z</time>
      </trkpt>
      <trkpt lat="45.88294" lon="6.43694">
        <ele>1221.01</ele>
        <time>2020-05-18T14:28:34Z</time>
      </trkpt>
      <trkpt lat="45.88273" lon="6.43694">
        <ele>1221.01</ele>
        <time>2020-05-18T14:28:35Z</time>
      </trkpt>
      <trkpt lat="45.88266" lon="6.43685">
        <ele>1221.49</ele>
        <time>2020-05-18T14:28:36Z</time>
      </trkpt>
      <trkpt lat="45.88261" lon="6.43673">
        <ele>1222.45</ele>
        <time>2020-05-18T14:28:38Z</time>
      </trkpt>
      <trkpt lat="45.88258" lon="6.43659">
        <ele>1223.42</ele>
        <time>2020-05-18T14:28:39Z</time>
      </trkpt>
      <trkpt lat="45.88261" lon="6.43578">
        <ele>1225.82</ele>
        <time>2020-05-18T14:28:43Z</time>
      </trkpt>
      <trkpt lat="45.88259" lon="6.43557">
        <ele>1227.26</ele>
        <time>2020-05-18T14:28:44Z</time>
      </trkpt>
      <trkpt lat="45.88248" lon="6.43514">
        <ele>1228.22</ele>
        <time>2020-05-18T14:28:45Z</time>
      </trkpt>
      <trkpt lat="45.88234" lon="6.43471">
        <ele>1232.07</ele>
        <time>2020-05-18T14:28:48Z</time>
      </trkpt>
      <trkpt lat="45.88228" lon="6.43452">
        <ele>1233.03</ele>
        <time>2020-05-18T14:28:49Z</time>
      </trkpt>
      <trkpt lat="45.88222" lon="6.43433">
        <ele>1234.47</ele>
        <time>2020-05-18T14:28:50Z</time>
      </trkpt>
      <trkpt lat="45.88222" lon="6.43413">
        <ele>1235.43</ele>
        <time>2020-05-18T14:28:51Z</time>
      </trkpt>
      <trkpt lat="45.88224" lon="6.43392">
        <ele>1236.39</ele>
        <time>2020-05-18T14:28:52Z</time>
      </trkpt>
      <trkpt lat="45.8823" lon="6.43373">
        <ele>1237.35</ele>
        <time>2020-05-18T14:28:53Z</time>
      </trkpt>
      <trkpt lat="45.88311" lon="6.43184">
        <ele>1246.49</ele>
        <time>2020-05-18T14:29:01Z</time>
      </trkpt>
      <trkpt lat="45.88333" lon="6.43144">
        <ele>1247.45</ele>
        <time>2020-05-18T14:29:02Z</time>
      </trkpt>
      <trkpt lat="45.88345" lon="6.43124">
        <ele>1250.33</ele>
        <time>2020-05-18T14:29:04Z</time>
      </trkpt>
      <trkpt lat="45.8838" lon="6.43021">
        <ele>1257.06</ele>
        <time>2020-05-18T14:29:08Z</time>
      </trkpt>
      <trkpt lat="45.88379" lon="6.43003">
        <ele>1258.5</ele>
        <time>2020-05-18T14:29:09Z</time>
      </trkpt>
      <trkpt lat="45.88378" lon="6.42983">
        <ele>1260.91</ele>
        <time>2020-05-18T14:29:11Z</time>
      </trkpt>
      <trkpt lat="45.88355" lon="6.42927">
        <ele>1263.79</ele>
        <time>2020-05-18T14:29:14Z</time>
      </trkpt>
      <trkpt lat="45.88349" lon="6.42901">
        <ele>1265.71</ele>
        <time>2020-05-18T14:29:15Z</time>
      </trkpt>
      <trkpt lat="45.88346" lon="6.42874">
        <ele>1267.16</ele>
        <time>2020-05-18T14:29:16Z</time>
      </trkpt>
      <trkpt lat="45.88342" lon="6.42846">
        <ele>1268.6</ele>
        <time>2020-05-18T14:29:17Z</time>
      </trkpt>
      <trkpt lat="45.88336" lon="6.42821">
        <ele>1270.04</ele>
        <time>2020-05-18T14:29:18Z</time>
      </trkpt>
      <trkpt lat="45.88315" lon="6.42774">
        <ele>1273.4</ele>
        <time>2020-05-18T14:29:20Z</time>
      </trkpt>
      <trkpt lat="45.88305" lon="6.42751">
        <ele>1275.33</ele>
        <time>2020-05-18T14:29:21Z</time>
      </trkpt>
      <trkpt lat="45.88294" lon="6.42732">
        <ele>1277.25</ele>
        <time>2020-05-18T14:29:22Z</time>
      </trkpt>
      <trkpt lat="45.88213" lon="6.42655">
        <ele>1285.42</ele>
        <time>2020-05-18T14:29:26Z</time>
      </trkpt>
      <trkpt lat="45.88202" lon="6.42636">
        <ele>1286.86</ele>
        <time>2020-05-18T14:29:27Z</time>
      </trkpt>
      <trkpt lat="45.88191" lon="6.42615">
        <ele>1288.3</ele>
        <time>2020-05-18T14:29:28Z</time>
      </trkpt>
      <trkpt lat="45.88183" lon="6.42591">
        <ele>1290.23</ele>
        <time>2020-05-18T14:29:29Z</time>
      </trkpt>
      <trkpt lat="45.88176" lon="6.42567">
        <ele>1292.15</ele>
        <time>2020-05-18T14:29:30Z</time>
      </trkpt>
      <trkpt lat="45.8817" lon="6.42547">
        <ele>1294.55</ele>
        <time>2020-05-18T14:29:31Z</time>
      </trkpt>
      <trkpt lat="45.88165" lon="6.4253">
        <ele>1296.96</ele>
        <time>2020-05-18T14:29:32Z</time>
      </trkpt>
      <trkpt lat="45.88158" lon="6.4252">
        <ele>1298.88</ele>
        <time>2020-05-18T14:29:33Z</time>
      </trkpt>
      <trkpt lat="45.88148" lon="6.42511">
        <ele>1300.8</ele>
        <time>2020-05-18T14:29:34Z</time>
      </trkpt>
      <trkpt lat="45.88136" lon="6.42504">
        <ele>1302.24</ele>
        <time>2020-05-18T14:29:35Z</time>
      </trkpt>
      <trkpt lat="45.88121" lon="6.42497">
        <ele>1305.13</ele>
        <time>2020-05-18T14:29:37Z</time>
      </trkpt>
      <trkpt lat="45.88105" lon="6.42486">
        <ele>1307.05</ele>
        <time>2020-05-18T14:29:38Z</time>
      </trkpt>
      <trkpt lat="45.88073" lon="6.42459">
        <ele>1310.41</ele>
        <time>2020-05-18T14:29:40Z</time>
      </trkpt>
      <trkpt lat="45.88041" lon="6.4242">
        <ele>1313.78</ele>
        <time>2020-05-18T14:29:42Z</time>
      </trkpt>
      <trkpt lat="45.87965" lon="6.4228">
        <ele>1323.39</ele>
        <time>2020-05-18T14:29:47Z</time>
      </trkpt>
      <trkpt lat="45.87953" lon="6.42258">
        <ele>1325.8</ele>
        <time>2020-05-18T14:29:48Z</time>
      </trkpt>
      <trkpt lat="45.87939" lon="6.42246">
        <ele>1327.72</ele>
        <time>2020-05-18T14:29:49Z</time>
      </trkpt>
      <trkpt lat="45.87886" lon="6.42198">
        <ele>1334.45</ele>
        <time>2020-05-18T14:29:52Z</time>
      </trkpt>
      <trkpt lat="45.87871" lon="6.42179">
        <ele>1336.37</ele>
        <time>2020-05-18T14:29:53Z</time>
      </trkpt>
      <trkpt lat="45.8783" lon="6.42127">
        <ele>1342.62</ele>
        <time>2020-05-18T14:29:56Z</time>
      </trkpt>
      <trkpt lat="45.87812" lon="6.42112">
        <ele>1346.94</ele>
        <time>2020-05-18T14:29:58Z</time>
      </trkpt>
      <trkpt lat="45.87665" lon="6.4203">
        <ele>1363.77</ele>
        <time>2020-05-18T14:30:05Z</time>
      </trkpt>
      <trkpt lat="45.87568" lon="6.41958">
        <ele>1373.86</ele>
        <time>2020-05-18T14:30:12Z</time>
      </trkpt>
      <trkpt lat="45.87547" lon="6.41941">
        <ele>1374.82</ele>
        <time>2020-05-18T14:30:14Z</time>
      </trkpt>
      <trkpt lat="45.87539" lon="6.41934">
        <ele>1375.3</ele>
        <time>2020-05-18T14:30:15Z</time>
      </trkpt>
      <trkpt lat="45.87532" lon="6.41926">
        <ele>1375.78</ele>
        <time>2020-05-18T14:30:16Z</time>
      </trkpt>
      <trkpt lat="45.87532" lon="6.41903">
        <ele>1376.26</ele>
        <time>2020-05-18T14:30:17Z</time>
      </trkpt>
      <trkpt lat="45.87536" lon="6.41892">
        <ele>1376.26</ele>
        <time>2020-05-18T14:30:18Z</time>
      </trkpt>
      <trkpt lat="45.87544" lon="6.41885">
        <ele>1376.26</ele>
        <time>2020-05-18T14:30:19Z</time>
      </trkpt>
      <trkpt lat="45.87555" lon="6.41881">
        <ele>1376.26</ele>
        <time>2020-05-18T14:30:20Z</time>
      </trkpt>
      <trkpt lat="45.87571" lon="6.41876">
        <ele>1376.26</ele>
        <time>2020-05-18T14:30:21Z</time>
      </trkpt>
      <trkpt lat="45.87632" lon="6.41858">
        <ele>1376.26</ele>
        <time>2020-05-18T14:30:25Z</time>
      </trkpt>
      <trkpt lat="45.87655" lon="6.4185">
        <ele>1376.75</ele>
        <time>2020-05-18T14:30:26Z</time>
      </trkpt>
      <trkpt lat="45.87763" lon="6.41845">
        <ele>1379.63</ele>
        <time>2020-05-18T14:30:30Z</time>
      </trkpt>
      <trkpt lat="45.87781" lon="6.41846">
        <ele>1380.11</ele>
        <time>2020-05-18T14:30:31Z</time>
      </trkpt>
      <trkpt lat="45.8783" lon="6.41842">
        <ele>1381.07</ele>
        <time>2020-05-18T14:30:34Z</time>
      </trkpt>
      <trkpt lat="45.87845" lon="6.41839">
        <ele>1381.55</ele>
        <time>2020-05-18T14:30:35Z</time>
      </trkpt>
      <trkpt lat="45.87858" lon="6.41836">
        <ele>1382.51</ele>
        <time>2020-05-18T14:30:37Z</time>
      </trkpt>
      <trkpt lat="45.87869" lon="6.41833">
        <ele>1382.51</ele>
        <time>2020-05-18T14:30:38Z</time>
      </trkpt>
      <trkpt lat="45.87889" lon="6.41812">
        <ele>1382.99</ele>
        <time>2020-05-18T14:30:39Z</time>
      </trkpt>
      <trkpt lat="45.87892" lon="6.41799">
        <ele>1382.99</ele>
        <time>2020-05-18T14:30:40Z</time>
      </trkpt>
      <trkpt lat="45.87896" lon="6.4178">
        <ele>1384.44</ele>
        <time>2020-05-18T14:30:42Z</time>
      </trkpt>
      <trkpt lat="45.879" lon="6.41761">
        <ele>1384.92</ele>
        <time>2020-05-18T14:30:43Z</time>
      </trkpt>
      <trkpt lat="45.87918" lon="6.41662">
        <ele>1388.76</ele>
        <time>2020-05-18T14:30:49Z</time>
      </trkpt>
      <trkpt lat="45.87914" lon="6.4163">
        <ele>1389.72</ele>
        <time>2020-05-18T14:30:50Z</time>
      </trkpt>
      <trkpt lat="45.8791" lon="6.41594">
        <ele>1392.61</ele>
        <time>2020-05-18T14:30:53Z</time>
      </trkpt>
      <trkpt lat="45.87906" lon="6.41545">
        <ele>1395.97</ele>
        <time>2020-05-18T14:30:55Z</time>
      </trkpt>
      <trkpt lat="45.87923" lon="6.41374">
        <ele>1403.18</ele>
        <time>2020-05-18T14:31:00Z</time>
      </trkpt>
      <trkpt lat="45.87925" lon="6.41353">
        <ele>1406.07</ele>
        <time>2020-05-18T14:31:02Z</time>
      </trkpt>
      <trkpt lat="45.87922" lon="6.41317">
        <ele>1407.51</ele>
        <time>2020-05-18T14:31:03Z</time>
      </trkpt>
      <trkpt lat="45.87915" lon="6.41299">
        <ele>1409.91</ele>
        <time>2020-05-18T14:31:05Z</time>
      </trkpt>
      <trkpt lat="45.87899" lon="6.41257">
        <ele>1410.87</ele>
        <time>2020-05-18T14:31:06Z</time>
      </trkpt>
      <trkpt lat="45.87893" lon="6.41235">
        <ele>1413.28</ele>
        <time>2020-05-18T14:31:08Z</time>
      </trkpt>
      <trkpt lat="45.87889" lon="6.41213">
        <ele>1414.24</ele>
        <time>2020-05-18T14:31:09Z</time>
      </trkpt>
      <trkpt lat="45.87894" lon="6.41099">
        <ele>1420.97</ele>
        <time>2020-05-18T14:31:13Z</time>
      </trkpt>
      <trkpt lat="45.87907" lon="6.40991">
        <ele>1427.7</ele>
        <time>2020-05-18T14:31:17Z</time>
      </trkpt>
      <trkpt lat="45.87906" lon="6.40971">
        <ele>1430.58</ele>
        <time>2020-05-18T14:31:19Z</time>
      </trkpt>
      <trkpt lat="45.87886" lon="6.40909">
        <ele>1432.98</ele>
        <time>2020-05-18T14:31:21Z</time>
      </trkpt>
      <trkpt lat="45.87879" lon="6.40887">
        <ele>1434.42</ele>
        <time>2020-05-18T14:31:22Z</time>
      </trkpt>
      <trkpt lat="45.87872" lon="6.40866">
        <ele>1435.87</ele>
        <time>2020-05-18T14:31:23Z</time>
      </trkpt>
      <trkpt lat="45.87844" lon="6.40781">
        <ele>1444.52</ele>
        <time>2020-05-18T14:31:28Z</time>
      </trkpt>
      <trkpt lat="45.87825" lon="6.40748">
        <ele>1445.96</ele>
        <time>2020-05-18T14:31:29Z</time>
      </trkpt>
      <trkpt lat="45.87815" lon="6.4073">
        <ele>1447.4</ele>
        <time>2020-05-18T14:31:30Z</time>
      </trkpt>
      <trkpt lat="45.87773" lon="6.40632">
        <ele>1455.09</ele>
        <time>2020-05-18T14:31:35Z</time>
      </trkpt>
      <trkpt lat="45.8776" lon="6.40623">
        <ele>1456.05</ele>
        <time>2020-05-18T14:31:36Z</time>
      </trkpt>
      <trkpt lat="45.87748" lon="6.40615">
        <ele>1457.5</ele>
        <time>2020-05-18T14:31:37Z</time>
      </trkpt>
      <trkpt lat="45.87737" lon="6.40607">
        <ele>1457.98</ele>
        <time>2020-05-18T14:31:38Z</time>
      </trkpt>
      <trkpt lat="45.87726" lon="6.406">
        <ele>1458.46</ele>
        <time>2020-05-18T14:31:39Z</time>
      </trkpt>
      <trkpt lat="45.87717" lon="6.40587">
        <ele>1459.42</ele>
        <time>2020-05-18T14:31:40Z</time>
      </trkpt>
      <trkpt lat="45.87709" lon="6.40571">
        <ele>1460.38</ele>
        <time>2020-05-18T14:31:42Z</time>
      </trkpt>
      <trkpt lat="45.87697" lon="6.40526">
        <ele>1460.86</ele>
        <time>2020-05-18T14:31:44Z</time>
      </trkpt>
      <trkpt lat="45.87687" lon="6.40436">
        <ele>1459.9</ele>
        <time>2020-05-18T14:31:48Z</time>
      </trkpt>
      <trkpt lat="45.87687" lon="6.40415">
        <ele>1459.42</ele>
        <time>2020-05-18T14:31:49Z</time>
      </trkpt>
      <trkpt lat="45.87688" lon="6.40393">
        <ele>1458.94</ele>
        <time>2020-05-18T14:31:50Z</time>
      </trkpt>
      <trkpt lat="45.87695" lon="6.40314">
        <ele>1457.02</ele>
        <time>2020-05-18T14:31:54Z</time>
      </trkpt>
      <trkpt lat="45.8769" lon="6.40274">
        <ele>1456.05</ele>
        <time>2020-05-18T14:31:55Z</time>
      </trkpt>
      <trkpt lat="45.87684" lon="6.40253">
        <ele>1455.57</ele>
        <time>2020-05-18T14:31:56Z</time>
      </trkpt>
      <trkpt lat="45.87679" lon="6.40232">
        <ele>1454.61</ele>
        <time>2020-05-18T14:31:57Z</time>
      </trkpt>
      <trkpt lat="45.87673" lon="6.4021">
        <ele>1454.13</ele>
        <time>2020-05-18T14:31:58Z</time>
      </trkpt>
      <trkpt lat="45.87667" lon="6.40188">
        <ele>1453.17</ele>
        <time>2020-05-18T14:31:59Z</time>
      </trkpt>
      <trkpt lat="45.87663" lon="6.40165">
        <ele>1452.21</ele>
        <time>2020-05-18T14:32:00Z</time>
      </trkpt>
      <trkpt lat="45.87646" lon="6.40076">
        <ele>1449.81</ele>
        <time>2020-05-18T14:32:04Z</time>
      </trkpt>
      <trkpt lat="45.87638" lon="6.40054">
        <ele>1447.4</ele>
        <time>2020-05-18T14:32:06Z</time>
      </trkpt>
      <trkpt lat="45.87608" lon="6.39967">
        <ele>1443.56</ele>
        <time>2020-05-18T14:32:09Z</time>
      </trkpt>
      <trkpt lat="45.87602" lon="6.39949">
        <ele>1441.63</ele>
        <time>2020-05-18T14:32:10Z</time>
      </trkpt>
      <trkpt lat="45.87592" lon="6.39921">
        <ele>1436.83</ele>
        <time>2020-05-18T14:32:13Z</time>
      </trkpt>
      <trkpt lat="45.87589" lon="6.39914">
        <ele>1435.39</ele>
        <time>2020-05-18T14:32:14Z</time>
      </trkpt>
      <trkpt lat="45.87583" lon="6.39909">
        <ele>1433.46</ele>
        <time>2020-05-18T14:32:15Z</time>
      </trkpt>
      <trkpt lat="45.8758" lon="6.39906">
        <ele>1432.02</ele>
        <time>2020-05-18T14:32:16Z</time>
      </trkpt>
      <trkpt lat="45.87575" lon="6.39913">
        <ele>1430.58</ele>
        <time>2020-05-18T14:32:17Z</time>
      </trkpt>
      <trkpt lat="45.87565" lon="6.39983">
        <ele>1424.81</ele>
        <time>2020-05-18T14:32:21Z</time>
      </trkpt>
      <trkpt lat="45.87555" lon="6.40021">
        <ele>1421.93</ele>
        <time>2020-05-18T14:32:23Z</time>
      </trkpt>
      <trkpt lat="45.87531" lon="6.40045">
        <ele>1420.49</ele>
        <time>2020-05-18T14:32:24Z</time>
      </trkpt>
      <trkpt lat="45.87518" lon="6.40052">
        <ele>1419.52</ele>
        <time>2020-05-18T14:32:25Z</time>
      </trkpt>
      <trkpt lat="45.87507" lon="6.40059">
        <ele>1418.08</ele>
        <time>2020-05-18T14:32:26Z</time>
      </trkpt>
      <trkpt lat="45.87496" lon="6.40071">
        <ele>1416.16</ele>
        <time>2020-05-18T14:32:28Z</time>
      </trkpt>
      <trkpt lat="45.87485" lon="6.40082">
        <ele>1415.68</ele>
        <time>2020-05-18T14:32:29Z</time>
      </trkpt>
      <trkpt lat="45.87474" lon="6.40126">
        <ele>1414.24</ele>
        <time>2020-05-18T14:32:31Z</time>
      </trkpt>
      <trkpt lat="45.87468" lon="6.40134">
        <ele>1413.28</ele>
        <time>2020-05-18T14:32:32Z</time>
      </trkpt>
      <trkpt lat="45.87461" lon="6.40137">
        <ele>1411.83</ele>
        <time>2020-05-18T14:32:33Z</time>
      </trkpt>
      <trkpt lat="45.87456" lon="6.40134">
        <ele>1410.39</ele>
        <time>2020-05-18T14:32:34Z</time>
      </trkpt>
      <trkpt lat="45.87449" lon="6.40126">
        <ele>1409.43</ele>
        <time>2020-05-18T14:32:35Z</time>
      </trkpt>
      <trkpt lat="45.87447" lon="6.40109">
        <ele>1408.95</ele>
        <time>2020-05-18T14:32:36Z</time>
      </trkpt>
      <trkpt lat="45.87448" lon="6.40088">
        <ele>1407.99</ele>
        <time>2020-05-18T14:32:37Z</time>
      </trkpt>
      <trkpt lat="45.8745" lon="6.40017">
        <ele>1403.66</ele>
        <time>2020-05-18T14:32:41Z</time>
      </trkpt>
      <trkpt lat="45.87463" lon="6.39978">
        <ele>1402.7</ele>
        <time>2020-05-18T14:32:42Z</time>
      </trkpt>
      <trkpt lat="45.8747" lon="6.39961">
        <ele>1401.26</ele>
        <time>2020-05-18T14:32:43Z</time>
      </trkpt>
      <trkpt lat="45.87476" lon="6.39947">
        <ele>1399.82</ele>
        <time>2020-05-18T14:32:45Z</time>
      </trkpt>
      <trkpt lat="45.87482" lon="6.39926">
        <ele>1398.86</ele>
        <time>2020-05-18T14:32:46Z</time>
      </trkpt>
      <trkpt lat="45.87478" lon="6.39912">
        <ele>1397.89</ele>
        <time>2020-05-18T14:32:47Z</time>
      </trkpt>
      <trkpt lat="45.87439" lon="6.39804">
        <ele>1391.65</ele>
        <time>2020-05-18T14:32:53Z</time>
      </trkpt>
      <trkpt lat="45.87397" lon="6.39572">
        <ele>1380.59</ele>
        <time>2020-05-18T14:33:01Z</time>
      </trkpt>
      <trkpt lat="45.87381" lon="6.39498">
        <ele>1377.23</ele>
        <time>2020-05-18T14:33:04Z</time>
      </trkpt>
      <trkpt lat="45.87372" lon="6.39476">
        <ele>1376.26</ele>
        <time>2020-05-18T14:33:05Z</time>
      </trkpt>
      <trkpt lat="45.87305" lon="6.39318">
        <ele>1367.61</ele>
        <time>2020-05-18T14:33:12Z</time>
      </trkpt>
      <trkpt lat="45.87297" lon="6.39296">
        <ele>1365.69</ele>
        <time>2020-05-18T14:33:13Z</time>
      </trkpt>
      <trkpt lat="45.87291" lon="6.39273">
        <ele>1364.25</ele>
        <time>2020-05-18T14:33:14Z</time>
      </trkpt>
      <trkpt lat="45.87286" lon="6.39248">
        <ele>1362.81</ele>
        <time>2020-05-18T14:33:15Z</time>
      </trkpt>
      <trkpt lat="45.87283" lon="6.39223">
        <ele>1361.36</ele>
        <time>2020-05-18T14:33:16Z</time>
      </trkpt>
      <trkpt lat="45.87281" lon="6.39199">
        <ele>1359.92</ele>
        <time>2020-05-18T14:33:17Z</time>
      </trkpt>
      <trkpt lat="45.87279" lon="6.39178">
        <ele>1358.48</ele>
        <time>2020-05-18T14:33:18Z</time>
      </trkpt>
      <trkpt lat="45.87273" lon="6.3916">
        <ele>1357.04</ele>
        <time>2020-05-18T14:33:19Z</time>
      </trkpt>
      <trkpt lat="45.87254" lon="6.39127">
        <ele>1355.12</ele>
        <time>2020-05-18T14:33:21Z</time>
      </trkpt>
      <trkpt lat="45.87243" lon="6.3911">
        <ele>1353.67</ele>
        <time>2020-05-18T14:33:22Z</time>
      </trkpt>
      <trkpt lat="45.87232" lon="6.39094">
        <ele>1352.23</ele>
        <time>2020-05-18T14:33:23Z</time>
      </trkpt>
      <trkpt lat="45.87222" lon="6.39075">
        <ele>1350.31</ele>
        <time>2020-05-18T14:33:24Z</time>
      </trkpt>
      <trkpt lat="45.87216" lon="6.39052">
        <ele>1348.87</ele>
        <time>2020-05-18T14:33:25Z</time>
      </trkpt>
      <trkpt lat="45.8721" lon="6.39027">
        <ele>1346.94</ele>
        <time>2020-05-18T14:33:26Z</time>
      </trkpt>
      <trkpt lat="45.8718" lon="6.38857">
        <ele>1336.85</ele>
        <time>2020-05-18T14:33:33Z</time>
      </trkpt>
      <trkpt lat="45.87176" lon="6.38837">
        <ele>1335.41</ele>
        <time>2020-05-18T14:33:34Z</time>
      </trkpt>
      <trkpt lat="45.87177" lon="6.38817">
        <ele>1333.49</ele>
        <time>2020-05-18T14:33:35Z</time>
      </trkpt>
      <trkpt lat="45.87179" lon="6.38798">
        <ele>1332.04</ele>
        <time>2020-05-18T14:33:36Z</time>
      </trkpt>
      <trkpt lat="45.87196" lon="6.38724">
        <ele>1326.76</ele>
        <time>2020-05-18T14:33:40Z</time>
      </trkpt>
      <trkpt lat="45.87197" lon="6.38687">
        <ele>1324.83</ele>
        <time>2020-05-18T14:33:42Z</time>
      </trkpt>
      <trkpt lat="45.87192" lon="6.38666">
        <ele>1323.39</ele>
        <time>2020-05-18T14:33:43Z</time>
      </trkpt>
      <trkpt lat="45.87186" lon="6.38644">
        <ele>1322.43</ele>
        <time>2020-05-18T14:33:44Z</time>
      </trkpt>
      <trkpt lat="45.87166" lon="6.38561">
        <ele>1319.07</ele>
        <time>2020-05-18T14:33:47Z</time>
      </trkpt>
      <trkpt lat="45.87164" lon="6.3854">
        <ele>1318.1</ele>
        <time>2020-05-18T14:33:48Z</time>
      </trkpt>
      <trkpt lat="45.87162" lon="6.38517">
        <ele>1316.66</ele>
        <time>2020-05-18T14:33:50Z</time>
      </trkpt>
      <trkpt lat="45.87161" lon="6.38495">
        <ele>1315.22</ele>
        <time>2020-05-18T14:33:51Z</time>
      </trkpt>
      <trkpt lat="45.87172" lon="6.38453">
        <ele>1314.26</ele>
        <time>2020-05-18T14:33:52Z</time>
      </trkpt>
      <trkpt lat="45.87185" lon="6.38417">
        <ele>1310.41</ele>
        <time>2020-05-18T14:33:55Z</time>
      </trkpt>
      <trkpt lat="45.87192" lon="6.384">
        <ele>1309.45</ele>
        <time>2020-05-18T14:33:56Z</time>
      </trkpt>
      <trkpt lat="45.87193" lon="6.38381">
        <ele>1308.97</ele>
        <time>2020-05-18T14:33:57Z</time>
      </trkpt>
      <trkpt lat="45.8719" lon="6.38359">
        <ele>1308.01</ele>
        <time>2020-05-18T14:33:58Z</time>
      </trkpt>
      <trkpt lat="45.87185" lon="6.38322">
        <ele>1305.13</ele>
        <time>2020-05-18T14:34:00Z</time>
      </trkpt>
      <trkpt lat="45.87184" lon="6.38283">
        <ele>1304.17</ele>
        <time>2020-05-18T14:34:01Z</time>
      </trkpt>
      <trkpt lat="45.87183" lon="6.38263">
        <ele>1302.72</ele>
        <time>2020-05-18T14:34:02Z</time>
      </trkpt>
      <trkpt lat="45.87178" lon="6.38241">
        <ele>1301.28</ele>
        <time>2020-05-18T14:34:03Z</time>
      </trkpt>
      <trkpt lat="45.87168" lon="6.38219">
        <ele>1299.84</ele>
        <time>2020-05-18T14:34:04Z</time>
      </trkpt>
      <trkpt lat="45.87158" lon="6.38195">
        <ele>1296.96</ele>
        <time>2020-05-18T14:34:06Z</time>
      </trkpt>
      <trkpt lat="45.8712" lon="6.38106">
        <ele>1290.71</ele>
        <time>2020-05-18T14:34:10Z</time>
      </trkpt>
      <trkpt lat="45.87113" lon="6.38083">
        <ele>1289.27</ele>
        <time>2020-05-18T14:34:11Z</time>
      </trkpt>
      <trkpt lat="45.87096" lon="6.38019">
        <ele>1284.94</ele>
        <time>2020-05-18T14:34:14Z</time>
      </trkpt>
      <trkpt lat="45.87093" lon="6.37998">
        <ele>1283.98</ele>
        <time>2020-05-18T14:34:15Z</time>
      </trkpt>
      <trkpt lat="45.87095" lon="6.37976">
        <ele>1282.54</ele>
        <time>2020-05-18T14:34:16Z</time>
      </trkpt>
      <trkpt lat="45.87119" lon="6.37812">
        <ele>1272.92</ele>
        <time>2020-05-18T14:34:22Z</time>
      </trkpt>
      <trkpt lat="45.87124" lon="6.37784">
        <ele>1271</ele>
        <time>2020-05-18T14:34:23Z</time>
      </trkpt>
      <trkpt lat="45.87125" lon="6.37755">
        <ele>1269.56</ele>
        <time>2020-05-18T14:34:24Z</time>
      </trkpt>
      <trkpt lat="45.87125" lon="6.37726">
        <ele>1267.64</ele>
        <time>2020-05-18T14:34:25Z</time>
      </trkpt>
      <trkpt lat="45.87123" lon="6.37699">
        <ele>1266.19</ele>
        <time>2020-05-18T14:34:26Z</time>
      </trkpt>
      <trkpt lat="45.87115" lon="6.37628">
        <ele>1261.39</ele>
        <time>2020-05-18T14:34:29Z</time>
      </trkpt>
      <trkpt lat="45.8712" lon="6.37588">
        <ele>1259.94</ele>
        <time>2020-05-18T14:34:30Z</time>
      </trkpt>
      <trkpt lat="45.87124" lon="6.37566">
        <ele>1256.58</ele>
        <time>2020-05-18T14:34:32Z</time>
      </trkpt>
      <trkpt lat="45.87135" lon="6.37514">
        <ele>1255.14</ele>
        <time>2020-05-18T14:34:33Z</time>
      </trkpt>
      <trkpt lat="45.87139" lon="6.37484">
        <ele>1253.7</ele>
        <time>2020-05-18T14:34:34Z</time>
      </trkpt>
      <trkpt lat="45.8715" lon="6.37365">
        <ele>1247.45</ele>
        <time>2020-05-18T14:34:39Z</time>
      </trkpt>
      <trkpt lat="45.8715" lon="6.37352">
        <ele>1245.04</ele>
        <time>2020-05-18T14:34:41Z</time>
      </trkpt>
      <trkpt lat="45.87148" lon="6.37344">
        <ele>1244.08</ele>
        <time>2020-05-18T14:34:42Z</time>
      </trkpt>
      <trkpt lat="45.87143" lon="6.37336">
        <ele>1243.12</ele>
        <time>2020-05-18T14:34:43Z</time>
      </trkpt>
      <trkpt lat="45.8714" lon="6.37335">
        <ele>1242.16</ele>
        <time>2020-05-18T14:34:44Z</time>
      </trkpt>
      <trkpt lat="45.87128" lon="6.37342">
        <ele>1240.24</ele>
        <time>2020-05-18T14:34:46Z</time>
      </trkpt>
      <trkpt lat="45.87118" lon="6.37372">
        <ele>1238.8</ele>
        <time>2020-05-18T14:34:48Z</time>
      </trkpt>
      <trkpt lat="45.87112" lon="6.3739">
        <ele>1237.35</ele>
        <time>2020-05-18T14:34:49Z</time>
      </trkpt>
      <trkpt lat="45.87105" lon="6.37408">
        <ele>1236.39</ele>
        <time>2020-05-18T14:34:50Z</time>
      </trkpt>
      <trkpt lat="45.8708" lon="6.37433">
        <ele>1233.03</ele>
        <time>2020-05-18T14:34:52Z</time>
      </trkpt>
      <trkpt lat="45.87069" lon="6.37447">
        <ele>1231.59</ele>
        <time>2020-05-18T14:34:53Z</time>
      </trkpt>
      <trkpt lat="45.8706" lon="6.37465">
        <ele>1230.14</ele>
        <time>2020-05-18T14:34:54Z</time>
      </trkpt>
      <trkpt lat="45.87052" lon="6.37481">
        <ele>1228.7</ele>
        <time>2020-05-18T14:34:55Z</time>
      </trkpt>
      <trkpt lat="45.87044" lon="6.37497">
        <ele>1227.26</ele>
        <time>2020-05-18T14:34:56Z</time>
      </trkpt>
      <trkpt lat="45.87034" lon="6.3751">
        <ele>1226.78</ele>
        <time>2020-05-18T14:34:57Z</time>
      </trkpt>
      <trkpt lat="45.8702" lon="6.3752">
        <ele>1225.82</ele>
        <time>2020-05-18T14:34:58Z</time>
      </trkpt>
      <trkpt lat="45.87003" lon="6.37528">
        <ele>1224.86</ele>
        <time>2020-05-18T14:34:59Z</time>
      </trkpt>
      <trkpt lat="45.86918" lon="6.3755">
        <ele>1218.61</ele>
        <time>2020-05-18T14:35:04Z</time>
      </trkpt>
      <trkpt lat="45.86905" lon="6.37553">
        <ele>1217.17</ele>
        <time>2020-05-18T14:35:05Z</time>
      </trkpt>
      <trkpt lat="45.86893" lon="6.37557">
        <ele>1215.72</ele>
        <time>2020-05-18T14:35:06Z</time>
      </trkpt>
      <trkpt lat="45.86883" lon="6.37565">
        <ele>1214.76</ele>
        <time>2020-05-18T14:35:07Z</time>
      </trkpt>
      <trkpt lat="45.86874" lon="6.37576">
        <ele>1213.32</ele>
        <time>2020-05-18T14:35:08Z</time>
      </trkpt>
      <trkpt lat="45.86855" lon="6.3763">
        <ele>1209.48</ele>
        <time>2020-05-18T14:35:11Z</time>
      </trkpt>
      <trkpt lat="45.86851" lon="6.37646">
        <ele>1208.03</ele>
        <time>2020-05-18T14:35:12Z</time>
      </trkpt>
      <trkpt lat="45.86844" lon="6.37661">
        <ele>1207.07</ele>
        <time>2020-05-18T14:35:13Z</time>
      </trkpt>
      <trkpt lat="45.86834" lon="6.37671">
        <ele>1206.59</ele>
        <time>2020-05-18T14:35:14Z</time>
      </trkpt>
      <trkpt lat="45.86821" lon="6.37675">
        <ele>1206.11</ele>
        <time>2020-05-18T14:35:15Z</time>
      </trkpt>
      <trkpt lat="45.86809" lon="6.37679">
        <ele>1205.15</ele>
        <time>2020-05-18T14:35:16Z</time>
      </trkpt>
      <trkpt lat="45.86796" lon="6.37688">
        <ele>1204.67</ele>
        <time>2020-05-18T14:35:17Z</time>
      </trkpt>
      <trkpt lat="45.86784" lon="6.37698">
        <ele>1204.19</ele>
        <time>2020-05-18T14:35:18Z</time>
      </trkpt>
      <trkpt lat="45.86773" lon="6.37707">
        <ele>1203.23</ele>
        <time>2020-05-18T14:35:19Z</time>
      </trkpt>
      <trkpt lat="45.86765" lon="6.37724">
        <ele>1202.75</ele>
        <time>2020-05-18T14:35:20Z</time>
      </trkpt>
      <trkpt lat="45.8675" lon="6.37755">
        <ele>1200.82</ele>
        <time>2020-05-18T14:35:22Z</time>
      </trkpt>
      <trkpt lat="45.86745" lon="6.37769">
        <ele>1199.86</ele>
        <time>2020-05-18T14:35:23Z</time>
      </trkpt>
      <trkpt lat="45.86744" lon="6.37809">
        <ele>1198.9</ele>
        <time>2020-05-18T14:35:24Z</time>
      </trkpt>
      <trkpt lat="45.86749" lon="6.37833">
        <ele>1196.5</ele>
        <time>2020-05-18T14:35:26Z</time>
      </trkpt>
      <trkpt lat="45.86775" lon="6.37975">
        <ele>1190.25</ele>
        <time>2020-05-18T14:35:31Z</time>
      </trkpt>
      <trkpt lat="45.86777" lon="6.37987">
        <ele>1188.33</ele>
        <time>2020-05-18T14:35:33Z</time>
      </trkpt>
      <trkpt lat="45.86772" lon="6.38003">
        <ele>1187.37</ele>
        <time>2020-05-18T14:35:34Z</time>
      </trkpt>
      <trkpt lat="45.86764" lon="6.38004">
        <ele>1186.88</ele>
        <time>2020-05-18T14:35:35Z</time>
      </trkpt>
      <trkpt lat="45.86756" lon="6.37999">
        <ele>1185.44</ele>
        <time>2020-05-18T14:35:37Z</time>
      </trkpt>
      <trkpt lat="45.86729" lon="6.37955">
        <ele>1183.04</ele>
        <time>2020-05-18T14:35:39Z</time>
      </trkpt>
      <trkpt lat="45.86721" lon="6.37937">
        <ele>1182.08</ele>
        <time>2020-05-18T14:35:40Z</time>
      </trkpt>
      <trkpt lat="45.86712" lon="6.37919">
        <ele>1180.64</ele>
        <time>2020-05-18T14:35:41Z</time>
      </trkpt>
      <trkpt lat="45.86702" lon="6.37903">
        <ele>1179.19</ele>
        <time>2020-05-18T14:35:42Z</time>
      </trkpt>
      <trkpt lat="45.8669" lon="6.37885">
        <ele>1177.75</ele>
        <time>2020-05-18T14:35:43Z</time>
      </trkpt>
      <trkpt lat="45.86678" lon="6.37867">
        <ele>1176.31</ele>
        <time>2020-05-18T14:35:44Z</time>
      </trkpt>
      <trkpt lat="45.86667" lon="6.37847">
        <ele>1174.39</ele>
        <time>2020-05-18T14:35:45Z</time>
      </trkpt>
      <trkpt lat="45.86658" lon="6.37825">
        <ele>1172.95</ele>
        <time>2020-05-18T14:35:46Z</time>
      </trkpt>
      <trkpt lat="45.8665" lon="6.37803">
        <ele>1171.5</ele>
        <time>2020-05-18T14:35:47Z</time>
      </trkpt>
      <trkpt lat="45.86643" lon="6.37778">
        <ele>1170.06</ele>
        <time>2020-05-18T14:35:48Z</time>
      </trkpt>
      <trkpt lat="45.86636" lon="6.37751">
        <ele>1168.14</ele>
        <time>2020-05-18T14:35:49Z</time>
      </trkpt>
      <trkpt lat="45.8662" lon="6.37676">
        <ele>1160.93</ele>
        <time>2020-05-18T14:35:53Z</time>
      </trkpt>
      <trkpt lat="45.86606" lon="6.37596">
        <ele>1157.08</ele>
        <time>2020-05-18T14:35:55Z</time>
      </trkpt>
      <trkpt lat="45.86597" lon="6.37542">
        <ele>1150.84</ele>
        <time>2020-05-18T14:35:58Z</time>
      </trkpt>
      <trkpt lat="45.86593" lon="6.37517">
        <ele>1147.95</ele>
        <time>2020-05-18T14:35:59Z</time>
      </trkpt>
      <trkpt lat="45.86594" lon="6.37468">
        <ele>1145.55</ele>
        <time>2020-05-18T14:36:00Z</time>
      </trkpt>
      <trkpt lat="45.86594" lon="6.37468">
        <ele>1143.14</ele>
        <time>2020-05-18T14:36:01Z</time>
      </trkpt>
      <trkpt lat="45.86598" lon="6.37426">
        <ele>1140.74</ele>
        <time>2020-05-18T14:36:02Z</time>
      </trkpt>
      <trkpt lat="45.86604" lon="6.3741">
        <ele>1138.82</ele>
        <time>2020-05-18T14:36:03Z</time>
      </trkpt>
      <trkpt lat="45.86609" lon="6.37396">
        <ele>1135.45</ele>
        <time>2020-05-18T14:36:05Z</time>
      </trkpt>
      <trkpt lat="45.86616" lon="6.37377">
        <ele>1134.01</ele>
        <time>2020-05-18T14:36:06Z</time>
      </trkpt>
      <trkpt lat="45.86614" lon="6.37373">
        <ele>1132.57</ele>
        <time>2020-05-18T14:36:07Z</time>
      </trkpt>
      <trkpt lat="45.86609" lon="6.37367">
        <ele>1131.13</ele>
        <time>2020-05-18T14:36:08Z</time>
      </trkpt>
      <trkpt lat="45.866" lon="6.3737">
        <ele>1129.69</ele>
        <time>2020-05-18T14:36:09Z</time>
      </trkpt>
      <trkpt lat="45.86592" lon="6.37379">
        <ele>1128.73</ele>
        <time>2020-05-18T14:36:10Z</time>
      </trkpt>
      <trkpt lat="45.86581" lon="6.37389">
        <ele>1126.8</ele>
        <time>2020-05-18T14:36:11Z</time>
      </trkpt>
      <trkpt lat="45.86568" lon="6.374">
        <ele>1123.44</ele>
        <time>2020-05-18T14:36:13Z</time>
      </trkpt>
      <trkpt lat="45.86554" lon="6.37413">
        <ele>1121.52</ele>
        <time>2020-05-18T14:36:14Z</time>
      </trkpt>
      <trkpt lat="45.8653" lon="6.3744">
        <ele>1119.59</ele>
        <time>2020-05-18T14:36:15Z</time>
      </trkpt>
      <trkpt lat="45.8652" lon="6.37455">
        <ele>1117.67</ele>
        <time>2020-05-18T14:36:16Z</time>
      </trkpt>
      <trkpt lat="45.86511" lon="6.37469">
        <ele>1115.75</ele>
        <time>2020-05-18T14:36:17Z</time>
      </trkpt>
      <trkpt lat="45.86506" lon="6.37487">
        <ele>1113.82</ele>
        <time>2020-05-18T14:36:18Z</time>
      </trkpt>
      <trkpt lat="45.86501" lon="6.37504">
        <ele>1111.9</ele>
        <time>2020-05-18T14:36:19Z</time>
      </trkpt>
      <trkpt lat="45.86496" lon="6.3752">
        <ele>1109.98</ele>
        <time>2020-05-18T14:36:20Z</time>
      </trkpt>
      <trkpt lat="45.86489" lon="6.37545">
        <ele>1106.61</ele>
        <time>2020-05-18T14:36:22Z</time>
      </trkpt>
      <trkpt lat="45.86482" lon="6.37555">
        <ele>1105.17</ele>
        <time>2020-05-18T14:36:23Z</time>
      </trkpt>
      <trkpt lat="45.86474" lon="6.37562">
        <ele>1103.73</ele>
        <time>2020-05-18T14:36:24Z</time>
      </trkpt>
      <trkpt lat="45.86466" lon="6.3757">
        <ele>1102.29</ele>
        <time>2020-05-18T14:36:25Z</time>
      </trkpt>
      <trkpt lat="45.86458" lon="6.37577">
        <ele>1101.33</ele>
        <time>2020-05-18T14:36:26Z</time>
      </trkpt>
      <trkpt lat="45.86451" lon="6.37583">
        <ele>1099.89</ele>
        <time>2020-05-18T14:36:27Z</time>
      </trkpt>
      <trkpt lat="45.86442" lon="6.37591">
        <ele>1098.92</ele>
        <time>2020-05-18T14:36:28Z</time>
      </trkpt>
      <trkpt lat="45.8644" lon="6.37601">
        <ele>1097.96</ele>
        <time>2020-05-18T14:36:29Z</time>
      </trkpt>
      <trkpt lat="45.86438" lon="6.37616">
        <ele>1097</ele>
        <time>2020-05-18T14:36:30Z</time>
      </trkpt>
      <trkpt lat="45.86435" lon="6.37633">
        <ele>1096.04</ele>
        <time>2020-05-18T14:36:31Z</time>
      </trkpt>
      <trkpt lat="45.86419" lon="6.37725">
        <ele>1089.31</ele>
        <time>2020-05-18T14:36:36Z</time>
      </trkpt>
      <trkpt lat="45.86413" lon="6.37742">
        <ele>1087.87</ele>
        <time>2020-05-18T14:36:37Z</time>
      </trkpt>
      <trkpt lat="45.86388" lon="6.37829">
        <ele>1078.74</ele>
        <time>2020-05-18T14:36:43Z</time>
      </trkpt>
      <trkpt lat="45.86382" lon="6.37866">
        <ele>1077.29</ele>
        <time>2020-05-18T14:36:44Z</time>
      </trkpt>
      <trkpt lat="45.86379" lon="6.37884">
        <ele>1075.85</ele>
        <time>2020-05-18T14:36:45Z</time>
      </trkpt>
      <trkpt lat="45.86376" lon="6.37902">
        <ele>1074.41</ele>
        <time>2020-05-18T14:36:46Z</time>
      </trkpt>
      <trkpt lat="45.86362" lon="6.37984">
        <ele>1067.68</ele>
        <time>2020-05-18T14:36:51Z</time>
      </trkpt>
      <trkpt lat="45.86361" lon="6.37999">
        <ele>1066.24</ele>
        <time>2020-05-18T14:36:52Z</time>
      </trkpt>
      <trkpt lat="45.86362" lon="6.38013">
        <ele>1064.32</ele>
        <time>2020-05-18T14:36:54Z</time>
      </trkpt>
      <trkpt lat="45.86363" lon="6.38035">
        <ele>1061.91</ele>
        <time>2020-05-18T14:36:56Z</time>
      </trkpt>
      <trkpt lat="45.86357" lon="6.38053">
        <ele>1059.99</ele>
        <time>2020-05-18T14:36:58Z</time>
      </trkpt>
      <trkpt lat="45.8635" lon="6.38055">
        <ele>1059.51</ele>
        <time>2020-05-18T14:36:59Z</time>
      </trkpt>
      <trkpt lat="45.86337" lon="6.38039">
        <ele>1059.51</ele>
        <time>2020-05-18T14:37:00Z</time>
      </trkpt>
      <trkpt lat="45.86332" lon="6.38028">
        <ele>1059.03</ele>
        <time>2020-05-18T14:37:01Z</time>
      </trkpt>
      <trkpt lat="45.86313" lon="6.3799">
        <ele>1058.07</ele>
        <time>2020-05-18T14:37:05Z</time>
      </trkpt>
      <trkpt lat="45.86307" lon="6.37976">
        <ele>1057.59</ele>
        <time>2020-05-18T14:37:06Z</time>
      </trkpt>
      <trkpt lat="45.86303" lon="6.37926">
        <ele>1055.67</ele>
        <time>2020-05-18T14:37:08Z</time>
      </trkpt>
      <trkpt lat="45.86303" lon="6.37926">
        <ele>1054.7</ele>
        <time>2020-05-18T14:37:09Z</time>
      </trkpt>
      <trkpt lat="45.86303" lon="6.37892">
        <ele>1053.74</ele>
        <time>2020-05-18T14:37:10Z</time>
      </trkpt>
      <trkpt lat="45.86298" lon="6.37875">
        <ele>1052.3</ele>
        <time>2020-05-18T14:37:11Z</time>
      </trkpt>
      <trkpt lat="45.8629" lon="6.37857">
        <ele>1051.34</ele>
        <time>2020-05-18T14:37:12Z</time>
      </trkpt>
      <trkpt lat="45.8628" lon="6.37833">
        <ele>1049.9</ele>
        <time>2020-05-18T14:37:13Z</time>
      </trkpt>
      <trkpt lat="45.86268" lon="6.37806">
        <ele>1047.97</ele>
        <time>2020-05-18T14:37:14Z</time>
      </trkpt>
      <trkpt lat="45.86258" lon="6.37779">
        <ele>1044.13</ele>
        <time>2020-05-18T14:37:16Z</time>
      </trkpt>
      <trkpt lat="45.86249" lon="6.37754">
        <ele>1042.69</ele>
        <time>2020-05-18T14:37:17Z</time>
      </trkpt>
      <trkpt lat="45.86233" lon="6.37709">
        <ele>1040.76</ele>
        <time>2020-05-18T14:37:18Z</time>
      </trkpt>
      <trkpt lat="45.86228" lon="6.37685">
        <ele>1038.84</ele>
        <time>2020-05-18T14:37:19Z</time>
      </trkpt>
      <trkpt lat="45.86226" lon="6.37659">
        <ele>1036.92</ele>
        <time>2020-05-18T14:37:20Z</time>
      </trkpt>
      <trkpt lat="45.86226" lon="6.37631">
        <ele>1035.48</ele>
        <time>2020-05-18T14:37:21Z</time>
      </trkpt>
      <trkpt lat="45.86225" lon="6.37604">
        <ele>1034.04</ele>
        <time>2020-05-18T14:37:22Z</time>
      </trkpt>
      <trkpt lat="45.86224" lon="6.37578">
        <ele>1030.67</ele>
        <time>2020-05-18T14:37:24Z</time>
      </trkpt>
      <trkpt lat="45.86216" lon="6.37531">
        <ele>1028.75</ele>
        <time>2020-05-18T14:37:25Z</time>
      </trkpt>
      <trkpt lat="45.86207" lon="6.37487">
        <ele>1024.9</ele>
        <time>2020-05-18T14:37:27Z</time>
      </trkpt>
      <trkpt lat="45.86204" lon="6.37462">
        <ele>1022.98</ele>
        <time>2020-05-18T14:37:28Z</time>
      </trkpt>
      <trkpt lat="45.86213" lon="6.37352">
        <ele>1012.41</ele>
        <time>2020-05-18T14:37:34Z</time>
      </trkpt>
      <trkpt lat="45.86215" lon="6.37325">
        <ele>1009.52</ele>
        <time>2020-05-18T14:37:36Z</time>
      </trkpt>
      <trkpt lat="45.86217" lon="6.37312">
        <ele>1008.08</ele>
        <time>2020-05-18T14:37:37Z</time>
      </trkpt>
      <trkpt lat="45.86221" lon="6.37299">
        <ele>1005.68</ele>
        <time>2020-05-18T14:37:39Z</time>
      </trkpt>
      <trkpt lat="45.86247" lon="6.37254">
        <ele>1002.31</ele>
        <time>2020-05-18T14:37:41Z</time>
      </trkpt>
      <trkpt lat="45.86252" lon="6.37232">
        <ele>1000.39</ele>
        <time>2020-05-18T14:37:42Z</time>
      </trkpt>
      <trkpt lat="45.86256" lon="6.37211">
        <ele>998.95</ele>
        <time>2020-05-18T14:37:43Z</time>
      </trkpt>
      <trkpt lat="45.86257" lon="6.3719">
        <ele>995.58</ele>
        <time>2020-05-18T14:37:45Z</time>
      </trkpt>
      <trkpt lat="45.86264" lon="6.37156">
        <ele>994.14</ele>
        <time>2020-05-18T14:37:46Z</time>
      </trkpt>
      <trkpt lat="45.86268" lon="6.37144">
        <ele>992.7</ele>
        <time>2020-05-18T14:37:47Z</time>
      </trkpt>
      <trkpt lat="45.86272" lon="6.37135">
        <ele>991.74</ele>
        <time>2020-05-18T14:37:48Z</time>
      </trkpt>
      <trkpt lat="45.86271" lon="6.37128">
        <ele>990.3</ele>
        <time>2020-05-18T14:37:49Z</time>
      </trkpt>
      <trkpt lat="45.86265" lon="6.37123">
        <ele>989.33</ele>
        <time>2020-05-18T14:37:50Z</time>
      </trkpt>
      <trkpt lat="45.86258" lon="6.37121">
        <ele>988.37</ele>
        <time>2020-05-18T14:37:51Z</time>
      </trkpt>
      <trkpt lat="45.8625" lon="6.3713">
        <ele>987.89</ele>
        <time>2020-05-18T14:37:52Z</time>
      </trkpt>
      <trkpt lat="45.86239" lon="6.37142">
        <ele>986.93</ele>
        <time>2020-05-18T14:37:53Z</time>
      </trkpt>
      <trkpt lat="45.86226" lon="6.37156">
        <ele>985.97</ele>
        <time>2020-05-18T14:37:54Z</time>
      </trkpt>
      <trkpt lat="45.8621" lon="6.37173">
        <ele>984.53</ele>
        <time>2020-05-18T14:37:55Z</time>
      </trkpt>
      <trkpt lat="45.86193" lon="6.37187">
        <ele>983.09</ele>
        <time>2020-05-18T14:37:56Z</time>
      </trkpt>
      <trkpt lat="45.86176" lon="6.372">
        <ele>981.64</ele>
        <time>2020-05-18T14:37:57Z</time>
      </trkpt>
      <trkpt lat="45.86159" lon="6.37212">
        <ele>979.72</ele>
        <time>2020-05-18T14:37:58Z</time>
      </trkpt>
      <trkpt lat="45.86144" lon="6.37229">
        <ele>978.28</ele>
        <time>2020-05-18T14:37:59Z</time>
      </trkpt>
      <trkpt lat="45.8613" lon="6.37246">
        <ele>976.36</ele>
        <time>2020-05-18T14:38:00Z</time>
      </trkpt>
      <trkpt lat="45.86105" lon="6.37276">
        <ele>971.07</ele>
        <time>2020-05-18T14:38:03Z</time>
      </trkpt>
      <trkpt lat="45.86084" lon="6.37309">
        <ele>968.67</ele>
        <time>2020-05-18T14:38:04Z</time>
      </trkpt>
      <trkpt lat="45.86076" lon="6.37327">
        <ele>966.74</ele>
        <time>2020-05-18T14:38:05Z</time>
      </trkpt>
      <trkpt lat="45.86019" lon="6.37476">
        <ele>953.28</ele>
        <time>2020-05-18T14:38:14Z</time>
      </trkpt>
      <trkpt lat="45.86005" lon="6.37536">
        <ele>948.48</ele>
        <time>2020-05-18T14:38:18Z</time>
      </trkpt>
      <trkpt lat="45.86002" lon="6.37548">
        <ele>947.52</ele>
        <time>2020-05-18T14:38:19Z</time>
      </trkpt>
      <trkpt lat="45.85997" lon="6.37554">
        <ele>946.07</ele>
        <time>2020-05-18T14:38:20Z</time>
      </trkpt>
      <trkpt lat="45.8599" lon="6.37554">
        <ele>945.11</ele>
        <time>2020-05-18T14:38:21Z</time>
      </trkpt>
      <trkpt lat="45.85985" lon="6.37547">
        <ele>944.15</ele>
        <time>2020-05-18T14:38:22Z</time>
      </trkpt>
      <trkpt lat="45.85983" lon="6.37536">
        <ele>942.71</ele>
        <time>2020-05-18T14:38:23Z</time>
      </trkpt>
      <trkpt lat="45.85984" lon="6.37522">
        <ele>941.75</ele>
        <time>2020-05-18T14:38:24Z</time>
      </trkpt>
      <trkpt lat="45.85985" lon="6.37506">
        <ele>941.27</ele>
        <time>2020-05-18T14:38:25Z</time>
      </trkpt>
      <trkpt lat="45.85984" lon="6.3749">
        <ele>940.31</ele>
        <time>2020-05-18T14:38:26Z</time>
      </trkpt>
      <trkpt lat="45.85981" lon="6.37472">
        <ele>939.35</ele>
        <time>2020-05-18T14:38:27Z</time>
      </trkpt>
      <trkpt lat="45.85975" lon="6.37455">
        <ele>937.9</ele>
        <time>2020-05-18T14:38:28Z</time>
      </trkpt>
      <trkpt lat="45.85968" lon="6.3744">
        <ele>936.94</ele>
        <time>2020-05-18T14:38:29Z</time>
      </trkpt>
      <trkpt lat="45.85961" lon="6.37425">
        <ele>935.98</ele>
        <time>2020-05-18T14:38:30Z</time>
      </trkpt>
      <trkpt lat="45.85956" lon="6.37409">
        <ele>935.02</ele>
        <time>2020-05-18T14:38:31Z</time>
      </trkpt>
      <trkpt lat="45.85954" lon="6.37391">
        <ele>934.54</ele>
        <time>2020-05-18T14:38:32Z</time>
      </trkpt>
      <trkpt lat="45.85952" lon="6.37373">
        <ele>933.58</ele>
        <time>2020-05-18T14:38:33Z</time>
      </trkpt>
      <trkpt lat="45.85953" lon="6.37355">
        <ele>933.58</ele>
        <time>2020-05-18T14:38:34Z</time>
      </trkpt>
      <trkpt lat="45.85957" lon="6.37335">
        <ele>933.1</ele>
        <time>2020-05-18T14:38:35Z</time>
      </trkpt>
      <trkpt lat="45.85961" lon="6.37314">
        <ele>932.62</ele>
        <time>2020-05-18T14:38:36Z</time>
      </trkpt>
      <trkpt lat="45.85988" lon="6.37205">
        <ele>930.69</ele>
        <time>2020-05-18T14:38:43Z</time>
      </trkpt>
      <trkpt lat="45.86035" lon="6.37085">
        <ele>931.17</ele>
        <time>2020-05-18T14:38:52Z</time>
      </trkpt>
      <trkpt lat="45.86038" lon="6.3707">
        <ele>930.69</ele>
        <time>2020-05-18T14:38:53Z</time>
      </trkpt>
      <trkpt lat="45.86041" lon="6.37056">
        <ele>930.21</ele>
        <time>2020-05-18T14:38:54Z</time>
      </trkpt>
      <trkpt lat="45.86048" lon="6.37043">
        <ele>929.73</ele>
        <time>2020-05-18T14:38:55Z</time>
      </trkpt>
      <trkpt lat="45.86056" lon="6.37031">
        <ele>928.29</ele>
        <time>2020-05-18T14:38:56Z</time>
      </trkpt>
      <trkpt lat="45.86065" lon="6.3702">
        <ele>927.81</ele>
        <time>2020-05-18T14:38:57Z</time>
      </trkpt>
      <trkpt lat="45.86086" lon="6.3699">
        <ele>924.93</ele>
        <time>2020-05-18T14:39:00Z</time>
      </trkpt>
      <trkpt lat="45.86103" lon="6.36954">
        <ele>922.52</ele>
        <time>2020-05-18T14:39:04Z</time>
      </trkpt>
      <trkpt lat="45.86108" lon="6.36947">
        <ele>922.52</ele>
        <time>2020-05-18T14:39:05Z</time>
      </trkpt>
      <trkpt lat="45.86119" lon="6.36935">
        <ele>921.08</ele>
        <time>2020-05-18T14:39:07Z</time>
      </trkpt>
      <trkpt lat="45.86136" lon="6.36914">
        <ele>919.16</ele>
        <time>2020-05-18T14:39:10Z</time>
      </trkpt>
      <trkpt lat="45.86141" lon="6.36908">
        <ele>918.68</ele>
        <time>2020-05-18T14:39:11Z</time>
      </trkpt>
      <trkpt lat="45.86145" lon="6.369">
        <ele>918.2</ele>
        <time>2020-05-18T14:39:12Z</time>
      </trkpt>
      <trkpt lat="45.86149" lon="6.36888">
        <ele>916.75</ele>
        <time>2020-05-18T14:39:14Z</time>
      </trkpt>
      <trkpt lat="45.86151" lon="6.36861">
        <ele>915.79</ele>
        <time>2020-05-18T14:39:15Z</time>
      </trkpt>
      <trkpt lat="45.86148" lon="6.36847">
        <ele>915.31</ele>
        <time>2020-05-18T14:39:16Z</time>
      </trkpt>
      <trkpt lat="45.86144" lon="6.36825">
        <ele>914.83</ele>
        <time>2020-05-18T14:39:17Z</time>
      </trkpt>
      <trkpt lat="45.86113" lon="6.36745">
        <ele>910.03</ele>
        <time>2020-05-18T14:39:22Z</time>
      </trkpt>
      <trkpt lat="45.86106" lon="6.3673">
        <ele>909.54</ele>
        <time>2020-05-18T14:39:23Z</time>
      </trkpt>
      <trkpt lat="45.861" lon="6.36716">
        <ele>909.06</ele>
        <time>2020-05-18T14:39:24Z</time>
      </trkpt>
      <trkpt lat="45.86093" lon="6.36703">
        <ele>908.1</ele>
        <time>2020-05-18T14:39:25Z</time>
      </trkpt>
      <trkpt lat="45.86087" lon="6.36689">
        <ele>907.14</ele>
        <time>2020-05-18T14:39:26Z</time>
      </trkpt>
      <trkpt lat="45.86081" lon="6.36674">
        <ele>906.18</ele>
        <time>2020-05-18T14:39:27Z</time>
      </trkpt>
      <trkpt lat="45.86077" lon="6.36657">
        <ele>905.22</ele>
        <time>2020-05-18T14:39:28Z</time>
      </trkpt>
      <trkpt lat="45.86068" lon="6.36595">
        <ele>903.3</ele>
        <time>2020-05-18T14:39:32Z</time>
      </trkpt>
      <trkpt lat="45.86067" lon="6.3658">
        <ele>902.82</ele>
        <time>2020-05-18T14:39:33Z</time>
      </trkpt>
      <trkpt lat="45.86068" lon="6.36562">
        <ele>902.82</ele>
        <time>2020-05-18T14:39:34Z</time>
      </trkpt>
      <trkpt lat="45.86073" lon="6.36521">
        <ele>901.85</ele>
        <time>2020-05-18T14:39:36Z</time>
      </trkpt>
      <trkpt lat="45.86073" lon="6.36501">
        <ele>901.37</ele>
        <time>2020-05-18T14:39:37Z</time>
      </trkpt>
      <trkpt lat="45.86072" lon="6.3648">
        <ele>900.41</ele>
        <time>2020-05-18T14:39:38Z</time>
      </trkpt>
      <trkpt lat="45.86067" lon="6.36458">
        <ele>899.45</ele>
        <time>2020-05-18T14:39:39Z</time>
      </trkpt>
      <trkpt lat="45.86064" lon="6.36437">
        <ele>898.49</ele>
        <time>2020-05-18T14:39:40Z</time>
      </trkpt>
      <trkpt lat="45.86064" lon="6.36412">
        <ele>897.53</ele>
        <time>2020-05-18T14:39:41Z</time>
      </trkpt>
      <trkpt lat="45.86065" lon="6.36385">
        <ele>896.57</ele>
        <time>2020-05-18T14:39:42Z</time>
      </trkpt>
      <trkpt lat="45.86093" lon="6.36174">
        <ele>890.8</ele>
        <time>2020-05-18T14:39:50Z</time>
      </trkpt>
      <trkpt lat="45.86107" lon="6.36116">
        <ele>890.8</ele>
        <time>2020-05-18T14:39:52Z</time>
      </trkpt>
      <trkpt lat="45.86112" lon="6.36088">
        <ele>890.8</ele>
        <time>2020-05-18T14:39:53Z</time>
      </trkpt>
      <trkpt lat="45.86136" lon="6.3599">
        <ele>892.72</ele>
        <time>2020-05-18T14:39:57Z</time>
      </trkpt>
      <trkpt lat="45.86172" lon="6.35917">
        <ele>893.68</ele>
        <time>2020-05-18T14:40:01Z</time>
      </trkpt>
      <trkpt lat="45.86179" lon="6.35905">
        <ele>893.2</ele>
        <time>2020-05-18T14:40:02Z</time>
      </trkpt>
      <trkpt lat="45.86187" lon="6.35896">
        <ele>892.24</ele>
        <time>2020-05-18T14:40:03Z</time>
      </trkpt>
      <trkpt lat="45.862" lon="6.35892">
        <ele>890.8</ele>
        <time>2020-05-18T14:40:04Z</time>
      </trkpt>
      <trkpt lat="45.86212" lon="6.35895">
        <ele>889.36</ele>
        <time>2020-05-18T14:40:05Z</time>
      </trkpt>
      <trkpt lat="45.86226" lon="6.359">
        <ele>888.4</ele>
        <time>2020-05-18T14:40:06Z</time>
      </trkpt>
      <trkpt lat="45.86238" lon="6.35898">
        <ele>887.43</ele>
        <time>2020-05-18T14:40:07Z</time>
      </trkpt>
      <trkpt lat="45.86252" lon="6.35895">
        <ele>886.95</ele>
        <time>2020-05-18T14:40:08Z</time>
      </trkpt>
      <trkpt lat="45.86265" lon="6.35892">
        <ele>885.99</ele>
        <time>2020-05-18T14:40:09Z</time>
      </trkpt>
      <trkpt lat="45.86273" lon="6.35887">
        <ele>885.51</ele>
        <time>2020-05-18T14:40:10Z</time>
      </trkpt>
      <trkpt lat="45.86281" lon="6.3588">
        <ele>885.03</ele>
        <time>2020-05-18T14:40:11Z</time>
      </trkpt>
      <trkpt lat="45.86286" lon="6.35873">
        <ele>884.55</ele>
        <time>2020-05-18T14:40:12Z</time>
      </trkpt>
      <trkpt lat="45.86288" lon="6.3586">
        <ele>884.07</ele>
        <time>2020-05-18T14:40:14Z</time>
      </trkpt>
      <trkpt lat="45.86286" lon="6.35845">
        <ele>883.59</ele>
        <time>2020-05-18T14:40:15Z</time>
      </trkpt>
      <trkpt lat="45.86271" lon="6.35811">
        <ele>883.59</ele>
        <time>2020-05-18T14:40:16Z</time>
      </trkpt>
      <trkpt lat="45.8626" lon="6.35791">
        <ele>883.59</ele>
        <time>2020-05-18T14:40:17Z</time>
      </trkpt>
      <trkpt lat="45.86223" lon="6.35722">
        <ele>883.59</ele>
        <time>2020-05-18T14:40:21Z</time>
      </trkpt>
      <trkpt lat="45.86213" lon="6.3571">
        <ele>883.11</ele>
        <time>2020-05-18T14:40:22Z</time>
      </trkpt>
      <trkpt lat="45.86201" lon="6.35704">
        <ele>883.59</ele>
        <time>2020-05-18T14:40:23Z</time>
      </trkpt>
      <trkpt lat="45.86189" lon="6.35697">
        <ele>884.55</ele>
        <time>2020-05-18T14:40:25Z</time>
      </trkpt>
      <trkpt lat="45.86167" lon="6.35685">
        <ele>885.51</ele>
        <time>2020-05-18T14:40:26Z</time>
      </trkpt>
      <trkpt lat="45.86157" lon="6.3568">
        <ele>885.99</ele>
        <time>2020-05-18T14:40:28Z</time>
      </trkpt>
      <trkpt lat="45.86099" lon="6.35607">
        <ele>885.99</ele>
        <time>2020-05-18T14:40:34Z</time>
      </trkpt>
      <trkpt lat="45.86093" lon="6.35591">
        <ele>885.51</ele>
        <time>2020-05-18T14:40:35Z</time>
      </trkpt>
      <trkpt lat="45.86086" lon="6.35572">
        <ele>885.03</ele>
        <time>2020-05-18T14:40:36Z</time>
      </trkpt>
      <trkpt lat="45.86074" lon="6.35514">
        <ele>883.11</ele>
        <time>2020-05-18T14:40:38Z</time>
      </trkpt>
      <trkpt lat="45.86044" lon="6.35398">
        <ele>876.86</ele>
        <time>2020-05-18T14:40:42Z</time>
      </trkpt>
      <trkpt lat="45.86037" lon="6.35374">
        <ele>874.94</ele>
        <time>2020-05-18T14:40:43Z</time>
      </trkpt>
      <trkpt lat="45.85995" lon="6.35239">
        <ele>863.88</ele>
        <time>2020-05-18T14:40:49Z</time>
      </trkpt>
      <trkpt lat="45.85989" lon="6.35216">
        <ele>862.44</ele>
        <time>2020-05-18T14:40:50Z</time>
      </trkpt>
      <trkpt lat="45.85985" lon="6.35191">
        <ele>860.52</ele>
        <time>2020-05-18T14:40:51Z</time>
      </trkpt>
      <trkpt lat="45.85981" lon="6.35124">
        <ele>855.71</ele>
        <time>2020-05-18T14:40:54Z</time>
      </trkpt>
      <trkpt lat="45.85985" lon="6.35105">
        <ele>854.27</ele>
        <time>2020-05-18T14:40:55Z</time>
      </trkpt>
      <trkpt lat="45.85989" lon="6.35086">
        <ele>852.35</ele>
        <time>2020-05-18T14:40:56Z</time>
      </trkpt>
      <trkpt lat="45.85998" lon="6.35044">
        <ele>849.46</ele>
        <time>2020-05-18T14:40:58Z</time>
      </trkpt>
      <trkpt lat="45.85998" lon="6.35023">
        <ele>848.02</ele>
        <time>2020-05-18T14:40:59Z</time>
      </trkpt>
      <trkpt lat="45.85996" lon="6.34872">
        <ele>838.89</ele>
        <time>2020-05-18T14:41:05Z</time>
      </trkpt>
      <trkpt lat="45.86" lon="6.34852">
        <ele>837.45</ele>
        <time>2020-05-18T14:41:06Z</time>
      </trkpt>
      <trkpt lat="45.86004" lon="6.34833">
        <ele>836</ele>
        <time>2020-05-18T14:41:07Z</time>
      </trkpt>
      <trkpt lat="45.86009" lon="6.34818">
        <ele>835.04</ele>
        <time>2020-05-18T14:41:08Z</time>
      </trkpt>
      <trkpt lat="45.86015" lon="6.34806">
        <ele>833.6</ele>
        <time>2020-05-18T14:41:09Z</time>
      </trkpt>
      <trkpt lat="45.86025" lon="6.348">
        <ele>832.64</ele>
        <time>2020-05-18T14:41:10Z</time>
      </trkpt>
      <trkpt lat="45.86036" lon="6.34796">
        <ele>831.68</ele>
        <time>2020-05-18T14:41:11Z</time>
      </trkpt>
      <trkpt lat="45.86048" lon="6.34791">
        <ele>830.72</ele>
        <time>2020-05-18T14:41:12Z</time>
      </trkpt>
      <trkpt lat="45.8606" lon="6.34787">
        <ele>829.76</ele>
        <time>2020-05-18T14:41:13Z</time>
      </trkpt>
      <trkpt lat="45.86071" lon="6.34782">
        <ele>829.27</ele>
        <time>2020-05-18T14:41:14Z</time>
      </trkpt>
      <trkpt lat="45.86081" lon="6.34771">
        <ele>828.31</ele>
        <time>2020-05-18T14:41:15Z</time>
      </trkpt>
      <trkpt lat="45.86093" lon="6.34758">
        <ele>826.87</ele>
        <time>2020-05-18T14:41:16Z</time>
      </trkpt>
      <trkpt lat="45.86111" lon="6.34731">
        <ele>824.95</ele>
        <time>2020-05-18T14:41:18Z</time>
      </trkpt>
      <trkpt lat="45.86118" lon="6.34718">
        <ele>823.99</ele>
        <time>2020-05-18T14:41:19Z</time>
      </trkpt>
      <trkpt lat="45.86118" lon="6.34701">
        <ele>823.03</ele>
        <time>2020-05-18T14:41:20Z</time>
      </trkpt>
      <trkpt lat="45.86118" lon="6.34683">
        <ele>822.06</ele>
        <time>2020-05-18T14:41:21Z</time>
      </trkpt>
      <trkpt lat="45.86112" lon="6.34664">
        <ele>820.62</ele>
        <time>2020-05-18T14:41:22Z</time>
      </trkpt>
      <trkpt lat="45.86105" lon="6.34645">
        <ele>819.18</ele>
        <time>2020-05-18T14:41:23Z</time>
      </trkpt>
      <trkpt lat="45.86098" lon="6.34626">
        <ele>817.74</ele>
        <time>2020-05-18T14:41:24Z</time>
      </trkpt>
      <trkpt lat="45.86085" lon="6.34611">
        <ele>816.78</ele>
        <time>2020-05-18T14:41:25Z</time>
      </trkpt>
      <trkpt lat="45.86073" lon="6.34597">
        <ele>815.82</ele>
        <time>2020-05-18T14:41:26Z</time>
      </trkpt>
      <trkpt lat="45.86063" lon="6.34584">
        <ele>814.85</ele>
        <time>2020-05-18T14:41:27Z</time>
      </trkpt>
      <trkpt lat="45.86054" lon="6.34571">
        <ele>813.89</ele>
        <time>2020-05-18T14:41:28Z</time>
      </trkpt>
      <trkpt lat="45.86048" lon="6.34556">
        <ele>812.93</ele>
        <time>2020-05-18T14:41:29Z</time>
      </trkpt>
      <trkpt lat="45.86042" lon="6.34539">
        <ele>811.49</ele>
        <time>2020-05-18T14:41:30Z</time>
      </trkpt>
      <trkpt lat="45.86036" lon="6.34523">
        <ele>810.53</ele>
        <time>2020-05-18T14:41:31Z</time>
      </trkpt>
      <trkpt lat="45.86032" lon="6.34507">
        <ele>809.57</ele>
        <time>2020-05-18T14:41:32Z</time>
      </trkpt>
      <trkpt lat="45.86031" lon="6.34489">
        <ele>808.61</ele>
        <time>2020-05-18T14:41:33Z</time>
      </trkpt>
      <trkpt lat="45.86031" lon="6.34472">
        <ele>807.64</ele>
        <time>2020-05-18T14:41:34Z</time>
      </trkpt>
      <trkpt lat="45.86032" lon="6.34455">
        <ele>806.68</ele>
        <time>2020-05-18T14:41:35Z</time>
      </trkpt>
      <trkpt lat="45.86036" lon="6.34437">
        <ele>805.24</ele>
        <time>2020-05-18T14:41:37Z</time>
      </trkpt>
      <trkpt lat="45.86042" lon="6.34403">
        <ele>804.28</ele>
        <time>2020-05-18T14:41:38Z</time>
      </trkpt>
      <trkpt lat="45.86039" lon="6.34383">
        <ele>803.8</ele>
        <time>2020-05-18T14:41:39Z</time>
      </trkpt>
      <trkpt lat="45.86031" lon="6.34367">
        <ele>802.84</ele>
        <time>2020-05-18T14:41:40Z</time>
      </trkpt>
      <trkpt lat="45.86014" lon="6.34342">
        <ele>801.4</ele>
        <time>2020-05-18T14:41:42Z</time>
      </trkpt>
      <trkpt lat="45.86011" lon="6.34327">
        <ele>800.92</ele>
        <time>2020-05-18T14:41:43Z</time>
      </trkpt>
      <trkpt lat="45.86009" lon="6.34309">
        <ele>800.44</ele>
        <time>2020-05-18T14:41:44Z</time>
      </trkpt>
      <trkpt lat="45.86012" lon="6.34292">
        <ele>799.47</ele>
        <time>2020-05-18T14:41:45Z</time>
      </trkpt>
      <trkpt lat="45.86017" lon="6.34274">
        <ele>798.51</ele>
        <time>2020-05-18T14:41:46Z</time>
      </trkpt>
      <trkpt lat="45.86024" lon="6.34254">
        <ele>797.55</ele>
        <time>2020-05-18T14:41:47Z</time>
      </trkpt>
      <trkpt lat="45.8603" lon="6.34233">
        <ele>796.11</ele>
        <time>2020-05-18T14:41:48Z</time>
      </trkpt>
      <trkpt lat="45.86043" lon="6.34201">
        <ele>792.74</ele>
        <time>2020-05-18T14:41:51Z</time>
      </trkpt>
      <trkpt lat="45.86046" lon="6.34168">
        <ele>791.3</ele>
        <time>2020-05-18T14:41:52Z</time>
      </trkpt>
      <trkpt lat="45.86041" lon="6.3415">
        <ele>790.34</ele>
        <time>2020-05-18T14:41:53Z</time>
      </trkpt>
      <trkpt lat="45.8603" lon="6.34132">
        <ele>788.9</ele>
        <time>2020-05-18T14:41:54Z</time>
      </trkpt>
      <trkpt lat="45.86006" lon="6.34098">
        <ele>786.5</ele>
        <time>2020-05-18T14:41:56Z</time>
      </trkpt>
      <trkpt lat="45.8599" lon="6.34074">
        <ele>784.57</ele>
        <time>2020-05-18T14:41:58Z</time>
      </trkpt>
      <trkpt lat="45.85982" lon="6.3405">
        <ele>784.09</ele>
        <time>2020-05-18T14:41:59Z</time>
      </trkpt>
      <trkpt lat="45.85977" lon="6.34031">
        <ele>783.13</ele>
        <time>2020-05-18T14:42:00Z</time>
      </trkpt>
      <trkpt lat="45.85977" lon="6.34018">
        <ele>782.17</ele>
        <time>2020-05-18T14:42:01Z</time>
      </trkpt>
      <trkpt lat="45.85978" lon="6.33999">
        <ele>781.69</ele>
        <time>2020-05-18T14:42:02Z</time>
      </trkpt>
      <trkpt lat="45.85977" lon="6.33979">
        <ele>780.73</ele>
        <time>2020-05-18T14:42:03Z</time>
      </trkpt>
      <trkpt lat="45.85975" lon="6.33959">
        <ele>779.77</ele>
        <time>2020-05-18T14:42:04Z</time>
      </trkpt>
      <trkpt lat="45.85972" lon="6.3394">
        <ele>778.81</ele>
        <time>2020-05-18T14:42:05Z</time>
      </trkpt>
      <trkpt lat="45.85972" lon="6.33923">
        <ele>778.32</ele>
        <time>2020-05-18T14:42:06Z</time>
      </trkpt>
      <trkpt lat="45.85975" lon="6.33904">
        <ele>777.36</ele>
        <time>2020-05-18T14:42:07Z</time>
      </trkpt>
      <trkpt lat="45.85979" lon="6.33884">
        <ele>776.4</ele>
        <time>2020-05-18T14:42:08Z</time>
      </trkpt>
      <trkpt lat="45.85983" lon="6.33865">
        <ele>775.44</ele>
        <time>2020-05-18T14:42:09Z</time>
      </trkpt>
      <trkpt lat="45.85982" lon="6.33847">
        <ele>774.96</ele>
        <time>2020-05-18T14:42:10Z</time>
      </trkpt>
      <trkpt lat="45.85982" lon="6.33828">
        <ele>774.48</ele>
        <time>2020-05-18T14:42:11Z</time>
      </trkpt>
      <trkpt lat="45.85976" lon="6.3381">
        <ele>773.52</ele>
        <time>2020-05-18T14:42:12Z</time>
      </trkpt>
      <trkpt lat="45.85968" lon="6.33798">
        <ele>772.08</ele>
        <time>2020-05-18T14:42:13Z</time>
      </trkpt>
      <trkpt lat="45.8596" lon="6.33787">
        <ele>770.15</ele>
        <time>2020-05-18T14:42:15Z</time>
      </trkpt>
      <trkpt lat="45.85952" lon="6.33767">
        <ele>768.71</ele>
        <time>2020-05-18T14:42:16Z</time>
      </trkpt>
      <trkpt lat="45.8595" lon="6.33754">
        <ele>767.75</ele>
        <time>2020-05-18T14:42:17Z</time>
      </trkpt>
      <trkpt lat="45.85955" lon="6.33722">
        <ele>765.35</ele>
        <time>2020-05-18T14:42:19Z</time>
      </trkpt>
      <trkpt lat="45.8596" lon="6.33702">
        <ele>763.9</ele>
        <time>2020-05-18T14:42:20Z</time>
      </trkpt>
      <trkpt lat="45.85966" lon="6.3368">
        <ele>762.94</ele>
        <time>2020-05-18T14:42:21Z</time>
      </trkpt>
      <trkpt lat="45.8598" lon="6.33635">
        <ele>759.1</ele>
        <time>2020-05-18T14:42:24Z</time>
      </trkpt>
      <trkpt lat="45.86009" lon="6.33582">
        <ele>756.69</ele>
        <time>2020-05-18T14:42:26Z</time>
      </trkpt>
      <trkpt lat="45.86013" lon="6.33562">
        <ele>755.25</ele>
        <time>2020-05-18T14:42:27Z</time>
      </trkpt>
      <trkpt lat="45.86013" lon="6.3354">
        <ele>753.81</ele>
        <time>2020-05-18T14:42:28Z</time>
      </trkpt>
      <trkpt lat="45.86014" lon="6.33487">
        <ele>750.93</ele>
        <time>2020-05-18T14:42:30Z</time>
      </trkpt>
      <trkpt lat="45.86019" lon="6.3346">
        <ele>749.49</ele>
        <time>2020-05-18T14:42:31Z</time>
      </trkpt>
      <trkpt lat="45.8603" lon="6.33404">
        <ele>747.08</ele>
        <time>2020-05-18T14:42:33Z</time>
      </trkpt>
      <trkpt lat="45.86035" lon="6.33377">
        <ele>745.64</ele>
        <time>2020-05-18T14:42:34Z</time>
      </trkpt>
      <trkpt lat="45.86039" lon="6.33352">
        <ele>744.2</ele>
        <time>2020-05-18T14:42:35Z</time>
      </trkpt>
      <trkpt lat="45.8606" lon="6.33238">
        <ele>737.95</ele>
        <time>2020-05-18T14:42:40Z</time>
      </trkpt>
      <trkpt lat="45.86068" lon="6.33219">
        <ele>736.51</ele>
        <time>2020-05-18T14:42:41Z</time>
      </trkpt>
      <trkpt lat="45.86077" lon="6.33202">
        <ele>735.55</ele>
        <time>2020-05-18T14:42:42Z</time>
      </trkpt>
      <trkpt lat="45.86088" lon="6.33185">
        <ele>734.1</ele>
        <time>2020-05-18T14:42:43Z</time>
      </trkpt>
      <trkpt lat="45.86101" lon="6.33168">
        <ele>733.14</ele>
        <time>2020-05-18T14:42:44Z</time>
      </trkpt>
      <trkpt lat="45.86115" lon="6.33151">
        <ele>731.7</ele>
        <time>2020-05-18T14:42:45Z</time>
      </trkpt>
      <trkpt lat="45.86221" lon="6.33012">
        <ele>720.65</ele>
        <time>2020-05-18T14:42:52Z</time>
      </trkpt>
      <trkpt lat="45.86271" lon="6.32934">
        <ele>714.4</ele>
        <time>2020-05-18T14:42:56Z</time>
      </trkpt>
      <trkpt lat="45.86287" lon="6.32921">
        <ele>712.47</ele>
        <time>2020-05-18T14:42:57Z</time>
      </trkpt>
      <trkpt lat="45.86302" lon="6.3291">
        <ele>710.55</ele>
        <time>2020-05-18T14:42:58Z</time>
      </trkpt>
      <trkpt lat="45.86342" lon="6.32878">
        <ele>706.23</ele>
        <time>2020-05-18T14:43:01Z</time>
      </trkpt>
      <trkpt lat="45.86353" lon="6.32862">
        <ele>705.26</ele>
        <time>2020-05-18T14:43:02Z</time>
      </trkpt>
      <trkpt lat="45.86374" lon="6.32825">
        <ele>702.38</ele>
        <time>2020-05-18T14:43:04Z</time>
      </trkpt>
      <trkpt lat="45.86385" lon="6.32807">
        <ele>700.94</ele>
        <time>2020-05-18T14:43:05Z</time>
      </trkpt>
      <trkpt lat="45.86398" lon="6.3279">
        <ele>699.02</ele>
        <time>2020-05-18T14:43:06Z</time>
      </trkpt>
      <trkpt lat="45.86416" lon="6.32779">
        <ele>697.09</ele>
        <time>2020-05-18T14:43:07Z</time>
      </trkpt>
      <trkpt lat="45.86435" lon="6.32766">
        <ele>694.69</ele>
        <time>2020-05-18T14:43:08Z</time>
      </trkpt>
      <trkpt lat="45.86507" lon="6.32714">
        <ele>687.48</ele>
        <time>2020-05-18T14:43:12Z</time>
      </trkpt>
      <trkpt lat="45.86522" lon="6.32698">
        <ele>686.04</ele>
        <time>2020-05-18T14:43:13Z</time>
      </trkpt>
      <trkpt lat="45.86536" lon="6.3268">
        <ele>684.12</ele>
        <time>2020-05-18T14:43:14Z</time>
      </trkpt>
      <trkpt lat="45.86614" lon="6.32577">
        <ele>673.06</ele>
        <time>2020-05-18T14:43:20Z</time>
      </trkpt>
      <trkpt lat="45.86629" lon="6.32566">
        <ele>671.14</ele>
        <time>2020-05-18T14:43:21Z</time>
      </trkpt>
      <trkpt lat="45.86644" lon="6.32555">
        <ele>669.7</ele>
        <time>2020-05-18T14:43:22Z</time>
      </trkpt>
      <trkpt lat="45.86657" lon="6.32546">
        <ele>668.25</ele>
        <time>2020-05-18T14:43:23Z</time>
      </trkpt>
      <trkpt lat="45.86674" lon="6.32544">
        <ele>666.81</ele>
        <time>2020-05-18T14:43:24Z</time>
      </trkpt>
      <trkpt lat="45.8669" lon="6.32542">
        <ele>665.37</ele>
        <time>2020-05-18T14:43:25Z</time>
      </trkpt>
      <trkpt lat="45.86708" lon="6.32541">
        <ele>664.41</ele>
        <time>2020-05-18T14:43:26Z</time>
      </trkpt>
      <trkpt lat="45.86727" lon="6.32541">
        <ele>662.97</ele>
        <time>2020-05-18T14:43:27Z</time>
      </trkpt>
      <trkpt lat="45.86745" lon="6.32537">
        <ele>661.04</ele>
        <time>2020-05-18T14:43:28Z</time>
      </trkpt>
      <trkpt lat="45.86797" lon="6.32516">
        <ele>657.2</ele>
        <time>2020-05-18T14:43:31Z</time>
      </trkpt>
      <trkpt lat="45.86891" lon="6.32481">
        <ele>645.66</ele>
        <time>2020-05-18T14:43:38Z</time>
      </trkpt>
      <trkpt lat="45.86959" lon="6.32437">
        <ele>637.97</ele>
        <time>2020-05-18T14:43:45Z</time>
      </trkpt>
      <trkpt lat="45.8696" lon="6.32428">
        <ele>637.49</ele>
        <time>2020-05-18T14:43:46Z</time>
      </trkpt>
      <trkpt lat="45.8696" lon="6.32424">
        <ele>637.49</ele>
        <time>2020-05-18T14:43:47Z</time>
      </trkpt>
      <trkpt lat="45.86961" lon="6.32421">
        <ele>637.01</ele>
        <time>2020-05-18T14:43:48Z</time>
      </trkpt>
      <trkpt lat="45.86961" lon="6.32419">
        <ele>637.01</ele>
        <time>2020-05-18T14:43:49Z</time>
      </trkpt>
      <trkpt lat="45.86961" lon="6.32417">
        <ele>637.01</ele>
        <time>2020-05-18T14:43:50Z</time>
      </trkpt>
      <trkpt lat="45.86966" lon="6.32403">
        <ele>636.53</ele>
        <time>2020-05-18T14:43:52Z</time>
      </trkpt>
      <trkpt lat="45.8697" lon="6.32401">
        <ele>636.53</ele>
        <time>2020-05-18T14:43:53Z</time>
      </trkpt>
      <trkpt lat="45.86983" lon="6.32395">
        <ele>636.53</ele>
        <time>2020-05-18T14:43:54Z</time>
      </trkpt>
      <trkpt lat="45.87076" lon="6.32353">
        <ele>637.01</ele>
        <time>2020-05-18T14:44:04Z</time>
      </trkpt>
      <trkpt lat="45.87119" lon="6.32336">
        <ele>637.01</ele>
        <time>2020-05-18T14:44:08Z</time>
      </trkpt>
      <trkpt lat="45.87203" lon="6.32315">
        <ele>634.61</ele>
        <time>2020-05-18T14:44:16Z</time>
      </trkpt>
      <trkpt lat="45.8735" lon="6.32305">
        <ele>629.32</ele>
        <time>2020-05-18T14:44:28Z</time>
      </trkpt>
      <trkpt lat="45.87486" lon="6.32347">
        <ele>626.44</ele>
        <time>2020-05-18T14:44:40Z</time>
      </trkpt>
      <trkpt lat="45.87555" lon="6.32368">
        <ele>627.4</ele>
        <time>2020-05-18T14:44:46Z</time>
      </trkpt>
      <trkpt lat="45.87626" lon="6.32391">
        <ele>630.28</ele>
        <time>2020-05-18T14:44:52Z</time>
      </trkpt>
      <trkpt lat="45.87638" lon="6.32394">
        <ele>630.28</ele>
        <time>2020-05-18T14:44:53Z</time>
      </trkpt>
      <trkpt lat="45.87649" lon="6.32398">
        <ele>630.28</ele>
        <time>2020-05-18T14:44:54Z</time>
      </trkpt>
      <trkpt lat="45.87742" lon="6.32426">
        <ele>631.24</ele>
        <time>2020-05-18T14:45:05Z</time>
      </trkpt>
      <trkpt lat="45.87766" lon="6.32432">
        <ele>630.76</ele>
        <time>2020-05-18T14:45:08Z</time>
      </trkpt>
      <trkpt lat="45.87774" lon="6.32434">
        <ele>630.28</ele>
        <time>2020-05-18T14:45:10Z</time>
      </trkpt>
      <trkpt lat="45.8783" lon="6.32449">
        <ele>629.32</ele>
        <time>2020-05-18T14:45:15Z</time>
      </trkpt>
      <trkpt lat="45.87839" lon="6.32452">
        <ele>628.84</ele>
        <time>2020-05-18T14:45:16Z</time>
      </trkpt>
      <trkpt lat="45.8788" lon="6.32466">
        <ele>627.4</ele>
        <time>2020-05-18T14:45:21Z</time>
      </trkpt>
      <trkpt lat="45.87888" lon="6.32468">
        <ele>627.4</ele>
        <time>2020-05-18T14:45:22Z</time>
      </trkpt>
      <trkpt lat="45.87894" lon="6.3247">
        <ele>627.4</ele>
        <time>2020-05-18T14:45:23Z</time>
      </trkpt>
      <trkpt lat="45.87901" lon="6.32473">
        <ele>627.88</ele>
        <time>2020-05-18T14:45:24Z</time>
      </trkpt>
      <trkpt lat="45.87906" lon="6.32476">
        <ele>627.88</ele>
        <time>2020-05-18T14:45:25Z</time>
      </trkpt>
      <trkpt lat="45.87911" lon="6.3248">
        <ele>628.36</ele>
        <time>2020-05-18T14:45:26Z</time>
      </trkpt>
      <trkpt lat="45.87914" lon="6.32482">
        <ele>628.84</ele>
        <time>2020-05-18T14:45:28Z</time>
      </trkpt>
      <trkpt lat="45.87957" lon="6.32546">
        <ele>629.32</ele>
        <time>2020-05-18T14:45:35Z</time>
      </trkpt>
      <trkpt lat="45.87963" lon="6.32552">
        <ele>629.32</ele>
        <time>2020-05-18T14:45:36Z</time>
      </trkpt>
      <trkpt lat="45.87969" lon="6.32557">
        <ele>628.84</ele>
        <time>2020-05-18T14:45:37Z</time>
      </trkpt>
      <trkpt lat="45.87975" lon="6.32563">
        <ele>628.84</ele>
        <time>2020-05-18T14:45:38Z</time>
      </trkpt>
      <trkpt lat="45.8798" lon="6.32568">
        <ele>628.84</ele>
        <time>2020-05-18T14:45:39Z</time>
      </trkpt>
      <trkpt lat="45.87987" lon="6.32574">
        <ele>628.36</ele>
        <time>2020-05-18T14:45:40Z</time>
      </trkpt>
      <trkpt lat="45.88016" lon="6.32587">
        <ele>627.4</ele>
        <time>2020-05-18T14:45:44Z</time>
      </trkpt>
      <trkpt lat="45.88094" lon="6.32613">
        <ele>623.07</ele>
        <time>2020-05-18T14:45:53Z</time>
      </trkpt>
      <trkpt lat="45.88119" lon="6.3262">
        <ele>623.55</ele>
        <time>2020-05-18T14:45:56Z</time>
      </trkpt>
      <trkpt lat="45.88126" lon="6.32623">
        <ele>623.55</ele>
        <time>2020-05-18T14:45:57Z</time>
      </trkpt>
      <trkpt lat="45.88213" lon="6.32652">
        <ele>625.47</ele>
        <time>2020-05-18T14:46:07Z</time>
      </trkpt>
      <trkpt lat="45.88251" lon="6.32662">
        <ele>625.47</ele>
        <time>2020-05-18T14:46:12Z</time>
      </trkpt>
      <trkpt lat="45.88269" lon="6.32659">
        <ele>625.47</ele>
        <time>2020-05-18T14:46:16Z</time>
      </trkpt>
      <trkpt lat="45.88274" lon="6.32658">
        <ele>625.47</ele>
        <time>2020-05-18T14:46:17Z</time>
      </trkpt>
      <trkpt lat="45.88278" lon="6.32657">
        <ele>625.96</ele>
        <time>2020-05-18T14:46:18Z</time>
      </trkpt>
      <trkpt lat="45.88282" lon="6.32656">
        <ele>625.96</ele>
        <time>2020-05-18T14:46:19Z</time>
      </trkpt>
      <trkpt lat="45.88283" lon="6.32656">
        <ele>625.96</ele>
        <time>2020-05-18T14:46:20Z</time>
      </trkpt>
      <trkpt lat="45.88289" lon="6.32656">
        <ele>625.47</ele>
        <time>2020-05-18T14:46:21Z</time>
      </trkpt>
      <trkpt lat="45.88293" lon="6.32652">
        <ele>625.47</ele>
        <time>2020-05-18T14:46:22Z</time>
      </trkpt>
      <trkpt lat="45.88296" lon="6.32647">
        <ele>625.47</ele>
        <time>2020-05-18T14:46:23Z</time>
      </trkpt>
      <trkpt lat="45.88294" lon="6.32641">
        <ele>625.47</ele>
        <time>2020-05-18T14:46:24Z</time>
      </trkpt>
      <trkpt lat="45.88292" lon="6.32637">
        <ele>624.51</ele>
        <time>2020-05-18T14:46:26Z</time>
      </trkpt>
      <trkpt lat="45.88292" lon="6.32637">
        <ele>624.03</ele>
        <time>2020-05-18T14:46:27Z</time>
      </trkpt>
      <trkpt lat="45.88281" lon="6.32628">
        <ele>623.55</ele>
        <time>2020-05-18T14:46:28Z</time>
      </trkpt>
      <trkpt lat="45.88279" lon="6.32619">
        <ele>623.07</ele>
        <time>2020-05-18T14:46:29Z</time>
      </trkpt>
      <trkpt lat="45.88274" lon="6.32601">
        <ele>623.07</ele>
        <time>2020-05-18T14:46:30Z</time>
      </trkpt>
      <trkpt lat="45.88271" lon="6.3259">
        <ele>622.59</ele>
        <time>2020-05-18T14:46:31Z</time>
      </trkpt>
      <trkpt lat="45.88268" lon="6.3258">
        <ele>622.59</ele>
        <time>2020-05-18T14:46:32Z</time>
      </trkpt>
      <trkpt lat="45.88265" lon="6.32571">
        <ele>623.07</ele>
        <time>2020-05-18T14:46:33Z</time>
      </trkpt>
      <trkpt lat="45.88263" lon="6.32563">
        <ele>623.07</ele>
        <time>2020-05-18T14:46:34Z</time>
      </trkpt>
      <trkpt lat="45.8826" lon="6.32555">
        <ele>623.07</ele>
        <time>2020-05-18T14:46:35Z</time>
      </trkpt>
      <trkpt lat="45.88258" lon="6.32548">
        <ele>623.55</ele>
        <time>2020-05-18T14:46:36Z</time>
      </trkpt>
      <trkpt lat="45.88255" lon="6.32541">
        <ele>623.55</ele>
        <time>2020-05-18T14:46:37Z</time>
      </trkpt>
      <trkpt lat="45.88253" lon="6.32534">
        <ele>623.55</ele>
        <time>2020-05-18T14:46:38Z</time>
      </trkpt>
      <trkpt lat="45.88242" lon="6.32503">
        <ele>624.99</ele>
        <time>2020-05-18T14:46:44Z</time>
      </trkpt>
      <trkpt lat="45.88236" lon="6.32491">
        <ele>625.47</ele>
        <time>2020-05-18T14:46:46Z</time>
      </trkpt>
      <trkpt lat="45.88226" lon="6.32479">
        <ele>625.47</ele>
        <time>2020-05-18T14:46:48Z</time>
      </trkpt>
      <trkpt lat="45.88218" lon="6.32467">
        <ele>625.96</ele>
        <time>2020-05-18T14:46:49Z</time>
      </trkpt>
      <trkpt lat="45.88215" lon="6.32463">
        <ele>625.96</ele>
        <time>2020-05-18T14:46:50Z</time>
      </trkpt>
      <trkpt lat="45.88204" lon="6.32455">
        <ele>626.44</ele>
        <time>2020-05-18T14:46:52Z</time>
      </trkpt>
      <trkpt lat="45.8819" lon="6.32444">
        <ele>626.92</ele>
        <time>2020-05-18T14:46:55Z</time>
      </trkpt>
      <trkpt lat="45.88184" lon="6.32438">
        <ele>627.4</ele>
        <time>2020-05-18T14:46:56Z</time>
      </trkpt>
      <trkpt lat="45.88181" lon="6.3243">
        <ele>627.88</ele>
        <time>2020-05-18T14:46:57Z</time>
      </trkpt>
      <trkpt lat="45.88178" lon="6.32419">
        <ele>627.88</ele>
        <time>2020-05-18T14:46:58Z</time>
      </trkpt>
      <trkpt lat="45.88179" lon="6.32407">
        <ele>628.84</ele>
        <time>2020-05-18T14:46:59Z</time>
      </trkpt>
      <trkpt lat="45.88182" lon="6.32399">
        <ele>629.32</ele>
        <time>2020-05-18T14:47:00Z</time>
      </trkpt>
      <trkpt lat="45.88185" lon="6.3239">
        <ele>629.8</ele>
        <time>2020-05-18T14:47:01Z</time>
      </trkpt>
      <trkpt lat="45.88189" lon="6.32382">
        <ele>630.28</ele>
        <time>2020-05-18T14:47:02Z</time>
      </trkpt>
      <trkpt lat="45.88194" lon="6.32372">
        <ele>630.28</ele>
        <time>2020-05-18T14:47:03Z</time>
      </trkpt>
      <trkpt lat="45.88218" lon="6.32334">
        <ele>630.76</ele>
        <time>2020-05-18T14:47:07Z</time>
      </trkpt>
      <trkpt lat="45.88258" lon="6.32272">
        <ele>630.76</ele>
        <time>2020-05-18T14:47:15Z</time>
      </trkpt>
      <trkpt lat="45.8828" lon="6.32272">
        <ele>628.84</ele>
        <time>2020-05-18T14:47:23Z</time>
      </trkpt>
      <trkpt lat="45.88285" lon="6.32267">
        <ele>628.84</ele>
        <time>2020-05-18T14:47:24Z</time>
      </trkpt>
      <trkpt lat="45.8829" lon="6.3226">
        <ele>628.36</ele>
        <time>2020-05-18T14:47:26Z</time>
      </trkpt>
      <trkpt lat="45.88289" lon="6.32233">
        <ele>627.88</ele>
        <time>2020-05-18T14:47:28Z</time>
      </trkpt>
      <trkpt lat="45.88295" lon="6.32224">
        <ele>627.4</ele>
        <time>2020-05-18T14:47:29Z</time>
      </trkpt>
      <trkpt lat="45.88301" lon="6.32214">
        <ele>627.4</ele>
        <time>2020-05-18T14:47:30Z</time>
      </trkpt>
      <trkpt lat="45.88346" lon="6.32141">
        <ele>625.47</ele>
        <time>2020-05-18T14:47:36Z</time>
      </trkpt>
      <trkpt lat="45.88354" lon="6.32129">
        <ele>625.47</ele>
        <time>2020-05-18T14:47:38Z</time>
      </trkpt>
      <trkpt lat="45.88438" lon="6.31993">
        <ele>625.96</ele>
        <time>2020-05-18T14:47:47Z</time>
      </trkpt>
      <trkpt lat="45.88526" lon="6.31821">
        <ele>623.55</ele>
        <time>2020-05-18T14:47:59Z</time>
      </trkpt>
      <trkpt lat="45.88587" lon="6.31679">
        <ele>621.15</ele>
        <time>2020-05-18T14:48:09Z</time>
      </trkpt>
      <trkpt lat="45.88658" lon="6.3153">
        <ele>616.34</ele>
        <time>2020-05-18T14:48:19Z</time>
      </trkpt>
      <trkpt lat="45.88761" lon="6.31408">
        <ele>610.09</ele>
        <time>2020-05-18T14:48:30Z</time>
      </trkpt>
      <trkpt lat="45.88872" lon="6.31282">
        <ele>605.29</ele>
        <time>2020-05-18T14:48:41Z</time>
      </trkpt>
      <trkpt lat="45.88967" lon="6.31176">
        <ele>603.36</ele>
        <time>2020-05-18T14:48:51Z</time>
      </trkpt>
      <trkpt lat="45.89028" lon="6.31106">
        <ele>601.92</ele>
        <time>2020-05-18T14:49:00Z</time>
      </trkpt>
      <trkpt lat="45.89138" lon="6.3098">
        <ele>600.96</ele>
        <time>2020-05-18T14:49:10Z</time>
      </trkpt>
      <trkpt lat="45.89229" lon="6.30853">
        <ele>601.92</ele>
        <time>2020-05-18T14:49:17Z</time>
      </trkpt>
      <trkpt lat="45.89297" lon="6.30713">
        <ele>600.48</ele>
        <time>2020-05-18T14:49:24Z</time>
      </trkpt>
      <trkpt lat="45.89365" lon="6.30563">
        <ele>598.56</ele>
        <time>2020-05-18T14:49:33Z</time>
      </trkpt>
      <trkpt lat="45.89374" lon="6.30544">
        <ele>597.6</ele>
        <time>2020-05-18T14:49:35Z</time>
      </trkpt>
      <trkpt lat="45.89384" lon="6.30542">
        <ele>597.12</ele>
        <time>2020-05-18T14:49:36Z</time>
      </trkpt>
      <trkpt lat="45.89389" lon="6.30538">
        <ele>596.64</ele>
        <time>2020-05-18T14:49:37Z</time>
      </trkpt>
      <trkpt lat="45.89396" lon="6.30529">
        <ele>596.15</ele>
        <time>2020-05-18T14:49:38Z</time>
      </trkpt>
      <trkpt lat="45.89398" lon="6.3052">
        <ele>595.67</ele>
        <time>2020-05-18T14:49:39Z</time>
      </trkpt>
      <trkpt lat="45.89399" lon="6.30517">
        <ele>595.19</ele>
        <time>2020-05-18T14:49:40Z</time>
      </trkpt>
      <trkpt lat="45.89399" lon="6.30484">
        <ele>594.23</ele>
        <time>2020-05-18T14:49:42Z</time>
      </trkpt>
      <trkpt lat="45.89404" lon="6.30472">
        <ele>593.75</ele>
        <time>2020-05-18T14:49:44Z</time>
      </trkpt>
      <trkpt lat="45.89462" lon="6.30335">
        <ele>591.83</ele>
        <time>2020-05-18T14:49:52Z</time>
      </trkpt>
      <trkpt lat="45.89551" lon="6.30136">
        <ele>593.27</ele>
        <time>2020-05-18T14:50:03Z</time>
      </trkpt>
      <trkpt lat="45.89644" lon="6.29926">
        <ele>593.75</ele>
        <time>2020-05-18T14:50:13Z</time>
      </trkpt>
      <trkpt lat="45.89783" lon="6.29609">
        <ele>584.14</ele>
        <time>2020-05-18T14:50:27Z</time>
      </trkpt>
      <trkpt lat="45.89875" lon="6.29444">
        <ele>580.77</ele>
        <time>2020-05-18T14:50:35Z</time>
      </trkpt>
      <trkpt lat="45.89929" lon="6.29307">
        <ele>579.33</ele>
        <time>2020-05-18T14:50:42Z</time>
      </trkpt>
      <trkpt lat="45.8994" lon="6.29156">
        <ele>577.89</ele>
        <time>2020-05-18T14:50:49Z</time>
      </trkpt>
      <trkpt lat="45.89938" lon="6.29134">
        <ele>577.89</ele>
        <time>2020-05-18T14:50:51Z</time>
      </trkpt>
      <trkpt lat="45.89895" lon="6.28887">
        <ele>575.01</ele>
        <time>2020-05-18T14:51:01Z</time>
      </trkpt>
      <trkpt lat="45.89875" lon="6.28661">
        <ele>569.72</ele>
        <time>2020-05-18T14:51:10Z</time>
      </trkpt>
      <trkpt lat="45.89854" lon="6.28405">
        <ele>565.87</ele>
        <time>2020-05-18T14:51:19Z</time>
      </trkpt>
      <trkpt lat="45.89835" lon="6.28244">
        <ele>564.43</ele>
        <time>2020-05-18T14:51:25Z</time>
      </trkpt>
      <trkpt lat="45.89764" lon="6.28025">
        <ele>564.91</ele>
        <time>2020-05-18T14:51:34Z</time>
      </trkpt>
      <trkpt lat="45.89705" lon="6.27827">
        <ele>563.47</ele>
        <time>2020-05-18T14:51:41Z</time>
      </trkpt>
      <trkpt lat="45.89655" lon="6.27652">
        <ele>560.59</ele>
        <time>2020-05-18T14:51:45Z</time>
      </trkpt>
      <trkpt lat="45.89587" lon="6.27407">
        <ele>556.74</ele>
        <time>2020-05-18T14:51:51Z</time>
      </trkpt>
      <trkpt lat="45.89525" lon="6.2719">
        <ele>554.34</ele>
        <time>2020-05-18T14:51:58Z</time>
      </trkpt>
      <trkpt lat="45.89455" lon="6.26975">
        <ele>551.45</ele>
        <time>2020-05-18T14:52:06Z</time>
      </trkpt>
      <trkpt lat="45.89431" lon="6.26899">
        <ele>551.45</ele>
        <time>2020-05-18T14:52:09Z</time>
      </trkpt>
      <trkpt lat="45.89385" lon="6.26644">
        <ele>550.49</ele>
        <time>2020-05-18T14:52:19Z</time>
      </trkpt>
      <trkpt lat="45.89378" lon="6.26471">
        <ele>550.01</ele>
        <time>2020-05-18T14:52:27Z</time>
      </trkpt>
      <trkpt lat="45.89384" lon="6.2632">
        <ele>551.93</ele>
        <time>2020-05-18T14:52:34Z</time>
      </trkpt>
      <trkpt lat="45.89381" lon="6.2628">
        <ele>551.45</ele>
        <time>2020-05-18T14:52:36Z</time>
      </trkpt>
      <trkpt lat="45.89379" lon="6.26259">
        <ele>550.49</ele>
        <time>2020-05-18T14:52:37Z</time>
      </trkpt>
      <trkpt lat="45.89345" lon="6.26091">
        <ele>542.8</ele>
        <time>2020-05-18T14:52:44Z</time>
      </trkpt>
      <trkpt lat="45.89253" lon="6.25858">
        <ele>538.96</ele>
        <time>2020-05-18T14:52:54Z</time>
      </trkpt>
      <trkpt lat="45.89193" lon="6.25645">
        <ele>537.99</ele>
        <time>2020-05-18T14:53:03Z</time>
      </trkpt>
      <trkpt lat="45.89169" lon="6.25417">
        <ele>537.99</ele>
        <time>2020-05-18T14:53:12Z</time>
      </trkpt>
      <trkpt lat="45.89164" lon="6.25283">
        <ele>537.03</ele>
        <time>2020-05-18T14:53:19Z</time>
      </trkpt>
      <trkpt lat="45.89171" lon="6.25176">
        <ele>538.96</ele>
        <time>2020-05-18T14:53:26Z</time>
      </trkpt>
      <trkpt lat="45.89174" lon="6.25163">
        <ele>539.92</ele>
        <time>2020-05-18T14:53:28Z</time>
      </trkpt>
      <trkpt lat="45.89188" lon="6.25153">
        <ele>540.4</ele>
        <time>2020-05-18T14:53:29Z</time>
      </trkpt>
      <trkpt lat="45.89193" lon="6.2514">
        <ele>540.88</ele>
        <time>2020-05-18T14:53:30Z</time>
      </trkpt>
      <trkpt lat="45.89193" lon="6.25128">
        <ele>540.88</ele>
        <time>2020-05-18T14:53:31Z</time>
      </trkpt>
      <trkpt lat="45.8919" lon="6.25114">
        <ele>541.36</ele>
        <time>2020-05-18T14:53:32Z</time>
      </trkpt>
      <trkpt lat="45.89185" lon="6.25103">
        <ele>541.84</ele>
        <time>2020-05-18T14:53:34Z</time>
      </trkpt>
      <trkpt lat="45.89185" lon="6.25089">
        <ele>541.84</ele>
        <time>2020-05-18T14:53:35Z</time>
      </trkpt>
      <trkpt lat="45.89186" lon="6.25056">
        <ele>541.84</ele>
        <time>2020-05-18T14:53:36Z</time>
      </trkpt>
      <trkpt lat="45.89221" lon="6.249">
        <ele>542.8</ele>
        <time>2020-05-18T14:53:43Z</time>
      </trkpt>
      <trkpt lat="45.89287" lon="6.24709">
        <ele>543.76</ele>
        <time>2020-05-18T14:53:50Z</time>
      </trkpt>
      <trkpt lat="45.89392" lon="6.24395">
        <ele>543.28</ele>
        <time>2020-05-18T14:54:01Z</time>
      </trkpt>
      <trkpt lat="45.89441" lon="6.24198">
        <ele>542.8</ele>
        <time>2020-05-18T14:54:08Z</time>
      </trkpt>
      <trkpt lat="45.89456" lon="6.2397">
        <ele>543.28</ele>
        <time>2020-05-18T14:54:16Z</time>
      </trkpt>
      <trkpt lat="45.89477" lon="6.23747">
        <ele>540.4</ele>
        <time>2020-05-18T14:54:23Z</time>
      </trkpt>
      <trkpt lat="45.89558" lon="6.23289">
        <ele>533.19</ele>
        <time>2020-05-18T14:54:36Z</time>
      </trkpt>
      <trkpt lat="45.89642" lon="6.2284">
        <ele>528.38</ele>
        <time>2020-05-18T14:54:48Z</time>
      </trkpt>
      <trkpt lat="45.89715" lon="6.22427">
        <ele>523.58</ele>
        <time>2020-05-18T14:54:59Z</time>
      </trkpt>
      <trkpt lat="45.89783" lon="6.22051">
        <ele>518.77</ele>
        <time>2020-05-18T14:55:11Z</time>
      </trkpt>
      <trkpt lat="45.89848" lon="6.21693">
        <ele>518.77</ele>
        <time>2020-05-18T14:55:24Z</time>
      </trkpt>
      <trkpt lat="45.899" lon="6.21415">
        <ele>517.81</ele>
        <time>2020-05-18T14:55:34Z</time>
      </trkpt>
      <trkpt lat="45.89909" lon="6.2139">
        <ele>518.29</ele>
        <time>2020-05-18T14:55:35Z</time>
      </trkpt>
      <trkpt lat="45.8992" lon="6.21366">
        <ele>518.29</ele>
        <time>2020-05-18T14:55:36Z</time>
      </trkpt>
      <trkpt lat="45.89933" lon="6.21344">
        <ele>518.77</ele>
        <time>2020-05-18T14:55:37Z</time>
      </trkpt>
      <trkpt lat="45.8995" lon="6.21327">
        <ele>519.25</ele>
        <time>2020-05-18T14:55:38Z</time>
      </trkpt>
      <trkpt lat="45.89967" lon="6.2131">
        <ele>519.25</ele>
        <time>2020-05-18T14:55:39Z</time>
      </trkpt>
      <trkpt lat="45.89985" lon="6.21297">
        <ele>519.73</ele>
        <time>2020-05-18T14:55:40Z</time>
      </trkpt>
      <trkpt lat="45.90044" lon="6.21247">
        <ele>520.69</ele>
        <time>2020-05-18T14:55:44Z</time>
      </trkpt>
      <trkpt lat="45.90057" lon="6.21233">
        <ele>520.69</ele>
        <time>2020-05-18T14:55:45Z</time>
      </trkpt>
      <trkpt lat="45.90095" lon="6.21186">
        <ele>521.17</ele>
        <time>2020-05-18T14:55:48Z</time>
      </trkpt>
      <trkpt lat="45.90107" lon="6.2117">
        <ele>521.17</ele>
        <time>2020-05-18T14:55:49Z</time>
      </trkpt>
      <trkpt lat="45.90207" lon="6.21105">
        <ele>522.13</ele>
        <time>2020-05-18T14:55:56Z</time>
      </trkpt>
      <trkpt lat="45.9022" lon="6.21095">
        <ele>522.13</ele>
        <time>2020-05-18T14:55:57Z</time>
      </trkpt>
      <trkpt lat="45.90231" lon="6.21081">
        <ele>521.65</ele>
        <time>2020-05-18T14:55:58Z</time>
      </trkpt>
      <trkpt lat="45.9033" lon="6.2097">
        <ele>519.73</ele>
        <time>2020-05-18T14:56:06Z</time>
      </trkpt>
      <trkpt lat="45.90344" lon="6.2095">
        <ele>518.77</ele>
        <time>2020-05-18T14:56:07Z</time>
      </trkpt>
      <trkpt lat="45.90359" lon="6.20927">
        <ele>518.29</ele>
        <time>2020-05-18T14:56:08Z</time>
      </trkpt>
      <trkpt lat="45.90373" lon="6.20898">
        <ele>517.33</ele>
        <time>2020-05-18T14:56:09Z</time>
      </trkpt>
      <trkpt lat="45.90389" lon="6.20865">
        <ele>516.37</ele>
        <time>2020-05-18T14:56:10Z</time>
      </trkpt>
      <trkpt lat="45.90409" lon="6.20832">
        <ele>515.88</ele>
        <time>2020-05-18T14:56:11Z</time>
      </trkpt>
      <trkpt lat="45.9043" lon="6.208">
        <ele>515.88</ele>
        <time>2020-05-18T14:56:12Z</time>
      </trkpt>
      <trkpt lat="45.90449" lon="6.20773">
        <ele>515.88</ele>
        <time>2020-05-18T14:56:13Z</time>
      </trkpt>
      <trkpt lat="45.90464" lon="6.2075">
        <ele>515.4</ele>
        <time>2020-05-18T14:56:14Z</time>
      </trkpt>
      <trkpt lat="45.90476" lon="6.20732">
        <ele>515.4</ele>
        <time>2020-05-18T14:56:15Z</time>
      </trkpt>
      <trkpt lat="45.90505" lon="6.20681">
        <ele>515.4</ele>
        <time>2020-05-18T14:56:18Z</time>
      </trkpt>
      <trkpt lat="45.90512" lon="6.20662">
        <ele>515.88</ele>
        <time>2020-05-18T14:56:19Z</time>
      </trkpt>
      <trkpt lat="45.90518" lon="6.20642">
        <ele>515.88</ele>
        <time>2020-05-18T14:56:20Z</time>
      </trkpt>
      <trkpt lat="45.90523" lon="6.20621">
        <ele>516.37</ele>
        <time>2020-05-18T14:56:21Z</time>
      </trkpt>
      <trkpt lat="45.90527" lon="6.20601">
        <ele>516.37</ele>
        <time>2020-05-18T14:56:22Z</time>
      </trkpt>
      <trkpt lat="45.90543" lon="6.20543">
        <ele>517.33</ele>
        <time>2020-05-18T14:56:25Z</time>
      </trkpt>
      <trkpt lat="45.90551" lon="6.20526">
        <ele>517.33</ele>
        <time>2020-05-18T14:56:26Z</time>
      </trkpt>
      <trkpt lat="45.9056" lon="6.20512">
        <ele>517.81</ele>
        <time>2020-05-18T14:56:27Z</time>
      </trkpt>
      <trkpt lat="45.90571" lon="6.205">
        <ele>517.81</ele>
        <time>2020-05-18T14:56:28Z</time>
      </trkpt>
      <trkpt lat="45.90582" lon="6.20487">
        <ele>517.81</ele>
        <time>2020-05-18T14:56:29Z</time>
      </trkpt>
      <trkpt lat="45.90665" lon="6.20394">
        <ele>519.25</ele>
        <time>2020-05-18T14:56:36Z</time>
      </trkpt>
      <trkpt lat="45.90677" lon="6.20382">
        <ele>519.73</ele>
        <time>2020-05-18T14:56:37Z</time>
      </trkpt>
      <trkpt lat="45.90716" lon="6.20348">
        <ele>520.69</ele>
        <time>2020-05-18T14:56:40Z</time>
      </trkpt>
      <trkpt lat="45.90727" lon="6.20333">
        <ele>521.17</ele>
        <time>2020-05-18T14:56:41Z</time>
      </trkpt>
      <trkpt lat="45.90737" lon="6.20319">
        <ele>521.65</ele>
        <time>2020-05-18T14:56:42Z</time>
      </trkpt>
      <trkpt lat="45.90746" lon="6.20306">
        <ele>522.61</ele>
        <time>2020-05-18T14:56:43Z</time>
      </trkpt>
      <trkpt lat="45.90755" lon="6.20293">
        <ele>523.58</ele>
        <time>2020-05-18T14:56:44Z</time>
      </trkpt>
      <trkpt lat="45.90764" lon="6.20281">
        <ele>524.54</ele>
        <time>2020-05-18T14:56:45Z</time>
      </trkpt>
      <trkpt lat="45.90771" lon="6.20266">
        <ele>525.5</ele>
        <time>2020-05-18T14:56:46Z</time>
      </trkpt>
      <trkpt lat="45.90777" lon="6.2025">
        <ele>526.46</ele>
        <time>2020-05-18T14:56:47Z</time>
      </trkpt>
      <trkpt lat="45.90781" lon="6.20232">
        <ele>527.42</ele>
        <time>2020-05-18T14:56:48Z</time>
      </trkpt>
      <trkpt lat="45.90783" lon="6.20213">
        <ele>528.38</ele>
        <time>2020-05-18T14:56:49Z</time>
      </trkpt>
      <trkpt lat="45.90783" lon="6.20195">
        <ele>529.82</ele>
        <time>2020-05-18T14:56:50Z</time>
      </trkpt>
      <trkpt lat="45.90783" lon="6.20176">
        <ele>530.79</ele>
        <time>2020-05-18T14:56:51Z</time>
      </trkpt>
      <trkpt lat="45.90782" lon="6.20158">
        <ele>531.75</ele>
        <time>2020-05-18T14:56:52Z</time>
      </trkpt>
      <trkpt lat="45.90779" lon="6.2005">
        <ele>536.55</ele>
        <time>2020-05-18T14:56:58Z</time>
      </trkpt>
      <trkpt lat="45.90782" lon="6.20012">
        <ele>537.51</ele>
        <time>2020-05-18T14:57:00Z</time>
      </trkpt>
      <trkpt lat="45.90785" lon="6.19993">
        <ele>537.51</ele>
        <time>2020-05-18T14:57:01Z</time>
      </trkpt>
      <trkpt lat="45.90792" lon="6.19975">
        <ele>537.99</ele>
        <time>2020-05-18T14:57:02Z</time>
      </trkpt>
      <trkpt lat="45.908" lon="6.19957">
        <ele>538.48</ele>
        <time>2020-05-18T14:57:03Z</time>
      </trkpt>
      <trkpt lat="45.9081" lon="6.19942">
        <ele>538.96</ele>
        <time>2020-05-18T14:57:04Z</time>
      </trkpt>
      <trkpt lat="45.90821" lon="6.19927">
        <ele>539.92</ele>
        <time>2020-05-18T14:57:05Z</time>
      </trkpt>
      <trkpt lat="45.9085" lon="6.19887">
        <ele>541.84</ele>
        <time>2020-05-18T14:57:08Z</time>
      </trkpt>
      <trkpt lat="45.90863" lon="6.19877">
        <ele>542.8</ele>
        <time>2020-05-18T14:57:09Z</time>
      </trkpt>
      <trkpt lat="45.90876" lon="6.19868">
        <ele>543.28</ele>
        <time>2020-05-18T14:57:10Z</time>
      </trkpt>
      <trkpt lat="45.9089" lon="6.1986">
        <ele>543.76</ele>
        <time>2020-05-18T14:57:11Z</time>
      </trkpt>
      <trkpt lat="45.90905" lon="6.19858">
        <ele>543.76</ele>
        <time>2020-05-18T14:57:12Z</time>
      </trkpt>
      <trkpt lat="45.90919" lon="6.19856">
        <ele>544.24</ele>
        <time>2020-05-18T14:57:13Z</time>
      </trkpt>
      <trkpt lat="45.90933" lon="6.19853">
        <ele>544.72</ele>
        <time>2020-05-18T14:57:14Z</time>
      </trkpt>
      <trkpt lat="45.90948" lon="6.19851">
        <ele>544.72</ele>
        <time>2020-05-18T14:57:15Z</time>
      </trkpt>
      <trkpt lat="45.91075" lon="6.19819">
        <ele>551.45</ele>
        <time>2020-05-18T14:57:24Z</time>
      </trkpt>
      <trkpt lat="45.91102" lon="6.19806">
        <ele>553.38</ele>
        <time>2020-05-18T14:57:26Z</time>
      </trkpt>
      <trkpt lat="45.91217" lon="6.19785">
        <ele>558.66</ele>
        <time>2020-05-18T14:57:34Z</time>
      </trkpt>
      <trkpt lat="45.91356" lon="6.19783">
        <ele>562.03</ele>
        <time>2020-05-18T14:57:43Z</time>
      </trkpt>
      <trkpt lat="45.91466" lon="6.19797">
        <ele>562.99</ele>
        <time>2020-05-18T14:57:50Z</time>
      </trkpt>
      <trkpt lat="45.91564" lon="6.19796">
        <ele>563.47</ele>
        <time>2020-05-18T14:57:56Z</time>
      </trkpt>
      <trkpt lat="45.9171" lon="6.19757">
        <ele>563.47</ele>
        <time>2020-05-18T14:58:05Z</time>
      </trkpt>
      <trkpt lat="45.91725" lon="6.19748">
        <ele>563.47</ele>
        <time>2020-05-18T14:58:06Z</time>
      </trkpt>
      <trkpt lat="45.91741" lon="6.19736">
        <ele>563.47</ele>
        <time>2020-05-18T14:58:07Z</time>
      </trkpt>
      <trkpt lat="45.91751" lon="6.19718">
        <ele>563.47</ele>
        <time>2020-05-18T14:58:08Z</time>
      </trkpt>
      <trkpt lat="45.91761" lon="6.19701">
        <ele>563.47</ele>
        <time>2020-05-18T14:58:09Z</time>
      </trkpt>
      <trkpt lat="45.91771" lon="6.19686">
        <ele>563.47</ele>
        <time>2020-05-18T14:58:10Z</time>
      </trkpt>
      <trkpt lat="45.91852" lon="6.19561">
        <ele>565.39</ele>
        <time>2020-05-18T14:58:18Z</time>
      </trkpt>
      <trkpt lat="45.91871" lon="6.19537">
        <ele>566.35</ele>
        <time>2020-05-18T14:58:20Z</time>
      </trkpt>
      <trkpt lat="45.91879" lon="6.19517">
        <ele>566.83</ele>
        <time>2020-05-18T14:58:21Z</time>
      </trkpt>
      <trkpt lat="45.91885" lon="6.19502">
        <ele>567.32</ele>
        <time>2020-05-18T14:58:22Z</time>
      </trkpt>
      <trkpt lat="45.9189" lon="6.19486">
        <ele>568.28</ele>
        <time>2020-05-18T14:58:23Z</time>
      </trkpt>
      <trkpt lat="45.91893" lon="6.19469">
        <ele>568.76</ele>
        <time>2020-05-18T14:58:24Z</time>
      </trkpt>
      <trkpt lat="45.91894" lon="6.19451">
        <ele>569.24</ele>
        <time>2020-05-18T14:58:25Z</time>
      </trkpt>
      <trkpt lat="45.91894" lon="6.19433">
        <ele>570.2</ele>
        <time>2020-05-18T14:58:26Z</time>
      </trkpt>
      <trkpt lat="45.91888" lon="6.19312">
        <ele>573.56</ele>
        <time>2020-05-18T14:58:32Z</time>
      </trkpt>
      <trkpt lat="45.91887" lon="6.1929">
        <ele>573.56</ele>
        <time>2020-05-18T14:58:33Z</time>
      </trkpt>
      <trkpt lat="45.91887" lon="6.1918">
        <ele>574.53</ele>
        <time>2020-05-18T14:58:38Z</time>
      </trkpt>
      <trkpt lat="45.91888" lon="6.19051">
        <ele>575.49</ele>
        <time>2020-05-18T14:58:43Z</time>
      </trkpt>
      <trkpt lat="45.91856" lon="6.18859">
        <ele>579.33</ele>
        <time>2020-05-18T14:58:48Z</time>
      </trkpt>
      <trkpt lat="45.9182" lon="6.18697">
        <ele>585.1</ele>
        <time>2020-05-18T14:58:54Z</time>
      </trkpt>
      <trkpt lat="45.9181" lon="6.18654">
        <ele>587.02</ele>
        <time>2020-05-18T14:58:56Z</time>
      </trkpt>
      <trkpt lat="45.91808" lon="6.18633">
        <ele>587.5</ele>
        <time>2020-05-18T14:58:57Z</time>
      </trkpt>
      <trkpt lat="45.91811" lon="6.1861">
        <ele>587.98</ele>
        <time>2020-05-18T14:58:58Z</time>
      </trkpt>
      <trkpt lat="45.91815" lon="6.18587">
        <ele>588.95</ele>
        <time>2020-05-18T14:58:59Z</time>
      </trkpt>
      <trkpt lat="45.91824" lon="6.18565">
        <ele>589.43</ele>
        <time>2020-05-18T14:59:00Z</time>
      </trkpt>
      <trkpt lat="45.91836" lon="6.18545">
        <ele>589.91</ele>
        <time>2020-05-18T14:59:01Z</time>
      </trkpt>
      <trkpt lat="45.9185" lon="6.18529">
        <ele>590.39</ele>
        <time>2020-05-18T14:59:02Z</time>
      </trkpt>
      <trkpt lat="45.91867" lon="6.18515">
        <ele>590.39</ele>
        <time>2020-05-18T14:59:03Z</time>
      </trkpt>
      <trkpt lat="45.91887" lon="6.18505">
        <ele>590.87</ele>
        <time>2020-05-18T14:59:04Z</time>
      </trkpt>
      <trkpt lat="45.91948" lon="6.18472">
        <ele>591.83</ele>
        <time>2020-05-18T14:59:07Z</time>
      </trkpt>
      <trkpt lat="45.91966" lon="6.18459">
        <ele>592.79</ele>
        <time>2020-05-18T14:59:09Z</time>
      </trkpt>
      <trkpt lat="45.91993" lon="6.18421">
        <ele>593.27</ele>
        <time>2020-05-18T14:59:10Z</time>
      </trkpt>
      <trkpt lat="45.92002" lon="6.18396">
        <ele>593.27</ele>
        <time>2020-05-18T14:59:11Z</time>
      </trkpt>
      <trkpt lat="45.9201" lon="6.18372">
        <ele>593.75</ele>
        <time>2020-05-18T14:59:12Z</time>
      </trkpt>
      <trkpt lat="45.92015" lon="6.18345">
        <ele>594.23</ele>
        <time>2020-05-18T14:59:13Z</time>
      </trkpt>
      <trkpt lat="45.92015" lon="6.18316">
        <ele>594.71</ele>
        <time>2020-05-18T14:59:14Z</time>
      </trkpt>
      <trkpt lat="45.92013" lon="6.18286">
        <ele>595.19</ele>
        <time>2020-05-18T14:59:15Z</time>
      </trkpt>
      <trkpt lat="45.92008" lon="6.18257">
        <ele>595.67</ele>
        <time>2020-05-18T14:59:16Z</time>
      </trkpt>
      <trkpt lat="45.91996" lon="6.18178">
        <ele>596.64</ele>
        <time>2020-05-18T14:59:19Z</time>
      </trkpt>
      <trkpt lat="45.92" lon="6.18152">
        <ele>596.15</ele>
        <time>2020-05-18T14:59:20Z</time>
      </trkpt>
      <trkpt lat="45.92005" lon="6.18128">
        <ele>596.15</ele>
        <time>2020-05-18T14:59:21Z</time>
      </trkpt>
      <trkpt lat="45.92014" lon="6.18107">
        <ele>595.67</ele>
        <time>2020-05-18T14:59:22Z</time>
      </trkpt>
      <trkpt lat="45.92025" lon="6.18089">
        <ele>595.19</ele>
        <time>2020-05-18T14:59:23Z</time>
      </trkpt>
      <trkpt lat="45.92043" lon="6.18078">
        <ele>594.71</ele>
        <time>2020-05-18T14:59:24Z</time>
      </trkpt>
      <trkpt lat="45.92061" lon="6.1807">
        <ele>594.23</ele>
        <time>2020-05-18T14:59:25Z</time>
      </trkpt>
      <trkpt lat="45.9208" lon="6.18068">
        <ele>594.23</ele>
        <time>2020-05-18T14:59:26Z</time>
      </trkpt>
      <trkpt lat="45.92097" lon="6.18065">
        <ele>594.23</ele>
        <time>2020-05-18T14:59:27Z</time>
      </trkpt>
      <trkpt lat="45.92115" lon="6.18059">
        <ele>594.71</ele>
        <time>2020-05-18T14:59:28Z</time>
      </trkpt>
      <trkpt lat="45.9213" lon="6.18048">
        <ele>594.71</ele>
        <time>2020-05-18T14:59:29Z</time>
      </trkpt>
      <trkpt lat="45.92144" lon="6.18034">
        <ele>594.71</ele>
        <time>2020-05-18T14:59:30Z</time>
      </trkpt>
      <trkpt lat="45.92154" lon="6.18014">
        <ele>594.71</ele>
        <time>2020-05-18T14:59:31Z</time>
      </trkpt>
      <trkpt lat="45.92164" lon="6.17993">
        <ele>594.71</ele>
        <time>2020-05-18T14:59:32Z</time>
      </trkpt>
      <trkpt lat="45.92167" lon="6.17969">
        <ele>595.19</ele>
        <time>2020-05-18T14:59:33Z</time>
      </trkpt>
      <trkpt lat="45.92169" lon="6.17946">
        <ele>595.19</ele>
        <time>2020-05-18T14:59:34Z</time>
      </trkpt>
      <trkpt lat="45.92168" lon="6.17925">
        <ele>595.19</ele>
        <time>2020-05-18T14:59:35Z</time>
      </trkpt>
      <trkpt lat="45.92165" lon="6.17909">
        <ele>595.19</ele>
        <time>2020-05-18T14:59:36Z</time>
      </trkpt>
      <trkpt lat="45.9216" lon="6.17894">
        <ele>595.19</ele>
        <time>2020-05-18T14:59:37Z</time>
      </trkpt>
      <trkpt lat="45.92156" lon="6.1788">
        <ele>594.71</ele>
        <time>2020-05-18T14:59:38Z</time>
      </trkpt>
      <trkpt lat="45.92142" lon="6.17827">
        <ele>592.79</ele>
        <time>2020-05-18T14:59:42Z</time>
      </trkpt>
      <trkpt lat="45.92139" lon="6.17812">
        <ele>592.31</ele>
        <time>2020-05-18T14:59:43Z</time>
      </trkpt>
      <trkpt lat="45.92136" lon="6.17797">
        <ele>591.83</ele>
        <time>2020-05-18T14:59:44Z</time>
      </trkpt>
      <trkpt lat="45.92137" lon="6.17781">
        <ele>591.35</ele>
        <time>2020-05-18T14:59:45Z</time>
      </trkpt>
      <trkpt lat="45.92139" lon="6.17767">
        <ele>590.87</ele>
        <time>2020-05-18T14:59:46Z</time>
      </trkpt>
      <trkpt lat="45.92142" lon="6.17752">
        <ele>590.39</ele>
        <time>2020-05-18T14:59:47Z</time>
      </trkpt>
      <trkpt lat="45.92144" lon="6.17737">
        <ele>589.91</ele>
        <time>2020-05-18T14:59:48Z</time>
      </trkpt>
      <trkpt lat="45.9215" lon="6.17724">
        <ele>589.91</ele>
        <time>2020-05-18T14:59:49Z</time>
      </trkpt>
      <trkpt lat="45.92157" lon="6.17709">
        <ele>588.95</ele>
        <time>2020-05-18T14:59:51Z</time>
      </trkpt>
      <trkpt lat="45.92215" lon="6.17598">
        <ele>585.58</ele>
        <time>2020-05-18T15:00:00Z</time>
      </trkpt>
      <trkpt lat="45.92285" lon="6.17515">
        <ele>582.22</ele>
        <time>2020-05-18T15:00:09Z</time>
      </trkpt>
      <trkpt lat="45.92296" lon="6.17504">
        <ele>581.73</ele>
        <time>2020-05-18T15:00:10Z</time>
      </trkpt>
      <trkpt lat="45.92326" lon="6.17442">
        <ele>577.41</ele>
        <time>2020-05-18T15:00:16Z</time>
      </trkpt>
      <trkpt lat="45.92329" lon="6.17436">
        <ele>576.93</ele>
        <time>2020-05-18T15:00:17Z</time>
      </trkpt>
      <trkpt lat="45.92331" lon="6.17431">
        <ele>576.93</ele>
        <time>2020-05-18T15:00:18Z</time>
      </trkpt>
      <trkpt lat="45.92336" lon="6.1742">
        <ele>576.45</ele>
        <time>2020-05-18T15:00:20Z</time>
      </trkpt>
      <trkpt lat="45.92343" lon="6.17416">
        <ele>576.45</ele>
        <time>2020-05-18T15:00:21Z</time>
      </trkpt>
      <trkpt lat="45.92368" lon="6.17415">
        <ele>575.97</ele>
        <time>2020-05-18T15:00:24Z</time>
      </trkpt>
      <trkpt lat="45.92377" lon="6.17408">
        <ele>575.01</ele>
        <time>2020-05-18T15:00:26Z</time>
      </trkpt>
      <trkpt lat="45.92387" lon="6.17408">
        <ele>574.53</ele>
        <time>2020-05-18T15:00:27Z</time>
      </trkpt>
      <trkpt lat="45.92398" lon="6.17408">
        <ele>574.53</ele>
        <time>2020-05-18T15:00:28Z</time>
      </trkpt>
      <trkpt lat="45.92408" lon="6.1741">
        <ele>574.53</ele>
        <time>2020-05-18T15:00:29Z</time>
      </trkpt>
      <trkpt lat="45.92524" lon="6.17438">
        <ele>576.45</ele>
        <time>2020-05-18T15:00:38Z</time>
      </trkpt>
      <trkpt lat="45.92651" lon="6.17427">
        <ele>577.89</ele>
        <time>2020-05-18T15:00:46Z</time>
      </trkpt>
      <trkpt lat="45.9283" lon="6.17368">
        <ele>571.16</ele>
        <time>2020-05-18T15:00:57Z</time>
      </trkpt>
      <trkpt lat="45.92969" lon="6.17295">
        <ele>568.28</ele>
        <time>2020-05-18T15:01:05Z</time>
      </trkpt>
      <trkpt lat="45.9312" lon="6.17168">
        <ele>561.55</ele>
        <time>2020-05-18T15:01:15Z</time>
      </trkpt>
      <trkpt lat="45.93137" lon="6.1716">
        <ele>561.07</ele>
        <time>2020-05-18T15:01:16Z</time>
      </trkpt>
      <trkpt lat="45.93154" lon="6.17154">
        <ele>561.07</ele>
        <time>2020-05-18T15:01:17Z</time>
      </trkpt>
      <trkpt lat="45.93172" lon="6.17148">
        <ele>560.59</ele>
        <time>2020-05-18T15:01:18Z</time>
      </trkpt>
      <trkpt lat="45.9332" lon="6.17154">
        <ele>558.18</ele>
        <time>2020-05-18T15:01:26Z</time>
      </trkpt>
      <trkpt lat="45.93357" lon="6.17154">
        <ele>557.7</ele>
        <time>2020-05-18T15:01:28Z</time>
      </trkpt>
      <trkpt lat="45.93376" lon="6.1715">
        <ele>557.7</ele>
        <time>2020-05-18T15:01:29Z</time>
      </trkpt>
      <trkpt lat="45.93394" lon="6.17144">
        <ele>557.7</ele>
        <time>2020-05-18T15:01:30Z</time>
      </trkpt>
      <trkpt lat="45.9343" lon="6.17125">
        <ele>557.7</ele>
        <time>2020-05-18T15:01:31Z</time>
      </trkpt>
      <trkpt lat="45.93448" lon="6.17113">
        <ele>557.22</ele>
        <time>2020-05-18T15:01:32Z</time>
      </trkpt>
      <trkpt lat="45.93466" lon="6.171">
        <ele>557.22</ele>
        <time>2020-05-18T15:01:33Z</time>
      </trkpt>
      <trkpt lat="45.93483" lon="6.1708">
        <ele>557.22</ele>
        <time>2020-05-18T15:01:34Z</time>
      </trkpt>
      <trkpt lat="45.93501" lon="6.17059">
        <ele>556.26</ele>
        <time>2020-05-18T15:01:35Z</time>
      </trkpt>
      <trkpt lat="45.93518" lon="6.17035">
        <ele>555.78</ele>
        <time>2020-05-18T15:01:36Z</time>
      </trkpt>
      <trkpt lat="45.93533" lon="6.17007">
        <ele>553.38</ele>
        <time>2020-05-18T15:01:38Z</time>
      </trkpt>
      <trkpt lat="45.93558" lon="6.16937">
        <ele>551.93</ele>
        <time>2020-05-18T15:01:39Z</time>
      </trkpt>
      <trkpt lat="45.93565" lon="6.16893">
        <ele>550.49</ele>
        <time>2020-05-18T15:01:40Z</time>
      </trkpt>
      <trkpt lat="45.93569" lon="6.16847">
        <ele>547.13</ele>
        <time>2020-05-18T15:01:42Z</time>
      </trkpt>
      <trkpt lat="45.93577" lon="6.16701">
        <ele>540.88</ele>
        <time>2020-05-18T15:01:45Z</time>
      </trkpt>
      <trkpt lat="45.93579" lon="6.16654">
        <ele>538.48</ele>
        <time>2020-05-18T15:01:46Z</time>
      </trkpt>
      <trkpt lat="45.93586" lon="6.1661">
        <ele>536.55</ele>
        <time>2020-05-18T15:01:47Z</time>
      </trkpt>
      <trkpt lat="45.93594" lon="6.16568">
        <ele>534.15</ele>
        <time>2020-05-18T15:01:48Z</time>
      </trkpt>
      <trkpt lat="45.93608" lon="6.16529">
        <ele>531.27</ele>
        <time>2020-05-18T15:01:49Z</time>
      </trkpt>
      <trkpt lat="45.93625" lon="6.16492">
        <ele>528.86</ele>
        <time>2020-05-18T15:01:50Z</time>
      </trkpt>
      <trkpt lat="45.93747" lon="6.16247">
        <ele>511.08</ele>
        <time>2020-05-18T15:01:57Z</time>
      </trkpt>
      <trkpt lat="45.93792" lon="6.16057">
        <ele>498.58</ele>
        <time>2020-05-18T15:02:02Z</time>
      </trkpt>
      <trkpt lat="45.93797" lon="6.15857">
        <ele>486.56</ele>
        <time>2020-05-18T15:02:07Z</time>
      </trkpt>
      <trkpt lat="45.93752" lon="6.15578">
        <ele>469.26</ele>
        <time>2020-05-18T15:02:15Z</time>
      </trkpt>
      <trkpt lat="45.93739" lon="6.15314">
        <ele>459.17</ele>
        <time>2020-05-18T15:02:23Z</time>
      </trkpt>
      <trkpt lat="45.93757" lon="6.15073">
        <ele>455.8</ele>
        <time>2020-05-18T15:02:31Z</time>
      </trkpt>
      <trkpt lat="45.93799" lon="6.14732">
        <ele>455.32</ele>
        <time>2020-05-18T15:02:43Z</time>
      </trkpt>
      <trkpt lat="45.93781" lon="6.14533">
        <ele>457.72</ele>
        <time>2020-05-18T15:02:50Z</time>
      </trkpt>
      <trkpt lat="45.93762" lon="6.14375">
        <ele>463.01</ele>
        <time>2020-05-18T15:02:56Z</time>
      </trkpt>
      <trkpt lat="45.93772" lon="6.14188">
        <ele>466.38</ele>
        <time>2020-05-18T15:03:04Z</time>
      </trkpt>
      <trkpt lat="45.93768" lon="6.14136">
        <ele>465.42</ele>
        <time>2020-05-18T15:03:07Z</time>
      </trkpt>
      <trkpt lat="45.93752" lon="6.1406">
        <ele>463.97</ele>
        <time>2020-05-18T15:03:12Z</time>
      </trkpt>
      <trkpt lat="45.9375" lon="6.1405">
        <ele>463.49</ele>
        <time>2020-05-18T15:03:13Z</time>
      </trkpt>
      <trkpt lat="45.93749" lon="6.14036">
        <ele>463.49</ele>
        <time>2020-05-18T15:03:14Z</time>
      </trkpt>
      <trkpt lat="45.93753" lon="6.14024">
        <ele>463.49</ele>
        <time>2020-05-18T15:03:15Z</time>
      </trkpt>
      <trkpt lat="45.93755" lon="6.14013">
        <ele>463.49</ele>
        <time>2020-05-18T15:03:16Z</time>
      </trkpt>
      <trkpt lat="45.93755" lon="6.14">
        <ele>463.49</ele>
        <time>2020-05-18T15:03:17Z</time>
      </trkpt>
      <trkpt lat="45.93751" lon="6.13989">
        <ele>463.49</ele>
        <time>2020-05-18T15:03:18Z</time>
      </trkpt>
      <trkpt lat="45.93747" lon="6.13976">
        <ele>463.49</ele>
        <time>2020-05-18T15:03:20Z</time>
      </trkpt>
      <trkpt lat="45.93745" lon="6.13963">
        <ele>463.97</ele>
        <time>2020-05-18T15:03:21Z</time>
      </trkpt>
      <trkpt lat="45.93748" lon="6.13939">
        <ele>463.97</ele>
        <time>2020-05-18T15:03:22Z</time>
      </trkpt>
      <trkpt lat="45.93751" lon="6.13925">
        <ele>463.01</ele>
        <time>2020-05-18T15:03:23Z</time>
      </trkpt>
      <trkpt lat="45.93754" lon="6.13909">
        <ele>462.53</ele>
        <time>2020-05-18T15:03:24Z</time>
      </trkpt>
      <trkpt lat="45.93757" lon="6.13891">
        <ele>462.05</ele>
        <time>2020-05-18T15:03:25Z</time>
      </trkpt>
      <trkpt lat="45.93759" lon="6.13876">
        <ele>461.57</ele>
        <time>2020-05-18T15:03:26Z</time>
      </trkpt>
      <trkpt lat="45.93765" lon="6.13793">
        <ele>461.09</ele>
        <time>2020-05-18T15:03:30Z</time>
      </trkpt>
      <trkpt lat="45.93761" lon="6.13774">
        <ele>461.57</ele>
        <time>2020-05-18T15:03:31Z</time>
      </trkpt>
      <trkpt lat="45.93755" lon="6.13758">
        <ele>462.05</ele>
        <time>2020-05-18T15:03:32Z</time>
      </trkpt>
      <trkpt lat="45.93745" lon="6.1374">
        <ele>462.53</ele>
        <time>2020-05-18T15:03:33Z</time>
      </trkpt>
      <trkpt lat="45.93736" lon="6.13722">
        <ele>462.53</ele>
        <time>2020-05-18T15:03:34Z</time>
      </trkpt>
      <trkpt lat="45.93726" lon="6.13705">
        <ele>462.53</ele>
        <time>2020-05-18T15:03:35Z</time>
      </trkpt>
      <trkpt lat="45.93707" lon="6.13669">
        <ele>462.53</ele>
        <time>2020-05-18T15:03:37Z</time>
      </trkpt>
      <trkpt lat="45.93696" lon="6.1365">
        <ele>462.53</ele>
        <time>2020-05-18T15:03:38Z</time>
      </trkpt>
      <trkpt lat="45.93604" lon="6.13447">
        <ele>460.61</ele>
        <time>2020-05-18T15:03:47Z</time>
      </trkpt>
      <trkpt lat="45.93554" lon="6.13288">
        <ele>458.69</ele>
        <time>2020-05-18T15:03:55Z</time>
      </trkpt>
      <trkpt lat="45.93548" lon="6.13263">
        <ele>458.21</ele>
        <time>2020-05-18T15:03:56Z</time>
      </trkpt>
      <trkpt lat="45.93538" lon="6.13215">
        <ele>458.21</ele>
        <time>2020-05-18T15:03:57Z</time>
      </trkpt>
      <trkpt lat="45.93541" lon="6.13191">
        <ele>458.21</ele>
        <time>2020-05-18T15:03:58Z</time>
      </trkpt>
      <trkpt lat="45.93543" lon="6.13168">
        <ele>458.69</ele>
        <time>2020-05-18T15:03:59Z</time>
      </trkpt>
      <trkpt lat="45.93549" lon="6.13146">
        <ele>459.17</ele>
        <time>2020-05-18T15:04:00Z</time>
      </trkpt>
      <trkpt lat="45.93556" lon="6.13123">
        <ele>460.13</ele>
        <time>2020-05-18T15:04:01Z</time>
      </trkpt>
      <trkpt lat="45.93566" lon="6.13102">
        <ele>460.61</ele>
        <time>2020-05-18T15:04:02Z</time>
      </trkpt>
      <trkpt lat="45.93577" lon="6.1308">
        <ele>461.57</ele>
        <time>2020-05-18T15:04:03Z</time>
      </trkpt>
      <trkpt lat="45.9359" lon="6.13057">
        <ele>462.53</ele>
        <time>2020-05-18T15:04:04Z</time>
      </trkpt>
      <trkpt lat="45.93649" lon="6.12941">
        <ele>469.74</ele>
        <time>2020-05-18T15:04:10Z</time>
      </trkpt>
      <trkpt lat="45.93661" lon="6.12917">
        <ele>470.7</ele>
        <time>2020-05-18T15:04:11Z</time>
      </trkpt>
      <trkpt lat="45.93666" lon="6.12896">
        <ele>471.66</ele>
        <time>2020-05-18T15:04:12Z</time>
      </trkpt>
      <trkpt lat="45.93671" lon="6.12875">
        <ele>473.11</ele>
        <time>2020-05-18T15:04:13Z</time>
      </trkpt>
      <trkpt lat="45.9368" lon="6.1284">
        <ele>474.07</ele>
        <time>2020-05-18T15:04:14Z</time>
      </trkpt>
      <trkpt lat="45.93686" lon="6.12827">
        <ele>474.55</ele>
        <time>2020-05-18T15:04:15Z</time>
      </trkpt>
      <trkpt lat="45.93696" lon="6.12818">
        <ele>475.03</ele>
        <time>2020-05-18T15:04:16Z</time>
      </trkpt>
      <trkpt lat="45.9371" lon="6.12814">
        <ele>475.03</ele>
        <time>2020-05-18T15:04:17Z</time>
      </trkpt>
      <trkpt lat="45.93723" lon="6.12818">
        <ele>475.51</ele>
        <time>2020-05-18T15:04:18Z</time>
      </trkpt>
      <trkpt lat="45.93736" lon="6.12822">
        <ele>475.51</ele>
        <time>2020-05-18T15:04:19Z</time>
      </trkpt>
      <trkpt lat="45.93747" lon="6.12825">
        <ele>475.99</ele>
        <time>2020-05-18T15:04:20Z</time>
      </trkpt>
      <trkpt lat="45.93758" lon="6.1282">
        <ele>476.47</ele>
        <time>2020-05-18T15:04:21Z</time>
      </trkpt>
      <trkpt lat="45.93767" lon="6.12815">
        <ele>476.95</ele>
        <time>2020-05-18T15:04:22Z</time>
      </trkpt>
      <trkpt lat="45.93777" lon="6.12805">
        <ele>476.95</ele>
        <time>2020-05-18T15:04:23Z</time>
      </trkpt>
      <trkpt lat="45.93786" lon="6.12792">
        <ele>477.43</ele>
        <time>2020-05-18T15:04:24Z</time>
      </trkpt>
      <trkpt lat="45.93802" lon="6.1277">
        <ele>477.43</ele>
        <time>2020-05-18T15:04:27Z</time>
      </trkpt>
      <trkpt lat="45.93808" lon="6.12758">
        <ele>477.43</ele>
        <time>2020-05-18T15:04:28Z</time>
      </trkpt>
      <trkpt lat="45.93815" lon="6.12732">
        <ele>477.91</ele>
        <time>2020-05-18T15:04:30Z</time>
      </trkpt>
      <trkpt lat="45.93815" lon="6.12685">
        <ele>477.91</ele>
        <time>2020-05-18T15:04:33Z</time>
      </trkpt>
      <trkpt lat="45.93824" lon="6.12668">
        <ele>478.39</ele>
        <time>2020-05-18T15:04:34Z</time>
      </trkpt>
      <trkpt lat="45.93824" lon="6.12668">
        <ele>478.39</ele>
        <time>2020-05-18T15:04:35Z</time>
      </trkpt>
      <trkpt lat="45.93837" lon="6.12664">
        <ele>479.35</ele>
        <time>2020-05-18T15:04:37Z</time>
      </trkpt>
      <trkpt lat="45.93846" lon="6.12671">
        <ele>479.84</ele>
        <time>2020-05-18T15:04:38Z</time>
      </trkpt>
      <trkpt lat="45.93939" lon="6.12731">
        <ele>482.72</ele>
        <time>2020-05-18T15:04:44Z</time>
      </trkpt>
      <trkpt lat="45.93953" lon="6.12736">
        <ele>482.72</ele>
        <time>2020-05-18T15:04:45Z</time>
      </trkpt>
      <trkpt lat="45.93968" lon="6.12741">
        <ele>482.72</ele>
        <time>2020-05-18T15:04:46Z</time>
      </trkpt>
      <trkpt lat="45.94072" lon="6.12758">
        <ele>483.68</ele>
        <time>2020-05-18T15:04:55Z</time>
      </trkpt>
      <trkpt lat="45.94089" lon="6.12776">
        <ele>483.2</ele>
        <time>2020-05-18T15:04:57Z</time>
      </trkpt>
      <trkpt lat="45.94088" lon="6.12786">
        <ele>483.2</ele>
        <time>2020-05-18T15:04:58Z</time>
      </trkpt>
      <trkpt lat="45.94076" lon="6.12834">
        <ele>483.68</ele>
        <time>2020-05-18T15:05:00Z</time>
      </trkpt>
      <trkpt lat="45.94075" lon="6.12855">
        <ele>483.68</ele>
        <time>2020-05-18T15:05:01Z</time>
      </trkpt>
      <trkpt lat="45.9408" lon="6.12871">
        <ele>483.2</ele>
        <time>2020-05-18T15:05:02Z</time>
      </trkpt>
      <trkpt lat="45.94085" lon="6.1289">
        <ele>483.2</ele>
        <time>2020-05-18T15:05:03Z</time>
      </trkpt>
      <trkpt lat="45.9409" lon="6.12908">
        <ele>483.2</ele>
        <time>2020-05-18T15:05:04Z</time>
      </trkpt>
      <trkpt lat="45.94094" lon="6.1293">
        <ele>483.68</ele>
        <time>2020-05-18T15:05:05Z</time>
      </trkpt>
      <trkpt lat="45.94139" lon="6.13139">
        <ele>484.16</ele>
        <time>2020-05-18T15:05:16Z</time>
      </trkpt>
      <trkpt lat="45.94171" lon="6.13321">
        <ele>485.12</ele>
        <time>2020-05-18T15:05:24Z</time>
      </trkpt>
      <trkpt lat="45.94172" lon="6.13343">
        <ele>485.6</ele>
        <time>2020-05-18T15:05:25Z</time>
      </trkpt>
      <trkpt lat="45.94185" lon="6.13391">
        <ele>488.01</ele>
        <time>2020-05-18T15:05:29Z</time>
      </trkpt>
      <trkpt lat="45.94193" lon="6.13413">
        <ele>488.49</ele>
        <time>2020-05-18T15:05:30Z</time>
      </trkpt>
      <trkpt lat="45.94192" lon="6.13418">
        <ele>488.97</ele>
        <time>2020-05-18T15:05:31Z</time>
      </trkpt>
      <trkpt lat="45.9419" lon="6.13425">
        <ele>488.97</ele>
        <time>2020-05-18T15:05:32Z</time>
      </trkpt>
      <trkpt lat="45.94183" lon="6.13437">
        <ele>490.41</ele>
        <time>2020-05-18T15:05:34Z</time>
      </trkpt>
      <trkpt lat="45.94104" lon="6.13508">
        <ele>493.29</ele>
        <time>2020-05-18T15:05:43Z</time>
      </trkpt>
      <trkpt lat="45.94057" lon="6.13554">
        <ele>495.22</ele>
        <time>2020-05-18T15:05:50Z</time>
      </trkpt>
      <trkpt lat="45.94052" lon="6.13561">
        <ele>495.7</ele>
        <time>2020-05-18T15:05:52Z</time>
      </trkpt>
      <trkpt lat="45.94051" lon="6.13584">
        <ele>496.18</ele>
        <time>2020-05-18T15:05:54Z</time>
      </trkpt>
      <trkpt lat="45.94033" lon="6.13628">
        <ele>496.66</ele>
        <time>2020-05-18T15:05:57Z</time>
      </trkpt>
      <trkpt lat="45.9403" lon="6.13641">
        <ele>496.66</ele>
        <time>2020-05-18T15:05:58Z</time>
      </trkpt>
      <trkpt lat="45.94028" lon="6.13654">
        <ele>496.66</ele>
        <time>2020-05-18T15:05:59Z</time>
      </trkpt>
      <trkpt lat="45.94026" lon="6.13667">
        <ele>496.66</ele>
        <time>2020-05-18T15:06:00Z</time>
      </trkpt>
      <trkpt lat="45.94028" lon="6.13679">
        <ele>496.18</ele>
        <time>2020-05-18T15:06:01Z</time>
      </trkpt>
      <trkpt lat="45.9403" lon="6.13692">
        <ele>496.18</ele>
        <time>2020-05-18T15:06:02Z</time>
      </trkpt>
      <trkpt lat="45.94032" lon="6.13705">
        <ele>496.18</ele>
        <time>2020-05-18T15:06:03Z</time>
      </trkpt>
      <trkpt lat="45.94035" lon="6.13718">
        <ele>496.66</ele>
        <time>2020-05-18T15:06:04Z</time>
      </trkpt>
      <trkpt lat="45.94049" lon="6.13803">
        <ele>496.18</ele>
        <time>2020-05-18T15:06:11Z</time>
      </trkpt>
      <trkpt lat="45.94051" lon="6.13829">
        <ele>496.18</ele>
        <time>2020-05-18T15:06:12Z</time>
      </trkpt>
      <trkpt lat="45.94051" lon="6.13841">
        <ele>496.66</ele>
        <time>2020-05-18T15:06:13Z</time>
      </trkpt>
      <trkpt lat="45.94049" lon="6.13863">
        <ele>497.14</ele>
        <time>2020-05-18T15:06:15Z</time>
      </trkpt>
      <trkpt lat="45.94001" lon="6.14011">
        <ele>496.18</ele>
        <time>2020-05-18T15:06:25Z</time>
      </trkpt>
      <trkpt lat="45.93999" lon="6.14025">
        <ele>495.7</ele>
        <time>2020-05-18T15:06:26Z</time>
      </trkpt>
      <trkpt lat="45.93997" lon="6.14039">
        <ele>495.22</ele>
        <time>2020-05-18T15:06:28Z</time>
      </trkpt>
      <trkpt lat="45.93977" lon="6.14226">
        <ele>494.26</ele>
        <time>2020-05-18T15:06:41Z</time>
      </trkpt>
      <trkpt lat="45.93965" lon="6.14343">
        <ele>497.14</ele>
        <time>2020-05-18T15:06:51Z</time>
      </trkpt>
      <trkpt lat="45.93956" lon="6.14393">
        <ele>499.54</ele>
        <time>2020-05-18T15:06:58Z</time>
      </trkpt>
      <trkpt lat="45.93954" lon="6.14399">
        <ele>500.98</ele>
        <time>2020-05-18T15:07:08Z</time>
      </trkpt>
      <trkpt lat="45.93937" lon="6.14415">
        <ele>501.95</ele>
        <time>2020-05-18T15:07:14Z</time>
      </trkpt>
      <trkpt lat="45.93931" lon="6.14428">
        <ele>501.46</ele>
        <time>2020-05-18T15:07:16Z</time>
      </trkpt>
      <trkpt lat="45.93931" lon="6.14438">
        <ele>501.46</ele>
        <time>2020-05-18T15:07:17Z</time>
      </trkpt>
      <trkpt lat="45.93949" lon="6.14455">
        <ele>501.46</ele>
        <time>2020-05-18T15:07:19Z</time>
      </trkpt>
      <trkpt lat="45.93975" lon="6.14527">
        <ele>500.98</ele>
        <time>2020-05-18T15:07:22Z</time>
      </trkpt>
      <trkpt lat="45.94058" lon="6.14678">
        <ele>500.5</ele>
        <time>2020-05-18T15:07:32Z</time>
      </trkpt>
      <trkpt lat="45.94168" lon="6.14901">
        <ele>500.02</ele>
        <time>2020-05-18T15:07:48Z</time>
      </trkpt>
      <trkpt lat="45.94238" lon="6.15075">
        <ele>500.5</ele>
        <time>2020-05-18T15:07:58Z</time>
      </trkpt>
      <trkpt lat="45.94242" lon="6.15086">
        <ele>500.98</ele>
        <time>2020-05-18T15:08:00Z</time>
      </trkpt>
      <trkpt lat="45.9424" lon="6.15106">
        <ele>501.46</ele>
        <time>2020-05-18T15:08:01Z</time>
      </trkpt>
      <trkpt lat="45.9424" lon="6.15115">
        <ele>501.46</ele>
        <time>2020-05-18T15:08:02Z</time>
      </trkpt>
      <trkpt lat="45.94253" lon="6.15138">
        <ele>501.46</ele>
        <time>2020-05-18T15:08:03Z</time>
      </trkpt>
      <trkpt lat="45.94266" lon="6.15144">
        <ele>501.95</ele>
        <time>2020-05-18T15:08:05Z</time>
      </trkpt>
      <trkpt lat="45.94273" lon="6.15161">
        <ele>501.95</ele>
        <time>2020-05-18T15:08:06Z</time>
      </trkpt>
      <trkpt lat="45.94326" lon="6.15267">
        <ele>502.43</ele>
        <time>2020-05-18T15:08:12Z</time>
      </trkpt>
      <trkpt lat="45.94439" lon="6.1543">
        <ele>503.87</ele>
        <time>2020-05-18T15:08:26Z</time>
      </trkpt>
      <trkpt lat="45.94464" lon="6.15466">
        <ele>504.35</ele>
        <time>2020-05-18T15:08:29Z</time>
      </trkpt>
      <trkpt lat="45.94472" lon="6.15477">
        <ele>504.83</ele>
        <time>2020-05-18T15:08:30Z</time>
      </trkpt>
      <trkpt lat="45.94481" lon="6.15489">
        <ele>505.31</ele>
        <time>2020-05-18T15:08:31Z</time>
      </trkpt>
      <trkpt lat="45.94577" lon="6.15626">
        <ele>506.75</ele>
        <time>2020-05-18T15:08:42Z</time>
      </trkpt>
      <trkpt lat="45.94634" lon="6.15704">
        <ele>507.23</ele>
        <time>2020-05-18T15:08:45Z</time>
      </trkpt>
      <trkpt lat="45.94759" lon="6.15883">
        <ele>508.67</ele>
        <time>2020-05-18T15:08:50Z</time>
      </trkpt>
      <trkpt lat="45.94836" lon="6.16022">
        <ele>513</ele>
        <time>2020-05-18T15:08:55Z</time>
      </trkpt>
      <trkpt lat="45.94857" lon="6.16055">
        <ele>515.4</ele>
        <time>2020-05-18T15:08:58Z</time>
      </trkpt>
      <trkpt lat="45.94879" lon="6.16083">
        <ele>515.4</ele>
        <time>2020-05-18T15:08:59Z</time>
      </trkpt>
      <trkpt lat="45.94891" lon="6.16093">
        <ele>515.88</ele>
        <time>2020-05-18T15:09:00Z</time>
      </trkpt>
      <trkpt lat="45.94905" lon="6.16103">
        <ele>516.37</ele>
        <time>2020-05-18T15:09:01Z</time>
      </trkpt>
      <trkpt lat="45.94919" lon="6.16109">
        <ele>516.37</ele>
        <time>2020-05-18T15:09:02Z</time>
      </trkpt>
      <trkpt lat="45.94934" lon="6.16112">
        <ele>516.37</ele>
        <time>2020-05-18T15:09:03Z</time>
      </trkpt>
      <trkpt lat="45.94949" lon="6.16114">
        <ele>516.37</ele>
        <time>2020-05-18T15:09:04Z</time>
      </trkpt>
      <trkpt lat="45.94965" lon="6.16112">
        <ele>516.37</ele>
        <time>2020-05-18T15:09:05Z</time>
      </trkpt>
      <trkpt lat="45.9498" lon="6.1611">
        <ele>516.37</ele>
        <time>2020-05-18T15:09:06Z</time>
      </trkpt>
      <trkpt lat="45.95011" lon="6.16109">
        <ele>516.85</ele>
        <time>2020-05-18T15:09:08Z</time>
      </trkpt>
      <trkpt lat="45.95026" lon="6.16114">
        <ele>516.85</ele>
        <time>2020-05-18T15:09:09Z</time>
      </trkpt>
      <trkpt lat="45.95041" lon="6.16123">
        <ele>516.37</ele>
        <time>2020-05-18T15:09:10Z</time>
      </trkpt>
      <trkpt lat="45.95055" lon="6.16136">
        <ele>516.37</ele>
        <time>2020-05-18T15:09:11Z</time>
      </trkpt>
      <trkpt lat="45.95069" lon="6.16149">
        <ele>516.37</ele>
        <time>2020-05-18T15:09:12Z</time>
      </trkpt>
      <trkpt lat="45.95143" lon="6.16201">
        <ele>515.4</ele>
        <time>2020-05-18T15:09:17Z</time>
      </trkpt>
      <trkpt lat="45.95158" lon="6.16206">
        <ele>514.92</ele>
        <time>2020-05-18T15:09:18Z</time>
      </trkpt>
      <trkpt lat="45.95175" lon="6.16209">
        <ele>513.96</ele>
        <time>2020-05-18T15:09:20Z</time>
      </trkpt>
      <trkpt lat="45.95236" lon="6.16223">
        <ele>513.48</ele>
        <time>2020-05-18T15:09:23Z</time>
      </trkpt>
      <trkpt lat="45.95251" lon="6.16228">
        <ele>513.48</ele>
        <time>2020-05-18T15:09:24Z</time>
      </trkpt>
      <trkpt lat="45.95265" lon="6.16239">
        <ele>513.48</ele>
        <time>2020-05-18T15:09:25Z</time>
      </trkpt>
      <trkpt lat="45.95336" lon="6.16291">
        <ele>511.56</ele>
        <time>2020-05-18T15:09:30Z</time>
      </trkpt>
      <trkpt lat="45.95367" lon="6.16304">
        <ele>511.08</ele>
        <time>2020-05-18T15:09:32Z</time>
      </trkpt>
      <trkpt lat="45.95506" lon="6.16345">
        <ele>512.04</ele>
        <time>2020-05-18T15:09:41Z</time>
      </trkpt>
      <trkpt lat="45.95647" lon="6.16389">
        <ele>513</ele>
        <time>2020-05-18T15:09:51Z</time>
      </trkpt>
      <trkpt lat="45.95805" lon="6.16444">
        <ele>509.64</ele>
        <time>2020-05-18T15:10:03Z</time>
      </trkpt>
      <trkpt lat="45.95837" lon="6.16457">
        <ele>508.67</ele>
        <time>2020-05-18T15:10:07Z</time>
      </trkpt>
      <trkpt lat="45.95878" lon="6.16477">
        <ele>505.79</ele>
        <time>2020-05-18T15:10:15Z</time>
      </trkpt>
      <trkpt lat="45.9589" lon="6.16487">
        <ele>504.35</ele>
        <time>2020-05-18T15:10:19Z</time>
      </trkpt>
      <trkpt lat="45.95894" lon="6.1649">
        <ele>504.35</ele>
        <time>2020-05-18T15:10:20Z</time>
      </trkpt>
      <trkpt lat="45.95898" lon="6.16494">
        <ele>504.35</ele>
        <time>2020-05-18T15:10:21Z</time>
      </trkpt>
      <trkpt lat="45.95915" lon="6.16508">
        <ele>504.35</ele>
        <time>2020-05-18T15:10:25Z</time>
      </trkpt>
      <trkpt lat="45.95948" lon="6.16569">
        <ele>504.83</ele>
        <time>2020-05-18T15:10:37Z</time>
      </trkpt>
      <trkpt lat="45.95949" lon="6.16577">
        <ele>505.31</ele>
        <time>2020-05-18T15:10:39Z</time>
      </trkpt>
      <trkpt lat="45.95954" lon="6.16587">
        <ele>504.83</ele>
        <time>2020-05-18T15:10:40Z</time>
      </trkpt>
      <trkpt lat="45.95961" lon="6.16592">
        <ele>505.31</ele>
        <time>2020-05-18T15:10:41Z</time>
      </trkpt>
      <trkpt lat="45.95967" lon="6.16594">
        <ele>505.31</ele>
        <time>2020-05-18T15:10:42Z</time>
      </trkpt>
      <trkpt lat="45.95975" lon="6.16589">
        <ele>505.31</ele>
        <time>2020-05-18T15:10:43Z</time>
      </trkpt>
      <trkpt lat="45.9598" lon="6.16584">
        <ele>505.31</ele>
        <time>2020-05-18T15:10:44Z</time>
      </trkpt>
      <trkpt lat="45.95982" lon="6.16582">
        <ele>505.79</ele>
        <time>2020-05-18T15:10:45Z</time>
      </trkpt>
      <trkpt lat="45.95989" lon="6.16563">
        <ele>505.79</ele>
        <time>2020-05-18T15:10:47Z</time>
      </trkpt>
      <trkpt lat="45.95999" lon="6.16564">
        <ele>505.79</ele>
        <time>2020-05-18T15:10:48Z</time>
      </trkpt>
      <trkpt lat="45.96026" lon="6.16566">
        <ele>506.27</ele>
        <time>2020-05-18T15:10:49Z</time>
      </trkpt>
      <trkpt lat="45.96116" lon="6.1657">
        <ele>507.71</ele>
        <time>2020-05-18T15:10:57Z</time>
      </trkpt>
      <trkpt lat="45.96244" lon="6.16552">
        <ele>509.64</ele>
        <time>2020-05-18T15:11:10Z</time>
      </trkpt>
      <trkpt lat="45.9634" lon="6.16525">
        <ele>510.12</ele>
        <time>2020-05-18T15:11:19Z</time>
      </trkpt>
      <trkpt lat="45.96358" lon="6.16519">
        <ele>510.6</ele>
        <time>2020-05-18T15:11:20Z</time>
      </trkpt>
      <trkpt lat="45.96641" lon="6.1643">
        <ele>512.04</ele>
        <time>2020-05-18T15:11:36Z</time>
      </trkpt>
      <trkpt lat="45.9675" lon="6.16396">
        <ele>510.12</ele>
        <time>2020-05-18T15:11:44Z</time>
      </trkpt>
      <trkpt lat="45.96829" lon="6.16379">
        <ele>509.16</ele>
        <time>2020-05-18T15:11:52Z</time>
      </trkpt>
      <trkpt lat="45.96933" lon="6.16382">
        <ele>507.23</ele>
        <time>2020-05-18T15:12:01Z</time>
      </trkpt>
      <trkpt lat="45.97034" lon="6.16387">
        <ele>507.23</ele>
        <time>2020-05-18T15:12:05Z</time>
      </trkpt>
      <trkpt lat="45.97279" lon="6.164">
        <ele>508.19</ele>
        <time>2020-05-18T15:12:17Z</time>
      </trkpt>
      <trkpt lat="45.97426" lon="6.16408">
        <ele>510.6</ele>
        <time>2020-05-18T15:12:26Z</time>
      </trkpt>
      <trkpt lat="45.97581" lon="6.16416">
        <ele>514.92</ele>
        <time>2020-05-18T15:12:37Z</time>
      </trkpt>
      <trkpt lat="45.97702" lon="6.16422">
        <ele>517.33</ele>
        <time>2020-05-18T15:12:47Z</time>
      </trkpt>
      <trkpt lat="45.97725" lon="6.16423">
        <ele>517.33</ele>
        <time>2020-05-18T15:12:52Z</time>
      </trkpt>
      <trkpt lat="45.97726" lon="6.16416">
        <ele>517.81</ele>
        <time>2020-05-18T15:12:54Z</time>
      </trkpt>
      <trkpt lat="45.97727" lon="6.1641">
        <ele>517.81</ele>
        <time>2020-05-18T15:12:55Z</time>
      </trkpt>
      <trkpt lat="45.97735" lon="6.16393">
        <ele>518.29</ele>
        <time>2020-05-18T15:12:57Z</time>
      </trkpt>
      <trkpt lat="45.97735" lon="6.16365">
        <ele>518.77</ele>
        <time>2020-05-18T15:12:58Z</time>
      </trkpt>
      <trkpt lat="45.97739" lon="6.16337">
        <ele>521.65</ele>
        <time>2020-05-18T15:13:01Z</time>
      </trkpt>
      <trkpt lat="45.9774" lon="6.16305">
        <ele>522.13</ele>
        <time>2020-05-18T15:13:02Z</time>
      </trkpt>
      <trkpt lat="45.97736" lon="6.16293">
        <ele>523.09</ele>
        <time>2020-05-18T15:13:03Z</time>
      </trkpt>
      <trkpt lat="45.97731" lon="6.16279">
        <ele>523.58</ele>
        <time>2020-05-18T15:13:04Z</time>
      </trkpt>
      <trkpt lat="45.97724" lon="6.16262">
        <ele>524.54</ele>
        <time>2020-05-18T15:13:05Z</time>
      </trkpt>
      <trkpt lat="45.97717" lon="6.16246">
        <ele>525.02</ele>
        <time>2020-05-18T15:13:06Z</time>
      </trkpt>
      <trkpt lat="45.97711" lon="6.16231">
        <ele>525.5</ele>
        <time>2020-05-18T15:13:07Z</time>
      </trkpt>
      <trkpt lat="45.97704" lon="6.16217">
        <ele>525.98</ele>
        <time>2020-05-18T15:13:08Z</time>
      </trkpt>
      <trkpt lat="45.97699" lon="6.16204">
        <ele>526.46</ele>
        <time>2020-05-18T15:13:09Z</time>
      </trkpt>
      <trkpt lat="45.977" lon="6.16188">
        <ele>528.38</ele>
        <time>2020-05-18T15:13:11Z</time>
      </trkpt>
      <trkpt lat="45.977" lon="6.16162">
        <ele>528.86</ele>
        <time>2020-05-18T15:13:12Z</time>
      </trkpt>
      <trkpt lat="45.97701" lon="6.16149">
        <ele>529.34</ele>
        <time>2020-05-18T15:13:13Z</time>
      </trkpt>
      <trkpt lat="45.97702" lon="6.16131">
        <ele>530.3</ele>
        <time>2020-05-18T15:13:14Z</time>
      </trkpt>
      <trkpt lat="45.9771" lon="6.16123">
        <ele>530.79</ele>
        <time>2020-05-18T15:13:15Z</time>
      </trkpt>
      <trkpt lat="45.97718" lon="6.16113">
        <ele>531.75</ele>
        <time>2020-05-18T15:13:16Z</time>
      </trkpt>
      <trkpt lat="45.97728" lon="6.16103">
        <ele>532.71</ele>
        <time>2020-05-18T15:13:17Z</time>
      </trkpt>
      <trkpt lat="45.97736" lon="6.16094">
        <ele>534.63</ele>
        <time>2020-05-18T15:13:19Z</time>
      </trkpt>
      <trkpt lat="45.97761" lon="6.16071">
        <ele>537.51</ele>
        <time>2020-05-18T15:13:22Z</time>
      </trkpt>
      <trkpt lat="45.97781" lon="6.16059">
        <ele>539.44</ele>
        <time>2020-05-18T15:13:24Z</time>
      </trkpt>
      <trkpt lat="45.97783" lon="6.16043">
        <ele>539.92</ele>
        <time>2020-05-18T15:13:25Z</time>
      </trkpt>
      <trkpt lat="45.97786" lon="6.16038">
        <ele>541.36</ele>
        <time>2020-05-18T15:13:26Z</time>
      </trkpt>
      <trkpt lat="45.97792" lon="6.16028">
        <ele>542.8</ele>
        <time>2020-05-18T15:13:27Z</time>
      </trkpt>
      <trkpt lat="45.97798" lon="6.16018">
        <ele>544.24</ele>
        <time>2020-05-18T15:13:28Z</time>
      </trkpt>
      <trkpt lat="45.97803" lon="6.1601">
        <ele>545.69</ele>
        <time>2020-05-18T15:13:29Z</time>
      </trkpt>
      <trkpt lat="45.97807" lon="6.16003">
        <ele>547.13</ele>
        <time>2020-05-18T15:13:30Z</time>
      </trkpt>
      <trkpt lat="45.9781" lon="6.15997">
        <ele>548.57</ele>
        <time>2020-05-18T15:13:31Z</time>
      </trkpt>
      <trkpt lat="45.97813" lon="6.15992">
        <ele>550.01</ele>
        <time>2020-05-18T15:13:32Z</time>
      </trkpt>
      <trkpt lat="45.97817" lon="6.15985">
        <ele>551.45</ele>
        <time>2020-05-18T15:13:33Z</time>
      </trkpt>
      <trkpt lat="45.97817" lon="6.15968">
        <ele>552.41</ele>
        <time>2020-05-18T15:13:34Z</time>
      </trkpt>
      <trkpt lat="45.97815" lon="6.15966">
        <ele>553.38</ele>
        <time>2020-05-18T15:13:35Z</time>
      </trkpt>
      <trkpt lat="45.97817" lon="6.15968">
        <ele>557.7</ele>
        <time>2020-05-18T15:13:42Z</time>
      </trkpt>
      <trkpt lat="45.97817" lon="6.15968">
        <ele>559.14</ele>
        <time>2020-05-18T15:13:50Z</time>
      </trkpt>
      <trkpt lat="45.97805" lon="6.15977">
        <ele>560.59</ele>
        <time>2020-05-18T15:13:52Z</time>
      </trkpt>
      <trkpt lat="45.97817" lon="6.15985">
        <ele>563.47</ele>
        <time>2020-05-18T15:13:56Z</time>
      </trkpt>
      <trkpt lat="45.97812" lon="6.15994">
        <ele>563.47</ele>
        <time>2020-05-18T15:13:58Z</time>
      </trkpt>
      <trkpt lat="45.97789" lon="6.16033">
        <ele>562.51</ele>
        <time>2020-05-18T15:14:01Z</time>
      </trkpt>
      <trkpt lat="45.97761" lon="6.16071">
        <ele>557.7</ele>
        <time>2020-05-18T15:14:06Z</time>
      </trkpt>
      <trkpt lat="45.97729" lon="6.16102">
        <ele>554.82</ele>
        <time>2020-05-18T15:14:10Z</time>
      </trkpt>
      <trkpt lat="45.97711" lon="6.16121">
        <ele>552.41</ele>
        <time>2020-05-18T15:14:12Z</time>
      </trkpt>
      <trkpt lat="45.97702" lon="6.1613">
        <ele>551.45</ele>
        <time>2020-05-18T15:14:13Z</time>
      </trkpt>
      <trkpt lat="45.97701" lon="6.16148">
        <ele>550.01</ele>
        <time>2020-05-18T15:14:14Z</time>
      </trkpt>
      <trkpt lat="45.977" lon="6.16165">
        <ele>548.09</ele>
        <time>2020-05-18T15:14:16Z</time>
      </trkpt>
      <trkpt lat="45.97699" lon="6.162">
        <ele>546.65</ele>
        <time>2020-05-18T15:14:17Z</time>
      </trkpt>
      <trkpt lat="45.97705" lon="6.16218">
        <ele>545.2</ele>
        <time>2020-05-18T15:14:18Z</time>
      </trkpt>
      <trkpt lat="45.97712" lon="6.16235">
        <ele>543.76</ele>
        <time>2020-05-18T15:14:19Z</time>
      </trkpt>
      <trkpt lat="45.97738" lon="6.16301">
        <ele>538.96</ele>
        <time>2020-05-18T15:14:23Z</time>
      </trkpt>
      <trkpt lat="45.9774" lon="6.16319">
        <ele>537.51</ele>
        <time>2020-05-18T15:14:24Z</time>
      </trkpt>
      <trkpt lat="45.97739" lon="6.16335">
        <ele>536.07</ele>
        <time>2020-05-18T15:14:25Z</time>
      </trkpt>
      <trkpt lat="45.97737" lon="6.1635">
        <ele>534.63</ele>
        <time>2020-05-18T15:14:26Z</time>
      </trkpt>
      <trkpt lat="45.97735" lon="6.16366">
        <ele>533.19</ele>
        <time>2020-05-18T15:14:27Z</time>
      </trkpt>
      <trkpt lat="45.97733" lon="6.16381">
        <ele>530.3</ele>
        <time>2020-05-18T15:14:29Z</time>
      </trkpt>
      <trkpt lat="45.9773" lon="6.16393">
        <ele>528.86</ele>
        <time>2020-05-18T15:14:30Z</time>
      </trkpt>
      <trkpt lat="45.97728" lon="6.16403">
        <ele>527.42</ele>
        <time>2020-05-18T15:14:31Z</time>
      </trkpt>
      <trkpt lat="45.97727" lon="6.16414">
        <ele>525.02</ele>
        <time>2020-05-18T15:14:37Z</time>
      </trkpt>
      <trkpt lat="45.9773" lon="6.16423">
        <ele>523.09</ele>
        <time>2020-05-18T15:14:52Z</time>
      </trkpt>
      <trkpt lat="45.97734" lon="6.16423">
        <ele>522.61</ele>
        <time>2020-05-18T15:14:53Z</time>
      </trkpt>
      <trkpt lat="45.97754" lon="6.16423">
        <ele>521.17</ele>
        <time>2020-05-18T15:14:54Z</time>
      </trkpt>
      <trkpt lat="45.97767" lon="6.16423">
        <ele>520.69</ele>
        <time>2020-05-18T15:14:55Z</time>
      </trkpt>
      <trkpt lat="45.97852" lon="6.1643">
        <ele>522.13</ele>
        <time>2020-05-18T15:15:04Z</time>
      </trkpt>
      <trkpt lat="45.97958" lon="6.16442">
        <ele>522.13</ele>
        <time>2020-05-18T15:15:12Z</time>
      </trkpt>
      <trkpt lat="45.98173" lon="6.16505">
        <ele>524.54</ele>
        <time>2020-05-18T15:15:24Z</time>
      </trkpt>
      <trkpt lat="45.98397" lon="6.16602">
        <ele>524.54</ele>
        <time>2020-05-18T15:15:36Z</time>
      </trkpt>
      <trkpt lat="45.98557" lon="6.16708">
        <ele>525.5</ele>
        <time>2020-05-18T15:15:45Z</time>
      </trkpt>
      <trkpt lat="45.9871" lon="6.16856">
        <ele>528.38</ele>
        <time>2020-05-18T15:15:55Z</time>
      </trkpt>
      <trkpt lat="45.98874" lon="6.16972">
        <ele>528.38</ele>
        <time>2020-05-18T15:16:05Z</time>
      </trkpt>
      <trkpt lat="45.99056" lon="6.17094">
        <ele>527.9</ele>
        <time>2020-05-18T15:16:17Z</time>
      </trkpt>
      <trkpt lat="45.99238" lon="6.17233">
        <ele>529.82</ele>
        <time>2020-05-18T15:16:29Z</time>
      </trkpt>
      <trkpt lat="45.99396" lon="6.17364">
        <ele>536.55</ele>
        <time>2020-05-18T15:16:40Z</time>
      </trkpt>
      <trkpt lat="45.99484" lon="6.17414">
        <ele>540.88</ele>
        <time>2020-05-18T15:16:46Z</time>
      </trkpt>
      <trkpt lat="45.99594" lon="6.17513">
        <ele>543.28</ele>
        <time>2020-05-18T15:16:56Z</time>
      </trkpt>
      <trkpt lat="45.99655" lon="6.17576">
        <ele>542.32</ele>
        <time>2020-05-18T15:17:01Z</time>
      </trkpt>
      <trkpt lat="45.99818" lon="6.17793">
        <ele>541.36</ele>
        <time>2020-05-18T15:17:15Z</time>
      </trkpt>
      <trkpt lat="45.99899" lon="6.17902">
        <ele>541.84</ele>
        <time>2020-05-18T15:17:24Z</time>
      </trkpt>
      <trkpt lat="45.9996" lon="6.17986">
        <ele>543.28</ele>
        <time>2020-05-18T15:17:34Z</time>
      </trkpt>
      <trkpt lat="45.99976" lon="6.18007">
        <ele>543.28</ele>
        <time>2020-05-18T15:17:40Z</time>
      </trkpt>
      <trkpt lat="45.99977" lon="6.18014">
        <ele>543.28</ele>
        <time>2020-05-18T15:17:41Z</time>
      </trkpt>
      <trkpt lat="45.99979" lon="6.18022">
        <ele>543.28</ele>
        <time>2020-05-18T15:17:42Z</time>
      </trkpt>
      <trkpt lat="45.99991" lon="6.18028">
        <ele>543.76</ele>
        <time>2020-05-18T15:17:44Z</time>
      </trkpt>
      <trkpt lat="45.99994" lon="6.18034">
        <ele>543.28</ele>
        <time>2020-05-18T15:17:45Z</time>
      </trkpt>
      <trkpt lat="46.00003" lon="6.18046">
        <ele>543.28</ele>
        <time>2020-05-18T15:17:46Z</time>
      </trkpt>
      <trkpt lat="46.00013" lon="6.18059">
        <ele>543.28</ele>
        <time>2020-05-18T15:17:47Z</time>
      </trkpt>
      <trkpt lat="46.00117" lon="6.18203">
        <ele>545.69</ele>
        <time>2020-05-18T15:17:55Z</time>
      </trkpt>
      <trkpt lat="46.002" lon="6.18367">
        <ele>546.65</ele>
        <time>2020-05-18T15:18:03Z</time>
      </trkpt>
      <trkpt lat="46.00271" lon="6.18634">
        <ele>545.69</ele>
        <time>2020-05-18T15:18:14Z</time>
      </trkpt>
      <trkpt lat="46.00314" lon="6.18766">
        <ele>546.65</ele>
        <time>2020-05-18T15:18:18Z</time>
      </trkpt>
      <trkpt lat="46.00324" lon="6.18787">
        <ele>547.61</ele>
        <time>2020-05-18T15:18:19Z</time>
      </trkpt>
      <trkpt lat="46.00336" lon="6.18804">
        <ele>548.57</ele>
        <time>2020-05-18T15:18:20Z</time>
      </trkpt>
      <trkpt lat="46.00351" lon="6.18837">
        <ele>551.45</ele>
        <time>2020-05-18T15:18:23Z</time>
      </trkpt>
      <trkpt lat="46.00356" lon="6.18852">
        <ele>552.41</ele>
        <time>2020-05-18T15:18:24Z</time>
      </trkpt>
      <trkpt lat="46.00362" lon="6.18887">
        <ele>552.9</ele>
        <time>2020-05-18T15:18:25Z</time>
      </trkpt>
      <trkpt lat="46.0036" lon="6.18897">
        <ele>553.38</ele>
        <time>2020-05-18T15:18:26Z</time>
      </trkpt>
      <trkpt lat="46.00358" lon="6.18911">
        <ele>553.38</ele>
        <time>2020-05-18T15:18:27Z</time>
      </trkpt>
      <trkpt lat="46.00362" lon="6.18924">
        <ele>554.34</ele>
        <time>2020-05-18T15:18:29Z</time>
      </trkpt>
      <trkpt lat="46.00379" lon="6.18942">
        <ele>554.34</ele>
        <time>2020-05-18T15:18:30Z</time>
      </trkpt>
      <trkpt lat="46.00385" lon="6.18946">
        <ele>554.34</ele>
        <time>2020-05-18T15:18:31Z</time>
      </trkpt>
      <trkpt lat="46.0039" lon="6.18949">
        <ele>554.82</ele>
        <time>2020-05-18T15:18:32Z</time>
      </trkpt>
      <trkpt lat="46.00394" lon="6.18951">
        <ele>554.82</ele>
        <time>2020-05-18T15:18:33Z</time>
      </trkpt>
      <trkpt lat="46.00399" lon="6.18964">
        <ele>555.3</ele>
        <time>2020-05-18T15:18:35Z</time>
      </trkpt>
      <trkpt lat="46.00397" lon="6.18973">
        <ele>555.78</ele>
        <time>2020-05-18T15:18:36Z</time>
      </trkpt>
      <trkpt lat="46.00373" lon="6.19079">
        <ele>559.14</ele>
        <time>2020-05-18T15:18:40Z</time>
      </trkpt>
      <trkpt lat="46.00331" lon="6.19289">
        <ele>561.55</ele>
        <time>2020-05-18T15:18:46Z</time>
      </trkpt>
      <trkpt lat="46.0029" lon="6.19545">
        <ele>563.47</ele>
        <time>2020-05-18T15:18:53Z</time>
      </trkpt>
      <trkpt lat="46.00284" lon="6.19737">
        <ele>563.95</ele>
        <time>2020-05-18T15:19:00Z</time>
      </trkpt>
      <trkpt lat="46.00278" lon="6.19796">
        <ele>564.43</ele>
        <time>2020-05-18T15:19:02Z</time>
      </trkpt>
      <trkpt lat="46.00211" lon="6.19976">
        <ele>567.8</ele>
        <time>2020-05-18T15:19:09Z</time>
      </trkpt>
      <trkpt lat="46.00201" lon="6.20002">
        <ele>569.24</ele>
        <time>2020-05-18T15:19:12Z</time>
      </trkpt>
      <trkpt lat="46.00195" lon="6.20017">
        <ele>569.72</ele>
        <time>2020-05-18T15:19:14Z</time>
      </trkpt>
      <trkpt lat="46.00185" lon="6.19999">
        <ele>569.24</ele>
        <time>2020-05-18T15:19:21Z</time>
      </trkpt>
      <trkpt lat="46.00181" lon="6.19993">
        <ele>569.24</ele>
        <time>2020-05-18T15:19:28Z</time>
      </trkpt>
      <trkpt lat="46.0018" lon="6.19993">
        <ele>570.68</ele>
        <time>2020-05-18T15:19:41Z</time>
      </trkpt>
      <trkpt lat="46.00181" lon="6.19995">
        <ele>549.53</ele>
        <time>2020-05-18T15:56:46Z</time>
      </trkpt>
      <trkpt lat="46.00182" lon="6.19995">
        <ele>579.81</ele>
        <time>2020-05-18T15:57:28Z</time>
      </trkpt>
      <trkpt lat="46.00181" lon="6.19994">
        <ele>578.85</ele>
        <time>2020-05-18T15:57:31Z</time>
      </trkpt>
      <trkpt lat="46.00195" lon="6.20016">
        <ele>578.37</ele>
        <time>2020-05-18T15:57:35Z</time>
      </trkpt>
      <trkpt lat="46.00194" lon="6.20019">
        <ele>578.37</ele>
        <time>2020-05-18T15:57:36Z</time>
      </trkpt>
      <trkpt lat="46.00194" lon="6.20021">
        <ele>578.37</ele>
        <time>2020-05-18T15:57:37Z</time>
      </trkpt>
      <trkpt lat="46.00192" lon="6.20024">
        <ele>578.37</ele>
        <time>2020-05-18T15:57:38Z</time>
      </trkpt>
      <trkpt lat="46.00188" lon="6.20021">
        <ele>578.37</ele>
        <time>2020-05-18T15:57:42Z</time>
      </trkpt>
      <trkpt lat="46.00196" lon="6.20015">
        <ele>578.37</ele>
        <time>2020-05-18T15:57:45Z</time>
      </trkpt>
      <trkpt lat="46.00199" lon="6.20006">
        <ele>578.37</ele>
        <time>2020-05-18T15:57:46Z</time>
      </trkpt>
      <trkpt lat="46.00229" lon="6.19927">
        <ele>577.41</ele>
        <time>2020-05-18T15:57:51Z</time>
      </trkpt>
      <trkpt lat="46.00279" lon="6.19789">
        <ele>574.53</ele>
        <time>2020-05-18T15:57:57Z</time>
      </trkpt>
      <trkpt lat="46.00281" lon="6.19764">
        <ele>574.04</ele>
        <time>2020-05-18T15:57:58Z</time>
      </trkpt>
      <trkpt lat="46.00284" lon="6.19737">
        <ele>574.04</ele>
        <time>2020-05-18T15:57:59Z</time>
      </trkpt>
      <trkpt lat="46.00292" lon="6.19501">
        <ele>573.08</ele>
        <time>2020-05-18T15:58:06Z</time>
      </trkpt>
      <trkpt lat="46.00333" lon="6.19281">
        <ele>572.12</ele>
        <time>2020-05-18T15:58:12Z</time>
      </trkpt>
      <trkpt lat="46.00379" lon="6.19053">
        <ele>569.24</ele>
        <time>2020-05-18T15:58:20Z</time>
      </trkpt>
      <trkpt lat="46.00398" lon="6.18968">
        <ele>564.43</ele>
        <time>2020-05-18T15:58:25Z</time>
      </trkpt>
      <trkpt lat="46.00401" lon="6.18955">
        <ele>562.03</ele>
        <time>2020-05-18T15:58:28Z</time>
      </trkpt>
      <trkpt lat="46.00395" lon="6.18952">
        <ele>561.07</ele>
        <time>2020-05-18T15:58:29Z</time>
      </trkpt>
      <trkpt lat="46.0039" lon="6.18949">
        <ele>559.62</ele>
        <time>2020-05-18T15:58:30Z</time>
      </trkpt>
      <trkpt lat="46.00368" lon="6.18932">
        <ele>557.22</ele>
        <time>2020-05-18T15:58:33Z</time>
      </trkpt>
      <trkpt lat="46.00361" lon="6.18893">
        <ele>557.22</ele>
        <time>2020-05-18T15:58:36Z</time>
      </trkpt>
      <trkpt lat="46.00377" lon="6.18878">
        <ele>557.7</ele>
        <time>2020-05-18T15:58:38Z</time>
      </trkpt>
      <trkpt lat="46.00381" lon="6.18876">
        <ele>558.18</ele>
        <time>2020-05-18T15:58:39Z</time>
      </trkpt>
      <trkpt lat="46.00394" lon="6.18882">
        <ele>558.66</ele>
        <time>2020-05-18T15:58:40Z</time>
      </trkpt>
      <trkpt lat="46.00405" lon="6.18888">
        <ele>559.62</ele>
        <time>2020-05-18T15:58:41Z</time>
      </trkpt>
      <trkpt lat="46.00421" lon="6.18896">
        <ele>560.59</ele>
        <time>2020-05-18T15:58:42Z</time>
      </trkpt>
      <trkpt lat="46.00456" lon="6.18936">
        <ele>562.03</ele>
        <time>2020-05-18T15:58:44Z</time>
      </trkpt>
      <trkpt lat="46.00474" lon="6.1896">
        <ele>562.51</ele>
        <time>2020-05-18T15:58:45Z</time>
      </trkpt>
      <trkpt lat="46.00492" lon="6.18985">
        <ele>563.47</ele>
        <time>2020-05-18T15:58:46Z</time>
      </trkpt>
      <trkpt lat="46.00588" lon="6.19209">
        <ele>575.01</ele>
        <time>2020-05-18T15:58:54Z</time>
      </trkpt>
      <trkpt lat="46.00651" lon="6.19392">
        <ele>586.54</ele>
        <time>2020-05-18T15:59:01Z</time>
      </trkpt>
      <trkpt lat="46.00686" lon="6.19483">
        <ele>593.27</ele>
        <time>2020-05-18T15:59:06Z</time>
      </trkpt>
      <trkpt lat="46.00691" lon="6.19496">
        <ele>594.23</ele>
        <time>2020-05-18T15:59:07Z</time>
      </trkpt>
      <trkpt lat="46.00694" lon="6.1951">
        <ele>595.19</ele>
        <time>2020-05-18T15:59:08Z</time>
      </trkpt>
      <trkpt lat="46.00692" lon="6.1953">
        <ele>596.15</ele>
        <time>2020-05-18T15:59:09Z</time>
      </trkpt>
      <trkpt lat="46.00685" lon="6.1954">
        <ele>596.64</ele>
        <time>2020-05-18T15:59:10Z</time>
      </trkpt>
      <trkpt lat="46.00675" lon="6.19538">
        <ele>596.64</ele>
        <time>2020-05-18T15:59:11Z</time>
      </trkpt>
      <trkpt lat="46.00667" lon="6.19535">
        <ele>597.12</ele>
        <time>2020-05-18T15:59:12Z</time>
      </trkpt>
      <trkpt lat="46.00659" lon="6.19517">
        <ele>598.08</ele>
        <time>2020-05-18T15:59:13Z</time>
      </trkpt>
      <trkpt lat="46.00651" lon="6.19501">
        <ele>598.56</ele>
        <time>2020-05-18T15:59:14Z</time>
      </trkpt>
      <trkpt lat="46.00643" lon="6.19483">
        <ele>599.04</ele>
        <time>2020-05-18T15:59:15Z</time>
      </trkpt>
      <trkpt lat="46.0062" lon="6.19433">
        <ele>600.96</ele>
        <time>2020-05-18T15:59:18Z</time>
      </trkpt>
      <trkpt lat="46.00612" lon="6.19418">
        <ele>601.44</ele>
        <time>2020-05-18T15:59:19Z</time>
      </trkpt>
      <trkpt lat="46.00547" lon="6.19319">
        <ele>606.25</ele>
        <time>2020-05-18T15:59:26Z</time>
      </trkpt>
      <trkpt lat="46.00536" lon="6.19311">
        <ele>606.73</ele>
        <time>2020-05-18T15:59:27Z</time>
      </trkpt>
      <trkpt lat="46.00525" lon="6.19308">
        <ele>607.69</ele>
        <time>2020-05-18T15:59:28Z</time>
      </trkpt>
      <trkpt lat="46.00514" lon="6.1931">
        <ele>609.13</ele>
        <time>2020-05-18T15:59:29Z</time>
      </trkpt>
      <trkpt lat="46.00503" lon="6.19317">
        <ele>610.09</ele>
        <time>2020-05-18T15:59:30Z</time>
      </trkpt>
      <trkpt lat="46.00495" lon="6.19325">
        <ele>611.06</ele>
        <time>2020-05-18T15:59:31Z</time>
      </trkpt>
      <trkpt lat="46.00489" lon="6.19338">
        <ele>612.02</ele>
        <time>2020-05-18T15:59:32Z</time>
      </trkpt>
      <trkpt lat="46.00483" lon="6.19351">
        <ele>612.98</ele>
        <time>2020-05-18T15:59:33Z</time>
      </trkpt>
      <trkpt lat="46.0048" lon="6.19362">
        <ele>613.46</ele>
        <time>2020-05-18T15:59:34Z</time>
      </trkpt>
      <trkpt lat="46.0048" lon="6.19379">
        <ele>614.42</ele>
        <time>2020-05-18T15:59:35Z</time>
      </trkpt>
      <trkpt lat="46.00484" lon="6.19392">
        <ele>614.9</ele>
        <time>2020-05-18T15:59:36Z</time>
      </trkpt>
      <trkpt lat="46.00489" lon="6.19408">
        <ele>615.38</ele>
        <time>2020-05-18T15:59:37Z</time>
      </trkpt>
      <trkpt lat="46.00496" lon="6.19424">
        <ele>616.34</ele>
        <time>2020-05-18T15:59:38Z</time>
      </trkpt>
      <trkpt lat="46.00505" lon="6.19439">
        <ele>617.3</ele>
        <time>2020-05-18T15:59:39Z</time>
      </trkpt>
      <trkpt lat="46.00524" lon="6.19471">
        <ele>619.23</ele>
        <time>2020-05-18T15:59:41Z</time>
      </trkpt>
      <trkpt lat="46.00536" lon="6.19482">
        <ele>620.19</ele>
        <time>2020-05-18T15:59:42Z</time>
      </trkpt>
      <trkpt lat="46.00549" lon="6.19494">
        <ele>620.67</ele>
        <time>2020-05-18T15:59:43Z</time>
      </trkpt>
      <trkpt lat="46.00585" lon="6.19531">
        <ele>623.55</ele>
        <time>2020-05-18T15:59:46Z</time>
      </trkpt>
      <trkpt lat="46.00597" lon="6.19546">
        <ele>624.51</ele>
        <time>2020-05-18T15:59:47Z</time>
      </trkpt>
      <trkpt lat="46.00608" lon="6.19563">
        <ele>625.47</ele>
        <time>2020-05-18T15:59:48Z</time>
      </trkpt>
      <trkpt lat="46.00617" lon="6.19583">
        <ele>626.44</ele>
        <time>2020-05-18T15:59:49Z</time>
      </trkpt>
      <trkpt lat="46.00625" lon="6.19604">
        <ele>627.4</ele>
        <time>2020-05-18T15:59:50Z</time>
      </trkpt>
      <trkpt lat="46.00703" lon="6.19826">
        <ele>637.97</ele>
        <time>2020-05-18T16:00:00Z</time>
      </trkpt>
      <trkpt lat="46.00759" lon="6.20091">
        <ele>648.55</ele>
        <time>2020-05-18T16:00:11Z</time>
      </trkpt>
      <trkpt lat="46.00845" lon="6.20415">
        <ele>661.04</ele>
        <time>2020-05-18T16:00:25Z</time>
      </trkpt>
      <trkpt lat="46.0087" lon="6.20499">
        <ele>662.49</ele>
        <time>2020-05-18T16:00:29Z</time>
      </trkpt>
      <trkpt lat="46.00888" lon="6.20539">
        <ele>663.45</ele>
        <time>2020-05-18T16:00:31Z</time>
      </trkpt>
      <trkpt lat="46.00899" lon="6.20557">
        <ele>663.93</ele>
        <time>2020-05-18T16:00:32Z</time>
      </trkpt>
      <trkpt lat="46.00912" lon="6.20574">
        <ele>664.41</ele>
        <time>2020-05-18T16:00:33Z</time>
      </trkpt>
      <trkpt lat="46.01044" lon="6.20732">
        <ele>665.85</ele>
        <time>2020-05-18T16:00:42Z</time>
      </trkpt>
      <trkpt lat="46.01203" lon="6.20921">
        <ele>669.22</ele>
        <time>2020-05-18T16:00:52Z</time>
      </trkpt>
      <trkpt lat="46.01233" lon="6.20957">
        <ele>669.22</ele>
        <time>2020-05-18T16:00:54Z</time>
      </trkpt>
      <trkpt lat="46.01247" lon="6.20974">
        <ele>668.73</ele>
        <time>2020-05-18T16:00:55Z</time>
      </trkpt>
      <trkpt lat="46.01373" lon="6.2114">
        <ele>671.14</ele>
        <time>2020-05-18T16:01:04Z</time>
      </trkpt>
      <trkpt lat="46.01435" lon="6.21238">
        <ele>673.06</ele>
        <time>2020-05-18T16:01:09Z</time>
      </trkpt>
      <trkpt lat="46.0145" lon="6.21254">
        <ele>673.54</ele>
        <time>2020-05-18T16:01:10Z</time>
      </trkpt>
      <trkpt lat="46.01506" lon="6.21316">
        <ele>675.46</ele>
        <time>2020-05-18T16:01:14Z</time>
      </trkpt>
      <trkpt lat="46.0152" lon="6.21329">
        <ele>675.46</ele>
        <time>2020-05-18T16:01:15Z</time>
      </trkpt>
      <trkpt lat="46.0165" lon="6.21455">
        <ele>676.91</ele>
        <time>2020-05-18T16:01:24Z</time>
      </trkpt>
      <trkpt lat="46.01732" lon="6.21585">
        <ele>679.31</ele>
        <time>2020-05-18T16:01:31Z</time>
      </trkpt>
      <trkpt lat="46.0178" lon="6.21701">
        <ele>682.19</ele>
        <time>2020-05-18T16:01:37Z</time>
      </trkpt>
      <trkpt lat="46.01786" lon="6.21717">
        <ele>682.67</ele>
        <time>2020-05-18T16:01:38Z</time>
      </trkpt>
      <trkpt lat="46.01835" lon="6.21836">
        <ele>684.6</ele>
        <time>2020-05-18T16:01:46Z</time>
      </trkpt>
      <trkpt lat="46.01883" lon="6.21971">
        <ele>688.44</ele>
        <time>2020-05-18T16:01:54Z</time>
      </trkpt>
      <trkpt lat="46.01909" lon="6.22069">
        <ele>689.88</ele>
        <time>2020-05-18T16:01:58Z</time>
      </trkpt>
      <trkpt lat="46.01945" lon="6.22262">
        <ele>691.81</ele>
        <time>2020-05-18T16:02:05Z</time>
      </trkpt>
      <trkpt lat="46.0196" lon="6.22353">
        <ele>693.25</ele>
        <time>2020-05-18T16:02:09Z</time>
      </trkpt>
      <trkpt lat="46.01964" lon="6.22378">
        <ele>694.21</ele>
        <time>2020-05-18T16:02:10Z</time>
      </trkpt>
      <trkpt lat="46.01984" lon="6.22507">
        <ele>698.05</ele>
        <time>2020-05-18T16:02:15Z</time>
      </trkpt>
      <trkpt lat="46.02012" lon="6.22709">
        <ele>702.86</ele>
        <time>2020-05-18T16:02:22Z</time>
      </trkpt>
      <trkpt lat="46.02028" lon="6.2282">
        <ele>704.3</ele>
        <time>2020-05-18T16:02:27Z</time>
      </trkpt>
      <trkpt lat="46.02059" lon="6.22964">
        <ele>707.67</ele>
        <time>2020-05-18T16:02:33Z</time>
      </trkpt>
      <trkpt lat="46.02067" lon="6.22987">
        <ele>708.15</ele>
        <time>2020-05-18T16:02:34Z</time>
      </trkpt>
      <trkpt lat="46.02078" lon="6.23007">
        <ele>708.63</ele>
        <time>2020-05-18T16:02:35Z</time>
      </trkpt>
      <trkpt lat="46.0209" lon="6.23026">
        <ele>708.63</ele>
        <time>2020-05-18T16:02:36Z</time>
      </trkpt>
      <trkpt lat="46.02102" lon="6.23041">
        <ele>709.11</ele>
        <time>2020-05-18T16:02:37Z</time>
      </trkpt>
      <trkpt lat="46.02113" lon="6.23055">
        <ele>709.11</ele>
        <time>2020-05-18T16:02:38Z</time>
      </trkpt>
      <trkpt lat="46.02124" lon="6.23069">
        <ele>709.11</ele>
        <time>2020-05-18T16:02:39Z</time>
      </trkpt>
      <trkpt lat="46.02135" lon="6.23084">
        <ele>709.11</ele>
        <time>2020-05-18T16:02:40Z</time>
      </trkpt>
      <trkpt lat="46.02147" lon="6.23101">
        <ele>709.11</ele>
        <time>2020-05-18T16:02:41Z</time>
      </trkpt>
      <trkpt lat="46.02159" lon="6.23119">
        <ele>709.59</ele>
        <time>2020-05-18T16:02:42Z</time>
      </trkpt>
      <trkpt lat="46.02194" lon="6.23185">
        <ele>710.55</ele>
        <time>2020-05-18T16:02:47Z</time>
      </trkpt>
      <trkpt lat="46.02248" lon="6.23299">
        <ele>711.99</ele>
        <time>2020-05-18T16:02:57Z</time>
      </trkpt>
      <trkpt lat="46.02293" lon="6.2338">
        <ele>713.44</ele>
        <time>2020-05-18T16:03:05Z</time>
      </trkpt>
      <trkpt lat="46.02301" lon="6.23386">
        <ele>713.92</ele>
        <time>2020-05-18T16:03:06Z</time>
      </trkpt>
      <trkpt lat="46.02308" lon="6.23393">
        <ele>713.92</ele>
        <time>2020-05-18T16:03:07Z</time>
      </trkpt>
      <trkpt lat="46.02396" lon="6.23472">
        <ele>720.16</ele>
        <time>2020-05-18T16:03:18Z</time>
      </trkpt>
      <trkpt lat="46.02423" lon="6.23513">
        <ele>722.57</ele>
        <time>2020-05-18T16:03:22Z</time>
      </trkpt>
      <trkpt lat="46.02429" lon="6.23523">
        <ele>723.05</ele>
        <time>2020-05-18T16:03:23Z</time>
      </trkpt>
      <trkpt lat="46.02433" lon="6.23533">
        <ele>723.53</ele>
        <time>2020-05-18T16:03:24Z</time>
      </trkpt>
      <trkpt lat="46.02469" lon="6.23612">
        <ele>725.93</ele>
        <time>2020-05-18T16:03:30Z</time>
      </trkpt>
      <trkpt lat="46.02516" lon="6.23687">
        <ele>728.82</ele>
        <time>2020-05-18T16:03:35Z</time>
      </trkpt>
      <trkpt lat="46.02528" lon="6.23699">
        <ele>729.3</ele>
        <time>2020-05-18T16:03:36Z</time>
      </trkpt>
      <trkpt lat="46.02584" lon="6.2374">
        <ele>731.22</ele>
        <time>2020-05-18T16:03:40Z</time>
      </trkpt>
      <trkpt lat="46.026" lon="6.23748">
        <ele>732.18</ele>
        <time>2020-05-18T16:03:41Z</time>
      </trkpt>
      <trkpt lat="46.02616" lon="6.23753">
        <ele>732.66</ele>
        <time>2020-05-18T16:03:42Z</time>
      </trkpt>
      <trkpt lat="46.02816" lon="6.23789">
        <ele>741.31</ele>
        <time>2020-05-18T16:03:53Z</time>
      </trkpt>
      <trkpt lat="46.02966" lon="6.2385">
        <ele>745.64</ele>
        <time>2020-05-18T16:04:01Z</time>
      </trkpt>
      <trkpt lat="46.03082" lon="6.23938">
        <ele>747.56</ele>
        <time>2020-05-18T16:04:07Z</time>
      </trkpt>
      <trkpt lat="46.03196" lon="6.24067">
        <ele>750.45</ele>
        <time>2020-05-18T16:04:11Z</time>
      </trkpt>
      <trkpt lat="46.03242" lon="6.24123">
        <ele>752.37</ele>
        <time>2020-05-18T16:04:13Z</time>
      </trkpt>
      <trkpt lat="46.03291" lon="6.24199">
        <ele>754.77</ele>
        <time>2020-05-18T16:04:17Z</time>
      </trkpt>
      <trkpt lat="46.03311" lon="6.24231">
        <ele>755.25</ele>
        <time>2020-05-18T16:04:19Z</time>
      </trkpt>
      <trkpt lat="46.03323" lon="6.24244">
        <ele>755.73</ele>
        <time>2020-05-18T16:04:20Z</time>
      </trkpt>
      <trkpt lat="46.03337" lon="6.24254">
        <ele>755.73</ele>
        <time>2020-05-18T16:04:21Z</time>
      </trkpt>
      <trkpt lat="46.03351" lon="6.24264">
        <ele>756.21</ele>
        <time>2020-05-18T16:04:22Z</time>
      </trkpt>
      <trkpt lat="46.03366" lon="6.24268">
        <ele>756.69</ele>
        <time>2020-05-18T16:04:23Z</time>
      </trkpt>
      <trkpt lat="46.03379" lon="6.24272">
        <ele>756.69</ele>
        <time>2020-05-18T16:04:24Z</time>
      </trkpt>
      <trkpt lat="46.03396" lon="6.24269">
        <ele>757.18</ele>
        <time>2020-05-18T16:04:25Z</time>
      </trkpt>
      <trkpt lat="46.03411" lon="6.24266">
        <ele>758.14</ele>
        <time>2020-05-18T16:04:26Z</time>
      </trkpt>
      <trkpt lat="46.03424" lon="6.24257">
        <ele>758.62</ele>
        <time>2020-05-18T16:04:27Z</time>
      </trkpt>
      <trkpt lat="46.03438" lon="6.24248">
        <ele>759.1</ele>
        <time>2020-05-18T16:04:28Z</time>
      </trkpt>
      <trkpt lat="46.03449" lon="6.24234">
        <ele>760.06</ele>
        <time>2020-05-18T16:04:29Z</time>
      </trkpt>
      <trkpt lat="46.0346" lon="6.24217">
        <ele>761.02</ele>
        <time>2020-05-18T16:04:30Z</time>
      </trkpt>
      <trkpt lat="46.03471" lon="6.242">
        <ele>761.5</ele>
        <time>2020-05-18T16:04:31Z</time>
      </trkpt>
      <trkpt lat="46.03484" lon="6.2418">
        <ele>762.46</ele>
        <time>2020-05-18T16:04:32Z</time>
      </trkpt>
      <trkpt lat="46.03498" lon="6.24156">
        <ele>763.42</ele>
        <time>2020-05-18T16:04:33Z</time>
      </trkpt>
      <trkpt lat="46.03513" lon="6.24132">
        <ele>764.39</ele>
        <time>2020-05-18T16:04:34Z</time>
      </trkpt>
      <trkpt lat="46.03527" lon="6.24109">
        <ele>765.35</ele>
        <time>2020-05-18T16:04:35Z</time>
      </trkpt>
      <trkpt lat="46.03545" lon="6.24092">
        <ele>767.27</ele>
        <time>2020-05-18T16:04:36Z</time>
      </trkpt>
      <trkpt lat="46.03565" lon="6.2408">
        <ele>768.71</ele>
        <time>2020-05-18T16:04:37Z</time>
      </trkpt>
      <trkpt lat="46.03587" lon="6.24073">
        <ele>770.15</ele>
        <time>2020-05-18T16:04:38Z</time>
      </trkpt>
      <trkpt lat="46.03608" lon="6.24072">
        <ele>771.11</ele>
        <time>2020-05-18T16:04:39Z</time>
      </trkpt>
      <trkpt lat="46.0363" lon="6.24074">
        <ele>771.6</ele>
        <time>2020-05-18T16:04:40Z</time>
      </trkpt>
      <trkpt lat="46.03652" lon="6.24082">
        <ele>772.56</ele>
        <time>2020-05-18T16:04:41Z</time>
      </trkpt>
      <trkpt lat="46.03674" lon="6.24097">
        <ele>773.52</ele>
        <time>2020-05-18T16:04:42Z</time>
      </trkpt>
      <trkpt lat="46.03695" lon="6.24117">
        <ele>774.48</ele>
        <time>2020-05-18T16:04:43Z</time>
      </trkpt>
      <trkpt lat="46.03715" lon="6.24142">
        <ele>775.92</ele>
        <time>2020-05-18T16:04:44Z</time>
      </trkpt>
      <trkpt lat="46.03734" lon="6.2417">
        <ele>776.88</ele>
        <time>2020-05-18T16:04:45Z</time>
      </trkpt>
      <trkpt lat="46.03753" lon="6.24199">
        <ele>778.32</ele>
        <time>2020-05-18T16:04:46Z</time>
      </trkpt>
      <trkpt lat="46.03769" lon="6.24232">
        <ele>779.77</ele>
        <time>2020-05-18T16:04:47Z</time>
      </trkpt>
      <trkpt lat="46.03781" lon="6.24267">
        <ele>781.69</ele>
        <time>2020-05-18T16:04:48Z</time>
      </trkpt>
      <trkpt lat="46.03794" lon="6.24304">
        <ele>783.13</ele>
        <time>2020-05-18T16:04:49Z</time>
      </trkpt>
      <trkpt lat="46.03802" lon="6.24346">
        <ele>785.05</ele>
        <time>2020-05-18T16:04:50Z</time>
      </trkpt>
      <trkpt lat="46.03837" lon="6.24508">
        <ele>792.26</ele>
        <time>2020-05-18T16:04:54Z</time>
      </trkpt>
      <trkpt lat="46.03846" lon="6.24542">
        <ele>793.71</ele>
        <time>2020-05-18T16:04:55Z</time>
      </trkpt>
      <trkpt lat="46.03859" lon="6.24573">
        <ele>795.15</ele>
        <time>2020-05-18T16:04:56Z</time>
      </trkpt>
      <trkpt lat="46.03874" lon="6.246">
        <ele>796.59</ele>
        <time>2020-05-18T16:04:57Z</time>
      </trkpt>
      <trkpt lat="46.03891" lon="6.24626">
        <ele>797.55</ele>
        <time>2020-05-18T16:04:58Z</time>
      </trkpt>
      <trkpt lat="46.0391" lon="6.24647">
        <ele>798.03</ele>
        <time>2020-05-18T16:04:59Z</time>
      </trkpt>
      <trkpt lat="46.0393" lon="6.24667">
        <ele>798.99</ele>
        <time>2020-05-18T16:05:00Z</time>
      </trkpt>
      <trkpt lat="46.03953" lon="6.24683">
        <ele>798.99</ele>
        <time>2020-05-18T16:05:01Z</time>
      </trkpt>
      <trkpt lat="46.03976" lon="6.24697">
        <ele>798.99</ele>
        <time>2020-05-18T16:05:02Z</time>
      </trkpt>
      <trkpt lat="46.04001" lon="6.24706">
        <ele>798.99</ele>
        <time>2020-05-18T16:05:03Z</time>
      </trkpt>
      <trkpt lat="46.04026" lon="6.24712">
        <ele>798.99</ele>
        <time>2020-05-18T16:05:04Z</time>
      </trkpt>
      <trkpt lat="46.04074" lon="6.2473">
        <ele>798.51</ele>
        <time>2020-05-18T16:05:06Z</time>
      </trkpt>
      <trkpt lat="46.04097" lon="6.24744">
        <ele>797.55</ele>
        <time>2020-05-18T16:05:07Z</time>
      </trkpt>
      <trkpt lat="46.0412" lon="6.24761">
        <ele>796.11</ele>
        <time>2020-05-18T16:05:08Z</time>
      </trkpt>
      <trkpt lat="46.0414" lon="6.24785">
        <ele>795.15</ele>
        <time>2020-05-18T16:05:09Z</time>
      </trkpt>
      <trkpt lat="46.04162" lon="6.2481">
        <ele>793.71</ele>
        <time>2020-05-18T16:05:10Z</time>
      </trkpt>
      <trkpt lat="46.04185" lon="6.24838">
        <ele>792.74</ele>
        <time>2020-05-18T16:05:11Z</time>
      </trkpt>
      <trkpt lat="46.04327" lon="6.25049">
        <ele>793.71</ele>
        <time>2020-05-18T16:05:18Z</time>
      </trkpt>
      <trkpt lat="46.04343" lon="6.25081">
        <ele>794.67</ele>
        <time>2020-05-18T16:05:19Z</time>
      </trkpt>
      <trkpt lat="46.04356" lon="6.25113">
        <ele>796.11</ele>
        <time>2020-05-18T16:05:20Z</time>
      </trkpt>
      <trkpt lat="46.04367" lon="6.25147">
        <ele>797.07</ele>
        <time>2020-05-18T16:05:21Z</time>
      </trkpt>
      <trkpt lat="46.04377" lon="6.25182">
        <ele>798.51</ele>
        <time>2020-05-18T16:05:22Z</time>
      </trkpt>
      <trkpt lat="46.04384" lon="6.25219">
        <ele>799.95</ele>
        <time>2020-05-18T16:05:23Z</time>
      </trkpt>
      <trkpt lat="46.04453" lon="6.25505">
        <ele>806.2</ele>
        <time>2020-05-18T16:05:31Z</time>
      </trkpt>
      <trkpt lat="46.04524" lon="6.25656">
        <ele>806.68</ele>
        <time>2020-05-18T16:05:37Z</time>
      </trkpt>
      <trkpt lat="46.04682" lon="6.25984">
        <ele>802.36</ele>
        <time>2020-05-18T16:05:52Z</time>
      </trkpt>
      <trkpt lat="46.04788" lon="6.26205">
        <ele>797.07</ele>
        <time>2020-05-18T16:06:03Z</time>
      </trkpt>
      <trkpt lat="46.04885" lon="6.26379">
        <ele>790.34</ele>
        <time>2020-05-18T16:06:12Z</time>
      </trkpt>
      <trkpt lat="46.04901" lon="6.26398">
        <ele>789.38</ele>
        <time>2020-05-18T16:06:13Z</time>
      </trkpt>
      <trkpt lat="46.04917" lon="6.26417">
        <ele>788.42</ele>
        <time>2020-05-18T16:06:14Z</time>
      </trkpt>
      <trkpt lat="46.05072" lon="6.26561">
        <ele>777.36</ele>
        <time>2020-05-18T16:06:23Z</time>
      </trkpt>
      <trkpt lat="46.05097" lon="6.26606">
        <ele>775.44</ele>
        <time>2020-05-18T16:06:25Z</time>
      </trkpt>
      <trkpt lat="46.05108" lon="6.2663">
        <ele>774.48</ele>
        <time>2020-05-18T16:06:26Z</time>
      </trkpt>
      <trkpt lat="46.05118" lon="6.26655">
        <ele>773.52</ele>
        <time>2020-05-18T16:06:27Z</time>
      </trkpt>
      <trkpt lat="46.05125" lon="6.26681">
        <ele>772.56</ele>
        <time>2020-05-18T16:06:28Z</time>
      </trkpt>
      <trkpt lat="46.05132" lon="6.26708">
        <ele>772.08</ele>
        <time>2020-05-18T16:06:29Z</time>
      </trkpt>
      <trkpt lat="46.05139" lon="6.26734">
        <ele>771.6</ele>
        <time>2020-05-18T16:06:30Z</time>
      </trkpt>
      <trkpt lat="46.05143" lon="6.26762">
        <ele>771.11</ele>
        <time>2020-05-18T16:06:31Z</time>
      </trkpt>
      <trkpt lat="46.05146" lon="6.26789">
        <ele>770.15</ele>
        <time>2020-05-18T16:06:32Z</time>
      </trkpt>
      <trkpt lat="46.05149" lon="6.26817">
        <ele>770.15</ele>
        <time>2020-05-18T16:06:33Z</time>
      </trkpt>
      <trkpt lat="46.05148" lon="6.26846">
        <ele>769.67</ele>
        <time>2020-05-18T16:06:34Z</time>
      </trkpt>
      <trkpt lat="46.05147" lon="6.26874">
        <ele>769.19</ele>
        <time>2020-05-18T16:06:35Z</time>
      </trkpt>
      <trkpt lat="46.05145" lon="6.26902">
        <ele>768.71</ele>
        <time>2020-05-18T16:06:36Z</time>
      </trkpt>
      <trkpt lat="46.05124" lon="6.27183">
        <ele>764.39</ele>
        <time>2020-05-18T16:06:46Z</time>
      </trkpt>
      <trkpt lat="46.05138" lon="6.2742">
        <ele>757.18</ele>
        <time>2020-05-18T16:06:54Z</time>
      </trkpt>
      <trkpt lat="46.05191" lon="6.27665">
        <ele>751.89</ele>
        <time>2020-05-18T16:07:03Z</time>
      </trkpt>
      <trkpt lat="46.05244" lon="6.27826">
        <ele>750.93</ele>
        <time>2020-05-18T16:07:08Z</time>
      </trkpt>
      <trkpt lat="46.05325" lon="6.28055">
        <ele>746.6</ele>
        <time>2020-05-18T16:07:14Z</time>
      </trkpt>
      <trkpt lat="46.05438" lon="6.28377">
        <ele>741.31</ele>
        <time>2020-05-18T16:07:25Z</time>
      </trkpt>
      <trkpt lat="46.05544" lon="6.28682">
        <ele>734.58</ele>
        <time>2020-05-18T16:07:36Z</time>
      </trkpt>
      <trkpt lat="46.05634" lon="6.28894">
        <ele>728.34</ele>
        <time>2020-05-18T16:07:44Z</time>
      </trkpt>
      <trkpt lat="46.05649" lon="6.28918">
        <ele>727.37</ele>
        <time>2020-05-18T16:07:45Z</time>
      </trkpt>
      <trkpt lat="46.05665" lon="6.28935">
        <ele>726.41</ele>
        <time>2020-05-18T16:07:46Z</time>
      </trkpt>
      <trkpt lat="46.05682" lon="6.28953">
        <ele>725.45</ele>
        <time>2020-05-18T16:07:47Z</time>
      </trkpt>
      <trkpt lat="46.05701" lon="6.28965">
        <ele>724.01</ele>
        <time>2020-05-18T16:07:48Z</time>
      </trkpt>
      <trkpt lat="46.05719" lon="6.28978">
        <ele>723.05</ele>
        <time>2020-05-18T16:07:49Z</time>
      </trkpt>
      <trkpt lat="46.05758" lon="6.28996">
        <ele>720.65</ele>
        <time>2020-05-18T16:07:51Z</time>
      </trkpt>
      <trkpt lat="46.05879" lon="6.29003">
        <ele>713.44</ele>
        <time>2020-05-18T16:07:57Z</time>
      </trkpt>
      <trkpt lat="46.06059" lon="6.28945">
        <ele>703.34</ele>
        <time>2020-05-18T16:08:06Z</time>
      </trkpt>
      <trkpt lat="46.06258" lon="6.28878">
        <ele>691.81</ele>
        <time>2020-05-18T16:08:17Z</time>
      </trkpt>
      <trkpt lat="46.06379" lon="6.28846">
        <ele>683.15</ele>
        <time>2020-05-18T16:08:25Z</time>
      </trkpt>
      <trkpt lat="46.06418" lon="6.28838">
        <ele>679.31</ele>
        <time>2020-05-18T16:08:29Z</time>
      </trkpt>
      <trkpt lat="46.06425" lon="6.28837">
        <ele>678.83</ele>
        <time>2020-05-18T16:08:30Z</time>
      </trkpt>
      <trkpt lat="46.06434" lon="6.28858">
        <ele>678.35</ele>
        <time>2020-05-18T16:08:31Z</time>
      </trkpt>
      <trkpt lat="46.06447" lon="6.28856">
        <ele>677.87</ele>
        <time>2020-05-18T16:08:32Z</time>
      </trkpt>
      <trkpt lat="46.06456" lon="6.28849">
        <ele>677.39</ele>
        <time>2020-05-18T16:08:33Z</time>
      </trkpt>
      <trkpt lat="46.06463" lon="6.28831">
        <ele>676.91</ele>
        <time>2020-05-18T16:08:34Z</time>
      </trkpt>
      <trkpt lat="46.06477" lon="6.28827">
        <ele>676.42</ele>
        <time>2020-05-18T16:08:35Z</time>
      </trkpt>
      <trkpt lat="46.06583" lon="6.28772">
        <ele>670.18</ele>
        <time>2020-05-18T16:08:41Z</time>
      </trkpt>
      <trkpt lat="46.06758" lon="6.28678">
        <ele>662.49</ele>
        <time>2020-05-18T16:08:51Z</time>
      </trkpt>
      <trkpt lat="46.06777" lon="6.28675">
        <ele>662.01</ele>
        <time>2020-05-18T16:08:52Z</time>
      </trkpt>
      <trkpt lat="46.06798" lon="6.28672">
        <ele>661.52</ele>
        <time>2020-05-18T16:08:53Z</time>
      </trkpt>
      <trkpt lat="46.06817" lon="6.28677">
        <ele>661.04</ele>
        <time>2020-05-18T16:08:54Z</time>
      </trkpt>
      <trkpt lat="46.06835" lon="6.28681">
        <ele>660.56</ele>
        <time>2020-05-18T16:08:55Z</time>
      </trkpt>
      <trkpt lat="46.06853" lon="6.28686">
        <ele>660.08</ele>
        <time>2020-05-18T16:08:56Z</time>
      </trkpt>
      <trkpt lat="46.06871" lon="6.28695">
        <ele>659.12</ele>
        <time>2020-05-18T16:08:57Z</time>
      </trkpt>
      <trkpt lat="46.06888" lon="6.28706">
        <ele>658.16</ele>
        <time>2020-05-18T16:08:58Z</time>
      </trkpt>
      <trkpt lat="46.06907" lon="6.28716">
        <ele>657.2</ele>
        <time>2020-05-18T16:08:59Z</time>
      </trkpt>
      <trkpt lat="46.07066" lon="6.2881">
        <ele>648.55</ele>
        <time>2020-05-18T16:09:08Z</time>
      </trkpt>
      <trkpt lat="46.07211" lon="6.28826">
        <ele>639.89</ele>
        <time>2020-05-18T16:09:16Z</time>
      </trkpt>
      <trkpt lat="46.07378" lon="6.28874">
        <ele>629.32</ele>
        <time>2020-05-18T16:09:25Z</time>
      </trkpt>
      <trkpt lat="46.07394" lon="6.28888">
        <ele>628.36</ele>
        <time>2020-05-18T16:09:26Z</time>
      </trkpt>
      <trkpt lat="46.07409" lon="6.28903">
        <ele>626.92</ele>
        <time>2020-05-18T16:09:27Z</time>
      </trkpt>
      <trkpt lat="46.07422" lon="6.28923">
        <ele>625.96</ele>
        <time>2020-05-18T16:09:28Z</time>
      </trkpt>
      <trkpt lat="46.07435" lon="6.28943">
        <ele>624.99</ele>
        <time>2020-05-18T16:09:29Z</time>
      </trkpt>
      <trkpt lat="46.07447" lon="6.28963">
        <ele>624.03</ele>
        <time>2020-05-18T16:09:30Z</time>
      </trkpt>
      <trkpt lat="46.07458" lon="6.28985">
        <ele>623.07</ele>
        <time>2020-05-18T16:09:31Z</time>
      </trkpt>
      <trkpt lat="46.07467" lon="6.29009">
        <ele>622.59</ele>
        <time>2020-05-18T16:09:32Z</time>
      </trkpt>
      <trkpt lat="46.07474" lon="6.29034">
        <ele>621.63</ele>
        <time>2020-05-18T16:09:33Z</time>
      </trkpt>
      <trkpt lat="46.0748" lon="6.29059">
        <ele>621.15</ele>
        <time>2020-05-18T16:09:34Z</time>
      </trkpt>
      <trkpt lat="46.07514" lon="6.29184">
        <ele>617.78</ele>
        <time>2020-05-18T16:09:40Z</time>
      </trkpt>
      <trkpt lat="46.0752" lon="6.2921">
        <ele>616.82</ele>
        <time>2020-05-18T16:09:41Z</time>
      </trkpt>
      <trkpt lat="46.07514" lon="6.2923">
        <ele>615.86</ele>
        <time>2020-05-18T16:09:42Z</time>
      </trkpt>
      <trkpt lat="46.07507" lon="6.29252">
        <ele>615.38</ele>
        <time>2020-05-18T16:09:43Z</time>
      </trkpt>
      <trkpt lat="46.07498" lon="6.29277">
        <ele>614.9</ele>
        <time>2020-05-18T16:09:44Z</time>
      </trkpt>
      <trkpt lat="46.07469" lon="6.29364">
        <ele>612.5</ele>
        <time>2020-05-18T16:09:47Z</time>
      </trkpt>
      <trkpt lat="46.07454" lon="6.29392">
        <ele>611.54</ele>
        <time>2020-05-18T16:09:48Z</time>
      </trkpt>
      <trkpt lat="46.07437" lon="6.29419">
        <ele>610.09</ele>
        <time>2020-05-18T16:09:49Z</time>
      </trkpt>
      <trkpt lat="46.07294" lon="6.2963">
        <ele>601.92</ele>
        <time>2020-05-18T16:09:58Z</time>
      </trkpt>
      <trkpt lat="46.07253" lon="6.29682">
        <ele>600.48</ele>
        <time>2020-05-18T16:10:01Z</time>
      </trkpt>
      <trkpt lat="46.07173" lon="6.29768">
        <ele>596.64</ele>
        <time>2020-05-18T16:10:08Z</time>
      </trkpt>
      <trkpt lat="46.07155" lon="6.2979">
        <ele>595.19</ele>
        <time>2020-05-18T16:10:11Z</time>
      </trkpt>
      <trkpt lat="46.07123" lon="6.29849">
        <ele>595.19</ele>
        <time>2020-05-18T16:10:17Z</time>
      </trkpt>
      <trkpt lat="46.07085" lon="6.29985">
        <ele>596.15</ele>
        <time>2020-05-18T16:10:27Z</time>
      </trkpt>
      <trkpt lat="46.07077" lon="6.30039">
        <ele>595.19</ele>
        <time>2020-05-18T16:10:33Z</time>
      </trkpt>
      <trkpt lat="46.07074" lon="6.30047">
        <ele>594.71</ele>
        <time>2020-05-18T16:10:34Z</time>
      </trkpt>
      <trkpt lat="46.07076" lon="6.30052">
        <ele>594.23</ele>
        <time>2020-05-18T16:10:35Z</time>
      </trkpt>
      <trkpt lat="46.07078" lon="6.30057">
        <ele>594.23</ele>
        <time>2020-05-18T16:10:36Z</time>
      </trkpt>
      <trkpt lat="46.07085" lon="6.30077">
        <ele>593.75</ele>
        <time>2020-05-18T16:10:37Z</time>
      </trkpt>
      <trkpt lat="46.07083" lon="6.3009">
        <ele>593.75</ele>
        <time>2020-05-18T16:10:38Z</time>
      </trkpt>
      <trkpt lat="46.0708" lon="6.30102">
        <ele>593.27</ele>
        <time>2020-05-18T16:10:39Z</time>
      </trkpt>
      <trkpt lat="46.07075" lon="6.30114">
        <ele>592.31</ele>
        <time>2020-05-18T16:10:40Z</time>
      </trkpt>
      <trkpt lat="46.07069" lon="6.30127">
        <ele>591.83</ele>
        <time>2020-05-18T16:10:41Z</time>
      </trkpt>
      <trkpt lat="46.07063" lon="6.3014">
        <ele>591.35</ele>
        <time>2020-05-18T16:10:42Z</time>
      </trkpt>
      <trkpt lat="46.07058" lon="6.30154">
        <ele>590.87</ele>
        <time>2020-05-18T16:10:43Z</time>
      </trkpt>
      <trkpt lat="46.07054" lon="6.30172">
        <ele>590.87</ele>
        <time>2020-05-18T16:10:44Z</time>
      </trkpt>
      <trkpt lat="46.07051" lon="6.30187">
        <ele>590.39</ele>
        <time>2020-05-18T16:10:45Z</time>
      </trkpt>
      <trkpt lat="46.07048" lon="6.30202">
        <ele>589.91</ele>
        <time>2020-05-18T16:10:46Z</time>
      </trkpt>
      <trkpt lat="46.07045" lon="6.30215">
        <ele>589.43</ele>
        <time>2020-05-18T16:10:47Z</time>
      </trkpt>
      <trkpt lat="46.07033" lon="6.30229">
        <ele>588.95</ele>
        <time>2020-05-18T16:10:48Z</time>
      </trkpt>
      <trkpt lat="46.07031" lon="6.30238">
        <ele>588.46</ele>
        <time>2020-05-18T16:10:49Z</time>
      </trkpt>
      <trkpt lat="46.0702" lon="6.30243">
        <ele>587.5</ele>
        <time>2020-05-18T16:10:50Z</time>
      </trkpt>
      <trkpt lat="46.07008" lon="6.30249">
        <ele>587.02</ele>
        <time>2020-05-18T16:10:51Z</time>
      </trkpt>
      <trkpt lat="46.06911" lon="6.30296">
        <ele>584.14</ele>
        <time>2020-05-18T16:10:58Z</time>
      </trkpt>
      <trkpt lat="46.06875" lon="6.30314">
        <ele>583.18</ele>
        <time>2020-05-18T16:11:03Z</time>
      </trkpt>
      <trkpt lat="46.06869" lon="6.30317">
        <ele>583.18</ele>
        <time>2020-05-18T16:11:08Z</time>
      </trkpt>
      <trkpt lat="46.06859" lon="6.30321">
        <ele>583.18</ele>
        <time>2020-05-18T16:11:09Z</time>
      </trkpt>
      <trkpt lat="46.06859" lon="6.30332">
        <ele>582.7</ele>
        <time>2020-05-18T16:11:10Z</time>
      </trkpt>
      <trkpt lat="46.06858" lon="6.30346">
        <ele>582.7</ele>
        <time>2020-05-18T16:11:11Z</time>
      </trkpt>
      <trkpt lat="46.06858" lon="6.3036">
        <ele>582.22</ele>
        <time>2020-05-18T16:11:12Z</time>
      </trkpt>
      <trkpt lat="46.06857" lon="6.30376">
        <ele>582.22</ele>
        <time>2020-05-18T16:11:13Z</time>
      </trkpt>
      <trkpt lat="46.06854" lon="6.30392">
        <ele>581.73</ele>
        <time>2020-05-18T16:11:14Z</time>
      </trkpt>
      <trkpt lat="46.06849" lon="6.30407">
        <ele>581.73</ele>
        <time>2020-05-18T16:11:15Z</time>
      </trkpt>
      <trkpt lat="46.06844" lon="6.30421">
        <ele>581.25</ele>
        <time>2020-05-18T16:11:16Z</time>
      </trkpt>
      <trkpt lat="46.06839" lon="6.30435">
        <ele>581.25</ele>
        <time>2020-05-18T16:11:17Z</time>
      </trkpt>
      <trkpt lat="46.06819" lon="6.30493">
        <ele>581.25</ele>
        <time>2020-05-18T16:11:24Z</time>
      </trkpt>
      <trkpt lat="46.06811" lon="6.30516">
        <ele>580.77</ele>
        <time>2020-05-18T16:11:27Z</time>
      </trkpt>
      <trkpt lat="46.06803" lon="6.3054">
        <ele>580.29</ele>
        <time>2020-05-18T16:11:30Z</time>
      </trkpt>
      <trkpt lat="46.068" lon="6.30548">
        <ele>580.29</ele>
        <time>2020-05-18T16:11:31Z</time>
      </trkpt>
      <trkpt lat="46.06797" lon="6.30557">
        <ele>580.29</ele>
        <time>2020-05-18T16:11:32Z</time>
      </trkpt>
      <trkpt lat="46.06791" lon="6.30578">
        <ele>580.77</ele>
        <time>2020-05-18T16:11:34Z</time>
      </trkpt>
      <trkpt lat="46.06787" lon="6.3059">
        <ele>580.77</ele>
        <time>2020-05-18T16:11:35Z</time>
      </trkpt>
      <trkpt lat="46.06756" lon="6.30678">
        <ele>580.29</ele>
        <time>2020-05-18T16:11:42Z</time>
      </trkpt>
      <trkpt lat="46.06709" lon="6.30772">
        <ele>576.45</ele>
        <time>2020-05-18T16:11:49Z</time>
      </trkpt>
      <trkpt lat="46.06645" lon="6.30888">
        <ele>574.53</ele>
        <time>2020-05-18T16:11:58Z</time>
      </trkpt>
      <trkpt lat="46.06642" lon="6.30895">
        <ele>574.53</ele>
        <time>2020-05-18T16:11:59Z</time>
      </trkpt>
      <trkpt lat="46.06636" lon="6.30905">
        <ele>574.04</ele>
        <time>2020-05-18T16:12:00Z</time>
      </trkpt>
      <trkpt lat="46.06645" lon="6.30909">
        <ele>574.04</ele>
        <time>2020-05-18T16:12:01Z</time>
      </trkpt>
      <trkpt lat="46.06649" lon="6.30911">
        <ele>574.04</ele>
        <time>2020-05-18T16:12:02Z</time>
      </trkpt>
      <trkpt lat="46.06653" lon="6.3091">
        <ele>574.04</ele>
        <time>2020-05-18T16:12:03Z</time>
      </trkpt>
      <trkpt lat="46.0666" lon="6.30909">
        <ele>574.04</ele>
        <time>2020-05-18T16:12:04Z</time>
      </trkpt>
      <trkpt lat="46.06668" lon="6.30907">
        <ele>574.04</ele>
        <time>2020-05-18T16:12:05Z</time>
      </trkpt>
      <trkpt lat="46.06682" lon="6.30903">
        <ele>574.04</ele>
        <time>2020-05-18T16:12:07Z</time>
      </trkpt>
      <trkpt lat="46.06692" lon="6.30901">
        <ele>574.04</ele>
        <time>2020-05-18T16:12:09Z</time>
      </trkpt>
      <trkpt lat="46.06696" lon="6.30894">
        <ele>574.04</ele>
        <time>2020-05-18T16:12:10Z</time>
      </trkpt>
      <trkpt lat="46.06699" lon="6.3089">
        <ele>574.04</ele>
        <time>2020-05-18T16:12:11Z</time>
      </trkpt>
      <trkpt lat="46.06736" lon="6.30832">
        <ele>570.68</ele>
        <time>2020-05-18T16:12:19Z</time>
      </trkpt>
      <trkpt lat="46.06745" lon="6.30819">
        <ele>568.76</ele>
        <time>2020-05-18T16:12:21Z</time>
      </trkpt>
      <trkpt lat="46.06748" lon="6.30813">
        <ele>567.8</ele>
        <time>2020-05-18T16:12:22Z</time>
      </trkpt>
      <trkpt lat="46.0675" lon="6.30811">
        <ele>567.32</ele>
        <time>2020-05-18T16:12:23Z</time>
      </trkpt>
      <trkpt lat="46.0675" lon="6.30811">
        <ele>566.35</ele>
        <time>2020-05-18T16:12:24Z</time>
      </trkpt>
      <trkpt lat="46.06751" lon="6.30809">
        <ele>566.35</ele>
        <time>2020-05-18T16:12:25Z</time>
      </trkpt>
      <trkpt lat="46.06751" lon="6.30809">
        <ele>565.87</ele>
        <time>2020-05-18T16:12:26Z</time>
      </trkpt>
      <trkpt lat="46.06751" lon="6.30809">
        <ele>565.39</ele>
        <time>2020-05-18T16:12:45Z</time>
      </trkpt>
      <trkpt lat="46.06751" lon="6.30809">
        <ele>565.39</ele>
        <time>2020-05-18T16:13:04Z</time>
      </trkpt>
    </trkseg>
  </trk>
</gpx>